<?xml version='1.0' encoding='UTF-8'?><gpx version="1.1" creator="JPX - https://github.com/jenetics/jpx" xmlns="http://www.topografix.com/GPX/1/1"><trk><trkseg><trkpt lat="45.72621" lon="8.3714917"><ele>629.0</ele><time>2026-03-28T09:13:02.763Z</time></trkpt><trkpt lat="45.7262983" lon="8.3715933"><ele>629.0</ele><time>2026-03-28T09:13:04.763Z</time></trkpt><trkpt lat="45.7263483" lon="8.3716517"><ele>629.0</ele><time>2026-03-28T09:13:05.763Z</time></trkpt><trkpt lat="45.7264067" lon="8.3717167"><ele>629.0</ele><time>2026-03-28T09:13:06.766Z</time></trkpt><trkpt lat="45.7265383" lon="8.3718317"><ele>629.0</ele><time>2026-03-28T09:13:08.763Z</time></trkpt><trkpt lat="45.7266533" lon="8.3718583"><ele>629.0</ele><time>2026-03-28T09:13:10.763Z</time></trkpt><trkpt lat="45.72674" lon="8.3718117"><ele>629.0</ele><time>2026-03-28T09:13:12.763Z</time></trkpt><trkpt lat="45.7268467" lon="8.3717383"><ele>629.0</ele><time>2026-03-28T09:13:14.763Z</time></trkpt><trkpt lat="45.7269017" lon="8.37168"><ele>629.0</ele><time>2026-03-28T09:13:15.763Z</time></trkpt><trkpt lat="45.726955" lon="8.3716083"><ele>629.0</ele><time>2026-03-28T09:13:16.763Z</time></trkpt><trkpt lat="45.727" lon="8.37152"><ele>629.0</ele><time>2026-03-28T09:13:17.763Z</time></trkpt><trkpt lat="45.72703" lon="8.3714217"><ele>631.6666666666666</ele><time>2026-03-28T09:13:18.766Z</time></trkpt><trkpt lat="45.727055" lon="8.3713283"><ele>634.3333333333333</ele><time>2026-03-28T09:13:19.764Z</time></trkpt><trkpt lat="45.7271267" lon="8.3712033"><ele>637.0</ele><time>2026-03-28T09:13:21.763Z</time></trkpt><trkpt lat="45.7271967" lon="8.37113"><ele>639.6666666666666</ele><time>2026-03-28T09:13:23.763Z</time></trkpt><trkpt lat="45.72729" lon="8.3712067"><ele>642.3333333333334</ele><time>2026-03-28T09:13:26.764Z</time></trkpt><trkpt lat="45.72731" lon="8.3713033"><ele>645.0</ele><time>2026-03-28T09:13:27.763Z</time></trkpt><trkpt lat="45.7273683" lon="8.371625"><ele>645.0</ele><time>2026-03-28T09:13:29.764Z</time></trkpt><trkpt lat="45.727405" lon="8.3717983"><ele>645.0</ele><time>2026-03-28T09:13:30.764Z</time></trkpt><trkpt lat="45.727425" lon="8.37198"><ele>645.0</ele><time>2026-03-28T09:13:31.767Z</time></trkpt><trkpt lat="45.7274367" lon="8.3721467"><ele>645.0</ele><time>2026-03-28T09:13:32.764Z</time></trkpt><trkpt lat="45.7274417" lon="8.3722967"><ele>642.8333333333334</ele><time>2026-03-28T09:13:33.763Z</time></trkpt><trkpt lat="45.7274483" lon="8.372425"><ele>640.6666666666666</ele><time>2026-03-28T09:13:34.764Z</time></trkpt><trkpt lat="45.727455" lon="8.372535"><ele>638.5</ele><time>2026-03-28T09:13:35.764Z</time></trkpt><trkpt lat="45.7274667" lon="8.372625"><ele>636.3333333333333</ele><time>2026-03-28T09:13:36.764Z</time></trkpt><trkpt lat="45.7275017" lon="8.3727683"><ele>634.1666666666666</ele><time>2026-03-28T09:13:38.764Z</time></trkpt><trkpt lat="45.727545" lon="8.37288"><ele>632.0</ele><time>2026-03-28T09:13:40.768Z</time></trkpt><trkpt lat="45.7276033" lon="8.3729383"><ele>632.0</ele><time>2026-03-28T09:13:42.766Z</time></trkpt><trkpt lat="45.727565" lon="8.372865"><ele>632.0</ele><time>2026-03-28T09:13:54.764Z</time></trkpt><trkpt lat="45.727445" lon="8.3725767"><ele>632.0</ele><time>2026-03-28T09:13:58.765Z</time></trkpt><trkpt lat="45.727435" lon="8.372435"><ele>632.0</ele><time>2026-03-28T09:13:59.763Z</time></trkpt><trkpt lat="45.7274317" lon="8.3722817"><ele>634.6</ele><time>2026-03-28T09:14:00.767Z</time></trkpt><trkpt lat="45.727425" lon="8.3721317"><ele>637.2</ele><time>2026-03-28T09:14:01.768Z</time></trkpt><trkpt lat="45.7274167" lon="8.3719967"><ele>639.8</ele><time>2026-03-28T09:14:02.764Z</time></trkpt><trkpt lat="45.7273983" lon="8.3718667"><ele>642.4</ele><time>2026-03-28T09:14:03.767Z</time></trkpt><trkpt lat="45.7273717" lon="8.3717367"><ele>645.0</ele><time>2026-03-28T09:14:04.767Z</time></trkpt><trkpt lat="45.72734" lon="8.3716133"><ele>645.0</ele><time>2026-03-28T09:14:05.766Z</time></trkpt><trkpt lat="45.7273167" lon="8.3715017"><ele>645.0</ele><time>2026-03-28T09:14:06.765Z</time></trkpt><trkpt lat="45.7273" lon="8.3714"><ele>645.0</ele><time>2026-03-28T09:14:07.767Z</time></trkpt><trkpt lat="45.727295" lon="8.3713083"><ele>645.0</ele><time>2026-03-28T09:14:08.765Z</time></trkpt><trkpt lat="45.727275" lon="8.3711683"><ele>645.0</ele><time>2026-03-28T09:14:10.764Z</time></trkpt><trkpt lat="45.7272233" lon="8.3710917"><ele>645.0</ele><time>2026-03-28T09:14:12.765Z</time></trkpt><trkpt lat="45.72714" lon="8.3711017"><ele>645.0</ele><time>2026-03-28T09:14:14.763Z</time></trkpt><trkpt lat="45.7270617" lon="8.3712083"><ele>645.0</ele><time>2026-03-28T09:14:16.764Z</time></trkpt><trkpt lat="45.7269817" lon="8.3714433"><ele>645.0</ele><time>2026-03-28T09:14:19.764Z</time></trkpt><trkpt lat="45.7269433" lon="8.3715167"><ele>645.0</ele><time>2026-03-28T09:14:20.763Z</time></trkpt><trkpt lat="45.7269" lon="8.3716033"><ele>645.0</ele><time>2026-03-28T09:14:21.763Z</time></trkpt><trkpt lat="45.72684" lon="8.3716817"><ele>642.3333333333334</ele><time>2026-03-28T09:14:22.763Z</time></trkpt><trkpt lat="45.7267767" lon="8.37175"><ele>639.6666666666666</ele><time>2026-03-28T09:14:23.764Z</time></trkpt><trkpt lat="45.72671" lon="8.3718117"><ele>637.0</ele><time>2026-03-28T09:14:24.764Z</time></trkpt><trkpt lat="45.72665" lon="8.3718567"><ele>634.3333333333333</ele><time>2026-03-28T09:14:25.764Z</time></trkpt><trkpt lat="45.7265283" lon="8.371845"><ele>631.6666666666666</ele><time>2026-03-28T09:14:27.764Z</time></trkpt><trkpt lat="45.7264567" lon="8.3717967"><ele>629.0</ele><time>2026-03-28T09:14:28.767Z</time></trkpt><trkpt lat="45.7263917" lon="8.3717"><ele>629.0</ele><time>2026-03-28T09:14:29.767Z</time></trkpt><trkpt lat="45.7263217" lon="8.371625"><ele>629.0</ele><time>2026-03-28T09:14:30.763Z</time></trkpt><trkpt lat="45.7262633" lon="8.37156"><ele>629.0</ele><time>2026-03-28T09:14:31.765Z</time></trkpt><trkpt lat="45.726215" lon="8.3714933"><ele>629.0</ele><time>2026-03-28T09:14:32.763Z</time></trkpt><trkpt lat="45.72616" lon="8.3713417"><ele>629.0</ele><time>2026-03-28T09:14:34.764Z</time></trkpt><trkpt lat="45.7261583" lon="8.3711533"><ele>635.0</ele><time>2026-03-28T09:14:36.764Z</time></trkpt><trkpt lat="45.7261817" lon="8.37103"><ele>641.0</ele><time>2026-03-28T09:14:37.764Z</time></trkpt><trkpt lat="45.7262217" lon="8.370725"><ele>647.0</ele><time>2026-03-28T09:14:39.764Z</time></trkpt><trkpt lat="45.7262233" lon="8.37055"><ele>653.0</ele><time>2026-03-28T09:14:40.763Z</time></trkpt><trkpt lat="45.7262217" lon="8.3703933"><ele>656.1666666666666</ele><time>2026-03-28T09:14:41.767Z</time></trkpt><trkpt lat="45.726225" lon="8.37027"><ele>659.3333333333333</ele><time>2026-03-28T09:14:42.764Z</time></trkpt><trkpt lat="45.726235" lon="8.3701633"><ele>662.5</ele><time>2026-03-28T09:14:43.766Z</time></trkpt><trkpt lat="45.726245" lon="8.3700683"><ele>665.6666666666666</ele><time>2026-03-28T09:14:44.764Z</time></trkpt><trkpt lat="45.7262433" lon="8.369905"><ele>668.8333333333334</ele><time>2026-03-28T09:14:46.767Z</time></trkpt><trkpt lat="45.72618" lon="8.3697917"><ele>672.0</ele><time>2026-03-28T09:14:48.763Z</time></trkpt><trkpt lat="45.7261" lon="8.3697633"><ele>668.5</ele><time>2026-03-28T09:14:50.763Z</time></trkpt><trkpt lat="45.7259967" lon="8.3698817"><ele>665.0</ele><time>2026-03-28T09:14:52.765Z</time></trkpt><trkpt lat="45.725905" lon="8.3700317"><ele>661.5</ele><time>2026-03-28T09:14:53.764Z</time></trkpt><trkpt lat="45.72584" lon="8.3701367"><ele>658.0</ele><time>2026-03-28T09:14:54.763Z</time></trkpt><trkpt lat="45.7257767" lon="8.37022"><ele>658.0</ele><time>2026-03-28T09:14:55.764Z</time></trkpt><trkpt lat="45.725715" lon="8.37028"><ele>658.0</ele><time>2026-03-28T09:14:56.763Z</time></trkpt><trkpt lat="45.72565" lon="8.3703083"><ele>658.0</ele><time>2026-03-28T09:14:57.763Z</time></trkpt><trkpt lat="45.7255817" lon="8.3703217"><ele>658.0</ele><time>2026-03-28T09:14:58.764Z</time></trkpt><trkpt lat="45.725445" lon="8.3703817"><ele>658.0</ele><time>2026-03-28T09:15:00.767Z</time></trkpt><trkpt lat="45.7253733" lon="8.3704217"><ele>658.0</ele><time>2026-03-28T09:15:01.765Z</time></trkpt><trkpt lat="45.7252617" lon="8.3704517"><ele>655.4</ele><time>2026-03-28T09:15:03.764Z</time></trkpt><trkpt lat="45.7251683" lon="8.3704183"><ele>652.8</ele><time>2026-03-28T09:15:05.764Z</time></trkpt><trkpt lat="45.7251217" lon="8.3703033"><ele>650.2</ele><time>2026-03-28T09:15:07.764Z</time></trkpt><trkpt lat="45.7251383" lon="8.37019"><ele>647.6</ele><time>2026-03-28T09:15:08.763Z</time></trkpt><trkpt lat="45.725155" lon="8.370045"><ele>645.0</ele><time>2026-03-28T09:15:09.766Z</time></trkpt><trkpt lat="45.7251717" lon="8.369885"><ele>645.0</ele><time>2026-03-28T09:15:10.764Z</time></trkpt><trkpt lat="45.7251833" lon="8.3697317"><ele>645.0</ele><time>2026-03-28T09:15:11.764Z</time></trkpt><trkpt lat="45.725195" lon="8.3695917"><ele>645.0</ele><time>2026-03-28T09:15:12.764Z</time></trkpt><trkpt lat="45.7252" lon="8.3694717"><ele>645.0</ele><time>2026-03-28T09:15:13.764Z</time></trkpt><trkpt lat="45.7252" lon="8.369355"><ele>645.0</ele><time>2026-03-28T09:15:14.763Z</time></trkpt><trkpt lat="45.7251867" lon="8.3692333"><ele>649.2</ele><time>2026-03-28T09:15:15.765Z</time></trkpt><trkpt lat="45.7251567" lon="8.3691117"><ele>653.4</ele><time>2026-03-28T09:15:16.764Z</time></trkpt><trkpt lat="45.72512" lon="8.3689983"><ele>657.5999999999999</ele><time>2026-03-28T09:15:17.763Z</time></trkpt><trkpt lat="45.7250783" lon="8.368905"><ele>661.8</ele><time>2026-03-28T09:15:18.763Z</time></trkpt><trkpt lat="45.7250517" lon="8.3688167"><ele>666.0</ele><time>2026-03-28T09:15:19.764Z</time></trkpt><trkpt lat="45.72505" lon="8.3685333"><ele>669.5</ele><time>2026-03-28T09:15:22.763Z</time></trkpt><trkpt lat="45.72505" lon="8.3684283"><ele>673.0</ele><time>2026-03-28T09:15:23.765Z</time></trkpt><trkpt lat="45.72503" lon="8.36833"><ele>676.5</ele><time>2026-03-28T09:15:24.764Z</time></trkpt><trkpt lat="45.72499" lon="8.3682367"><ele>680.0</ele><time>2026-03-28T09:15:25.765Z</time></trkpt><trkpt lat="45.7249533" lon="8.36815"><ele>683.5</ele><time>2026-03-28T09:15:26.764Z</time></trkpt><trkpt lat="45.7249217" lon="8.3680717"><ele>687.0</ele><time>2026-03-28T09:15:27.764Z</time></trkpt><trkpt lat="45.7248967" lon="8.3679233"><ele>691.1666666666666</ele><time>2026-03-28T09:15:29.767Z</time></trkpt><trkpt lat="45.7249183" lon="8.367795"><ele>695.3333333333334</ele><time>2026-03-28T09:15:31.765Z</time></trkpt><trkpt lat="45.7248867" lon="8.36765"><ele>699.5</ele><time>2026-03-28T09:15:33.766Z</time></trkpt><trkpt lat="45.7248367" lon="8.3675767"><ele>703.6666666666667</ele><time>2026-03-28T09:15:34.763Z</time></trkpt><trkpt lat="45.724775" lon="8.3675"><ele>707.8333333333334</ele><time>2026-03-28T09:15:35.764Z</time></trkpt><trkpt lat="45.7247167" lon="8.3674233"><ele>712.0</ele><time>2026-03-28T09:15:36.763Z</time></trkpt><trkpt lat="45.7246583" lon="8.3673517"><ele>712.0</ele><time>2026-03-28T09:15:37.764Z</time></trkpt><trkpt lat="45.724595" lon="8.3673017"><ele>712.0</ele><time>2026-03-28T09:15:38.768Z</time></trkpt><trkpt lat="45.7245267" lon="8.367275"><ele>712.0</ele><time>2026-03-28T09:15:39.764Z</time></trkpt><trkpt lat="45.7244433" lon="8.3672767"><ele>712.0</ele><time>2026-03-28T09:15:40.764Z</time></trkpt><trkpt lat="45.7242483" lon="8.367375"><ele>712.0</ele><time>2026-03-28T09:15:42.764Z</time></trkpt><trkpt lat="45.72418" lon="8.36741"><ele>713.6666666666667</ele><time>2026-03-28T09:15:43.764Z</time></trkpt><trkpt lat="45.7241183" lon="8.3674367"><ele>715.3333333333334</ele><time>2026-03-28T09:15:44.763Z</time></trkpt><trkpt lat="45.7240283" lon="8.3674183"><ele>717.0</ele><time>2026-03-28T09:15:46.763Z</time></trkpt><trkpt lat="45.7239933" lon="8.3672833"><ele>718.6666666666666</ele><time>2026-03-28T09:15:48.766Z</time></trkpt><trkpt lat="45.7239217" lon="8.3671633"><ele>720.3333333333333</ele><time>2026-03-28T09:15:50.764Z</time></trkpt><trkpt lat="45.7238667" lon="8.367115"><ele>722.0</ele><time>2026-03-28T09:15:51.763Z</time></trkpt><trkpt lat="45.723795" lon="8.3670717"><ele>722.0</ele><time>2026-03-28T09:15:52.766Z</time></trkpt><trkpt lat="45.7237217" lon="8.3670333"><ele>722.0</ele><time>2026-03-28T09:15:53.763Z</time></trkpt><trkpt lat="45.7236567" lon="8.36699"><ele>722.0</ele><time>2026-03-28T09:15:54.763Z</time></trkpt><trkpt lat="45.72361" lon="8.3669117"><ele>722.0</ele><time>2026-03-28T09:15:55.764Z</time></trkpt><trkpt lat="45.72359" lon="8.366775"><ele>722.0</ele><time>2026-03-28T09:15:56.764Z</time></trkpt><trkpt lat="45.7235567" lon="8.3666383"><ele>722.0</ele><time>2026-03-28T09:15:57.764Z</time></trkpt><trkpt lat="45.7235183" lon="8.3664967"><ele>717.75</ele><time>2026-03-28T09:15:58.765Z</time></trkpt><trkpt lat="45.7234933" lon="8.3663567"><ele>713.5</ele><time>2026-03-28T09:15:59.764Z</time></trkpt><trkpt lat="45.7234733" lon="8.3662233"><ele>709.25</ele><time>2026-03-28T09:16:00.764Z</time></trkpt><trkpt lat="45.7234717" lon="8.36609"><ele>705.0</ele><time>2026-03-28T09:16:01.768Z</time></trkpt><trkpt lat="45.72349" lon="8.3658333"><ele>705.0</ele><time>2026-03-28T09:16:03.764Z</time></trkpt><trkpt lat="45.7234867" lon="8.3657017"><ele>705.0</ele><time>2026-03-28T09:16:04.765Z</time></trkpt><trkpt lat="45.7234617" lon="8.365555"><ele>705.0</ele><time>2026-03-28T09:16:05.767Z</time></trkpt><trkpt lat="45.723435" lon="8.3654117"><ele>705.0</ele><time>2026-03-28T09:16:06.764Z</time></trkpt><trkpt lat="45.7233917" lon="8.3652817"><ele>705.0</ele><time>2026-03-28T09:16:07.766Z</time></trkpt><trkpt lat="45.7233483" lon="8.3651783"><ele>708.1428571428571</ele><time>2026-03-28T09:16:08.763Z</time></trkpt><trkpt lat="45.7233217" lon="8.3650883"><ele>711.2857142857142</ele><time>2026-03-28T09:16:09.763Z</time></trkpt><trkpt lat="45.723315" lon="8.364985"><ele>714.4285714285713</ele><time>2026-03-28T09:16:10.764Z</time></trkpt><trkpt lat="45.72332" lon="8.3648783"><ele>717.5714285714286</ele><time>2026-03-28T09:16:11.763Z</time></trkpt><trkpt lat="45.7233183" lon="8.3647667"><ele>720.7142857142858</ele><time>2026-03-28T09:16:12.765Z</time></trkpt><trkpt lat="45.7232983" lon="8.364665"><ele>723.8571428571428</ele><time>2026-03-28T09:16:13.764Z</time></trkpt><trkpt lat="45.7232683" lon="8.364565"><ele>727.0</ele><time>2026-03-28T09:16:14.763Z</time></trkpt><trkpt lat="45.7232183" lon="8.36447"><ele>730.1666666666667</ele><time>2026-03-28T09:16:15.767Z</time></trkpt><trkpt lat="45.7231633" lon="8.3643883"><ele>733.3333333333334</ele><time>2026-03-28T09:16:16.764Z</time></trkpt><trkpt lat="45.723115" lon="8.3643117"><ele>736.5</ele><time>2026-03-28T09:16:17.765Z</time></trkpt><trkpt lat="45.7230683" lon="8.3642333"><ele>739.6666666666666</ele><time>2026-03-28T09:16:18.764Z</time></trkpt><trkpt lat="45.723035" lon="8.36413"><ele>742.8333333333333</ele><time>2026-03-28T09:16:19.764Z</time></trkpt><trkpt lat="45.723005" lon="8.3640117"><ele>746.0</ele><time>2026-03-28T09:16:20.763Z</time></trkpt><trkpt lat="45.722965" lon="8.363885"><ele>747.5999999999999</ele><time>2026-03-28T09:16:21.766Z</time></trkpt><trkpt lat="45.7229183" lon="8.3637567"><ele>749.2</ele><time>2026-03-28T09:16:22.764Z</time></trkpt><trkpt lat="45.722835" lon="8.363545"><ele>750.8</ele><time>2026-03-28T09:16:24.764Z</time></trkpt><trkpt lat="45.7227933" lon="8.3634717"><ele>752.4000000000001</ele><time>2026-03-28T09:16:25.765Z</time></trkpt><trkpt lat="45.72274" lon="8.363415"><ele>754.0</ele><time>2026-03-28T09:16:26.764Z</time></trkpt><trkpt lat="45.7226183" lon="8.36337"><ele>754.0</ele><time>2026-03-28T09:16:28.765Z</time></trkpt><trkpt lat="45.7225433" lon="8.363425"><ele>754.0</ele><time>2026-03-28T09:16:29.764Z</time></trkpt><trkpt lat="45.7224767" lon="8.36345"><ele>754.0</ele><time>2026-03-28T09:16:30.763Z</time></trkpt><trkpt lat="45.7223583" lon="8.36344"><ele>754.0</ele><time>2026-03-28T09:16:32.767Z</time></trkpt><trkpt lat="45.7223017" lon="8.3633983"><ele>754.0</ele><time>2026-03-28T09:16:33.763Z</time></trkpt><trkpt lat="45.7222467" lon="8.363345"><ele>754.0</ele><time>2026-03-28T09:16:34.765Z</time></trkpt><trkpt lat="45.72219" lon="8.3633017"><ele>753.9999999999999</ele><time>2026-03-28T09:16:35.763Z</time></trkpt><trkpt lat="45.7221267" lon="8.36327"><ele>754.0</ele><time>2026-03-28T09:16:36.767Z</time></trkpt><trkpt lat="45.7220517" lon="8.3632667"><ele>754.0</ele><time>2026-03-28T09:16:37.768Z</time></trkpt><trkpt lat="45.72198" lon="8.363295"><ele>754.0</ele><time>2026-03-28T09:16:38.763Z</time></trkpt><trkpt lat="45.7219067" lon="8.3633133"><ele>754.0</ele><time>2026-03-28T09:16:39.765Z</time></trkpt><trkpt lat="45.721835" lon="8.3633083"><ele>753.9999999999999</ele><time>2026-03-28T09:16:40.767Z</time></trkpt><trkpt lat="45.7217533" lon="8.3632733"><ele>754.0</ele><time>2026-03-28T09:16:41.763Z</time></trkpt><trkpt lat="45.72168" lon="8.3631983"><ele>750.5</ele><time>2026-03-28T09:16:42.764Z</time></trkpt><trkpt lat="45.7216267" lon="8.363105"><ele>747.0</ele><time>2026-03-28T09:16:43.766Z</time></trkpt><trkpt lat="45.7215267" lon="8.3628817"><ele>743.5</ele><time>2026-03-28T09:16:46.764Z</time></trkpt><trkpt lat="45.7214333" lon="8.36278"><ele>740.0</ele><time>2026-03-28T09:16:48.765Z</time></trkpt><trkpt lat="45.721325" lon="8.3627333"><ele>740.0</ele><time>2026-03-28T09:16:50.764Z</time></trkpt><trkpt lat="45.7212083" lon="8.3628133"><ele>740.0</ele><time>2026-03-28T09:16:52.766Z</time></trkpt><trkpt lat="45.7211567" lon="8.3629217"><ele>740.0</ele><time>2026-03-28T09:16:53.763Z</time></trkpt><trkpt lat="45.7211133" lon="8.3631283"><ele>740.0</ele><time>2026-03-28T09:16:54.764Z</time></trkpt><trkpt lat="45.72111" lon="8.3633"><ele>740.0</ele><time>2026-03-28T09:16:55.764Z</time></trkpt><trkpt lat="45.7211083" lon="8.3634483"><ele>740.0</ele><time>2026-03-28T09:16:56.763Z</time></trkpt><trkpt lat="45.7210983" lon="8.3635867"><ele>740.0</ele><time>2026-03-28T09:16:57.765Z</time></trkpt><trkpt lat="45.7210783" lon="8.3637033"><ele>740.0</ele><time>2026-03-28T09:16:58.767Z</time></trkpt><trkpt lat="45.721045" lon="8.3638017"><ele>740.0</ele><time>2026-03-28T09:16:59.767Z</time></trkpt><trkpt lat="45.7210017" lon="8.36388"><ele>740.0</ele><time>2026-03-28T09:17:00.764Z</time></trkpt><trkpt lat="45.7208833" lon="8.3639633"><ele>736.75</ele><time>2026-03-28T09:17:02.763Z</time></trkpt><trkpt lat="45.7207917" lon="8.363985"><ele>733.5</ele><time>2026-03-28T09:17:03.763Z</time></trkpt><trkpt lat="45.7207067" lon="8.36401"><ele>730.25</ele><time>2026-03-28T09:17:04.765Z</time></trkpt><trkpt lat="45.7205233" lon="8.3639917"><ele>727.0</ele><time>2026-03-28T09:17:07.765Z</time></trkpt><trkpt lat="45.7204333" lon="8.3638683"><ele>727.0</ele><time>2026-03-28T09:17:09.767Z</time></trkpt><trkpt lat="45.7203333" lon="8.363845"><ele>727.0</ele><time>2026-03-28T09:17:11.764Z</time></trkpt><trkpt lat="45.72025" lon="8.3639317"><ele>727.0</ele><time>2026-03-28T09:17:13.766Z</time></trkpt><trkpt lat="45.7202067" lon="8.3639983"><ele>727.0</ele><time>2026-03-28T09:17:14.763Z</time></trkpt><trkpt lat="45.720155" lon="8.3640717"><ele>727.0</ele><time>2026-03-28T09:17:15.764Z</time></trkpt><trkpt lat="45.7200917" lon="8.3641483"><ele>727.0</ele><time>2026-03-28T09:17:16.764Z</time></trkpt><trkpt lat="45.7200233" lon="8.36422"><ele>729.0</ele><time>2026-03-28T09:17:17.764Z</time></trkpt><trkpt lat="45.7199417" lon="8.3642683"><ele>731.0</ele><time>2026-03-28T09:17:18.766Z</time></trkpt><trkpt lat="45.7198517" lon="8.3642933"><ele>733.0</ele><time>2026-03-28T09:17:19.765Z</time></trkpt><trkpt lat="45.7197633" lon="8.3642833"><ele>735.0</ele><time>2026-03-28T09:17:20.763Z</time></trkpt><trkpt lat="45.7196883" lon="8.364255"><ele>737.0</ele><time>2026-03-28T09:17:21.764Z</time></trkpt><trkpt lat="45.7196333" lon="8.36421"><ele>739.0</ele><time>2026-03-28T09:17:22.765Z</time></trkpt><trkpt lat="45.719585" lon="8.3640833"><ele>739.0</ele><time>2026-03-28T09:17:24.765Z</time></trkpt><trkpt lat="45.71961" lon="8.3639133"><ele>739.0</ele><time>2026-03-28T09:17:26.766Z</time></trkpt><trkpt lat="45.7196633" lon="8.3636767"><ele>739.0</ele><time>2026-03-28T09:17:28.769Z</time></trkpt><trkpt lat="45.7196817" lon="8.3635583"><ele>739.0</ele><time>2026-03-28T09:17:29.766Z</time></trkpt><trkpt lat="45.719685" lon="8.363455"><ele>741.2857142857143</ele><time>2026-03-28T09:17:30.767Z</time></trkpt><trkpt lat="45.719675" lon="8.363355"><ele>743.5714285714287</ele><time>2026-03-28T09:17:31.764Z</time></trkpt><trkpt lat="45.7196483" lon="8.36327"><ele>745.8571428571429</ele><time>2026-03-28T09:17:32.764Z</time></trkpt><trkpt lat="45.7196033" lon="8.3632"><ele>748.1428571428571</ele><time>2026-03-28T09:17:33.763Z</time></trkpt><trkpt lat="45.7195533" lon="8.3631267"><ele>750.4285714285714</ele><time>2026-03-28T09:17:34.764Z</time></trkpt><trkpt lat="45.7194967" lon="8.3630583"><ele>752.7142857142857</ele><time>2026-03-28T09:17:35.764Z</time></trkpt><trkpt lat="45.719435" lon="8.3630017"><ele>755.0</ele><time>2026-03-28T09:17:36.765Z</time></trkpt><trkpt lat="45.7193617" lon="8.362965"><ele>755.0</ele><time>2026-03-28T09:17:37.764Z</time></trkpt><trkpt lat="45.7192867" lon="8.3629433"><ele>755.0</ele><time>2026-03-28T09:17:38.763Z</time></trkpt><trkpt lat="45.7192217" lon="8.3629233"><ele>755.0</ele><time>2026-03-28T09:17:39.766Z</time></trkpt><trkpt lat="45.7191633" lon="8.3628833"><ele>755.0</ele><time>2026-03-28T09:17:40.764Z</time></trkpt><trkpt lat="45.71911" lon="8.362825"><ele>755.0</ele><time>2026-03-28T09:17:41.765Z</time></trkpt><trkpt lat="45.7190567" lon="8.362725"><ele>755.0</ele><time>2026-03-28T09:17:42.764Z</time></trkpt><trkpt lat="45.718995" lon="8.3626217"><ele>755.0</ele><time>2026-03-28T09:17:43.765Z</time></trkpt><trkpt lat="45.718925" lon="8.3625117"><ele>755.0</ele><time>2026-03-28T09:17:44.764Z</time></trkpt><trkpt lat="45.71886" lon="8.362395"><ele>755.0</ele><time>2026-03-28T09:17:45.763Z</time></trkpt><trkpt lat="45.7188067" lon="8.3622783"><ele>755.0</ele><time>2026-03-28T09:17:46.764Z</time></trkpt><trkpt lat="45.7187667" lon="8.3621717"><ele>755.0</ele><time>2026-03-28T09:17:47.766Z</time></trkpt><trkpt lat="45.718675" lon="8.3620283"><ele>757.0</ele><time>2026-03-28T09:17:49.765Z</time></trkpt><trkpt lat="45.7185583" lon="8.3619717"><ele>759.0</ele><time>2026-03-28T09:17:51.764Z</time></trkpt><trkpt lat="45.71847" lon="8.3620033"><ele>761.0</ele><time>2026-03-28T09:17:52.763Z</time></trkpt><trkpt lat="45.7183567" lon="8.3620733"><ele>763.0</ele><time>2026-03-28T09:17:53.764Z</time></trkpt><trkpt lat="45.718235" lon="8.3621333"><ele>763.0</ele><time>2026-03-28T09:17:54.766Z</time></trkpt><trkpt lat="45.7181183" lon="8.3621767"><ele>763.0</ele><time>2026-03-28T09:17:55.764Z</time></trkpt><trkpt lat="45.7180067" lon="8.3622017"><ele>763.0</ele><time>2026-03-28T09:17:56.765Z</time></trkpt><trkpt lat="45.7179017" lon="8.3622267"><ele>763.0</ele><time>2026-03-28T09:17:57.765Z</time></trkpt><trkpt lat="45.717815" lon="8.362235"><ele>763.0</ele><time>2026-03-28T09:17:58.764Z</time></trkpt><trkpt lat="45.71774" lon="8.362235"><ele>757.4</ele><time>2026-03-28T09:17:59.765Z</time></trkpt><trkpt lat="45.717675" lon="8.3622167"><ele>751.8</ele><time>2026-03-28T09:18:00.766Z</time></trkpt><trkpt lat="45.717575" lon="8.3621017"><ele>746.2</ele><time>2026-03-28T09:18:02.763Z</time></trkpt><trkpt lat="45.7175467" lon="8.3619833"><ele>740.6</ele><time>2026-03-28T09:18:03.763Z</time></trkpt><trkpt lat="45.7175333" lon="8.36183"><ele>735.0</ele><time>2026-03-28T09:18:04.763Z</time></trkpt><trkpt lat="45.7175167" lon="8.361685"><ele>735.0</ele><time>2026-03-28T09:18:05.764Z</time></trkpt><trkpt lat="45.7174883" lon="8.3615517"><ele>735.0</ele><time>2026-03-28T09:18:06.763Z</time></trkpt><trkpt lat="45.7174467" lon="8.3614383"><ele>735.0</ele><time>2026-03-28T09:18:07.764Z</time></trkpt><trkpt lat="45.7173883" lon="8.36134"><ele>735.0</ele><time>2026-03-28T09:18:08.763Z</time></trkpt><trkpt lat="45.7172367" lon="8.3611383"><ele>737.8333333333334</ele><time>2026-03-28T09:18:10.764Z</time></trkpt><trkpt lat="45.7171617" lon="8.36104"><ele>740.6666666666666</ele><time>2026-03-28T09:18:11.763Z</time></trkpt><trkpt lat="45.7170917" lon="8.36095"><ele>743.5</ele><time>2026-03-28T09:18:12.766Z</time></trkpt><trkpt lat="45.71703" lon="8.3608667"><ele>746.3333333333333</ele><time>2026-03-28T09:18:13.764Z</time></trkpt><trkpt lat="45.7169883" lon="8.3607867"><ele>749.1666666666666</ele><time>2026-03-28T09:18:14.763Z</time></trkpt><trkpt lat="45.71694" lon="8.3606683"><ele>752.0</ele><time>2026-03-28T09:18:16.764Z</time></trkpt><trkpt lat="45.716955" lon="8.3605667"><ele>750.8</ele><time>2026-03-28T09:18:18.765Z</time></trkpt><trkpt lat="45.7170433" lon="8.360455"><ele>749.6</ele><time>2026-03-28T09:18:20.763Z</time></trkpt><trkpt lat="45.7171217" lon="8.3603933"><ele>748.4</ele><time>2026-03-28T09:18:21.765Z</time></trkpt><trkpt lat="45.7172183" lon="8.3603417"><ele>747.1999999999999</ele><time>2026-03-28T09:18:22.764Z</time></trkpt><trkpt lat="45.7173117" lon="8.3602983"><ele>746.0</ele><time>2026-03-28T09:18:23.763Z</time></trkpt><trkpt lat="45.7173917" lon="8.3602617"><ele>746.0</ele><time>2026-03-28T09:18:24.763Z</time></trkpt><trkpt lat="45.7174517" lon="8.360225"><ele>746.0</ele><time>2026-03-28T09:18:25.765Z</time></trkpt><trkpt lat="45.7175167" lon="8.3601933"><ele>746.0</ele><time>2026-03-28T09:18:26.766Z</time></trkpt><trkpt lat="45.7175933" lon="8.3601"><ele>746.0</ele><time>2026-03-28T09:18:28.763Z</time></trkpt><trkpt lat="45.7175967" lon="8.3599817"><ele>746.0</ele><time>2026-03-28T09:18:30.765Z</time></trkpt><trkpt lat="45.7174683" lon="8.3597817"><ele>746.0</ele><time>2026-03-28T09:18:33.763Z</time></trkpt><trkpt lat="45.7174133" lon="8.3597067"><ele>746.0</ele><time>2026-03-28T09:18:34.764Z</time></trkpt><trkpt lat="45.7173633" lon="8.359615"><ele>746.0</ele><time>2026-03-28T09:18:35.764Z</time></trkpt><trkpt lat="45.717315" lon="8.3595383"><ele>746.0</ele><time>2026-03-28T09:18:36.765Z</time></trkpt><trkpt lat="45.7172767" lon="8.3594667"><ele>746.0</ele><time>2026-03-28T09:18:37.764Z</time></trkpt><trkpt lat="45.7172367" lon="8.3593267"><ele>746.0</ele><time>2026-03-28T09:18:39.768Z</time></trkpt><trkpt lat="45.7172517" lon="8.3592017"><ele>748.3333333333333</ele><time>2026-03-28T09:18:41.763Z</time></trkpt><trkpt lat="45.7172683" lon="8.3590417"><ele>750.6666666666666</ele><time>2026-03-28T09:18:43.764Z</time></trkpt><trkpt lat="45.7172933" lon="8.3589467"><ele>753.0</ele><time>2026-03-28T09:18:44.763Z</time></trkpt><trkpt lat="45.717325" lon="8.3588433"><ele>755.3333333333334</ele><time>2026-03-28T09:18:45.764Z</time></trkpt><trkpt lat="45.7173517" lon="8.3587433"><ele>757.6666666666667</ele><time>2026-03-28T09:18:46.764Z</time></trkpt><trkpt lat="45.7173583" lon="8.3586333"><ele>760.0</ele><time>2026-03-28T09:18:47.764Z</time></trkpt><trkpt lat="45.717335" lon="8.3585367"><ele>759.6</ele><time>2026-03-28T09:18:48.765Z</time></trkpt><trkpt lat="45.7172983" lon="8.3584433"><ele>759.2</ele><time>2026-03-28T09:18:49.764Z</time></trkpt><trkpt lat="45.71725" lon="8.3583583"><ele>758.8</ele><time>2026-03-28T09:18:50.763Z</time></trkpt><trkpt lat="45.7172033" lon="8.3582833"><ele>758.4</ele><time>2026-03-28T09:18:51.764Z</time></trkpt><trkpt lat="45.71702" lon="8.3582617"><ele>758.0</ele><time>2026-03-28T09:18:53.765Z</time></trkpt><trkpt lat="45.7168483" lon="8.3583333"><ele>758.0</ele><time>2026-03-28T09:18:54.764Z</time></trkpt><trkpt lat="45.7167067" lon="8.358395"><ele>758.0</ele><time>2026-03-28T09:18:55.767Z</time></trkpt><trkpt lat="45.716585" lon="8.3584333"><ele>758.0</ele><time>2026-03-28T09:18:56.764Z</time></trkpt><trkpt lat="45.71649" lon="8.358455"><ele>758.0</ele><time>2026-03-28T09:18:57.763Z</time></trkpt><trkpt lat="45.7164117" lon="8.358455"><ele>758.0</ele><time>2026-03-28T09:18:58.763Z</time></trkpt><trkpt lat="45.7163417" lon="8.3584333"><ele>758.0</ele><time>2026-03-28T09:18:59.767Z</time></trkpt><trkpt lat="45.71624" lon="8.3583367"><ele>758.0</ele><time>2026-03-28T09:19:01.765Z</time></trkpt><trkpt lat="45.71619" lon="8.358245"><ele>758.0</ele><time>2026-03-28T09:19:02.763Z</time></trkpt><trkpt lat="45.7161617" lon="8.3581417"><ele>758.0</ele><time>2026-03-28T09:19:03.764Z</time></trkpt><trkpt lat="45.7161383" lon="8.3580367"><ele>758.0</ele><time>2026-03-28T09:19:04.765Z</time></trkpt><trkpt lat="45.7161283" lon="8.357915"><ele>758.0</ele><time>2026-03-28T09:19:05.763Z</time></trkpt><trkpt lat="45.7161067" lon="8.3578167"><ele>758.8</ele><time>2026-03-28T09:19:06.765Z</time></trkpt><trkpt lat="45.7160467" lon="8.3576817"><ele>759.5999999999999</ele><time>2026-03-28T09:19:08.763Z</time></trkpt><trkpt lat="45.7159833" lon="8.357625"><ele>760.4000000000001</ele><time>2026-03-28T09:19:10.764Z</time></trkpt><trkpt lat="45.7159183" lon="8.35764"><ele>761.2</ele><time>2026-03-28T09:19:11.763Z</time></trkpt><trkpt lat="45.7158567" lon="8.35766"><ele>762.0</ele><time>2026-03-28T09:19:12.765Z</time></trkpt><trkpt lat="45.7156483" lon="8.3575067"><ele>762.0</ele><time>2026-03-28T09:19:16.765Z</time></trkpt><trkpt lat="45.715585" lon="8.3574217"><ele>762.0</ele><time>2026-03-28T09:19:17.764Z</time></trkpt><trkpt lat="45.7155067" lon="8.35734"><ele>762.0</ele><time>2026-03-28T09:19:18.764Z</time></trkpt><trkpt lat="45.7154333" lon="8.3572617"><ele>762.0</ele><time>2026-03-28T09:19:19.765Z</time></trkpt><trkpt lat="45.7153667" lon="8.357185"><ele>762.0</ele><time>2026-03-28T09:19:20.763Z</time></trkpt><trkpt lat="45.71532" lon="8.3571183"><ele>762.0</ele><time>2026-03-28T09:19:21.763Z</time></trkpt><trkpt lat="45.7152667" lon="8.35697"><ele>762.0</ele><time>2026-03-28T09:19:23.764Z</time></trkpt><trkpt lat="45.715235" lon="8.3568117"><ele>762.0</ele><time>2026-03-28T09:19:25.765Z</time></trkpt><trkpt lat="45.71524" lon="8.3566333"><ele>762.0</ele><time>2026-03-28T09:19:27.763Z</time></trkpt><trkpt lat="45.7152467" lon="8.3564783"><ele>762.0</ele><time>2026-03-28T09:19:29.763Z</time></trkpt><trkpt lat="45.715255" lon="8.3563467"><ele>762.0</ele><time>2026-03-28T09:19:31.767Z</time></trkpt><trkpt lat="45.715245" lon="8.3561983"><ele>762.0</ele><time>2026-03-28T09:19:33.763Z</time></trkpt><trkpt lat="45.7153133" lon="8.35601"><ele>762.0</ele><time>2026-03-28T09:19:37.766Z</time></trkpt><trkpt lat="45.715425" lon="8.3560317"><ele>762.0</ele><time>2026-03-28T09:19:39.764Z</time></trkpt><trkpt lat="45.7154933" lon="8.356045"><ele>762.0</ele><time>2026-03-28T09:19:40.764Z</time></trkpt><trkpt lat="45.715575" lon="8.356045"><ele>762.0</ele><time>2026-03-28T09:19:41.766Z</time></trkpt><trkpt lat="45.71565" lon="8.356025"><ele>762.0</ele><time>2026-03-28T09:19:42.767Z</time></trkpt><trkpt lat="45.7157167" lon="8.3559783"><ele>762.0</ele><time>2026-03-28T09:19:43.764Z</time></trkpt><trkpt lat="45.71579" lon="8.3559183"><ele>762.0</ele><time>2026-03-28T09:19:44.763Z</time></trkpt><trkpt lat="45.7158633" lon="8.355835"><ele>762.0</ele><time>2026-03-28T09:19:45.764Z</time></trkpt><trkpt lat="45.71593" lon="8.355755"><ele>762.0</ele><time>2026-03-28T09:19:46.764Z</time></trkpt><trkpt lat="45.715985" lon="8.3556867"><ele>762.0</ele><time>2026-03-28T09:19:47.764Z</time></trkpt><trkpt lat="45.7160967" lon="8.3556183"><ele>763.1666666666666</ele><time>2026-03-28T09:19:49.765Z</time></trkpt><trkpt lat="45.716165" lon="8.35562"><ele>764.3333333333333</ele><time>2026-03-28T09:19:50.764Z</time></trkpt><trkpt lat="45.7162383" lon="8.35563"><ele>765.5</ele><time>2026-03-28T09:19:51.765Z</time></trkpt><trkpt lat="45.7163233" lon="8.3556433"><ele>766.6666666666666</ele><time>2026-03-28T09:19:52.764Z</time></trkpt><trkpt lat="45.7164083" lon="8.35564"><ele>767.8333333333333</ele><time>2026-03-28T09:19:53.763Z</time></trkpt><trkpt lat="45.71649" lon="8.3556467"><ele>769.0</ele><time>2026-03-28T09:19:54.764Z</time></trkpt><trkpt lat="45.71664" lon="8.3557233"><ele>768.9999999999999</ele><time>2026-03-28T09:19:56.764Z</time></trkpt><trkpt lat="45.71671" lon="8.355765"><ele>769.0</ele><time>2026-03-28T09:19:57.764Z</time></trkpt><trkpt lat="45.716785" lon="8.3558017"><ele>769.0</ele><time>2026-03-28T09:19:58.765Z</time></trkpt><trkpt lat="45.716865" lon="8.3558483"><ele>769.0</ele><time>2026-03-28T09:19:59.763Z</time></trkpt><trkpt lat="45.7169417" lon="8.355895"><ele>768.9999999999999</ele><time>2026-03-28T09:20:00.764Z</time></trkpt><trkpt lat="45.7170133" lon="8.3559217"><ele>769.0</ele><time>2026-03-28T09:20:01.765Z</time></trkpt><trkpt lat="45.71708" lon="8.3559217"><ele>769.1428571428571</ele><time>2026-03-28T09:20:02.764Z</time></trkpt><trkpt lat="45.71715" lon="8.3558917"><ele>769.2857142857143</ele><time>2026-03-28T09:20:03.764Z</time></trkpt><trkpt lat="45.7172083" lon="8.3558467"><ele>769.4285714285714</ele><time>2026-03-28T09:20:04.764Z</time></trkpt><trkpt lat="45.71726" lon="8.35579"><ele>769.5714285714286</ele><time>2026-03-28T09:20:05.764Z</time></trkpt><trkpt lat="45.7172983" lon="8.3557183"><ele>769.7142857142858</ele><time>2026-03-28T09:20:06.763Z</time></trkpt><trkpt lat="45.71732" lon="8.35563"><ele>769.8571428571429</ele><time>2026-03-28T09:20:07.764Z</time></trkpt><trkpt lat="45.7173033" lon="8.3555067"><ele>770.0</ele><time>2026-03-28T09:20:08.764Z</time></trkpt><trkpt lat="45.7172817" lon="8.355395"><ele>766.0</ele><time>2026-03-28T09:20:09.765Z</time></trkpt><trkpt lat="45.7172717" lon="8.3553033"><ele>762.0</ele><time>2026-03-28T09:20:10.763Z</time></trkpt><trkpt lat="45.7173" lon="8.3551317"><ele>758.0</ele><time>2026-03-28T09:20:12.764Z</time></trkpt><trkpt lat="45.717405" lon="8.3550233"><ele>754.0</ele><time>2026-03-28T09:20:14.764Z</time></trkpt><trkpt lat="45.71748" lon="8.35496"><ele>750.0</ele><time>2026-03-28T09:20:15.765Z</time></trkpt><trkpt lat="45.7176317" lon="8.35478"><ele>749.8333333333334</ele><time>2026-03-28T09:20:17.764Z</time></trkpt><trkpt lat="45.717705" lon="8.354685"><ele>749.6666666666666</ele><time>2026-03-28T09:20:18.764Z</time></trkpt><trkpt lat="45.7177717" lon="8.3546"><ele>749.5</ele><time>2026-03-28T09:20:19.764Z</time></trkpt><trkpt lat="45.7178383" lon="8.3545267"><ele>749.3333333333333</ele><time>2026-03-28T09:20:20.763Z</time></trkpt><trkpt lat="45.7179083" lon="8.35447"><ele>749.1666666666666</ele><time>2026-03-28T09:20:21.764Z</time></trkpt><trkpt lat="45.717985" lon="8.3544417"><ele>749.0</ele><time>2026-03-28T09:20:22.765Z</time></trkpt><trkpt lat="45.7180483" lon="8.3544083"><ele>749.0</ele><time>2026-03-28T09:20:23.764Z</time></trkpt><trkpt lat="45.7181517" lon="8.354305"><ele>749.0</ele><time>2026-03-28T09:20:25.765Z</time></trkpt><trkpt lat="45.718195" lon="8.3542233"><ele>749.0</ele><time>2026-03-28T09:20:26.764Z</time></trkpt><trkpt lat="45.7182333" lon="8.3541367"><ele>749.0</ele><time>2026-03-28T09:20:27.768Z</time></trkpt><trkpt lat="45.7182717" lon="8.35402"><ele>749.0</ele><time>2026-03-28T09:20:28.766Z</time></trkpt><trkpt lat="45.7183017" lon="8.3538783"><ele>745.8000000000001</ele><time>2026-03-28T09:20:29.763Z</time></trkpt><trkpt lat="45.71833" lon="8.3537183"><ele>742.6</ele><time>2026-03-28T09:20:30.767Z</time></trkpt><trkpt lat="45.718345" lon="8.353555"><ele>739.4</ele><time>2026-03-28T09:20:31.769Z</time></trkpt><trkpt lat="45.7183567" lon="8.3533983"><ele>736.2</ele><time>2026-03-28T09:20:32.764Z</time></trkpt><trkpt lat="45.7183567" lon="8.3532433"><ele>733.0</ele><time>2026-03-28T09:20:33.765Z</time></trkpt><trkpt lat="45.7183583" lon="8.353095"><ele>730.8</ele><time>2026-03-28T09:20:34.763Z</time></trkpt><trkpt lat="45.7183717" lon="8.3529517"><ele>728.5999999999999</ele><time>2026-03-28T09:20:35.765Z</time></trkpt><trkpt lat="45.7183883" lon="8.352825"><ele>726.4000000000001</ele><time>2026-03-28T09:20:36.766Z</time></trkpt><trkpt lat="45.71842" lon="8.3525883"><ele>724.2</ele><time>2026-03-28T09:20:38.763Z</time></trkpt><trkpt lat="45.7184383" lon="8.3524683"><ele>722.0</ele><time>2026-03-28T09:20:39.763Z</time></trkpt><trkpt lat="45.71845" lon="8.3523417"><ele>722.0</ele><time>2026-03-28T09:20:40.766Z</time></trkpt><trkpt lat="45.7184533" lon="8.3522217"><ele>722.0</ele><time>2026-03-28T09:20:41.764Z</time></trkpt><trkpt lat="45.7184617" lon="8.352105"><ele>722.0</ele><time>2026-03-28T09:20:42.764Z</time></trkpt><trkpt lat="45.71848" lon="8.351995"><ele>722.0</ele><time>2026-03-28T09:20:43.763Z</time></trkpt><trkpt lat="45.7185133" lon="8.3518983"><ele>722.0</ele><time>2026-03-28T09:20:44.763Z</time></trkpt><trkpt lat="45.7185583" lon="8.3518083"><ele>722.0</ele><time>2026-03-28T09:20:45.763Z</time></trkpt><trkpt lat="45.71862" lon="8.3517333"><ele>723.5</ele><time>2026-03-28T09:20:46.765Z</time></trkpt><trkpt lat="45.7186867" lon="8.35167"><ele>725.0</ele><time>2026-03-28T09:20:47.763Z</time></trkpt><trkpt lat="45.7187717" lon="8.351635"><ele>726.5</ele><time>2026-03-28T09:20:48.763Z</time></trkpt><trkpt lat="45.7188533" lon="8.3516083"><ele>728.0</ele><time>2026-03-28T09:20:49.764Z</time></trkpt><trkpt lat="45.7189233" lon="8.3515967"><ele>729.5</ele><time>2026-03-28T09:20:50.765Z</time></trkpt><trkpt lat="45.7189917" lon="8.3515733"><ele>731.0</ele><time>2026-03-28T09:20:51.763Z</time></trkpt><trkpt lat="45.7190967" lon="8.3514733"><ele>731.0</ele><time>2026-03-28T09:20:53.763Z</time></trkpt><trkpt lat="45.7191283" lon="8.351385"><ele>731.0</ele><time>2026-03-28T09:20:54.765Z</time></trkpt><trkpt lat="45.719155" lon="8.3512767"><ele>731.0</ele><time>2026-03-28T09:20:55.764Z</time></trkpt><trkpt lat="45.7191817" lon="8.35116"><ele>731.0</ele><time>2026-03-28T09:20:56.763Z</time></trkpt><trkpt lat="45.7192033" lon="8.3510517"><ele>731.0</ele><time>2026-03-28T09:20:57.765Z</time></trkpt><trkpt lat="45.7192417" lon="8.35086"><ele>727.4</ele><time>2026-03-28T09:20:59.764Z</time></trkpt><trkpt lat="45.7192783" lon="8.3507833"><ele>723.8</ele><time>2026-03-28T09:21:00.767Z</time></trkpt><trkpt lat="45.7193517" lon="8.3506533"><ele>720.1999999999999</ele><time>2026-03-28T09:21:02.763Z</time></trkpt><trkpt lat="45.7194167" lon="8.350525"><ele>716.5999999999999</ele><time>2026-03-28T09:21:04.764Z</time></trkpt><trkpt lat="45.71949" lon="8.350425"><ele>713.0</ele><time>2026-03-28T09:21:06.763Z</time></trkpt><trkpt lat="45.7195983" lon="8.35037"><ele>711.6666666666666</ele><time>2026-03-28T09:21:08.764Z</time></trkpt><trkpt lat="45.7196683" lon="8.3503567"><ele>710.3333333333333</ele><time>2026-03-28T09:21:09.763Z</time></trkpt><trkpt lat="45.7197467" lon="8.350365"><ele>709.0</ele><time>2026-03-28T09:21:10.768Z</time></trkpt><trkpt lat="45.719815" lon="8.3503817"><ele>707.6666666666666</ele><time>2026-03-28T09:21:11.763Z</time></trkpt><trkpt lat="45.71992" lon="8.3504167"><ele>706.3333333333334</ele><time>2026-03-28T09:21:13.763Z</time></trkpt><trkpt lat="45.7200133" lon="8.3504467"><ele>705.0</ele><time>2026-03-28T09:21:15.765Z</time></trkpt><trkpt lat="45.7200883" lon="8.35041"><ele>705.0</ele><time>2026-03-28T09:21:17.765Z</time></trkpt><trkpt lat="45.7201333" lon="8.350275"><ele>705.0</ele><time>2026-03-28T09:21:19.764Z</time></trkpt><trkpt lat="45.7201333" lon="8.3500883"><ele>705.0</ele><time>2026-03-28T09:21:21.763Z</time></trkpt><trkpt lat="45.7201183" lon="8.3499933"><ele>705.0</ele><time>2026-03-28T09:21:22.764Z</time></trkpt><trkpt lat="45.720105" lon="8.3499033"><ele>705.0</ele><time>2026-03-28T09:21:23.764Z</time></trkpt><trkpt lat="45.7201033" lon="8.3497367"><ele>706.4</ele><time>2026-03-28T09:21:25.764Z</time></trkpt><trkpt lat="45.7201633" lon="8.3496183"><ele>707.8</ele><time>2026-03-28T09:21:27.764Z</time></trkpt><trkpt lat="45.7202417" lon="8.3495933"><ele>709.2</ele><time>2026-03-28T09:21:29.764Z</time></trkpt><trkpt lat="45.7203433" lon="8.3496283"><ele>710.6</ele><time>2026-03-28T09:21:31.765Z</time></trkpt><trkpt lat="45.7204717" lon="8.3496767"><ele>712.0</ele><time>2026-03-28T09:21:33.765Z</time></trkpt><trkpt lat="45.7205467" lon="8.34971"><ele>712.0</ele><time>2026-03-28T09:21:34.764Z</time></trkpt><trkpt lat="45.7206117" lon="8.34976"><ele>712.0</ele><time>2026-03-28T09:21:35.765Z</time></trkpt><trkpt lat="45.7206683" lon="8.3498233"><ele>712.0</ele><time>2026-03-28T09:21:36.764Z</time></trkpt><trkpt lat="45.72073" lon="8.3498783"><ele>712.0</ele><time>2026-03-28T09:21:37.764Z</time></trkpt><trkpt lat="45.7208017" lon="8.3499267"><ele>712.0</ele><time>2026-03-28T09:21:38.763Z</time></trkpt><trkpt lat="45.72088" lon="8.3499567"><ele>712.0</ele><time>2026-03-28T09:21:39.765Z</time></trkpt><trkpt lat="45.7209617" lon="8.34997"><ele>715.2</ele><time>2026-03-28T09:21:40.764Z</time></trkpt><trkpt lat="45.7211267" lon="8.3499767"><ele>718.4000000000001</ele><time>2026-03-28T09:21:42.764Z</time></trkpt><trkpt lat="45.7211983" lon="8.3499867"><ele>721.5999999999999</ele><time>2026-03-28T09:21:43.765Z</time></trkpt><trkpt lat="45.7212617" lon="8.3499783"><ele>724.8</ele><time>2026-03-28T09:21:44.764Z</time></trkpt><trkpt lat="45.7213633" lon="8.349905"><ele>728.0</ele><time>2026-03-28T09:21:46.764Z</time></trkpt><trkpt lat="45.72139" lon="8.3498233"><ele>728.0</ele><time>2026-03-28T09:21:47.764Z</time></trkpt><trkpt lat="45.72142" lon="8.3497417"><ele>728.0</ele><time>2026-03-28T09:21:48.764Z</time></trkpt><trkpt lat="45.721405" lon="8.349605"><ele>728.0</ele><time>2026-03-28T09:21:49.764Z</time></trkpt><trkpt lat="45.7213583" lon="8.3494383"><ele>728.0</ele><time>2026-03-28T09:21:50.767Z</time></trkpt><trkpt lat="45.7213067" lon="8.34928"><ele>728.0</ele><time>2026-03-28T09:21:51.765Z</time></trkpt><trkpt lat="45.7212517" lon="8.3491333"><ele>725.8333333333333</ele><time>2026-03-28T09:21:52.764Z</time></trkpt><trkpt lat="45.721205" lon="8.3490067"><ele>723.6666666666666</ele><time>2026-03-28T09:21:53.763Z</time></trkpt><trkpt lat="45.7211583" lon="8.3489033"><ele>721.5</ele><time>2026-03-28T09:21:54.765Z</time></trkpt><trkpt lat="45.7211167" lon="8.348805"><ele>719.3333333333334</ele><time>2026-03-28T09:21:55.765Z</time></trkpt><trkpt lat="45.7210917" lon="8.348695"><ele>717.1666666666667</ele><time>2026-03-28T09:21:56.763Z</time></trkpt><trkpt lat="45.7210833" lon="8.348565"><ele>715.0</ele><time>2026-03-28T09:21:57.768Z</time></trkpt><trkpt lat="45.72108" lon="8.3484183"><ele>713.4</ele><time>2026-03-28T09:21:58.767Z</time></trkpt><trkpt lat="45.7210883" lon="8.3482733"><ele>711.8</ele><time>2026-03-28T09:21:59.766Z</time></trkpt><trkpt lat="45.7210967" lon="8.34815"><ele>710.2</ele><time>2026-03-28T09:22:00.768Z</time></trkpt><trkpt lat="45.7211133" lon="8.34805"><ele>708.6</ele><time>2026-03-28T09:22:01.763Z</time></trkpt><trkpt lat="45.7212433" lon="8.3479033"><ele>707.0</ele><time>2026-03-28T09:22:04.766Z</time></trkpt><trkpt lat="45.7213117" lon="8.3478867"><ele>705.5</ele><time>2026-03-28T09:22:05.766Z</time></trkpt><trkpt lat="45.7214067" lon="8.3478033"><ele>704.0</ele><time>2026-03-28T09:22:07.765Z</time></trkpt><trkpt lat="45.7214417" lon="8.3476683"><ele>702.5</ele><time>2026-03-28T09:22:09.767Z</time></trkpt><trkpt lat="45.7214217" lon="8.3475783"><ele>701.0</ele><time>2026-03-28T09:22:10.766Z</time></trkpt><trkpt lat="45.7213833" lon="8.3474867"><ele>699.5</ele><time>2026-03-28T09:22:11.765Z</time></trkpt><trkpt lat="45.7213467" lon="8.3474083"><ele>698.0</ele><time>2026-03-28T09:22:12.763Z</time></trkpt><trkpt lat="45.7213083" lon="8.347255"><ele>695.0</ele><time>2026-03-28T09:22:14.763Z</time></trkpt><trkpt lat="45.72132" lon="8.3471533"><ele>692.0</ele><time>2026-03-28T09:22:16.765Z</time></trkpt><trkpt lat="45.7213733" lon="8.347045"><ele>689.0</ele><time>2026-03-28T09:22:19.764Z</time></trkpt><trkpt lat="45.721485" lon="8.3469933"><ele>686.0</ele><time>2026-03-28T09:22:21.764Z</time></trkpt><trkpt lat="45.7215617" lon="8.34698"><ele>683.0</ele><time>2026-03-28T09:22:22.763Z</time></trkpt><trkpt lat="45.7217183" lon="8.3469417"><ele>683.0</ele><time>2026-03-28T09:22:24.764Z</time></trkpt><trkpt lat="45.72179" lon="8.346915"><ele>683.0</ele><time>2026-03-28T09:22:25.767Z</time></trkpt><trkpt lat="45.7218917" lon="8.3468283"><ele>683.0</ele><time>2026-03-28T09:22:27.764Z</time></trkpt><trkpt lat="45.7219417" lon="8.3466917"><ele>683.0</ele><time>2026-03-28T09:22:29.768Z</time></trkpt><trkpt lat="45.7218933" lon="8.3465367"><ele>683.0</ele><time>2026-03-28T09:22:31.765Z</time></trkpt><trkpt lat="45.7218317" lon="8.3464467"><ele>684.2</ele><time>2026-03-28T09:22:32.764Z</time></trkpt><trkpt lat="45.72176" lon="8.3463533"><ele>685.4</ele><time>2026-03-28T09:22:33.764Z</time></trkpt><trkpt lat="45.7216583" lon="8.3462733"><ele>686.6</ele><time>2026-03-28T09:22:34.765Z</time></trkpt><trkpt lat="45.7215667" lon="8.34618"><ele>687.8000000000001</ele><time>2026-03-28T09:22:35.765Z</time></trkpt><trkpt lat="45.7214733" lon="8.3460817"><ele>689.0</ele><time>2026-03-28T09:22:36.764Z</time></trkpt><trkpt lat="45.7213783" lon="8.346005"><ele>689.0</ele><time>2026-03-28T09:22:37.765Z</time></trkpt><trkpt lat="45.7212933" lon="8.3459333"><ele>689.0</ele><time>2026-03-28T09:22:38.765Z</time></trkpt><trkpt lat="45.7212233" lon="8.3458617"><ele>689.0</ele><time>2026-03-28T09:22:39.766Z</time></trkpt><trkpt lat="45.72117" lon="8.3457767"><ele>689.0</ele><time>2026-03-28T09:22:40.767Z</time></trkpt><trkpt lat="45.7211283" lon="8.3456883"><ele>689.0</ele><time>2026-03-28T09:22:41.766Z</time></trkpt><trkpt lat="45.7210983" lon="8.3455833"><ele>689.0</ele><time>2026-03-28T09:22:42.765Z</time></trkpt><trkpt lat="45.7210767" lon="8.3454517"><ele>680.5</ele><time>2026-03-28T09:22:43.765Z</time></trkpt><trkpt lat="45.7210467" lon="8.345165"><ele>672.0</ele><time>2026-03-28T09:22:45.764Z</time></trkpt><trkpt lat="45.7210217" lon="8.3450367"><ele>663.5</ele><time>2026-03-28T09:22:46.765Z</time></trkpt><trkpt lat="45.72099" lon="8.3449217"><ele>655.0</ele><time>2026-03-28T09:22:47.764Z</time></trkpt><trkpt lat="45.72096" lon="8.344815"><ele>655.0</ele><time>2026-03-28T09:22:48.767Z</time></trkpt><trkpt lat="45.7209367" lon="8.3447133"><ele>655.0</ele><time>2026-03-28T09:22:49.766Z</time></trkpt><trkpt lat="45.72092" lon="8.3446083"><ele>655.0</ele><time>2026-03-28T09:22:50.765Z</time></trkpt><trkpt lat="45.7209233" lon="8.3445083"><ele>655.0</ele><time>2026-03-28T09:22:51.765Z</time></trkpt><trkpt lat="45.7209567" lon="8.3444133"><ele>655.0</ele><time>2026-03-28T09:22:52.765Z</time></trkpt><trkpt lat="45.720995" lon="8.3443167"><ele>655.0</ele><time>2026-03-28T09:22:53.764Z</time></trkpt><trkpt lat="45.721025" lon="8.3442183"><ele>655.0</ele><time>2026-03-28T09:22:54.767Z</time></trkpt><trkpt lat="45.7210417" lon="8.34411"><ele>654.4</ele><time>2026-03-28T09:22:55.766Z</time></trkpt><trkpt lat="45.7210433" lon="8.3439967"><ele>653.8</ele><time>2026-03-28T09:22:56.764Z</time></trkpt><trkpt lat="45.7210333" lon="8.34387"><ele>653.2</ele><time>2026-03-28T09:22:57.766Z</time></trkpt><trkpt lat="45.7210017" lon="8.343735"><ele>652.6</ele><time>2026-03-28T09:22:58.765Z</time></trkpt><trkpt lat="45.720955" lon="8.3436033"><ele>652.0</ele><time>2026-03-28T09:22:59.764Z</time></trkpt><trkpt lat="45.7209033" lon="8.34348"><ele>651.8</ele><time>2026-03-28T09:23:00.767Z</time></trkpt><trkpt lat="45.7208467" lon="8.343375"><ele>651.6</ele><time>2026-03-28T09:23:01.764Z</time></trkpt><trkpt lat="45.7207783" lon="8.343285"><ele>651.4</ele><time>2026-03-28T09:23:02.763Z</time></trkpt><trkpt lat="45.720705" lon="8.343205"><ele>651.1999999999999</ele><time>2026-03-28T09:23:03.764Z</time></trkpt><trkpt lat="45.720635" lon="8.3431383"><ele>651.0</ele><time>2026-03-28T09:23:04.763Z</time></trkpt><trkpt lat="45.7205267" lon="8.3430183"><ele>648.5999999999999</ele><time>2026-03-28T09:23:06.764Z</time></trkpt><trkpt lat="45.7204817" lon="8.3428783"><ele>646.1999999999999</ele><time>2026-03-28T09:23:08.764Z</time></trkpt><trkpt lat="45.7205433" lon="8.34274"><ele>643.8</ele><time>2026-03-28T09:23:10.764Z</time></trkpt><trkpt lat="45.7206033" lon="8.3427067"><ele>641.4</ele><time>2026-03-28T09:23:11.764Z</time></trkpt><trkpt lat="45.7206917" lon="8.3427183"><ele>639.0</ele><time>2026-03-28T09:23:12.764Z</time></trkpt><trkpt lat="45.7207733" lon="8.34271"><ele>639.0</ele><time>2026-03-28T09:23:13.764Z</time></trkpt><trkpt lat="45.720855" lon="8.342685"><ele>639.0</ele><time>2026-03-28T09:23:14.765Z</time></trkpt><trkpt lat="45.7209433" lon="8.34263"><ele>639.0</ele><time>2026-03-28T09:23:15.764Z</time></trkpt><trkpt lat="45.7210283" lon="8.3425667"><ele>639.0</ele><time>2026-03-28T09:23:16.764Z</time></trkpt><trkpt lat="45.7211067" lon="8.3425183"><ele>639.0</ele><time>2026-03-28T09:23:17.764Z</time></trkpt><trkpt lat="45.72117" lon="8.3424783"><ele>639.0</ele><time>2026-03-28T09:23:18.765Z</time></trkpt><trkpt lat="45.7212517" lon="8.3423833"><ele>639.0</ele><time>2026-03-28T09:23:20.765Z</time></trkpt><trkpt lat="45.7211967" lon="8.3423017"><ele>639.0</ele><time>2026-03-28T09:23:23.763Z</time></trkpt><trkpt lat="45.7211333" lon="8.3423267"><ele>639.0</ele><time>2026-03-28T09:23:24.763Z</time></trkpt><trkpt lat="45.7210583" lon="8.3423667"><ele>639.0</ele><time>2026-03-28T09:23:25.763Z</time></trkpt><trkpt lat="45.7208817" lon="8.3424617"><ele>639.0</ele><time>2026-03-28T09:23:27.764Z</time></trkpt><trkpt lat="45.7207983" lon="8.3424883"><ele>639.0</ele><time>2026-03-28T09:23:28.767Z</time></trkpt><trkpt lat="45.7207167" lon="8.34248"><ele>639.0</ele><time>2026-03-28T09:23:29.763Z</time></trkpt><trkpt lat="45.72064" lon="8.34245"><ele>639.0</ele><time>2026-03-28T09:23:30.764Z</time></trkpt><trkpt lat="45.7205683" lon="8.3424017"><ele>639.0</ele><time>2026-03-28T09:23:31.768Z</time></trkpt><trkpt lat="45.7205133" lon="8.3423267"><ele>639.0</ele><time>2026-03-28T09:23:32.763Z</time></trkpt><trkpt lat="45.7204767" lon="8.342215"><ele>639.0</ele><time>2026-03-28T09:23:33.764Z</time></trkpt><trkpt lat="45.7204417" lon="8.3421083"><ele>636.3333333333334</ele><time>2026-03-28T09:23:34.764Z</time></trkpt><trkpt lat="45.7204033" lon="8.3420133"><ele>633.6666666666666</ele><time>2026-03-28T09:23:35.763Z</time></trkpt><trkpt lat="45.7203567" lon="8.3419217"><ele>631.0</ele><time>2026-03-28T09:23:36.764Z</time></trkpt><trkpt lat="45.7203167" lon="8.3418367"><ele>628.3333333333333</ele><time>2026-03-28T09:23:37.764Z</time></trkpt><trkpt lat="45.7202867" lon="8.34175"><ele>625.6666666666666</ele><time>2026-03-28T09:23:38.763Z</time></trkpt><trkpt lat="45.7202717" lon="8.3416567"><ele>623.0</ele><time>2026-03-28T09:23:39.764Z</time></trkpt><trkpt lat="45.7202517" lon="8.3414767"><ele>621.1999999999999</ele><time>2026-03-28T09:23:41.763Z</time></trkpt><trkpt lat="45.72024" lon="8.3413133"><ele>619.4</ele><time>2026-03-28T09:23:43.764Z</time></trkpt><trkpt lat="45.7202367" lon="8.3411833"><ele>617.5999999999999</ele><time>2026-03-28T09:23:45.764Z</time></trkpt><trkpt lat="45.7202383" lon="8.341045"><ele>615.8</ele><time>2026-03-28T09:23:47.763Z</time></trkpt><trkpt lat="45.7202733" lon="8.3408433"><ele>614.0</ele><time>2026-03-28T09:23:51.765Z</time></trkpt><trkpt lat="45.7202717" lon="8.3407183"><ele>613.8333333333333</ele><time>2026-03-28T09:23:54.765Z</time></trkpt><trkpt lat="45.72022" lon="8.34065"><ele>613.6666666666666</ele><time>2026-03-28T09:23:56.764Z</time></trkpt><trkpt lat="45.7201483" lon="8.340565"><ele>613.5</ele><time>2026-03-28T09:23:59.763Z</time></trkpt><trkpt lat="45.7201033" lon="8.340495"><ele>613.3333333333334</ele><time>2026-03-28T09:24:01.765Z</time></trkpt><trkpt lat="45.7200783" lon="8.34037"><ele>613.1666666666667</ele><time>2026-03-28T09:24:03.765Z</time></trkpt><trkpt lat="45.7200783" lon="8.3402733"><ele>613.0</ele><time>2026-03-28T09:24:04.764Z</time></trkpt><trkpt lat="45.720095" lon="8.3401667"><ele>613.0</ele><time>2026-03-28T09:24:05.763Z</time></trkpt><trkpt lat="45.7201333" lon="8.3400583"><ele>613.0</ele><time>2026-03-28T09:24:06.763Z</time></trkpt><trkpt lat="45.7201883" lon="8.3399633"><ele>613.0</ele><time>2026-03-28T09:24:07.764Z</time></trkpt><trkpt lat="45.7202567" lon="8.3398933"><ele>613.0</ele><time>2026-03-28T09:24:08.764Z</time></trkpt><trkpt lat="45.720425" lon="8.3398067"><ele>613.0</ele><time>2026-03-28T09:24:10.763Z</time></trkpt><trkpt lat="45.720515" lon="8.3397867"><ele>612.8333333333334</ele><time>2026-03-28T09:24:11.765Z</time></trkpt><trkpt lat="45.7206" lon="8.3397733"><ele>612.6666666666667</ele><time>2026-03-28T09:24:12.765Z</time></trkpt><trkpt lat="45.720685" lon="8.33978"><ele>612.5</ele><time>2026-03-28T09:24:13.766Z</time></trkpt><trkpt lat="45.72076" lon="8.3397983"><ele>612.3333333333334</ele><time>2026-03-28T09:24:14.763Z</time></trkpt><trkpt lat="45.7208233" lon="8.3398183"><ele>612.1666666666666</ele><time>2026-03-28T09:24:15.764Z</time></trkpt><trkpt lat="45.720905" lon="8.339785"><ele>612.0</ele><time>2026-03-28T09:24:17.764Z</time></trkpt><trkpt lat="45.7208967" lon="8.33969"><ele>609.6</ele><time>2026-03-28T09:24:19.764Z</time></trkpt><trkpt lat="45.72077" lon="8.33962"><ele>607.2</ele><time>2026-03-28T09:24:21.764Z</time></trkpt><trkpt lat="45.720695" lon="8.3395667"><ele>604.8</ele><time>2026-03-28T09:24:22.764Z</time></trkpt><trkpt lat="45.7206317" lon="8.3394967"><ele>602.4</ele><time>2026-03-28T09:24:23.764Z</time></trkpt><trkpt lat="45.7205767" lon="8.3394067"><ele>600.0</ele><time>2026-03-28T09:24:24.765Z</time></trkpt><trkpt lat="45.7205267" lon="8.3392733"><ele>600.0</ele><time>2026-03-28T09:24:25.767Z</time></trkpt><trkpt lat="45.72048" lon="8.339115"><ele>600.0</ele><time>2026-03-28T09:24:26.767Z</time></trkpt><trkpt lat="45.7204267" lon="8.33896"><ele>600.0</ele><time>2026-03-28T09:24:27.765Z</time></trkpt><trkpt lat="45.7203783" lon="8.3388067"><ele>600.0</ele><time>2026-03-28T09:24:28.767Z</time></trkpt><trkpt lat="45.7203283" lon="8.3386567"><ele>599.5</ele><time>2026-03-28T09:24:29.764Z</time></trkpt><trkpt lat="45.7202567" lon="8.338385"><ele>599.0</ele><time>2026-03-28T09:24:31.766Z</time></trkpt><trkpt lat="45.7202317" lon="8.33826"><ele>598.5</ele><time>2026-03-28T09:24:32.767Z</time></trkpt><trkpt lat="45.7202017" lon="8.3381517"><ele>598.0</ele><time>2026-03-28T09:24:33.763Z</time></trkpt><trkpt lat="45.7201483" lon="8.3380317"><ele>596.0</ele><time>2026-03-28T09:24:35.764Z</time></trkpt><trkpt lat="45.7200983" lon="8.3379733"><ele>594.0</ele><time>2026-03-28T09:24:36.764Z</time></trkpt><trkpt lat="45.72003" lon="8.3379367"><ele>592.0</ele><time>2026-03-28T09:24:37.765Z</time></trkpt><trkpt lat="45.719955" lon="8.337925"><ele>590.0</ele><time>2026-03-28T09:24:38.764Z</time></trkpt><trkpt lat="45.7198733" lon="8.3379533"><ele>588.0</ele><time>2026-03-28T09:24:39.763Z</time></trkpt><trkpt lat="45.7197983" lon="8.33799"><ele>586.0</ele><time>2026-03-28T09:24:40.766Z</time></trkpt><trkpt lat="45.7197283" lon="8.3380233"><ele>586.0</ele><time>2026-03-28T09:24:41.764Z</time></trkpt><trkpt lat="45.7196633" lon="8.3380433"><ele>586.0</ele><time>2026-03-28T09:24:42.766Z</time></trkpt><trkpt lat="45.71956" lon="8.3380217"><ele>586.0</ele><time>2026-03-28T09:24:44.763Z</time></trkpt><trkpt lat="45.71953" lon="8.3379367"><ele>586.0</ele><time>2026-03-28T09:24:46.764Z</time></trkpt><trkpt lat="45.7195967" lon="8.3378667"><ele>586.0</ele><time>2026-03-28T09:24:48.764Z</time></trkpt><trkpt lat="45.71967" lon="8.3378517"><ele>586.0</ele><time>2026-03-28T09:24:49.766Z</time></trkpt><trkpt lat="45.71975" lon="8.33783"><ele>586.0</ele><time>2026-03-28T09:24:50.763Z</time></trkpt><trkpt lat="45.719915" lon="8.33774"><ele>586.0</ele><time>2026-03-28T09:24:52.763Z</time></trkpt><trkpt lat="45.719985" lon="8.3376483"><ele>586.0</ele><time>2026-03-28T09:24:53.764Z</time></trkpt><trkpt lat="45.72004" lon="8.337515"><ele>586.0</ele><time>2026-03-28T09:24:54.766Z</time></trkpt><trkpt lat="45.7200967" lon="8.3373867"><ele>586.0</ele><time>2026-03-28T09:24:55.765Z</time></trkpt><trkpt lat="45.7201567" lon="8.3372817"><ele>586.0</ele><time>2026-03-28T09:24:56.767Z</time></trkpt><trkpt lat="45.7202033" lon="8.3371717"><ele>586.0</ele><time>2026-03-28T09:24:57.763Z</time></trkpt><trkpt lat="45.7202333" lon="8.3370633"><ele>586.0</ele><time>2026-03-28T09:24:58.765Z</time></trkpt><trkpt lat="45.7202383" lon="8.3369467"><ele>586.0</ele><time>2026-03-28T09:24:59.764Z</time></trkpt><trkpt lat="45.7202217" lon="8.3368183"><ele>586.0</ele><time>2026-03-28T09:25:00.767Z</time></trkpt><trkpt lat="45.7201867" lon="8.3366883"><ele>583.8</ele><time>2026-03-28T09:25:01.764Z</time></trkpt><trkpt lat="45.7201467" lon="8.3365567"><ele>581.6</ele><time>2026-03-28T09:25:02.763Z</time></trkpt><trkpt lat="45.720105" lon="8.336435"><ele>579.4</ele><time>2026-03-28T09:25:03.763Z</time></trkpt><trkpt lat="45.720065" lon="8.3363183"><ele>577.2</ele><time>2026-03-28T09:25:04.764Z</time></trkpt><trkpt lat="45.7200333" lon="8.3362017"><ele>575.0</ele><time>2026-03-28T09:25:05.763Z</time></trkpt><trkpt lat="45.72001" lon="8.336075"><ele>574.4</ele><time>2026-03-28T09:25:06.765Z</time></trkpt><trkpt lat="45.7200033" lon="8.3359383"><ele>573.8</ele><time>2026-03-28T09:25:07.764Z</time></trkpt><trkpt lat="45.7200133" lon="8.335795"><ele>573.2</ele><time>2026-03-28T09:25:08.763Z</time></trkpt><trkpt lat="45.7200367" lon="8.3356467"><ele>572.6</ele><time>2026-03-28T09:25:09.766Z</time></trkpt><trkpt lat="45.7200567" lon="8.3355017"><ele>572.0</ele><time>2026-03-28T09:25:10.764Z</time></trkpt><trkpt lat="45.7200633" lon="8.335355"><ele>571.0</ele><time>2026-03-28T09:25:11.763Z</time></trkpt><trkpt lat="45.7200183" lon="8.33509"><ele>570.0</ele><time>2026-03-28T09:25:13.764Z</time></trkpt><trkpt lat="45.7199767" lon="8.3349733"><ele>569.0</ele><time>2026-03-28T09:25:14.764Z</time></trkpt><trkpt lat="45.7199233" lon="8.334865"><ele>568.0</ele><time>2026-03-28T09:25:15.766Z</time></trkpt><trkpt lat="45.7198633" lon="8.33477"><ele>566.4</ele><time>2026-03-28T09:25:16.765Z</time></trkpt><trkpt lat="45.719795" lon="8.3346833"><ele>564.8</ele><time>2026-03-28T09:25:17.763Z</time></trkpt><trkpt lat="45.7197183" lon="8.3346033"><ele>563.2</ele><time>2026-03-28T09:25:18.764Z</time></trkpt><trkpt lat="45.7196367" lon="8.3345317"><ele>561.6</ele><time>2026-03-28T09:25:19.764Z</time></trkpt><trkpt lat="45.71956" lon="8.33446"><ele>560.0</ele><time>2026-03-28T09:25:20.763Z</time></trkpt><trkpt lat="45.7194833" lon="8.3343883"><ele>560.0</ele><time>2026-03-28T09:25:21.764Z</time></trkpt><trkpt lat="45.71942" lon="8.3343133"><ele>560.0</ele><time>2026-03-28T09:25:22.764Z</time></trkpt><trkpt lat="45.7193733" lon="8.3342267"><ele>560.0</ele><time>2026-03-28T09:25:23.764Z</time></trkpt><trkpt lat="45.7193233" lon="8.33414"><ele>560.0</ele><time>2026-03-28T09:25:24.764Z</time></trkpt><trkpt lat="45.7192967" lon="8.3340233"><ele>560.0</ele><time>2026-03-28T09:25:25.764Z</time></trkpt><trkpt lat="45.71929" lon="8.3338983"><ele>560.0</ele><time>2026-03-28T09:25:26.764Z</time></trkpt><trkpt lat="45.719305" lon="8.3337733"><ele>558.1666666666666</ele><time>2026-03-28T09:25:27.763Z</time></trkpt><trkpt lat="45.719335" lon="8.3336533"><ele>556.3333333333333</ele><time>2026-03-28T09:25:28.764Z</time></trkpt><trkpt lat="45.719365" lon="8.33355"><ele>554.5</ele><time>2026-03-28T09:25:29.764Z</time></trkpt><trkpt lat="45.7194083" lon="8.333465"><ele>552.6666666666666</ele><time>2026-03-28T09:25:30.765Z</time></trkpt><trkpt lat="45.7194583" lon="8.3333983"><ele>550.8333333333334</ele><time>2026-03-28T09:25:31.765Z</time></trkpt><trkpt lat="45.7195217" lon="8.3333533"><ele>549.0</ele><time>2026-03-28T09:25:32.763Z</time></trkpt><trkpt lat="45.7196883" lon="8.3333517"><ele>549.0</ele><time>2026-03-28T09:25:34.763Z</time></trkpt><trkpt lat="45.7198117" lon="8.33338"><ele>549.0</ele><time>2026-03-28T09:25:35.765Z</time></trkpt><trkpt lat="45.7199217" lon="8.3334133"><ele>549.0</ele><time>2026-03-28T09:25:36.764Z</time></trkpt><trkpt lat="45.7200433" lon="8.3334567"><ele>549.0</ele><time>2026-03-28T09:25:37.767Z</time></trkpt><trkpt lat="45.7201383" lon="8.333445"><ele>549.0</ele><time>2026-03-28T09:25:38.764Z</time></trkpt><trkpt lat="45.72022" lon="8.3333783"><ele>549.0</ele><time>2026-03-28T09:25:39.763Z</time></trkpt><trkpt lat="45.72029" lon="8.3332717"><ele>549.0</ele><time>2026-03-28T09:25:40.764Z</time></trkpt><trkpt lat="45.7203483" lon="8.3331417"><ele>549.0</ele><time>2026-03-28T09:25:41.763Z</time></trkpt><trkpt lat="45.72039" lon="8.3330133"><ele>549.0</ele><time>2026-03-28T09:25:42.764Z</time></trkpt><trkpt lat="45.7204217" lon="8.3328933"><ele>547.0</ele><time>2026-03-28T09:25:43.765Z</time></trkpt><trkpt lat="45.7204433" lon="8.332795"><ele>545.0</ele><time>2026-03-28T09:25:44.763Z</time></trkpt><trkpt lat="45.7204783" lon="8.3327167"><ele>543.0</ele><time>2026-03-28T09:25:45.763Z</time></trkpt><trkpt lat="45.7205283" lon="8.3326617"><ele>541.0</ele><time>2026-03-28T09:25:46.766Z</time></trkpt><trkpt lat="45.7205983" lon="8.3326317"><ele>539.0</ele><time>2026-03-28T09:25:47.763Z</time></trkpt><trkpt lat="45.7206717" lon="8.332605"><ele>537.0</ele><time>2026-03-28T09:25:48.764Z</time></trkpt><trkpt lat="45.720775" lon="8.3325917"><ele>537.0</ele><time>2026-03-28T09:25:49.764Z</time></trkpt><trkpt lat="45.7208933" lon="8.3325817"><ele>537.0</ele><time>2026-03-28T09:25:50.763Z</time></trkpt><trkpt lat="45.7210183" lon="8.332595"><ele>537.0</ele><time>2026-03-28T09:25:51.764Z</time></trkpt><trkpt lat="45.72112" lon="8.3326133"><ele>537.0</ele><time>2026-03-28T09:25:52.764Z</time></trkpt><trkpt lat="45.721205" lon="8.3326383"><ele>537.0</ele><time>2026-03-28T09:25:53.763Z</time></trkpt><trkpt lat="45.7213833" lon="8.332645"><ele>537.0</ele><time>2026-03-28T09:25:56.764Z</time></trkpt><trkpt lat="45.7213017" lon="8.332525"><ele>537.0</ele><time>2026-03-28T09:25:59.766Z</time></trkpt><trkpt lat="45.7211983" lon="8.3325167"><ele>537.0</ele><time>2026-03-28T09:26:00.767Z</time></trkpt><trkpt lat="45.72109" lon="8.3325167"><ele>537.0</ele><time>2026-03-28T09:26:01.765Z</time></trkpt><trkpt lat="45.720975" lon="8.3325017"><ele>537.0</ele><time>2026-03-28T09:26:02.765Z</time></trkpt><trkpt lat="45.720865" lon="8.3324783"><ele>537.0</ele><time>2026-03-28T09:26:03.767Z</time></trkpt><trkpt lat="45.72077" lon="8.3324533"><ele>537.0</ele><time>2026-03-28T09:26:04.765Z</time></trkpt><trkpt lat="45.7206817" lon="8.3324183"><ele>537.0</ele><time>2026-03-28T09:26:05.768Z</time></trkpt><trkpt lat="45.7206067" lon="8.3323667"><ele>537.0</ele><time>2026-03-28T09:26:06.765Z</time></trkpt><trkpt lat="45.7205333" lon="8.3322933"><ele>537.0</ele><time>2026-03-28T09:26:07.765Z</time></trkpt><trkpt lat="45.720465" lon="8.332225"><ele>537.0</ele><time>2026-03-28T09:26:08.767Z</time></trkpt><trkpt lat="45.7204233" lon="8.332125"><ele>533.8000000000001</ele><time>2026-03-28T09:26:09.766Z</time></trkpt><trkpt lat="45.72045" lon="8.331945"><ele>530.6</ele><time>2026-03-28T09:26:10.767Z</time></trkpt><trkpt lat="45.7204733" lon="8.3317983"><ele>527.4000000000001</ele><time>2026-03-28T09:26:11.766Z</time></trkpt><trkpt lat="45.7204917" lon="8.33164"><ele>524.2</ele><time>2026-03-28T09:26:12.767Z</time></trkpt><trkpt lat="45.7204867" lon="8.331505"><ele>521.0</ele><time>2026-03-28T09:26:13.765Z</time></trkpt><trkpt lat="45.72046" lon="8.331385"><ele>519.2</ele><time>2026-03-28T09:26:14.764Z</time></trkpt><trkpt lat="45.7203933" lon="8.3311767"><ele>517.4000000000001</ele><time>2026-03-28T09:26:16.765Z</time></trkpt><trkpt lat="45.72038" lon="8.3310767"><ele>515.6</ele><time>2026-03-28T09:26:17.766Z</time></trkpt><trkpt lat="45.7204183" lon="8.3309233"><ele>513.8000000000001</ele><time>2026-03-28T09:26:19.766Z</time></trkpt><trkpt lat="45.720475" lon="8.3308667"><ele>512.0</ele><time>2026-03-28T09:26:20.765Z</time></trkpt><trkpt lat="45.720565" lon="8.33081"><ele>512.0</ele><time>2026-03-28T09:26:21.766Z</time></trkpt><trkpt lat="45.72066" lon="8.330735"><ele>512.0</ele><time>2026-03-28T09:26:22.769Z</time></trkpt><trkpt lat="45.7207317" lon="8.3306417"><ele>512.0</ele><time>2026-03-28T09:26:23.766Z</time></trkpt><trkpt lat="45.720795" lon="8.3305333"><ele>512.0</ele><time>2026-03-28T09:26:24.767Z</time></trkpt><trkpt lat="45.7208333" lon="8.3303917"><ele>512.0</ele><time>2026-03-28T09:26:25.766Z</time></trkpt><trkpt lat="45.7208633" lon="8.33023"><ele>510.20000000000005</ele><time>2026-03-28T09:26:26.767Z</time></trkpt><trkpt lat="45.7208967" lon="8.3300817"><ele>508.40000000000003</ele><time>2026-03-28T09:26:27.765Z</time></trkpt><trkpt lat="45.7209217" lon="8.3299417"><ele>506.59999999999997</ele><time>2026-03-28T09:26:28.765Z</time></trkpt><trkpt lat="45.7209317" lon="8.329805"><ele>504.79999999999995</ele><time>2026-03-28T09:26:29.768Z</time></trkpt><trkpt lat="45.720925" lon="8.32967"><ele>503.0</ele><time>2026-03-28T09:26:30.768Z</time></trkpt><trkpt lat="45.72091" lon="8.3295533"><ele>503.59999999999997</ele><time>2026-03-28T09:26:31.765Z</time></trkpt><trkpt lat="45.7209067" lon="8.32945"><ele>504.19999999999993</ele><time>2026-03-28T09:26:32.764Z</time></trkpt><trkpt lat="45.7209167" lon="8.3293517"><ele>504.8</ele><time>2026-03-28T09:26:33.768Z</time></trkpt><trkpt lat="45.7209433" lon="8.3292617"><ele>505.4</ele><time>2026-03-28T09:26:34.768Z</time></trkpt><trkpt lat="45.7209933" lon="8.3291833"><ele>506.0</ele><time>2026-03-28T09:26:35.765Z</time></trkpt><trkpt lat="45.7210933" lon="8.3289917"><ele>503.8</ele><time>2026-03-28T09:26:37.766Z</time></trkpt><trkpt lat="45.7211367" lon="8.3288567"><ele>501.6</ele><time>2026-03-28T09:26:38.764Z</time></trkpt><trkpt lat="45.721175" lon="8.3286983"><ele>499.4</ele><time>2026-03-28T09:26:39.764Z</time></trkpt><trkpt lat="45.7212067" lon="8.3285383"><ele>497.2</ele><time>2026-03-28T09:26:40.765Z</time></trkpt><trkpt lat="45.7212267" lon="8.3283867"><ele>495.0</ele><time>2026-03-28T09:26:41.765Z</time></trkpt><trkpt lat="45.721245" lon="8.3282583"><ele>495.0</ele><time>2026-03-28T09:26:42.765Z</time></trkpt><trkpt lat="45.7212733" lon="8.3281367"><ele>495.0</ele><time>2026-03-28T09:26:43.767Z</time></trkpt><trkpt lat="45.72131" lon="8.3280267"><ele>495.0</ele><time>2026-03-28T09:26:44.767Z</time></trkpt><trkpt lat="45.7213617" lon="8.3279383"><ele>495.0</ele><time>2026-03-28T09:26:45.763Z</time></trkpt><trkpt lat="45.72142" lon="8.32788"><ele>495.0</ele><time>2026-03-28T09:26:46.764Z</time></trkpt><trkpt lat="45.72154" lon="8.32789"><ele>495.0</ele><time>2026-03-28T09:26:48.764Z</time></trkpt><trkpt lat="45.7216033" lon="8.3280033"><ele>495.0</ele><time>2026-03-28T09:26:49.767Z</time></trkpt><trkpt lat="45.7216767" lon="8.328085"><ele>495.0</ele><time>2026-03-28T09:26:50.764Z</time></trkpt><trkpt lat="45.721755" lon="8.3281717"><ele>495.0</ele><time>2026-03-28T09:26:51.763Z</time></trkpt><trkpt lat="45.7218367" lon="8.3282383"><ele>495.0</ele><time>2026-03-28T09:26:52.765Z</time></trkpt><trkpt lat="45.7219067" lon="8.3283133"><ele>495.0</ele><time>2026-03-28T09:26:53.763Z</time></trkpt><trkpt lat="45.7219683" lon="8.3283967"><ele>491.8</ele><time>2026-03-28T09:26:54.763Z</time></trkpt><trkpt lat="45.7220183" lon="8.3285033"><ele>488.6</ele><time>2026-03-28T09:26:55.764Z</time></trkpt><trkpt lat="45.7220667" lon="8.328635"><ele>485.4</ele><time>2026-03-28T09:26:56.764Z</time></trkpt><trkpt lat="45.7221533" lon="8.3288533"><ele>482.2</ele><time>2026-03-28T09:26:58.763Z</time></trkpt><trkpt lat="45.7221983" lon="8.32894"><ele>479.0</ele><time>2026-03-28T09:26:59.764Z</time></trkpt><trkpt lat="45.722245" lon="8.3290083"><ele>479.0</ele><time>2026-03-28T09:27:00.767Z</time></trkpt><trkpt lat="45.72231" lon="8.328985"><ele>479.0</ele><time>2026-03-28T09:27:02.763Z</time></trkpt><trkpt lat="45.7222717" lon="8.3288017"><ele>479.0</ele><time>2026-03-28T09:27:04.764Z</time></trkpt><trkpt lat="45.722225" lon="8.3286683"><ele>479.0</ele><time>2026-03-28T09:27:05.764Z</time></trkpt><trkpt lat="45.722195" lon="8.3285283"><ele>479.0</ele><time>2026-03-28T09:27:06.765Z</time></trkpt><trkpt lat="45.7221667" lon="8.328375"><ele>477.0</ele><time>2026-03-28T09:27:07.766Z</time></trkpt><trkpt lat="45.7221333" lon="8.3282483"><ele>475.0</ele><time>2026-03-28T09:27:08.763Z</time></trkpt><trkpt lat="45.722085" lon="8.3281367"><ele>473.0</ele><time>2026-03-28T09:27:09.764Z</time></trkpt><trkpt lat="45.7220267" lon="8.32805"><ele>471.0</ele><time>2026-03-28T09:27:10.764Z</time></trkpt><trkpt lat="45.7219667" lon="8.327905"><ele>469.0</ele><time>2026-03-28T09:27:12.764Z</time></trkpt><trkpt lat="45.72202" lon="8.3277333"><ele>466.0</ele><time>2026-03-28T09:27:14.764Z</time></trkpt><trkpt lat="45.7220633" lon="8.3276667"><ele>463.0</ele><time>2026-03-28T09:27:15.763Z</time></trkpt><trkpt lat="45.7221367" lon="8.327645"><ele>460.0</ele><time>2026-03-28T09:27:16.766Z</time></trkpt><trkpt lat="45.722215" lon="8.3276533"><ele>457.0</ele><time>2026-03-28T09:27:17.763Z</time></trkpt><trkpt lat="45.7224367" lon="8.3278833"><ele>457.00000000000006</ele><time>2026-03-28T09:27:19.764Z</time></trkpt><trkpt lat="45.7225083" lon="8.3279783"><ele>457.0</ele><time>2026-03-28T09:27:20.765Z</time></trkpt><trkpt lat="45.7225683" lon="8.3280533"><ele>457.0</ele><time>2026-03-28T09:27:21.764Z</time></trkpt><trkpt lat="45.7226283" lon="8.3281117"><ele>457.0</ele><time>2026-03-28T09:27:22.764Z</time></trkpt><trkpt lat="45.7227133" lon="8.3280867"><ele>457.00000000000006</ele><time>2026-03-28T09:27:24.766Z</time></trkpt><trkpt lat="45.7226867" lon="8.3279467"><ele>457.0</ele><time>2026-03-28T09:27:26.763Z</time></trkpt><trkpt lat="45.7226167" lon="8.32785"><ele>457.00000000000006</ele><time>2026-03-28T09:27:27.766Z</time></trkpt><trkpt lat="45.7225833" lon="8.3277667"><ele>457.0</ele><time>2026-03-28T09:27:28.765Z</time></trkpt><trkpt lat="45.722555" lon="8.3276617"><ele>457.00000000000006</ele><time>2026-03-28T09:27:29.763Z</time></trkpt><trkpt lat="45.7225567" lon="8.32755"><ele>457.00000000000006</ele><time>2026-03-28T09:27:30.767Z</time></trkpt><trkpt lat="45.7225867" lon="8.3274567"><ele>457.0</ele><time>2026-03-28T09:27:31.765Z</time></trkpt><trkpt lat="45.7226367" lon="8.327375"><ele>457.00000000000006</ele><time>2026-03-28T09:27:32.764Z</time></trkpt><trkpt lat="45.722695" lon="8.32731"><ele>457.00000000000006</ele><time>2026-03-28T09:27:33.763Z</time></trkpt><trkpt lat="45.7227517" lon="8.3272567"><ele>453.0</ele><time>2026-03-28T09:27:34.763Z</time></trkpt><trkpt lat="45.7228033" lon="8.3272033"><ele>449.0</ele><time>2026-03-28T09:27:35.764Z</time></trkpt><trkpt lat="45.7228683" lon="8.3270817"><ele>445.0</ele><time>2026-03-28T09:27:37.764Z</time></trkpt><trkpt lat="45.7228567" lon="8.3269717"><ele>441.0</ele><time>2026-03-28T09:27:39.763Z</time></trkpt><trkpt lat="45.7226517" lon="8.32697"><ele>441.0</ele><time>2026-03-28T09:27:42.764Z</time></trkpt><trkpt lat="45.7225683" lon="8.3270317"><ele>441.0</ele><time>2026-03-28T09:27:43.764Z</time></trkpt><trkpt lat="45.7224967" lon="8.327085"><ele>441.0</ele><time>2026-03-28T09:27:44.763Z</time></trkpt><trkpt lat="45.7224267" lon="8.32713"><ele>441.0</ele><time>2026-03-28T09:27:45.764Z</time></trkpt><trkpt lat="45.72235" lon="8.3271667"><ele>441.0</ele><time>2026-03-28T09:27:46.764Z</time></trkpt><trkpt lat="45.722275" lon="8.32718"><ele>441.0</ele><time>2026-03-28T09:27:47.764Z</time></trkpt><trkpt lat="45.722205" lon="8.3271767"><ele>441.0</ele><time>2026-03-28T09:27:48.763Z</time></trkpt><trkpt lat="45.7221383" lon="8.3271567"><ele>441.0</ele><time>2026-03-28T09:27:49.764Z</time></trkpt><trkpt lat="45.7220833" lon="8.3271067"><ele>441.0</ele><time>2026-03-28T09:27:50.764Z</time></trkpt><trkpt lat="45.7220433" lon="8.3269667"><ele>441.0</ele><time>2026-03-28T09:27:52.768Z</time></trkpt><trkpt lat="45.722065" lon="8.3268567"><ele>441.0</ele><time>2026-03-28T09:27:53.764Z</time></trkpt><trkpt lat="45.7220783" lon="8.3267367"><ele>441.0</ele><time>2026-03-28T09:27:54.764Z</time></trkpt><trkpt lat="45.7220783" lon="8.326615"><ele>441.0</ele><time>2026-03-28T09:27:55.765Z</time></trkpt><trkpt lat="45.7220733" lon="8.3265033"><ele>441.0</ele><time>2026-03-28T09:27:56.763Z</time></trkpt><trkpt lat="45.7220767" lon="8.3263967"><ele>441.0</ele><time>2026-03-28T09:27:57.766Z</time></trkpt><trkpt lat="45.722055" lon="8.326255"><ele>441.0</ele><time>2026-03-28T09:27:59.763Z</time></trkpt><trkpt lat="45.722035" lon="8.3261317"><ele>441.0</ele><time>2026-03-28T09:28:01.764Z</time></trkpt><trkpt lat="45.72221" lon="8.3260317"><ele>441.0</ele><time>2026-03-28T09:28:05.766Z</time></trkpt><trkpt lat="45.7222733" lon="8.3260967"><ele>441.0</ele><time>2026-03-28T09:28:06.766Z</time></trkpt><trkpt lat="45.7223217" lon="8.3262267"><ele>441.0</ele><time>2026-03-28T09:28:08.765Z</time></trkpt><trkpt lat="45.7223033" lon="8.32633"><ele>441.0</ele><time>2026-03-28T09:28:09.768Z</time></trkpt><trkpt lat="45.7223017" lon="8.3264833"><ele>441.0</ele><time>2026-03-28T09:28:11.765Z</time></trkpt><trkpt lat="45.7223683" lon="8.3265633"><ele>441.0</ele><time>2026-03-28T09:28:13.765Z</time></trkpt><trkpt lat="45.72248" lon="8.3265583"><ele>441.0</ele><time>2026-03-28T09:28:15.766Z</time></trkpt><trkpt lat="45.7225417" lon="8.3265183"><ele>441.0</ele><time>2026-03-28T09:28:16.765Z</time></trkpt><trkpt lat="45.72261" lon="8.326455"><ele>441.0</ele><time>2026-03-28T09:28:17.765Z</time></trkpt><trkpt lat="45.72267" lon="8.3263967"><ele>441.0</ele><time>2026-03-28T09:28:18.765Z</time></trkpt><trkpt lat="45.7227767" lon="8.3263083"><ele>441.0</ele><time>2026-03-28T09:28:20.765Z</time></trkpt><trkpt lat="45.7228833" lon="8.32623"><ele>436.0</ele><time>2026-03-28T09:28:22.765Z</time></trkpt><trkpt lat="45.7230733" lon="8.32625"><ele>431.0</ele><time>2026-03-28T09:28:25.765Z</time></trkpt><trkpt lat="45.7231367" lon="8.3263033"><ele>426.0</ele><time>2026-03-28T09:28:26.765Z</time></trkpt><trkpt lat="45.723195" lon="8.326375"><ele>421.0</ele><time>2026-03-28T09:28:27.766Z</time></trkpt><trkpt lat="45.723255" lon="8.3264433"><ele>416.0</ele><time>2026-03-28T09:28:28.765Z</time></trkpt><trkpt lat="45.72331" lon="8.32652"><ele>415.99999999999994</ele><time>2026-03-28T09:28:29.765Z</time></trkpt><trkpt lat="45.72336" lon="8.3266067"><ele>416.0</ele><time>2026-03-28T09:28:30.766Z</time></trkpt><trkpt lat="45.723415" lon="8.3266933"><ele>416.0</ele><time>2026-03-28T09:28:31.765Z</time></trkpt><trkpt lat="45.7234683" lon="8.3267867"><ele>416.0</ele><time>2026-03-28T09:28:32.764Z</time></trkpt><trkpt lat="45.7235167" lon="8.3268917"><ele>415.99999999999994</ele><time>2026-03-28T09:28:33.766Z</time></trkpt><trkpt lat="45.7235583" lon="8.327"><ele>416.0</ele><time>2026-03-28T09:28:34.765Z</time></trkpt><trkpt lat="45.7235967" lon="8.327105"><ele>413.49999999999994</ele><time>2026-03-28T09:28:35.765Z</time></trkpt><trkpt lat="45.72363" lon="8.3272067"><ele>411.0</ele><time>2026-03-28T09:28:36.765Z</time></trkpt><trkpt lat="45.7236717" lon="8.3273017"><ele>408.5</ele><time>2026-03-28T09:28:37.767Z</time></trkpt><trkpt lat="45.7237217" lon="8.3273867"><ele>406.0</ele><time>2026-03-28T09:28:38.766Z</time></trkpt><trkpt lat="45.7237817" lon="8.32746"><ele>403.49999999999994</ele><time>2026-03-28T09:28:39.765Z</time></trkpt><trkpt lat="45.7238517" lon="8.3275"><ele>401.0</ele><time>2026-03-28T09:28:40.766Z</time></trkpt><trkpt lat="45.7239233" lon="8.32751"><ele>401.0</ele><time>2026-03-28T09:28:41.765Z</time></trkpt><trkpt lat="45.724" lon="8.3274867"><ele>401.0</ele><time>2026-03-28T09:28:42.763Z</time></trkpt><trkpt lat="45.7240883" lon="8.327435"><ele>401.0</ele><time>2026-03-28T09:28:44.763Z</time></trkpt><trkpt lat="45.724195" lon="8.32727"><ele>401.0</ele><time>2026-03-28T09:28:54.764Z</time></trkpt><trkpt lat="45.7241717" lon="8.3271"><ele>398.6</ele><time>2026-03-28T09:28:59.763Z</time></trkpt><trkpt lat="45.724125" lon="8.3270117"><ele>396.20000000000005</ele><time>2026-03-28T09:29:00.764Z</time></trkpt><trkpt lat="45.72406" lon="8.3269133"><ele>393.79999999999995</ele><time>2026-03-28T09:29:01.764Z</time></trkpt><trkpt lat="45.7239817" lon="8.3267817"><ele>391.4</ele><time>2026-03-28T09:29:02.763Z</time></trkpt><trkpt lat="45.72389" lon="8.32662"><ele>389.0</ele><time>2026-03-28T09:29:03.764Z</time></trkpt><trkpt lat="45.7237833" lon="8.326425"><ele>387.5</ele><time>2026-03-28T09:29:04.764Z</time></trkpt><trkpt lat="45.723675" lon="8.3262017"><ele>386.0</ele><time>2026-03-28T09:29:05.763Z</time></trkpt><trkpt lat="45.72352" lon="8.3256967"><ele>387.0</ele><time>2026-03-28T09:29:07.764Z</time></trkpt><trkpt lat="45.7234717" lon="8.3254283"><ele>388.0</ele><time>2026-03-28T09:29:08.763Z</time></trkpt><trkpt lat="45.72344" lon="8.3251783"><ele>389.0</ele><time>2026-03-28T09:29:09.764Z</time></trkpt><trkpt lat="45.72342" lon="8.32495"><ele>389.0</ele><time>2026-03-28T09:29:10.765Z</time></trkpt><trkpt lat="45.72341" lon="8.3247367"><ele>389.0</ele><time>2026-03-28T09:29:11.766Z</time></trkpt><trkpt lat="45.7234017" lon="8.3245333"><ele>389.0</ele><time>2026-03-28T09:29:12.764Z</time></trkpt><trkpt lat="45.7233783" lon="8.3243317"><ele>389.0</ele><time>2026-03-28T09:29:13.764Z</time></trkpt><trkpt lat="45.7233417" lon="8.3241333"><ele>388.5</ele><time>2026-03-28T09:29:14.764Z</time></trkpt><trkpt lat="45.7232917" lon="8.323945"><ele>388.0</ele><time>2026-03-28T09:29:15.764Z</time></trkpt><trkpt lat="45.72322" lon="8.3237733"><ele>387.5</ele><time>2026-03-28T09:29:16.764Z</time></trkpt><trkpt lat="45.7231233" lon="8.32362"><ele>387.0</ele><time>2026-03-28T09:29:17.763Z</time></trkpt><trkpt lat="45.7230117" lon="8.323485"><ele>386.0</ele><time>2026-03-28T09:29:18.764Z</time></trkpt><trkpt lat="45.7228967" lon="8.3233683"><ele>385.0</ele><time>2026-03-28T09:29:19.764Z</time></trkpt><trkpt lat="45.72278" lon="8.3232733"><ele>384.0</ele><time>2026-03-28T09:29:20.763Z</time></trkpt><trkpt lat="45.7226583" lon="8.3231867"><ele>383.0</ele><time>2026-03-28T09:29:21.764Z</time></trkpt><trkpt lat="45.72253" lon="8.3230917"><ele>382.0</ele><time>2026-03-28T09:29:22.765Z</time></trkpt><trkpt lat="45.72241" lon="8.3229867"><ele>381.0</ele><time>2026-03-28T09:29:23.763Z</time></trkpt><trkpt lat="45.7223" lon="8.3228783"><ele>380.0</ele><time>2026-03-28T09:29:24.764Z</time></trkpt><trkpt lat="45.7221967" lon="8.3227533"><ele>379.0</ele><time>2026-03-28T09:29:25.767Z</time></trkpt><trkpt lat="45.7220967" lon="8.3226167"><ele>379.0</ele><time>2026-03-28T09:29:26.765Z</time></trkpt><trkpt lat="45.7219133" lon="8.3223017"><ele>379.0</ele><time>2026-03-28T09:29:28.764Z</time></trkpt><trkpt lat="45.7218283" lon="8.3221117"><ele>379.0</ele><time>2026-03-28T09:29:29.763Z</time></trkpt><trkpt lat="45.72176" lon="8.3219067"><ele>379.0</ele><time>2026-03-28T09:29:30.765Z</time></trkpt><trkpt lat="45.7217083" lon="8.3216917"><ele>379.0</ele><time>2026-03-28T09:29:31.764Z</time></trkpt><trkpt lat="45.7216717" lon="8.32148"><ele>379.0</ele><time>2026-03-28T09:29:32.763Z</time></trkpt><trkpt lat="45.7216467" lon="8.3212767"><ele>378.25</ele><time>2026-03-28T09:29:33.764Z</time></trkpt><trkpt lat="45.721625" lon="8.3210767"><ele>377.5</ele><time>2026-03-28T09:29:34.765Z</time></trkpt><trkpt lat="45.721605" lon="8.32088"><ele>376.75</ele><time>2026-03-28T09:29:35.764Z</time></trkpt><trkpt lat="45.7215917" lon="8.3206883"><ele>376.0</ele><time>2026-03-28T09:29:36.764Z</time></trkpt><trkpt lat="45.7215767" lon="8.320505"><ele>377.5</ele><time>2026-03-28T09:29:37.764Z</time></trkpt><trkpt lat="45.7215633" lon="8.3203333"><ele>379.0</ele><time>2026-03-28T09:29:38.764Z</time></trkpt><trkpt lat="45.7215483" lon="8.3201683"><ele>380.5</ele><time>2026-03-28T09:29:39.763Z</time></trkpt><trkpt lat="45.7215317" lon="8.3200033"><ele>382.0</ele><time>2026-03-28T09:29:40.764Z</time></trkpt><trkpt lat="45.7215217" lon="8.319845"><ele>381.40000000000003</ele><time>2026-03-28T09:29:41.764Z</time></trkpt><trkpt lat="45.72152" lon="8.31971"><ele>380.8</ele><time>2026-03-28T09:29:42.764Z</time></trkpt><trkpt lat="45.7215283" lon="8.3195983"><ele>380.2</ele><time>2026-03-28T09:29:43.764Z</time></trkpt><trkpt lat="45.72156" lon="8.3194467"><ele>379.6</ele><time>2026-03-28T09:29:45.764Z</time></trkpt><trkpt lat="45.721595" lon="8.3193317"><ele>379.0</ele><time>2026-03-28T09:29:47.764Z</time></trkpt><trkpt lat="45.7215633" lon="8.3190817"><ele>379.0</ele><time>2026-03-28T09:29:51.766Z</time></trkpt><trkpt lat="45.7215083" lon="8.31899"><ele>379.0</ele><time>2026-03-28T09:29:53.764Z</time></trkpt><trkpt lat="45.7214467" lon="8.318875"><ele>379.0</ele><time>2026-03-28T09:29:55.766Z</time></trkpt><trkpt lat="45.7214117" lon="8.3187883"><ele>379.0</ele><time>2026-03-28T09:29:56.763Z</time></trkpt><trkpt lat="45.7213883" lon="8.318645"><ele>379.0</ele><time>2026-03-28T09:29:57.763Z</time></trkpt><trkpt lat="45.7213667" lon="8.31842"><ele>379.3333333333333</ele><time>2026-03-28T09:29:58.764Z</time></trkpt><trkpt lat="45.7213483" lon="8.3181667"><ele>379.6666666666667</ele><time>2026-03-28T09:29:59.764Z</time></trkpt><trkpt lat="45.7213233" lon="8.3178883"><ele>380.0</ele><time>2026-03-28T09:30:00.765Z</time></trkpt><trkpt lat="45.721295" lon="8.3175783"><ele>380.0</ele><time>2026-03-28T09:30:01.764Z</time></trkpt><trkpt lat="45.7212633" lon="8.3172533"><ele>380.0</ele><time>2026-03-28T09:30:02.765Z</time></trkpt><trkpt lat="45.721235" lon="8.31693"><ele>380.33333333333337</ele><time>2026-03-28T09:30:03.765Z</time></trkpt><trkpt lat="45.7212083" lon="8.31663"><ele>380.6666666666667</ele><time>2026-03-28T09:30:04.763Z</time></trkpt><trkpt lat="45.721185" lon="8.316345"><ele>381.0</ele><time>2026-03-28T09:30:05.764Z</time></trkpt><trkpt lat="45.7211667" lon="8.3160567"><ele>381.6666666666667</ele><time>2026-03-28T09:30:06.764Z</time></trkpt><trkpt lat="45.7211533" lon="8.315765"><ele>382.33333333333337</ele><time>2026-03-28T09:30:07.765Z</time></trkpt><trkpt lat="45.7211483" lon="8.3154883"><ele>383.0</ele><time>2026-03-28T09:30:08.763Z</time></trkpt><trkpt lat="45.7211467" lon="8.3149633"><ele>381.0</ele><time>2026-03-28T09:30:10.764Z</time></trkpt><trkpt lat="45.72115" lon="8.3147067"><ele>379.0</ele><time>2026-03-28T09:30:11.764Z</time></trkpt><trkpt lat="45.721155" lon="8.3144617"><ele>377.0</ele><time>2026-03-28T09:30:12.764Z</time></trkpt><trkpt lat="45.7211617" lon="8.314225"><ele>377.0</ele><time>2026-03-28T09:30:13.764Z</time></trkpt><trkpt lat="45.7211717" lon="8.3139933"><ele>377.0</ele><time>2026-03-28T09:30:14.763Z</time></trkpt><trkpt lat="45.7211817" lon="8.3137567"><ele>377.0</ele><time>2026-03-28T09:30:15.763Z</time></trkpt><trkpt lat="45.72119" lon="8.3135133"><ele>375.33333333333337</ele><time>2026-03-28T09:30:16.764Z</time></trkpt><trkpt lat="45.7211967" lon="8.3132717"><ele>373.6666666666667</ele><time>2026-03-28T09:30:17.763Z</time></trkpt><trkpt lat="45.7212017" lon="8.31304"><ele>372.0</ele><time>2026-03-28T09:30:18.765Z</time></trkpt><trkpt lat="45.7212" lon="8.3128233"><ele>372.25</ele><time>2026-03-28T09:30:19.764Z</time></trkpt><trkpt lat="45.7211883" lon="8.3126233"><ele>372.5</ele><time>2026-03-28T09:30:20.764Z</time></trkpt><trkpt lat="45.721175" lon="8.3124367"><ele>372.75</ele><time>2026-03-28T09:30:21.764Z</time></trkpt><trkpt lat="45.7211817" lon="8.3122817"><ele>373.0</ele><time>2026-03-28T09:30:22.764Z</time></trkpt><trkpt lat="45.7212017" lon="8.3121533"><ele>373.0</ele><time>2026-03-28T09:30:23.766Z</time></trkpt><trkpt lat="45.7212283" lon="8.3120467"><ele>373.0</ele><time>2026-03-28T09:30:24.765Z</time></trkpt><trkpt lat="45.7212683" lon="8.311955"><ele>373.0</ele><time>2026-03-28T09:30:25.765Z</time></trkpt><trkpt lat="45.7213217" lon="8.3118783"><ele>373.0</ele><time>2026-03-28T09:30:26.764Z</time></trkpt><trkpt lat="45.7213833" lon="8.311815"><ele>373.0</ele><time>2026-03-28T09:30:27.764Z</time></trkpt><trkpt lat="45.7214617" lon="8.3117817"><ele>373.0</ele><time>2026-03-28T09:30:28.765Z</time></trkpt><trkpt lat="45.7215467" lon="8.3117933"><ele>373.0</ele><time>2026-03-28T09:30:29.763Z</time></trkpt><trkpt lat="45.7217217" lon="8.3119183"><ele>373.0</ele><time>2026-03-28T09:30:31.765Z</time></trkpt><trkpt lat="45.721785" lon="8.3119783"><ele>373.0</ele><time>2026-03-28T09:30:32.763Z</time></trkpt><trkpt lat="45.72188" lon="8.312025"><ele>373.0</ele><time>2026-03-28T09:30:34.765Z</time></trkpt><trkpt lat="45.7219483" lon="8.3119567"><ele>373.0</ele><time>2026-03-28T09:30:36.765Z</time></trkpt><trkpt lat="45.7219867" lon="8.3117517"><ele>373.0</ele><time>2026-03-28T09:30:38.763Z</time></trkpt><trkpt lat="45.722025" lon="8.311605"><ele>373.0</ele><time>2026-03-28T09:30:39.763Z</time></trkpt><trkpt lat="45.722075" lon="8.31147"><ele>373.0</ele><time>2026-03-28T09:30:40.764Z</time></trkpt><trkpt lat="45.7221483" lon="8.31136"><ele>379.25</ele><time>2026-03-28T09:30:41.765Z</time></trkpt><trkpt lat="45.722245" lon="8.311275"><ele>385.5</ele><time>2026-03-28T09:30:42.764Z</time></trkpt><trkpt lat="45.7223717" lon="8.3112"><ele>391.75</ele><time>2026-03-28T09:30:43.765Z</time></trkpt><trkpt lat="45.7225317" lon="8.31113"><ele>398.0</ele><time>2026-03-28T09:30:44.765Z</time></trkpt><trkpt lat="45.7227083" lon="8.3110567"><ele>393.5</ele><time>2026-03-28T09:30:45.764Z</time></trkpt><trkpt lat="45.7228667" lon="8.3109783"><ele>389.0</ele><time>2026-03-28T09:30:46.765Z</time></trkpt><trkpt lat="45.7229933" lon="8.310895"><ele>384.5</ele><time>2026-03-28T09:30:47.763Z</time></trkpt><trkpt lat="45.7231083" lon="8.310815"><ele>380.0</ele><time>2026-03-28T09:30:48.765Z</time></trkpt><trkpt lat="45.723215" lon="8.310745"><ele>380.0</ele><time>2026-03-28T09:30:49.764Z</time></trkpt><trkpt lat="45.7233233" lon="8.3107017"><ele>380.0</ele><time>2026-03-28T09:30:50.764Z</time></trkpt><trkpt lat="45.7235417" lon="8.3107067"><ele>380.0</ele><time>2026-03-28T09:30:52.764Z</time></trkpt><trkpt lat="45.7236433" lon="8.31072"><ele>380.0</ele><time>2026-03-28T09:30:53.764Z</time></trkpt><trkpt lat="45.7237283" lon="8.3107233"><ele>379.5</ele><time>2026-03-28T09:30:54.764Z</time></trkpt><trkpt lat="45.723795" lon="8.310725"><ele>379.0</ele><time>2026-03-28T09:30:55.764Z</time></trkpt><trkpt lat="45.7238733" lon="8.310715"><ele>378.5</ele><time>2026-03-28T09:30:57.764Z</time></trkpt><trkpt lat="45.7238767" lon="8.3106183"><ele>378.0</ele><time>2026-03-28T09:31:00.765Z</time></trkpt><trkpt lat="45.7237783" lon="8.3106467"><ele>377.5</ele><time>2026-03-28T09:31:02.767Z</time></trkpt><trkpt lat="45.723685" lon="8.3106933"><ele>377.0</ele><time>2026-03-28T09:31:03.763Z</time></trkpt><trkpt lat="45.7235833" lon="8.310725"><ele>377.75</ele><time>2026-03-28T09:31:04.768Z</time></trkpt><trkpt lat="45.72347" lon="8.31073"><ele>378.5</ele><time>2026-03-28T09:31:05.763Z</time></trkpt><trkpt lat="45.7233583" lon="8.3107333"><ele>379.25</ele><time>2026-03-28T09:31:06.765Z</time></trkpt><trkpt lat="45.7232433" lon="8.31075"><ele>380.0</ele><time>2026-03-28T09:31:07.765Z</time></trkpt><trkpt lat="45.7231367" lon="8.310785"><ele>380.0</ele><time>2026-03-28T09:31:08.766Z</time></trkpt><trkpt lat="45.7230433" lon="8.31084"><ele>380.0</ele><time>2026-03-28T09:31:09.766Z</time></trkpt><trkpt lat="45.7229483" lon="8.3109033"><ele>380.0</ele><time>2026-03-28T09:31:10.767Z</time></trkpt><trkpt lat="45.722845" lon="8.3109683"><ele>380.0</ele><time>2026-03-28T09:31:11.768Z</time></trkpt><trkpt lat="45.722585" lon="8.3110883"><ele>383.6</ele><time>2026-03-28T09:31:13.767Z</time></trkpt><trkpt lat="45.72246" lon="8.311145"><ele>387.2</ele><time>2026-03-28T09:31:14.766Z</time></trkpt><trkpt lat="45.7223533" lon="8.3112067"><ele>390.79999999999995</ele><time>2026-03-28T09:31:15.767Z</time></trkpt><trkpt lat="45.7222567" lon="8.311265"><ele>394.4</ele><time>2026-03-28T09:31:16.764Z</time></trkpt><trkpt lat="45.7221717" lon="8.3113217"><ele>398.0</ele><time>2026-03-28T09:31:17.764Z</time></trkpt><trkpt lat="45.7221" lon="8.3113783"><ele>393.8333333333333</ele><time>2026-03-28T09:31:18.765Z</time></trkpt><trkpt lat="45.7220417" lon="8.3114433"><ele>389.66666666666663</ele><time>2026-03-28T09:31:19.764Z</time></trkpt><trkpt lat="45.7219933" lon="8.3115283"><ele>385.5</ele><time>2026-03-28T09:31:20.764Z</time></trkpt><trkpt lat="45.721965" lon="8.3116367"><ele>381.3333333333333</ele><time>2026-03-28T09:31:21.763Z</time></trkpt><trkpt lat="45.7219383" lon="8.31174"><ele>377.16666666666663</ele><time>2026-03-28T09:31:22.764Z</time></trkpt><trkpt lat="45.7219133" lon="8.3118233"><ele>373.0</ele><time>2026-03-28T09:31:23.764Z</time></trkpt><trkpt lat="45.7218583" lon="8.3119267"><ele>373.0</ele><time>2026-03-28T09:31:25.766Z</time></trkpt><trkpt lat="45.7217867" lon="8.3118933"><ele>373.0</ele><time>2026-03-28T09:33:19.764Z</time></trkpt><trkpt lat="45.7215833" lon="8.311745"><ele>373.0</ele><time>2026-03-28T09:33:22.764Z</time></trkpt><trkpt lat="45.7214683" lon="8.3116317"><ele>373.0</ele><time>2026-03-28T09:33:23.766Z</time></trkpt><trkpt lat="45.72135" lon="8.3115217"><ele>373.0</ele><time>2026-03-28T09:33:24.764Z</time></trkpt><trkpt lat="45.72124" lon="8.31143"><ele>373.0</ele><time>2026-03-28T09:33:25.767Z</time></trkpt><trkpt lat="45.7211433" lon="8.31134"><ele>373.0</ele><time>2026-03-28T09:33:26.763Z</time></trkpt><trkpt lat="45.7210633" lon="8.31122"><ele>373.0</ele><time>2026-03-28T09:33:27.765Z</time></trkpt><trkpt lat="45.72099" lon="8.311075"><ele>373.0</ele><time>2026-03-28T09:33:28.764Z</time></trkpt><trkpt lat="45.72093" lon="8.3109183"><ele>373.0</ele><time>2026-03-28T09:33:29.765Z</time></trkpt><trkpt lat="45.7208767" lon="8.3107617"><ele>373.0</ele><time>2026-03-28T09:33:30.764Z</time></trkpt><trkpt lat="45.7208267" lon="8.3105983"><ele>373.0</ele><time>2026-03-28T09:33:31.766Z</time></trkpt><trkpt lat="45.7207817" lon="8.31043"><ele>373.0</ele><time>2026-03-28T09:33:32.763Z</time></trkpt><trkpt lat="45.72073" lon="8.3102467"><ele>373.0</ele><time>2026-03-28T09:33:33.764Z</time></trkpt><trkpt lat="45.720665" lon="8.3100417"><ele>373.0</ele><time>2026-03-28T09:33:34.765Z</time></trkpt><trkpt lat="45.72059" lon="8.3098067"><ele>376.0</ele><time>2026-03-28T09:33:35.764Z</time></trkpt><trkpt lat="45.7205083" lon="8.309545"><ele>379.0</ele><time>2026-03-28T09:33:36.766Z</time></trkpt><trkpt lat="45.7204233" lon="8.30925"><ele>382.0</ele><time>2026-03-28T09:33:37.764Z</time></trkpt><trkpt lat="45.72034" lon="8.3089283"><ele>387.0</ele><time>2026-03-28T09:33:38.764Z</time></trkpt><trkpt lat="45.7202467" lon="8.3085867"><ele>392.0</ele><time>2026-03-28T09:33:39.764Z</time></trkpt><trkpt lat="45.72015" lon="8.308235"><ele>368.0</ele><time>2026-03-28T09:33:40.767Z</time></trkpt><trkpt lat="45.7199617" lon="8.3075767"><ele>368.0</ele><time>2026-03-28T09:33:42.766Z</time></trkpt><trkpt lat="45.7198767" lon="8.3072783"><ele>368.0</ele><time>2026-03-28T09:33:43.764Z</time></trkpt><trkpt lat="45.7198083" lon="8.3069917"><ele>368.0</ele><time>2026-03-28T09:33:44.763Z</time></trkpt><trkpt lat="45.7197667" lon="8.306705"><ele>370.6666666666667</ele><time>2026-03-28T09:33:45.764Z</time></trkpt><trkpt lat="45.719755" lon="8.306415"><ele>373.3333333333333</ele><time>2026-03-28T09:33:46.765Z</time></trkpt><trkpt lat="45.719765" lon="8.3061367"><ele>376.0</ele><time>2026-03-28T09:33:47.764Z</time></trkpt><trkpt lat="45.7197867" lon="8.3058883"><ele>376.0</ele><time>2026-03-28T09:33:48.764Z</time></trkpt><trkpt lat="45.7198117" lon="8.30567"><ele>376.0</ele><time>2026-03-28T09:33:49.764Z</time></trkpt><trkpt lat="45.7198333" lon="8.305465"><ele>376.0</ele><time>2026-03-28T09:33:50.764Z</time></trkpt><trkpt lat="45.7198433" lon="8.3052833"><ele>376.0</ele><time>2026-03-28T09:33:51.766Z</time></trkpt><trkpt lat="45.7198417" lon="8.3051217"><ele>374.66666666666663</ele><time>2026-03-28T09:33:52.765Z</time></trkpt><trkpt lat="45.7198367" lon="8.304975"><ele>373.3333333333333</ele><time>2026-03-28T09:33:53.764Z</time></trkpt><trkpt lat="45.71983" lon="8.30485"><ele>372.0</ele><time>2026-03-28T09:33:54.766Z</time></trkpt><trkpt lat="45.7198233" lon="8.3047383"><ele>370.6666666666667</ele><time>2026-03-28T09:33:55.764Z</time></trkpt><trkpt lat="45.7198133" lon="8.3046283"><ele>369.33333333333337</ele><time>2026-03-28T09:33:56.767Z</time></trkpt><trkpt lat="45.7198017" lon="8.3045217"><ele>368.0</ele><time>2026-03-28T09:33:57.767Z</time></trkpt><trkpt lat="45.71979" lon="8.3044217"><ele>366.4</ele><time>2026-03-28T09:33:58.769Z</time></trkpt><trkpt lat="45.7197817" lon="8.30424"><ele>364.79999999999995</ele><time>2026-03-28T09:34:00.768Z</time></trkpt><trkpt lat="45.7198167" lon="8.3040733"><ele>363.2</ele><time>2026-03-28T09:34:02.763Z</time></trkpt><trkpt lat="45.71982" lon="8.30389"><ele>361.6</ele><time>2026-03-28T09:34:04.766Z</time></trkpt><trkpt lat="45.71979" lon="8.3038"><ele>360.0</ele><time>2026-03-28T09:34:05.764Z</time></trkpt><trkpt lat="45.719755" lon="8.30371"><ele>359.6</ele><time>2026-03-28T09:34:06.764Z</time></trkpt><trkpt lat="45.71972" lon="8.303605"><ele>359.2</ele><time>2026-03-28T09:34:07.765Z</time></trkpt><trkpt lat="45.719695" lon="8.303485"><ele>358.79999999999995</ele><time>2026-03-28T09:34:08.764Z</time></trkpt><trkpt lat="45.7196767" lon="8.303355"><ele>358.4</ele><time>2026-03-28T09:34:09.764Z</time></trkpt><trkpt lat="45.7196617" lon="8.3032167"><ele>358.0</ele><time>2026-03-28T09:34:10.764Z</time></trkpt><trkpt lat="45.7196417" lon="8.3030783"><ele>357.79999999999995</ele><time>2026-03-28T09:34:11.764Z</time></trkpt><trkpt lat="45.7196233" lon="8.302935"><ele>357.6</ele><time>2026-03-28T09:34:12.764Z</time></trkpt><trkpt lat="45.7196" lon="8.3027933"><ele>357.4</ele><time>2026-03-28T09:34:13.765Z</time></trkpt><trkpt lat="45.7195683" lon="8.3026533"><ele>357.20000000000005</ele><time>2026-03-28T09:34:14.764Z</time></trkpt><trkpt lat="45.71953" lon="8.3025167"><ele>357.0</ele><time>2026-03-28T09:34:15.764Z</time></trkpt><trkpt lat="45.7194833" lon="8.302385"><ele>357.0</ele><time>2026-03-28T09:34:16.765Z</time></trkpt><trkpt lat="45.7194267" lon="8.3022617"><ele>357.0</ele><time>2026-03-28T09:34:17.764Z</time></trkpt><trkpt lat="45.7193633" lon="8.3021483"><ele>357.0</ele><time>2026-03-28T09:34:18.765Z</time></trkpt><trkpt lat="45.7192933" lon="8.3020383"><ele>357.0</ele><time>2026-03-28T09:34:19.766Z</time></trkpt><trkpt lat="45.71922" lon="8.301935"><ele>357.0</ele><time>2026-03-28T09:34:20.764Z</time></trkpt><trkpt lat="45.719145" lon="8.30184"><ele>359.0</ele><time>2026-03-28T09:34:21.766Z</time></trkpt><trkpt lat="45.7190633" lon="8.3017467"><ele>361.0</ele><time>2026-03-28T09:34:22.764Z</time></trkpt><trkpt lat="45.7189683" lon="8.30166"><ele>363.0</ele><time>2026-03-28T09:34:23.769Z</time></trkpt><trkpt lat="45.7187367" lon="8.301495"><ele>363.0</ele><time>2026-03-28T09:34:25.768Z</time></trkpt><trkpt lat="45.7186067" lon="8.3014167"><ele>363.0</ele><time>2026-03-28T09:34:26.767Z</time></trkpt><trkpt lat="45.718475" lon="8.3013367"><ele>363.0</ele><time>2026-03-28T09:34:27.767Z</time></trkpt><trkpt lat="45.7183283" lon="8.3012467"><ele>363.0</ele><time>2026-03-28T09:34:28.767Z</time></trkpt><trkpt lat="45.7181567" lon="8.301145"><ele>363.3333333333333</ele><time>2026-03-28T09:34:29.767Z</time></trkpt><trkpt lat="45.7179817" lon="8.3010233"><ele>363.66666666666663</ele><time>2026-03-28T09:34:30.764Z</time></trkpt><trkpt lat="45.7178283" lon="8.3008967"><ele>364.0</ele><time>2026-03-28T09:34:31.766Z</time></trkpt><trkpt lat="45.7176967" lon="8.3007683"><ele>364.0</ele><time>2026-03-28T09:34:32.767Z</time></trkpt><trkpt lat="45.717575" lon="8.300635"><ele>364.0</ele><time>2026-03-28T09:34:33.766Z</time></trkpt><trkpt lat="45.7174517" lon="8.30049"><ele>364.0</ele><time>2026-03-28T09:34:34.766Z</time></trkpt><trkpt lat="45.7173283" lon="8.30033"><ele>363.3333333333333</ele><time>2026-03-28T09:34:35.767Z</time></trkpt><trkpt lat="45.7172133" lon="8.3001667"><ele>362.6666666666667</ele><time>2026-03-28T09:34:36.768Z</time></trkpt><trkpt lat="45.7171017" lon="8.3000033"><ele>362.0</ele><time>2026-03-28T09:34:37.767Z</time></trkpt><trkpt lat="45.716985" lon="8.2998383"><ele>357.0</ele><time>2026-03-28T09:34:38.766Z</time></trkpt><trkpt lat="45.7168683" lon="8.2996583"><ele>352.0</ele><time>2026-03-28T09:34:39.767Z</time></trkpt><trkpt lat="45.7167633" lon="8.2994767"><ele>347.0</ele><time>2026-03-28T09:34:40.766Z</time></trkpt><trkpt lat="45.7166717" lon="8.299295"><ele>347.0</ele><time>2026-03-28T09:34:41.767Z</time></trkpt><trkpt lat="45.71659" lon="8.29911"><ele>347.0</ele><time>2026-03-28T09:34:42.767Z</time></trkpt><trkpt lat="45.7165133" lon="8.2989183"><ele>347.0</ele><time>2026-03-28T09:34:43.769Z</time></trkpt><trkpt lat="45.7164517" lon="8.29872"><ele>350.33333333333337</ele><time>2026-03-28T09:34:44.767Z</time></trkpt><trkpt lat="45.7163367" lon="8.2983367"><ele>353.6666666666667</ele><time>2026-03-28T09:34:46.766Z</time></trkpt><trkpt lat="45.7162717" lon="8.29816"><ele>357.0</ele><time>2026-03-28T09:34:47.766Z</time></trkpt><trkpt lat="45.7161933" lon="8.2979983"><ele>359.0</ele><time>2026-03-28T09:34:48.767Z</time></trkpt><trkpt lat="45.7161067" lon="8.2978517"><ele>361.0</ele><time>2026-03-28T09:34:49.766Z</time></trkpt><trkpt lat="45.7160117" lon="8.2977267"><ele>363.0</ele><time>2026-03-28T09:34:50.766Z</time></trkpt><trkpt lat="45.71591" lon="8.297625"><ele>365.0</ele><time>2026-03-28T09:34:51.766Z</time></trkpt><trkpt lat="45.7157933" lon="8.297555"><ele>365.0</ele><time>2026-03-28T09:34:52.768Z</time></trkpt><trkpt lat="45.7156683" lon="8.2975117"><ele>365.0</ele><time>2026-03-28T09:34:53.767Z</time></trkpt><trkpt lat="45.71554" lon="8.2974867"><ele>365.0</ele><time>2026-03-28T09:34:54.767Z</time></trkpt><trkpt lat="45.715405" lon="8.2974783"><ele>365.0</ele><time>2026-03-28T09:34:55.764Z</time></trkpt><trkpt lat="45.7152483" lon="8.2974933"><ele>361.6666666666667</ele><time>2026-03-28T09:34:56.767Z</time></trkpt><trkpt lat="45.7150767" lon="8.2975117"><ele>358.3333333333333</ele><time>2026-03-28T09:34:57.767Z</time></trkpt><trkpt lat="45.71489" lon="8.2975333"><ele>355.0</ele><time>2026-03-28T09:34:58.767Z</time></trkpt><trkpt lat="45.7147017" lon="8.2975417"><ele>355.0</ele><time>2026-03-28T09:34:59.768Z</time></trkpt><trkpt lat="45.71451" lon="8.297565"><ele>355.0</ele><time>2026-03-28T09:35:00.767Z</time></trkpt><trkpt lat="45.71433" lon="8.2975783"><ele>355.0</ele><time>2026-03-28T09:35:01.767Z</time></trkpt><trkpt lat="45.71415" lon="8.2975917"><ele>353.3333333333333</ele><time>2026-03-28T09:35:02.765Z</time></trkpt><trkpt lat="45.7139617" lon="8.29762"><ele>351.6666666666667</ele><time>2026-03-28T09:35:03.766Z</time></trkpt><trkpt lat="45.713765" lon="8.2976333"><ele>350.0</ele><time>2026-03-28T09:35:04.768Z</time></trkpt><trkpt lat="45.7135733" lon="8.297645"><ele>347.0</ele><time>2026-03-28T09:35:05.767Z</time></trkpt><trkpt lat="45.713215" lon="8.2976483"><ele>344.0</ele><time>2026-03-28T09:35:07.769Z</time></trkpt><trkpt lat="45.7130567" lon="8.2976633"><ele>344.0</ele><time>2026-03-28T09:35:08.767Z</time></trkpt><trkpt lat="45.71291" lon="8.2976767"><ele>344.0</ele><time>2026-03-28T09:35:09.767Z</time></trkpt><trkpt lat="45.7127767" lon="8.29769"><ele>344.0</ele><time>2026-03-28T09:35:10.768Z</time></trkpt><trkpt lat="45.7126533" lon="8.2977033"><ele>344.0</ele><time>2026-03-28T09:35:11.767Z</time></trkpt><trkpt lat="45.7125383" lon="8.2977067"><ele>344.75</ele><time>2026-03-28T09:35:12.769Z</time></trkpt><trkpt lat="45.712425" lon="8.2977083"><ele>345.5</ele><time>2026-03-28T09:35:13.767Z</time></trkpt><trkpt lat="45.7123117" lon="8.29771"><ele>346.25</ele><time>2026-03-28T09:35:14.767Z</time></trkpt><trkpt lat="45.7122" lon="8.2976967"><ele>347.0</ele><time>2026-03-28T09:35:15.764Z</time></trkpt><trkpt lat="45.7120867" lon="8.2976717"><ele>347.0</ele><time>2026-03-28T09:35:16.764Z</time></trkpt><trkpt lat="45.711975" lon="8.2976133"><ele>347.0</ele><time>2026-03-28T09:35:17.764Z</time></trkpt><trkpt lat="45.7118717" lon="8.29753"><ele>347.0</ele><time>2026-03-28T09:35:18.767Z</time></trkpt><trkpt lat="45.711785" lon="8.2974267"><ele>347.0</ele><time>2026-03-28T09:35:19.764Z</time></trkpt><trkpt lat="45.711705" lon="8.2973017"><ele>347.25</ele><time>2026-03-28T09:35:20.764Z</time></trkpt><trkpt lat="45.7116367" lon="8.2971583"><ele>347.5</ele><time>2026-03-28T09:35:21.764Z</time></trkpt><trkpt lat="45.7115783" lon="8.2969967"><ele>347.75</ele><time>2026-03-28T09:35:22.764Z</time></trkpt><trkpt lat="45.7115283" lon="8.296835"><ele>348.0</ele><time>2026-03-28T09:35:23.768Z</time></trkpt><trkpt lat="45.711485" lon="8.296685"><ele>348.0</ele><time>2026-03-28T09:35:24.767Z</time></trkpt><trkpt lat="45.7114517" lon="8.2965517"><ele>348.0</ele><time>2026-03-28T09:35:25.769Z</time></trkpt><trkpt lat="45.7114233" lon="8.2964417"><ele>348.0</ele><time>2026-03-28T09:35:26.767Z</time></trkpt><trkpt lat="45.7113733" lon="8.2962533"><ele>348.0</ele><time>2026-03-28T09:35:28.767Z</time></trkpt><trkpt lat="45.7113467" lon="8.2961517"><ele>348.0</ele><time>2026-03-28T09:35:29.767Z</time></trkpt><trkpt lat="45.711315" lon="8.2960467"><ele>348.2</ele><time>2026-03-28T09:35:30.767Z</time></trkpt><trkpt lat="45.71128" lon="8.2959333"><ele>348.4</ele><time>2026-03-28T09:35:31.766Z</time></trkpt><trkpt lat="45.711245" lon="8.2958083"><ele>348.59999999999997</ele><time>2026-03-28T09:35:32.764Z</time></trkpt><trkpt lat="45.711205" lon="8.2956783"><ele>348.79999999999995</ele><time>2026-03-28T09:35:33.764Z</time></trkpt><trkpt lat="45.7111667" lon="8.295545"><ele>349.0</ele><time>2026-03-28T09:35:34.764Z</time></trkpt><trkpt lat="45.7111317" lon="8.2954183"><ele>349.0</ele><time>2026-03-28T09:35:35.764Z</time></trkpt><trkpt lat="45.7111" lon="8.2953017"><ele>349.0</ele><time>2026-03-28T09:35:36.764Z</time></trkpt><trkpt lat="45.7110733" lon="8.2951967"><ele>349.0</ele><time>2026-03-28T09:35:37.764Z</time></trkpt><trkpt lat="45.711045" lon="8.295095"><ele>349.0</ele><time>2026-03-28T09:35:38.765Z</time></trkpt><trkpt lat="45.7110167" lon="8.2949933"><ele>349.0</ele><time>2026-03-28T09:35:39.766Z</time></trkpt><trkpt lat="45.7109883" lon="8.294895"><ele>349.0</ele><time>2026-03-28T09:35:40.767Z</time></trkpt><trkpt lat="45.71096" lon="8.2947983"><ele>348.5</ele><time>2026-03-28T09:35:41.765Z</time></trkpt><trkpt lat="45.7109383" lon="8.2947033"><ele>348.0</ele><time>2026-03-28T09:35:42.764Z</time></trkpt><trkpt lat="45.7109083" lon="8.2946067"><ele>347.5</ele><time>2026-03-28T09:35:43.768Z</time></trkpt><trkpt lat="45.7108717" lon="8.2944983"><ele>347.0</ele><time>2026-03-28T09:35:44.763Z</time></trkpt><trkpt lat="45.7108383" lon="8.2943817"><ele>346.5</ele><time>2026-03-28T09:35:45.764Z</time></trkpt><trkpt lat="45.7108067" lon="8.29427"><ele>346.0</ele><time>2026-03-28T09:35:46.764Z</time></trkpt><trkpt lat="45.7107733" lon="8.2941617"><ele>346.0</ele><time>2026-03-28T09:35:47.765Z</time></trkpt><trkpt lat="45.7107167" lon="8.293955"><ele>346.0</ele><time>2026-03-28T09:35:49.764Z</time></trkpt><trkpt lat="45.71069" lon="8.2938617"><ele>346.0</ele><time>2026-03-28T09:35:50.766Z</time></trkpt><trkpt lat="45.71066" lon="8.293765"><ele>346.0</ele><time>2026-03-28T09:35:51.766Z</time></trkpt><trkpt lat="45.71063" lon="8.2936567"><ele>346.0</ele><time>2026-03-28T09:35:52.766Z</time></trkpt><trkpt lat="45.7106033" lon="8.2935333"><ele>346.0</ele><time>2026-03-28T09:35:53.766Z</time></trkpt><trkpt lat="45.7105883" lon="8.2933983"><ele>346.0</ele><time>2026-03-28T09:35:54.766Z</time></trkpt><trkpt lat="45.7105817" lon="8.2932567"><ele>346.0</ele><time>2026-03-28T09:35:55.766Z</time></trkpt><trkpt lat="45.7105883" lon="8.2931083"><ele>346.0</ele><time>2026-03-28T09:35:56.766Z</time></trkpt><trkpt lat="45.7106083" lon="8.2929583"><ele>346.0</ele><time>2026-03-28T09:35:57.766Z</time></trkpt><trkpt lat="45.7106367" lon="8.2928133"><ele>345.8</ele><time>2026-03-28T09:35:58.766Z</time></trkpt><trkpt lat="45.7106683" lon="8.2926733"><ele>345.6</ele><time>2026-03-28T09:35:59.766Z</time></trkpt><trkpt lat="45.7107" lon="8.2925333"><ele>345.4</ele><time>2026-03-28T09:36:00.768Z</time></trkpt><trkpt lat="45.7107333" lon="8.2923867"><ele>345.2</ele><time>2026-03-28T09:36:01.764Z</time></trkpt><trkpt lat="45.7107683" lon="8.292245"><ele>345.0</ele><time>2026-03-28T09:36:02.764Z</time></trkpt><trkpt lat="45.7108033" lon="8.2921117"><ele>344.8</ele><time>2026-03-28T09:36:03.764Z</time></trkpt><trkpt lat="45.710835" lon="8.2919767"><ele>344.6</ele><time>2026-03-28T09:36:04.764Z</time></trkpt><trkpt lat="45.7108683" lon="8.2918383"><ele>344.4</ele><time>2026-03-28T09:36:05.764Z</time></trkpt><trkpt lat="45.7109017" lon="8.2917"><ele>344.2</ele><time>2026-03-28T09:36:06.764Z</time></trkpt><trkpt lat="45.7109317" lon="8.2915667"><ele>344.0</ele><time>2026-03-28T09:36:07.764Z</time></trkpt><trkpt lat="45.71096" lon="8.29144"><ele>344.0</ele><time>2026-03-28T09:36:08.764Z</time></trkpt><trkpt lat="45.711005" lon="8.2911833"><ele>344.0</ele><time>2026-03-28T09:36:10.768Z</time></trkpt><trkpt lat="45.711025" lon="8.2910683"><ele>344.0</ele><time>2026-03-28T09:36:11.764Z</time></trkpt><trkpt lat="45.711045" lon="8.2909567"><ele>344.0</ele><time>2026-03-28T09:36:12.768Z</time></trkpt><trkpt lat="45.7110633" lon="8.29085"><ele>344.0</ele><time>2026-03-28T09:36:13.766Z</time></trkpt><trkpt lat="45.7110817" lon="8.2907483"><ele>345.14285714285717</ele><time>2026-03-28T09:36:14.766Z</time></trkpt><trkpt lat="45.7110967" lon="8.2906517"><ele>346.2857142857143</ele><time>2026-03-28T09:36:15.768Z</time></trkpt><trkpt lat="45.7111117" lon="8.290555"><ele>347.42857142857144</ele><time>2026-03-28T09:36:16.766Z</time></trkpt><trkpt lat="45.7111217" lon="8.29046"><ele>348.57142857142856</ele><time>2026-03-28T09:36:17.766Z</time></trkpt><trkpt lat="45.7111283" lon="8.2903633"><ele>349.7142857142857</ele><time>2026-03-28T09:36:18.767Z</time></trkpt><trkpt lat="45.7111283" lon="8.2902633"><ele>350.8571428571429</ele><time>2026-03-28T09:36:19.767Z</time></trkpt><trkpt lat="45.7111267" lon="8.2901583"><ele>352.0</ele><time>2026-03-28T09:36:20.766Z</time></trkpt><trkpt lat="45.7111233" lon="8.2900617"><ele>353.0</ele><time>2026-03-28T09:36:21.766Z</time></trkpt><trkpt lat="45.7111183" lon="8.289965"><ele>354.0</ele><time>2026-03-28T09:36:22.766Z</time></trkpt><trkpt lat="45.7111083" lon="8.2898467"><ele>355.0</ele><time>2026-03-28T09:36:23.766Z</time></trkpt><trkpt lat="45.7110933" lon="8.289685"><ele>356.0</ele><time>2026-03-28T09:36:24.766Z</time></trkpt><trkpt lat="45.7110833" lon="8.2894967"><ele>357.0</ele><time>2026-03-28T09:36:25.765Z</time></trkpt><trkpt lat="45.7110733" lon="8.2893"><ele>357.5</ele><time>2026-03-28T09:36:26.767Z</time></trkpt><trkpt lat="45.7110667" lon="8.2891017"><ele>358.0</ele><time>2026-03-28T09:36:27.767Z</time></trkpt><trkpt lat="45.7110667" lon="8.28891"><ele>358.5</ele><time>2026-03-28T09:36:28.768Z</time></trkpt><trkpt lat="45.7110683" lon="8.288725"><ele>359.0</ele><time>2026-03-28T09:36:29.767Z</time></trkpt><trkpt lat="45.7110917" lon="8.2883717"><ele>359.0</ele><time>2026-03-28T09:36:31.765Z</time></trkpt><trkpt lat="45.7111283" lon="8.2881917"><ele>359.0</ele><time>2026-03-28T09:36:32.767Z</time></trkpt><trkpt lat="45.7111733" lon="8.287985"><ele>359.0</ele><time>2026-03-28T09:36:33.765Z</time></trkpt><trkpt lat="45.71123" lon="8.28775"><ele>357.33333333333337</ele><time>2026-03-28T09:36:34.765Z</time></trkpt><trkpt lat="45.7113" lon="8.2875183"><ele>355.6666666666667</ele><time>2026-03-28T09:36:35.769Z</time></trkpt><trkpt lat="45.7113633" lon="8.28731"><ele>354.0</ele><time>2026-03-28T09:36:36.765Z</time></trkpt><trkpt lat="45.711425" lon="8.287135"><ele>352.4</ele><time>2026-03-28T09:36:37.766Z</time></trkpt><trkpt lat="45.7114817" lon="8.2869883"><ele>350.79999999999995</ele><time>2026-03-28T09:36:38.765Z</time></trkpt><trkpt lat="45.7115467" lon="8.2868783"><ele>349.20000000000005</ele><time>2026-03-28T09:36:39.767Z</time></trkpt><trkpt lat="45.7116117" lon="8.2867917"><ele>347.6</ele><time>2026-03-28T09:36:40.768Z</time></trkpt><trkpt lat="45.711665" lon="8.286705"><ele>346.0</ele><time>2026-03-28T09:36:41.767Z</time></trkpt><trkpt lat="45.7116933" lon="8.28661"><ele>346.0</ele><time>2026-03-28T09:36:42.765Z</time></trkpt><trkpt lat="45.7117083" lon="8.2865083"><ele>346.0</ele><time>2026-03-28T09:36:43.77Z</time></trkpt><trkpt lat="45.71172" lon="8.286405"><ele>346.0</ele><time>2026-03-28T09:36:44.767Z</time></trkpt><trkpt lat="45.7117483" lon="8.2863067"><ele>346.0</ele><time>2026-03-28T09:36:45.765Z</time></trkpt><trkpt lat="45.7117817" lon="8.2862117"><ele>346.0</ele><time>2026-03-28T09:36:46.767Z</time></trkpt><trkpt lat="45.7118083" lon="8.2861117"><ele>346.0</ele><time>2026-03-28T09:36:47.766Z</time></trkpt><trkpt lat="45.7118483" lon="8.2860083"><ele>345.5</ele><time>2026-03-28T09:36:48.767Z</time></trkpt><trkpt lat="45.7118933" lon="8.285905"><ele>345.0</ele><time>2026-03-28T09:36:49.767Z</time></trkpt><trkpt lat="45.7119383" lon="8.285815"><ele>344.5</ele><time>2026-03-28T09:36:50.767Z</time></trkpt><trkpt lat="45.7120767" lon="8.28562"><ele>344.0</ele><time>2026-03-28T09:36:54.767Z</time></trkpt><trkpt lat="45.712145" lon="8.28548"><ele>343.83333333333337</ele><time>2026-03-28T09:36:56.767Z</time></trkpt><trkpt lat="45.712185" lon="8.285395"><ele>343.6666666666667</ele><time>2026-03-28T09:36:57.768Z</time></trkpt><trkpt lat="45.7122217" lon="8.28529"><ele>343.5</ele><time>2026-03-28T09:36:58.767Z</time></trkpt><trkpt lat="45.7122583" lon="8.2851867"><ele>343.3333333333333</ele><time>2026-03-28T09:36:59.764Z</time></trkpt><trkpt lat="45.71229" lon="8.2850917"><ele>343.16666666666663</ele><time>2026-03-28T09:37:00.767Z</time></trkpt><trkpt lat="45.7123167" lon="8.2849983"><ele>343.0</ele><time>2026-03-28T09:37:01.764Z</time></trkpt><trkpt lat="45.7123533" lon="8.2849"><ele>343.0</ele><time>2026-03-28T09:37:02.764Z</time></trkpt><trkpt lat="45.7123883" lon="8.2848083"><ele>343.0</ele><time>2026-03-28T09:37:03.764Z</time></trkpt><trkpt lat="45.7124233" lon="8.2847167"><ele>343.0</ele><time>2026-03-28T09:37:04.764Z</time></trkpt><trkpt lat="45.71246" lon="8.284625"><ele>343.0</ele><time>2026-03-28T09:37:05.764Z</time></trkpt><trkpt lat="45.712495" lon="8.28453"><ele>343.0</ele><time>2026-03-28T09:37:06.764Z</time></trkpt><trkpt lat="45.712535" lon="8.2844333"><ele>343.0</ele><time>2026-03-28T09:37:07.766Z</time></trkpt><trkpt lat="45.7125767" lon="8.2843317"><ele>343.2</ele><time>2026-03-28T09:37:08.764Z</time></trkpt><trkpt lat="45.71262" lon="8.2842233"><ele>343.4</ele><time>2026-03-28T09:37:09.764Z</time></trkpt><trkpt lat="45.7126583" lon="8.28411"><ele>343.59999999999997</ele><time>2026-03-28T09:37:10.767Z</time></trkpt><trkpt lat="45.7127033" lon="8.2839983"><ele>343.79999999999995</ele><time>2026-03-28T09:37:11.764Z</time></trkpt><trkpt lat="45.71278" lon="8.2837883"><ele>344.0</ele><time>2026-03-28T09:37:13.768Z</time></trkpt><trkpt lat="45.7128" lon="8.283675"><ele>344.1666666666667</ele><time>2026-03-28T09:37:14.767Z</time></trkpt><trkpt lat="45.7127833" lon="8.2835517"><ele>344.33333333333337</ele><time>2026-03-28T09:37:15.764Z</time></trkpt><trkpt lat="45.7127733" lon="8.2834567"><ele>344.5</ele><time>2026-03-28T09:37:16.766Z</time></trkpt><trkpt lat="45.7127683" lon="8.2833083"><ele>344.6666666666667</ele><time>2026-03-28T09:37:18.764Z</time></trkpt><trkpt lat="45.71281" lon="8.2831783"><ele>344.8333333333333</ele><time>2026-03-28T09:37:20.765Z</time></trkpt><trkpt lat="45.7128483" lon="8.28307"><ele>345.0</ele><time>2026-03-28T09:37:22.764Z</time></trkpt><trkpt lat="45.7127783" lon="8.2830933"><ele>344.75</ele><time>2026-03-28T09:37:29.766Z</time></trkpt><trkpt lat="45.71272" lon="8.2832183"><ele>344.5</ele><time>2026-03-28T09:37:31.767Z</time></trkpt><trkpt lat="45.7126567" lon="8.2832533"><ele>344.25</ele><time>2026-03-28T09:37:40.767Z</time></trkpt><trkpt lat="45.7128567" lon="8.282995"><ele>344.0</ele><time>2026-03-28T09:42:21.765Z</time></trkpt><trkpt lat="45.7129183" lon="8.2830583"><ele>344.1666666666667</ele><time>2026-03-28T09:42:23.764Z</time></trkpt><trkpt lat="45.712965" lon="8.283125"><ele>344.33333333333337</ele><time>2026-03-28T09:42:31.764Z</time></trkpt><trkpt lat="45.71305" lon="8.28311"><ele>344.5</ele><time>2026-03-28T09:42:34.764Z</time></trkpt><trkpt lat="45.71309" lon="8.2830333"><ele>344.6666666666667</ele><time>2026-03-28T09:42:35.764Z</time></trkpt><trkpt lat="45.7131367" lon="8.2829333"><ele>344.8333333333333</ele><time>2026-03-28T09:42:36.765Z</time></trkpt><trkpt lat="45.71318" lon="8.28283"><ele>345.0</ele><time>2026-03-28T09:42:37.764Z</time></trkpt><trkpt lat="45.7132217" lon="8.2827317"><ele>345.3333333333333</ele><time>2026-03-28T09:42:38.764Z</time></trkpt><trkpt lat="45.7132583" lon="8.2826333"><ele>345.6666666666667</ele><time>2026-03-28T09:42:39.765Z</time></trkpt><trkpt lat="45.7133" lon="8.2825317"><ele>346.0</ele><time>2026-03-28T09:42:40.764Z</time></trkpt><trkpt lat="45.7133433" lon="8.2824283"><ele>346.33333333333337</ele><time>2026-03-28T09:42:41.764Z</time></trkpt><trkpt lat="45.7133833" lon="8.282325"><ele>346.6666666666667</ele><time>2026-03-28T09:42:42.766Z</time></trkpt><trkpt lat="45.713425" lon="8.2822183"><ele>347.0</ele><time>2026-03-28T09:42:43.765Z</time></trkpt><trkpt lat="45.713465" lon="8.2821083"><ele>347.1666666666667</ele><time>2026-03-28T09:42:44.765Z</time></trkpt><trkpt lat="45.7135067" lon="8.2820033"><ele>347.33333333333337</ele><time>2026-03-28T09:42:45.764Z</time></trkpt><trkpt lat="45.7135433" lon="8.2819017"><ele>347.5</ele><time>2026-03-28T09:42:46.764Z</time></trkpt><trkpt lat="45.71358" lon="8.2818067"><ele>347.6666666666667</ele><time>2026-03-28T09:42:47.764Z</time></trkpt><trkpt lat="45.7136167" lon="8.28171"><ele>347.8333333333333</ele><time>2026-03-28T09:42:48.764Z</time></trkpt><trkpt lat="45.7136533" lon="8.2816067"><ele>348.0</ele><time>2026-03-28T09:42:49.764Z</time></trkpt><trkpt lat="45.7136933" lon="8.2814917"><ele>348.3333333333333</ele><time>2026-03-28T09:42:50.764Z</time></trkpt><trkpt lat="45.7137383" lon="8.2813783"><ele>348.6666666666667</ele><time>2026-03-28T09:42:51.764Z</time></trkpt><trkpt lat="45.713785" lon="8.281275"><ele>349.0</ele><time>2026-03-28T09:42:52.764Z</time></trkpt><trkpt lat="45.713835" lon="8.2811783"><ele>349.33333333333337</ele><time>2026-03-28T09:42:53.764Z</time></trkpt><trkpt lat="45.7138783" lon="8.2810833"><ele>349.6666666666667</ele><time>2026-03-28T09:42:54.764Z</time></trkpt><trkpt lat="45.71392" lon="8.2809933"><ele>350.0</ele><time>2026-03-28T09:42:55.764Z</time></trkpt><trkpt lat="45.7139567" lon="8.280905"><ele>350.0</ele><time>2026-03-28T09:42:56.764Z</time></trkpt><trkpt lat="45.713995" lon="8.2808167"><ele>350.0</ele><time>2026-03-28T09:42:57.764Z</time></trkpt><trkpt lat="45.7140317" lon="8.2807383"><ele>350.0</ele><time>2026-03-28T09:42:58.764Z</time></trkpt><trkpt lat="45.7140667" lon="8.2806533"><ele>350.0</ele><time>2026-03-28T09:42:59.764Z</time></trkpt><trkpt lat="45.7141067" lon="8.2805483"><ele>350.0</ele><time>2026-03-28T09:43:00.764Z</time></trkpt><trkpt lat="45.7141517" lon="8.2804383"><ele>350.0</ele><time>2026-03-28T09:43:01.765Z</time></trkpt><trkpt lat="45.7141933" lon="8.2803383"><ele>350.1666666666667</ele><time>2026-03-28T09:43:02.765Z</time></trkpt><trkpt lat="45.714235" lon="8.28025"><ele>350.33333333333337</ele><time>2026-03-28T09:43:03.765Z</time></trkpt><trkpt lat="45.7142717" lon="8.2801733"><ele>350.5</ele><time>2026-03-28T09:43:04.765Z</time></trkpt><trkpt lat="45.7143117" lon="8.2800883"><ele>350.6666666666667</ele><time>2026-03-28T09:43:05.765Z</time></trkpt><trkpt lat="45.7143567" lon="8.2799833"><ele>350.8333333333333</ele><time>2026-03-28T09:43:06.764Z</time></trkpt><trkpt lat="45.7144017" lon="8.27988"><ele>351.0</ele><time>2026-03-28T09:43:07.767Z</time></trkpt><trkpt lat="45.71444" lon="8.2797767"><ele>352.0</ele><time>2026-03-28T09:43:08.764Z</time></trkpt><trkpt lat="45.7144683" lon="8.27968"><ele>353.0</ele><time>2026-03-28T09:43:09.765Z</time></trkpt><trkpt lat="45.7145" lon="8.2795983"><ele>354.0</ele><time>2026-03-28T09:43:10.768Z</time></trkpt><trkpt lat="45.7145617" lon="8.2794717"><ele>355.0</ele><time>2026-03-28T09:43:12.768Z</time></trkpt><trkpt lat="45.7146317" lon="8.279315"><ele>356.0</ele><time>2026-03-28T09:43:14.768Z</time></trkpt><trkpt lat="45.7146633" lon="8.27923"><ele>357.0</ele><time>2026-03-28T09:43:15.767Z</time></trkpt><trkpt lat="45.71471" lon="8.2791067"><ele>357.0</ele><time>2026-03-28T09:43:17.765Z</time></trkpt><trkpt lat="45.7147467" lon="8.2790283"><ele>357.0</ele><time>2026-03-28T09:43:20.764Z</time></trkpt><trkpt lat="45.7147567" lon="8.2789317"><ele>357.0</ele><time>2026-03-28T09:43:25.765Z</time></trkpt><trkpt lat="45.7147867" lon="8.27884"><ele>357.0</ele><time>2026-03-28T09:43:28.766Z</time></trkpt><trkpt lat="45.71481" lon="8.2787467"><ele>357.0</ele><time>2026-03-28T09:43:31.768Z</time></trkpt><trkpt lat="45.7148567" lon="8.2786383"><ele>357.0</ele><time>2026-03-28T09:43:37.765Z</time></trkpt><trkpt lat="45.7149717" lon="8.278645"><ele>357.25</ele><time>2026-03-28T09:43:40.766Z</time></trkpt><trkpt lat="45.7150583" lon="8.2787167"><ele>357.5</ele><time>2026-03-28T09:43:41.768Z</time></trkpt><trkpt lat="45.7151667" lon="8.2788017"><ele>357.75</ele><time>2026-03-28T09:43:42.769Z</time></trkpt><trkpt lat="45.7153" lon="8.2788717"><ele>358.0</ele><time>2026-03-28T09:43:43.765Z</time></trkpt><trkpt lat="45.7154033" lon="8.2789583"><ele>357.4</ele><time>2026-03-28T09:43:44.767Z</time></trkpt><trkpt lat="45.7155017" lon="8.2790283"><ele>356.79999999999995</ele><time>2026-03-28T09:43:45.767Z</time></trkpt><trkpt lat="45.7155783" lon="8.2790883"><ele>356.2</ele><time>2026-03-28T09:43:46.768Z</time></trkpt><trkpt lat="45.71564" lon="8.279135"><ele>355.6</ele><time>2026-03-28T09:43:47.764Z</time></trkpt><trkpt lat="45.7157217" lon="8.2792"><ele>355.0</ele><time>2026-03-28T09:43:49.765Z</time></trkpt><trkpt lat="45.7158167" lon="8.2792733"><ele>355.0</ele><time>2026-03-28T09:43:56.767Z</time></trkpt><trkpt lat="45.715895" lon="8.27933"><ele>355.0</ele><time>2026-03-28T09:43:58.764Z</time></trkpt><trkpt lat="45.7159917" lon="8.2793733"><ele>355.0</ele><time>2026-03-28T09:44:00.765Z</time></trkpt><trkpt lat="45.7160867" lon="8.27944"><ele>355.0</ele><time>2026-03-28T09:44:02.765Z</time></trkpt><trkpt lat="45.71617" lon="8.2794933"><ele>355.0</ele><time>2026-03-28T09:44:04.767Z</time></trkpt><trkpt lat="45.7162233" lon="8.2795433"><ele>355.16666666666663</ele><time>2026-03-28T09:44:06.764Z</time></trkpt><trkpt lat="45.716295" lon="8.2796433"><ele>355.3333333333333</ele><time>2026-03-28T09:44:12.764Z</time></trkpt><trkpt lat="45.716355" lon="8.279705"><ele>355.5</ele><time>2026-03-28T09:44:15.766Z</time></trkpt><trkpt lat="45.7164333" lon="8.2797217"><ele>355.6666666666667</ele><time>2026-03-28T09:44:19.768Z</time></trkpt><trkpt lat="45.71649" lon="8.27966"><ele>355.83333333333337</ele><time>2026-03-28T09:44:21.764Z</time></trkpt><trkpt lat="45.716525" lon="8.2795483"><ele>356.0</ele><time>2026-03-28T09:44:23.768Z</time></trkpt><trkpt lat="45.716555" lon="8.2794267"><ele>356.0</ele><time>2026-03-28T09:44:25.767Z</time></trkpt><trkpt lat="45.716585" lon="8.27928"><ele>356.0</ele><time>2026-03-28T09:44:27.764Z</time></trkpt><trkpt lat="45.7166133" lon="8.2791133"><ele>356.0</ele><time>2026-03-28T09:44:29.764Z</time></trkpt><trkpt lat="45.71663" lon="8.2789433"><ele>356.0</ele><time>2026-03-28T09:44:31.765Z</time></trkpt><trkpt lat="45.7166433" lon="8.2787817"><ele>356.0</ele><time>2026-03-28T09:44:33.764Z</time></trkpt><trkpt lat="45.7166717" lon="8.2786133"><ele>356.0</ele><time>2026-03-28T09:44:35.764Z</time></trkpt><trkpt lat="45.716695" lon="8.278495"><ele>356.0</ele><time>2026-03-28T09:44:36.764Z</time></trkpt><trkpt lat="45.7167117" lon="8.2783483"><ele>356.0</ele><time>2026-03-28T09:44:37.766Z</time></trkpt><trkpt lat="45.71673" lon="8.2781717"><ele>356.0</ele><time>2026-03-28T09:44:38.765Z</time></trkpt><trkpt lat="45.7167483" lon="8.2780017"><ele>356.0</ele><time>2026-03-28T09:44:39.764Z</time></trkpt><trkpt lat="45.7167767" lon="8.2778533"><ele>356.0</ele><time>2026-03-28T09:44:40.766Z</time></trkpt><trkpt lat="45.7167933" lon="8.2777383"><ele>356.0</ele><time>2026-03-28T09:44:41.765Z</time></trkpt><trkpt lat="45.716805" lon="8.277645"><ele>356.0</ele><time>2026-03-28T09:44:42.765Z</time></trkpt><trkpt lat="45.71686" lon="8.2775467"><ele>356.0</ele><time>2026-03-28T09:44:44.767Z</time></trkpt><trkpt lat="45.7169617" lon="8.2775633"><ele>356.0</ele><time>2026-03-28T09:44:46.767Z</time></trkpt><trkpt lat="45.7170983" lon="8.2776183"><ele>356.25</ele><time>2026-03-28T09:44:48.766Z</time></trkpt><trkpt lat="45.7172283" lon="8.277665"><ele>356.5</ele><time>2026-03-28T09:44:49.765Z</time></trkpt><trkpt lat="45.71739" lon="8.2777383"><ele>356.75</ele><time>2026-03-28T09:44:50.764Z</time></trkpt><trkpt lat="45.7175117" lon="8.27779"><ele>357.0</ele><time>2026-03-28T09:44:51.767Z</time></trkpt><trkpt lat="45.7176417" lon="8.27784"><ele>359.20000000000005</ele><time>2026-03-28T09:44:52.765Z</time></trkpt><trkpt lat="45.717745" lon="8.2778833"><ele>361.4</ele><time>2026-03-28T09:44:53.768Z</time></trkpt><trkpt lat="45.7178367" lon="8.2779367"><ele>363.6</ele><time>2026-03-28T09:44:54.765Z</time></trkpt><trkpt lat="45.717905" lon="8.2780117"><ele>365.79999999999995</ele><time>2026-03-28T09:44:55.767Z</time></trkpt><trkpt lat="45.717965" lon="8.2781017"><ele>368.0</ele><time>2026-03-28T09:44:56.768Z</time></trkpt><trkpt lat="45.7180017" lon="8.2782333"><ele>368.0</ele><time>2026-03-28T09:44:57.769Z</time></trkpt><trkpt lat="45.7180117" lon="8.278405"><ele>368.0</ele><time>2026-03-28T09:44:58.767Z</time></trkpt><trkpt lat="45.7180267" lon="8.2785667"><ele>368.0</ele><time>2026-03-28T09:44:59.767Z</time></trkpt><trkpt lat="45.7180367" lon="8.27871"><ele>368.0</ele><time>2026-03-28T09:45:00.767Z</time></trkpt><trkpt lat="45.7180433" lon="8.278835"><ele>368.0</ele><time>2026-03-28T09:45:01.768Z</time></trkpt><trkpt lat="45.7180517" lon="8.2789417"><ele>367.6666666666667</ele><time>2026-03-28T09:45:02.767Z</time></trkpt><trkpt lat="45.7180583" lon="8.2790433"><ele>367.33333333333337</ele><time>2026-03-28T09:45:03.764Z</time></trkpt><trkpt lat="45.7180667" lon="8.2791467"><ele>367.0</ele><time>2026-03-28T09:45:04.767Z</time></trkpt><trkpt lat="45.7180767" lon="8.2792483"><ele>366.6666666666667</ele><time>2026-03-28T09:45:05.767Z</time></trkpt><trkpt lat="45.71809" lon="8.2794083"><ele>366.3333333333333</ele><time>2026-03-28T09:45:07.768Z</time></trkpt><trkpt lat="45.7181" lon="8.2795133"><ele>366.0</ele><time>2026-03-28T09:45:09.767Z</time></trkpt><trkpt lat="45.7181433" lon="8.2796267"><ele>366.0</ele><time>2026-03-28T09:45:12.764Z</time></trkpt><trkpt lat="45.718235" lon="8.2795367"><ele>366.0</ele><time>2026-03-28T09:45:15.767Z</time></trkpt><trkpt lat="45.71828" lon="8.2794367"><ele>366.0</ele><time>2026-03-28T09:45:16.767Z</time></trkpt><trkpt lat="45.71832" lon="8.27934"><ele>366.0</ele><time>2026-03-28T09:45:17.768Z</time></trkpt><trkpt lat="45.7183583" lon="8.27924"><ele>366.0</ele><time>2026-03-28T09:45:18.767Z</time></trkpt><trkpt lat="45.71839" lon="8.279125"><ele>366.0</ele><time>2026-03-28T09:45:19.768Z</time></trkpt><trkpt lat="45.7184167" lon="8.2790117"><ele>366.3333333333333</ele><time>2026-03-28T09:45:20.769Z</time></trkpt><trkpt lat="45.7184383" lon="8.2788983"><ele>366.6666666666667</ele><time>2026-03-28T09:45:21.767Z</time></trkpt><trkpt lat="45.7184533" lon="8.2787783"><ele>367.0</ele><time>2026-03-28T09:45:22.768Z</time></trkpt><trkpt lat="45.718465" lon="8.278665"><ele>367.33333333333337</ele><time>2026-03-28T09:45:23.767Z</time></trkpt><trkpt lat="45.7184767" lon="8.278555"><ele>367.6666666666667</ele><time>2026-03-28T09:45:24.767Z</time></trkpt><trkpt lat="45.7184817" lon="8.2784333"><ele>368.0</ele><time>2026-03-28T09:45:25.768Z</time></trkpt><trkpt lat="45.718475" lon="8.2782933"><ele>368.0</ele><time>2026-03-28T09:45:26.768Z</time></trkpt><trkpt lat="45.71847" lon="8.2781233"><ele>368.0</ele><time>2026-03-28T09:45:27.767Z</time></trkpt><trkpt lat="45.7184733" lon="8.2779283"><ele>368.0</ele><time>2026-03-28T09:45:28.767Z</time></trkpt><trkpt lat="45.7184817" lon="8.277705"><ele>368.0</ele><time>2026-03-28T09:45:29.764Z</time></trkpt><trkpt lat="45.7184933" lon="8.277475"><ele>367.5</ele><time>2026-03-28T09:45:30.768Z</time></trkpt><trkpt lat="45.7185083" lon="8.277265"><ele>367.0</ele><time>2026-03-28T09:45:31.768Z</time></trkpt><trkpt lat="45.7185267" lon="8.2770733"><ele>366.5</ele><time>2026-03-28T09:45:32.765Z</time></trkpt><trkpt lat="45.71854" lon="8.276905"><ele>366.0</ele><time>2026-03-28T09:45:33.765Z</time></trkpt><trkpt lat="45.7185533" lon="8.2767683"><ele>366.0</ele><time>2026-03-28T09:45:34.765Z</time></trkpt><trkpt lat="45.7185633" lon="8.276655"><ele>366.0</ele><time>2026-03-28T09:45:35.764Z</time></trkpt><trkpt lat="45.7185733" lon="8.276555"><ele>366.0</ele><time>2026-03-28T09:45:36.765Z</time></trkpt><trkpt lat="45.71858" lon="8.2763717"><ele>366.0</ele><time>2026-03-28T09:45:38.764Z</time></trkpt><trkpt lat="45.718585" lon="8.276275"><ele>366.0</ele><time>2026-03-28T09:45:39.767Z</time></trkpt><trkpt lat="45.718585" lon="8.276175"><ele>366.0</ele><time>2026-03-28T09:45:40.768Z</time></trkpt><trkpt lat="45.71858" lon="8.2760183"><ele>365.4</ele><time>2026-03-28T09:45:42.767Z</time></trkpt><trkpt lat="45.718615" lon="8.2759033"><ele>364.8</ele><time>2026-03-28T09:46:22.768Z</time></trkpt><trkpt lat="45.7186033" lon="8.2757933"><ele>364.2</ele><time>2026-03-28T09:46:23.767Z</time></trkpt><trkpt lat="45.7185833" lon="8.27564"><ele>363.59999999999997</ele><time>2026-03-28T09:46:24.767Z</time></trkpt><trkpt lat="45.7185367" lon="8.2754367"><ele>363.0</ele><time>2026-03-28T09:46:25.768Z</time></trkpt><trkpt lat="45.71849" lon="8.2752367"><ele>363.0</ele><time>2026-03-28T09:46:26.764Z</time></trkpt><trkpt lat="45.71846" lon="8.275065"><ele>363.0</ele><time>2026-03-28T09:46:27.768Z</time></trkpt><trkpt lat="45.7184367" lon="8.2749133"><ele>363.0</ele><time>2026-03-28T09:46:28.767Z</time></trkpt><trkpt lat="45.7184117" lon="8.2747883"><ele>363.0</ele><time>2026-03-28T09:46:29.767Z</time></trkpt><trkpt lat="45.7184" lon="8.2746833"><ele>363.0</ele><time>2026-03-28T09:46:30.768Z</time></trkpt><trkpt lat="45.7184033" lon="8.2745367"><ele>362.79999999999995</ele><time>2026-03-28T09:46:32.767Z</time></trkpt><trkpt lat="45.7183983" lon="8.2743833"><ele>362.6</ele><time>2026-03-28T09:46:34.764Z</time></trkpt><trkpt lat="45.7183283" lon="8.2742683"><ele>362.4</ele><time>2026-03-28T09:46:36.767Z</time></trkpt><trkpt lat="45.7182617" lon="8.2742233"><ele>362.20000000000005</ele><time>2026-03-28T09:46:37.765Z</time></trkpt><trkpt lat="45.7181733" lon="8.2741667"><ele>362.0</ele><time>2026-03-28T09:46:38.764Z</time></trkpt><trkpt lat="45.7181" lon="8.2740717"><ele>362.0</ele><time>2026-03-28T09:46:39.769Z</time></trkpt><trkpt lat="45.718015" lon="8.2739683"><ele>362.0</ele><time>2026-03-28T09:46:40.768Z</time></trkpt><trkpt lat="45.717945" lon="8.273875"><ele>362.0</ele><time>2026-03-28T09:46:41.767Z</time></trkpt><trkpt lat="45.717885" lon="8.27379"><ele>362.0</ele><time>2026-03-28T09:46:42.769Z</time></trkpt><trkpt lat="45.71783" lon="8.27371"><ele>362.0</ele><time>2026-03-28T09:46:43.77Z</time></trkpt><trkpt lat="45.7177917" lon="8.2736267"><ele>362.0</ele><time>2026-03-28T09:46:44.768Z</time></trkpt><trkpt lat="45.717785" lon="8.27353"><ele>360.75</ele><time>2026-03-28T09:46:45.767Z</time></trkpt><trkpt lat="45.717795" lon="8.2734"><ele>359.5</ele><time>2026-03-28T09:46:46.764Z</time></trkpt><trkpt lat="45.7178083" lon="8.2732583"><ele>358.25</ele><time>2026-03-28T09:46:47.764Z</time></trkpt><trkpt lat="45.717855" lon="8.27307"><ele>357.0</ele><time>2026-03-28T09:46:48.764Z</time></trkpt><trkpt lat="45.7178967" lon="8.2728633"><ele>356.75</ele><time>2026-03-28T09:46:49.765Z</time></trkpt><trkpt lat="45.71795" lon="8.2726583"><ele>356.5</ele><time>2026-03-28T09:46:50.764Z</time></trkpt><trkpt lat="45.7179983" lon="8.272465"><ele>356.25</ele><time>2026-03-28T09:46:51.764Z</time></trkpt><trkpt lat="45.7180367" lon="8.2722967"><ele>356.0</ele><time>2026-03-28T09:46:52.764Z</time></trkpt><trkpt lat="45.7180817" lon="8.27213"><ele>356.0</ele><time>2026-03-28T09:46:53.768Z</time></trkpt><trkpt lat="45.7181233" lon="8.2719667"><ele>356.0</ele><time>2026-03-28T09:46:54.767Z</time></trkpt><trkpt lat="45.7181633" lon="8.2718183"><ele>356.0</ele><time>2026-03-28T09:46:55.768Z</time></trkpt><trkpt lat="45.7182067" lon="8.271685"><ele>356.0</ele><time>2026-03-28T09:46:56.766Z</time></trkpt><trkpt lat="45.7182517" lon="8.2715717"><ele>356.0</ele><time>2026-03-28T09:46:57.767Z</time></trkpt><trkpt lat="45.71832" lon="8.271475"><ele>356.0</ele><time>2026-03-28T09:46:58.766Z</time></trkpt><trkpt lat="45.7183983" lon="8.271385"><ele>356.0</ele><time>2026-03-28T09:46:59.766Z</time></trkpt><trkpt lat="45.7184883" lon="8.2712883"><ele>356.0</ele><time>2026-03-28T09:47:00.766Z</time></trkpt><trkpt lat="45.718585" lon="8.2711767"><ele>356.0</ele><time>2026-03-28T09:47:01.765Z</time></trkpt><trkpt lat="45.7187" lon="8.2710517"><ele>356.0</ele><time>2026-03-28T09:47:02.763Z</time></trkpt><trkpt lat="45.718825" lon="8.2709"><ele>356.0</ele><time>2026-03-28T09:47:03.763Z</time></trkpt><trkpt lat="45.718965" lon="8.2707383"><ele>356.0</ele><time>2026-03-28T09:47:04.764Z</time></trkpt><trkpt lat="45.71911" lon="8.2705733"><ele>356.6666666666667</ele><time>2026-03-28T09:47:05.763Z</time></trkpt><trkpt lat="45.7192483" lon="8.27042"><ele>357.3333333333333</ele><time>2026-03-28T09:47:06.764Z</time></trkpt><trkpt lat="45.71937" lon="8.2702817"><ele>358.0</ele><time>2026-03-28T09:47:07.764Z</time></trkpt><trkpt lat="45.7194867" lon="8.27015"><ele>358.0</ele><time>2026-03-28T09:47:08.764Z</time></trkpt><trkpt lat="45.7195917" lon="8.2700217"><ele>358.0</ele><time>2026-03-28T09:47:09.764Z</time></trkpt><trkpt lat="45.7196883" lon="8.2699067"><ele>358.0</ele><time>2026-03-28T09:47:10.764Z</time></trkpt><trkpt lat="45.719775" lon="8.2698083"><ele>358.0</ele><time>2026-03-28T09:47:11.767Z</time></trkpt><trkpt lat="45.719855" lon="8.26973"><ele>358.0</ele><time>2026-03-28T09:47:12.766Z</time></trkpt><trkpt lat="45.719925" lon="8.26966"><ele>358.0</ele><time>2026-03-28T09:47:13.767Z</time></trkpt><trkpt lat="45.71999" lon="8.2696067"><ele>358.0</ele><time>2026-03-28T09:47:14.766Z</time></trkpt><trkpt lat="45.7200567" lon="8.2695767"><ele>358.0</ele><time>2026-03-28T09:47:15.766Z</time></trkpt><trkpt lat="45.720125" lon="8.2695783"><ele>358.0</ele><time>2026-03-28T09:47:16.763Z</time></trkpt><trkpt lat="45.7201883" lon="8.26964"><ele>358.0</ele><time>2026-03-28T09:47:17.763Z</time></trkpt><trkpt lat="45.72024" lon="8.2697517"><ele>358.25</ele><time>2026-03-28T09:47:18.765Z</time></trkpt><trkpt lat="45.7203017" lon="8.2698817"><ele>358.5</ele><time>2026-03-28T09:47:19.764Z</time></trkpt><trkpt lat="45.7203817" lon="8.27005"><ele>358.75</ele><time>2026-03-28T09:47:20.768Z</time></trkpt><trkpt lat="45.7204683" lon="8.2702217"><ele>359.0</ele><time>2026-03-28T09:47:21.764Z</time></trkpt><trkpt lat="45.72055" lon="8.2703667"><ele>359.0</ele><time>2026-03-28T09:47:22.764Z</time></trkpt><trkpt lat="45.7206167" lon="8.2704933"><ele>359.0</ele><time>2026-03-28T09:47:23.763Z</time></trkpt><trkpt lat="45.720655" lon="8.270615"><ele>359.0</ele><time>2026-03-28T09:47:24.763Z</time></trkpt><trkpt lat="45.7206733" lon="8.27073"><ele>359.0</ele><time>2026-03-28T09:47:25.765Z</time></trkpt><trkpt lat="45.7206983" lon="8.2708233"><ele>359.0</ele><time>2026-03-28T09:47:26.767Z</time></trkpt><trkpt lat="45.720745" lon="8.270895"><ele>359.0</ele><time>2026-03-28T09:47:27.766Z</time></trkpt><trkpt lat="45.720825" lon="8.2709567"><ele>359.25</ele><time>2026-03-28T09:47:28.766Z</time></trkpt><trkpt lat="45.7209333" lon="8.2710283"><ele>359.5</ele><time>2026-03-28T09:47:29.766Z</time></trkpt><trkpt lat="45.7210467" lon="8.2710967"><ele>359.75</ele><time>2026-03-28T09:47:30.766Z</time></trkpt><trkpt lat="45.72117" lon="8.271125"><ele>360.0</ele><time>2026-03-28T09:47:31.767Z</time></trkpt><trkpt lat="45.7212883" lon="8.2711017"><ele>361.0</ele><time>2026-03-28T09:47:32.766Z</time></trkpt><trkpt lat="45.7213867" lon="8.27105"><ele>362.0</ele><time>2026-03-28T09:47:33.767Z</time></trkpt><trkpt lat="45.7214583" lon="8.270995"><ele>363.0</ele><time>2026-03-28T09:47:34.767Z</time></trkpt><trkpt lat="45.721515" lon="8.2709467"><ele>364.0</ele><time>2026-03-28T09:47:35.766Z</time></trkpt><trkpt lat="45.7215667" lon="8.2708933"><ele>365.0</ele><time>2026-03-28T09:47:37.767Z</time></trkpt><trkpt lat="45.7216717" lon="8.2709133"><ele>366.0</ele><time>2026-03-28T09:47:41.766Z</time></trkpt><trkpt lat="45.7217667" lon="8.2709133"><ele>366.0</ele><time>2026-03-28T09:47:43.763Z</time></trkpt><trkpt lat="45.721855" lon="8.270895"><ele>366.0</ele><time>2026-03-28T09:47:45.766Z</time></trkpt><trkpt lat="45.721925" lon="8.2708917"><ele>366.0</ele><time>2026-03-28T09:47:47.763Z</time></trkpt><trkpt lat="45.7219933" lon="8.270835"><ele>366.0</ele><time>2026-03-28T09:47:49.768Z</time></trkpt><trkpt lat="45.7220367" lon="8.2706917"><ele>366.0</ele><time>2026-03-28T09:47:51.767Z</time></trkpt><trkpt lat="45.7220717" lon="8.2706167"><ele>366.0</ele><time>2026-03-28T09:47:52.767Z</time></trkpt><trkpt lat="45.7221183" lon="8.2705467"><ele>366.4</ele><time>2026-03-28T09:47:53.763Z</time></trkpt><trkpt lat="45.7221833" lon="8.2704783"><ele>366.8</ele><time>2026-03-28T09:47:54.766Z</time></trkpt><trkpt lat="45.7222533" lon="8.2704083"><ele>367.2</ele><time>2026-03-28T09:47:55.767Z</time></trkpt><trkpt lat="45.7223217" lon="8.27034"><ele>367.59999999999997</ele><time>2026-03-28T09:47:56.767Z</time></trkpt><trkpt lat="45.7223967" lon="8.2702567"><ele>368.0</ele><time>2026-03-28T09:47:57.763Z</time></trkpt><trkpt lat="45.7224983" lon="8.2701317"><ele>368.0</ele><time>2026-03-28T09:47:58.765Z</time></trkpt><trkpt lat="45.7226317" lon="8.2699983"><ele>368.0</ele><time>2026-03-28T09:47:59.767Z</time></trkpt><trkpt lat="45.7227867" lon="8.2698483"><ele>368.0</ele><time>2026-03-28T09:48:00.766Z</time></trkpt><trkpt lat="45.722955" lon="8.2696733"><ele>369.0</ele><time>2026-03-28T09:48:01.764Z</time></trkpt><trkpt lat="45.723145" lon="8.26948"><ele>370.0</ele><time>2026-03-28T09:48:02.764Z</time></trkpt><trkpt lat="45.7233433" lon="8.2692683"><ele>370.0</ele><time>2026-03-28T09:48:03.763Z</time></trkpt><trkpt lat="45.7235483" lon="8.2690617"><ele>370.0</ele><time>2026-03-28T09:48:04.764Z</time></trkpt><trkpt lat="45.723735" lon="8.268875"><ele>369.66666666666663</ele><time>2026-03-28T09:48:05.763Z</time></trkpt><trkpt lat="45.7239017" lon="8.2687067"><ele>369.3333333333333</ele><time>2026-03-28T09:48:06.764Z</time></trkpt><trkpt lat="45.7240533" lon="8.2685433"><ele>369.0</ele><time>2026-03-28T09:48:07.764Z</time></trkpt><trkpt lat="45.724195" lon="8.2683883"><ele>369.0</ele><time>2026-03-28T09:48:08.763Z</time></trkpt><trkpt lat="45.7243333" lon="8.268245"><ele>369.0</ele><time>2026-03-28T09:48:09.765Z</time></trkpt><trkpt lat="45.7244683" lon="8.2681067"><ele>369.0</ele><time>2026-03-28T09:48:10.767Z</time></trkpt><trkpt lat="45.7246067" lon="8.26797"><ele>369.0</ele><time>2026-03-28T09:48:11.767Z</time></trkpt><trkpt lat="45.7247417" lon="8.2678317"><ele>369.0</ele><time>2026-03-28T09:48:12.766Z</time></trkpt><trkpt lat="45.7248733" lon="8.2676983"><ele>369.0</ele><time>2026-03-28T09:48:13.767Z</time></trkpt><trkpt lat="45.724995" lon="8.2675683"><ele>369.0</ele><time>2026-03-28T09:48:14.766Z</time></trkpt><trkpt lat="45.7251167" lon="8.2674433"><ele>369.0</ele><time>2026-03-28T09:48:15.764Z</time></trkpt><trkpt lat="45.725235" lon="8.2673183"><ele>369.0</ele><time>2026-03-28T09:48:16.766Z</time></trkpt><trkpt lat="45.7253533" lon="8.2672"><ele>369.0</ele><time>2026-03-28T09:48:17.766Z</time></trkpt><trkpt lat="45.7254717" lon="8.2670817"><ele>369.25</ele><time>2026-03-28T09:48:18.764Z</time></trkpt><trkpt lat="45.7255867" lon="8.2669633"><ele>369.5</ele><time>2026-03-28T09:48:19.764Z</time></trkpt><trkpt lat="45.7257033" lon="8.2668483"><ele>369.75</ele><time>2026-03-28T09:48:20.767Z</time></trkpt><trkpt lat="45.725815" lon="8.2667267"><ele>370.0</ele><time>2026-03-28T09:48:21.764Z</time></trkpt><trkpt lat="45.7259267" lon="8.2665983"><ele>370.0</ele><time>2026-03-28T09:48:22.767Z</time></trkpt><trkpt lat="45.72604" lon="8.2664683"><ele>370.0</ele><time>2026-03-28T09:48:23.763Z</time></trkpt><trkpt lat="45.726165" lon="8.2663383"><ele>370.0</ele><time>2026-03-28T09:48:24.764Z</time></trkpt><trkpt lat="45.7262883" lon="8.266205"><ele>370.75</ele><time>2026-03-28T09:48:25.763Z</time></trkpt><trkpt lat="45.7264067" lon="8.2660917"><ele>371.5</ele><time>2026-03-28T09:48:26.764Z</time></trkpt><trkpt lat="45.72651" lon="8.2659817"><ele>372.25</ele><time>2026-03-28T09:48:27.764Z</time></trkpt><trkpt lat="45.7266183" lon="8.265875"><ele>373.0</ele><time>2026-03-28T09:48:28.764Z</time></trkpt><trkpt lat="45.7267317" lon="8.26575"><ele>373.0</ele><time>2026-03-28T09:48:29.767Z</time></trkpt><trkpt lat="45.7268533" lon="8.2656133"><ele>373.0</ele><time>2026-03-28T09:48:30.766Z</time></trkpt><trkpt lat="45.7269867" lon="8.2654733"><ele>373.0</ele><time>2026-03-28T09:48:31.764Z</time></trkpt><trkpt lat="45.7271233" lon="8.2653417"><ele>372.3333333333333</ele><time>2026-03-28T09:48:32.766Z</time></trkpt><trkpt lat="45.7272517" lon="8.2652133"><ele>371.6666666666667</ele><time>2026-03-28T09:48:33.767Z</time></trkpt><trkpt lat="45.72738" lon="8.2650867"><ele>371.0</ele><time>2026-03-28T09:48:34.766Z</time></trkpt><trkpt lat="45.72751" lon="8.2649533"><ele>371.0</ele><time>2026-03-28T09:48:35.766Z</time></trkpt><trkpt lat="45.7276383" lon="8.2648183"><ele>371.0</ele><time>2026-03-28T09:48:36.766Z</time></trkpt><trkpt lat="45.7277517" lon="8.2646967"><ele>371.0</ele><time>2026-03-28T09:48:37.764Z</time></trkpt><trkpt lat="45.72786" lon="8.264585"><ele>371.0</ele><time>2026-03-28T09:48:38.767Z</time></trkpt><trkpt lat="45.7279633" lon="8.2644817"><ele>371.25</ele><time>2026-03-28T09:48:39.764Z</time></trkpt><trkpt lat="45.7280567" lon="8.2643833"><ele>371.5</ele><time>2026-03-28T09:48:40.768Z</time></trkpt><trkpt lat="45.7281483" lon="8.264285"><ele>371.75</ele><time>2026-03-28T09:48:41.767Z</time></trkpt><trkpt lat="45.7282467" lon="8.2641917"><ele>372.0</ele><time>2026-03-28T09:48:42.766Z</time></trkpt><trkpt lat="45.7283567" lon="8.26411"><ele>372.0</ele><time>2026-03-28T09:48:43.763Z</time></trkpt><trkpt lat="45.7284783" lon="8.2640367"><ele>372.0</ele><time>2026-03-28T09:48:44.767Z</time></trkpt><trkpt lat="45.7286167" lon="8.26397"><ele>372.0</ele><time>2026-03-28T09:48:45.766Z</time></trkpt><trkpt lat="45.728775" lon="8.2639033"><ele>372.0</ele><time>2026-03-28T09:48:46.767Z</time></trkpt><trkpt lat="45.7289433" lon="8.2638383"><ele>372.0</ele><time>2026-03-28T09:48:47.769Z</time></trkpt><trkpt lat="45.729125" lon="8.2637767"><ele>372.0</ele><time>2026-03-28T09:48:48.766Z</time></trkpt><trkpt lat="45.729315" lon="8.2637183"><ele>372.0</ele><time>2026-03-28T09:48:49.767Z</time></trkpt><trkpt lat="45.72951" lon="8.2636567"><ele>372.6666666666667</ele><time>2026-03-28T09:48:50.767Z</time></trkpt><trkpt lat="45.7297083" lon="8.2635867"><ele>373.33333333333337</ele><time>2026-03-28T09:48:51.768Z</time></trkpt><trkpt lat="45.7299117" lon="8.2635067"><ele>374.0</ele><time>2026-03-28T09:48:52.766Z</time></trkpt><trkpt lat="45.7301267" lon="8.2634267"><ele>373.6666666666667</ele><time>2026-03-28T09:48:53.768Z</time></trkpt><trkpt lat="45.7303483" lon="8.2633483"><ele>373.3333333333333</ele><time>2026-03-28T09:48:54.767Z</time></trkpt><trkpt lat="45.7305567" lon="8.2632717"><ele>373.0</ele><time>2026-03-28T09:48:55.768Z</time></trkpt><trkpt lat="45.730755" lon="8.2632017"><ele>373.0</ele><time>2026-03-28T09:48:56.763Z</time></trkpt><trkpt lat="45.7309483" lon="8.2631317"><ele>373.0</ele><time>2026-03-28T09:48:57.767Z</time></trkpt><trkpt lat="45.73114" lon="8.2630633"><ele>373.0</ele><time>2026-03-28T09:48:58.764Z</time></trkpt><trkpt lat="45.7313317" lon="8.262995"><ele>372.66666666666663</ele><time>2026-03-28T09:48:59.767Z</time></trkpt><trkpt lat="45.7315217" lon="8.2629267"><ele>372.3333333333333</ele><time>2026-03-28T09:49:00.768Z</time></trkpt><trkpt lat="45.7317017" lon="8.26286"><ele>372.0</ele><time>2026-03-28T09:49:01.767Z</time></trkpt><trkpt lat="45.731875" lon="8.262795"><ele>373.0</ele><time>2026-03-28T09:49:02.766Z</time></trkpt><trkpt lat="45.732045" lon="8.26274"><ele>374.0</ele><time>2026-03-28T09:49:03.767Z</time></trkpt><trkpt lat="45.7322233" lon="8.2627017"><ele>375.0</ele><time>2026-03-28T09:49:04.765Z</time></trkpt><trkpt lat="45.732395" lon="8.2626367"><ele>375.0</ele><time>2026-03-28T09:49:05.764Z</time></trkpt><trkpt lat="45.73257" lon="8.2625583"><ele>375.0</ele><time>2026-03-28T09:49:06.767Z</time></trkpt><trkpt lat="45.7327417" lon="8.26249"><ele>375.0</ele><time>2026-03-28T09:49:07.768Z</time></trkpt><trkpt lat="45.7329" lon="8.26243"><ele>375.5</ele><time>2026-03-28T09:49:08.766Z</time></trkpt><trkpt lat="45.73305" lon="8.262375"><ele>376.0</ele><time>2026-03-28T09:49:09.763Z</time></trkpt><trkpt lat="45.7331833" lon="8.262325"><ele>376.5</ele><time>2026-03-28T09:49:10.764Z</time></trkpt><trkpt lat="45.733305" lon="8.26228"><ele>377.0</ele><time>2026-03-28T09:49:11.767Z</time></trkpt><trkpt lat="45.7334117" lon="8.2622433"><ele>375.40000000000003</ele><time>2026-03-28T09:49:12.764Z</time></trkpt><trkpt lat="45.7335" lon="8.26223"><ele>373.8</ele><time>2026-03-28T09:49:13.767Z</time></trkpt><trkpt lat="45.733585" lon="8.2622167"><ele>372.2</ele><time>2026-03-28T09:49:14.766Z</time></trkpt><trkpt lat="45.7336767" lon="8.2621783"><ele>370.6</ele><time>2026-03-28T09:49:15.767Z</time></trkpt><trkpt lat="45.7337833" lon="8.26212"><ele>369.0</ele><time>2026-03-28T09:49:16.763Z</time></trkpt><trkpt lat="45.733905" lon="8.2620683"><ele>369.0</ele><time>2026-03-28T09:49:17.766Z</time></trkpt><trkpt lat="45.7340433" lon="8.2620183"><ele>369.0</ele><time>2026-03-28T09:49:18.764Z</time></trkpt><trkpt lat="45.734195" lon="8.2619617"><ele>369.0</ele><time>2026-03-28T09:49:19.764Z</time></trkpt><trkpt lat="45.7343567" lon="8.261895"><ele>371.3333333333333</ele><time>2026-03-28T09:49:20.763Z</time></trkpt><trkpt lat="45.7345233" lon="8.2618283"><ele>373.66666666666663</ele><time>2026-03-28T09:49:21.764Z</time></trkpt><trkpt lat="45.734705" lon="8.26176"><ele>376.0</ele><time>2026-03-28T09:49:22.765Z</time></trkpt><trkpt lat="45.7348883" lon="8.2616967"><ele>376.0</ele><time>2026-03-28T09:49:23.764Z</time></trkpt><trkpt lat="45.7350583" lon="8.2616367"><ele>376.0</ele><time>2026-03-28T09:49:24.764Z</time></trkpt><trkpt lat="45.7352183" lon="8.26158"><ele>376.0</ele><time>2026-03-28T09:49:25.768Z</time></trkpt><trkpt lat="45.7353683" lon="8.2615233"><ele>374.0</ele><time>2026-03-28T09:49:26.766Z</time></trkpt><trkpt lat="45.7355133" lon="8.2614683"><ele>372.0</ele><time>2026-03-28T09:49:27.767Z</time></trkpt><trkpt lat="45.7356583" lon="8.261415"><ele>370.0</ele><time>2026-03-28T09:49:28.767Z</time></trkpt><trkpt lat="45.735805" lon="8.2613717"><ele>368.0</ele><time>2026-03-28T09:49:29.766Z</time></trkpt><trkpt lat="45.73596" lon="8.2613483"><ele>367.5</ele><time>2026-03-28T09:49:30.765Z</time></trkpt><trkpt lat="45.7361133" lon="8.2613383"><ele>367.0</ele><time>2026-03-28T09:49:31.767Z</time></trkpt><trkpt lat="45.7362567" lon="8.26135"><ele>366.5</ele><time>2026-03-28T09:49:32.765Z</time></trkpt><trkpt lat="45.7363817" lon="8.2613683"><ele>366.0</ele><time>2026-03-28T09:49:33.764Z</time></trkpt><trkpt lat="45.736495" lon="8.26138"><ele>366.0</ele><time>2026-03-28T09:49:34.766Z</time></trkpt><trkpt lat="45.7365917" lon="8.2614"><ele>366.0</ele><time>2026-03-28T09:49:35.765Z</time></trkpt><trkpt lat="45.73667" lon="8.26143"><ele>366.0</ele><time>2026-03-28T09:49:36.765Z</time></trkpt><trkpt lat="45.7367517" lon="8.2614767"><ele>366.0</ele><time>2026-03-28T09:49:37.766Z</time></trkpt><trkpt lat="45.7368483" lon="8.26153"><ele>366.0</ele><time>2026-03-28T09:49:38.766Z</time></trkpt><trkpt lat="45.7369567" lon="8.261595"><ele>368.6666666666667</ele><time>2026-03-28T09:49:39.766Z</time></trkpt><trkpt lat="45.737085" lon="8.2616583"><ele>371.33333333333337</ele><time>2026-03-28T09:49:40.764Z</time></trkpt><trkpt lat="45.7372233" lon="8.26174"><ele>374.0</ele><time>2026-03-28T09:49:41.763Z</time></trkpt><trkpt lat="45.7373817" lon="8.261825"><ele>374.0</ele><time>2026-03-28T09:49:42.764Z</time></trkpt><trkpt lat="45.7375533" lon="8.2619183"><ele>374.0</ele><time>2026-03-28T09:49:43.764Z</time></trkpt><trkpt lat="45.737735" lon="8.26203"><ele>374.0</ele><time>2026-03-28T09:49:44.764Z</time></trkpt><trkpt lat="45.73792" lon="8.2621583"><ele>374.6666666666667</ele><time>2026-03-28T09:49:45.764Z</time></trkpt><trkpt lat="45.7381033" lon="8.262295"><ele>375.3333333333333</ele><time>2026-03-28T09:49:46.766Z</time></trkpt><trkpt lat="45.7382767" lon="8.2624233"><ele>376.0</ele><time>2026-03-28T09:49:47.763Z</time></trkpt><trkpt lat="45.7384483" lon="8.262555"><ele>372.66666666666663</ele><time>2026-03-28T09:49:48.764Z</time></trkpt><trkpt lat="45.738635" lon="8.262675"><ele>369.3333333333333</ele><time>2026-03-28T09:49:49.769Z</time></trkpt><trkpt lat="45.7388433" lon="8.2627683"><ele>366.0</ele><time>2026-03-28T09:49:50.764Z</time></trkpt><trkpt lat="45.739075" lon="8.2628417"><ele>366.0</ele><time>2026-03-28T09:49:51.763Z</time></trkpt><trkpt lat="45.739325" lon="8.2628983"><ele>366.0</ele><time>2026-03-28T09:49:52.765Z</time></trkpt><trkpt lat="45.7395867" lon="8.2629383"><ele>367.0</ele><time>2026-03-28T09:49:53.764Z</time></trkpt><trkpt lat="45.7398533" lon="8.2629617"><ele>368.0</ele><time>2026-03-28T09:49:54.764Z</time></trkpt><trkpt lat="45.7401183" lon="8.26297"><ele>370.0</ele><time>2026-03-28T09:49:55.767Z</time></trkpt><trkpt lat="45.7403667" lon="8.2629683"><ele>372.0</ele><time>2026-03-28T09:49:56.767Z</time></trkpt><trkpt lat="45.7405983" lon="8.2629567"><ele>372.0</ele><time>2026-03-28T09:49:57.767Z</time></trkpt><trkpt lat="45.740825" lon="8.2629217"><ele>372.0</ele><time>2026-03-28T09:49:58.766Z</time></trkpt><trkpt lat="45.7410467" lon="8.262865"><ele>372.0</ele><time>2026-03-28T09:49:59.768Z</time></trkpt><trkpt lat="45.741265" lon="8.2628"><ele>372.0</ele><time>2026-03-28T09:50:00.766Z</time></trkpt><trkpt lat="45.7414817" lon="8.2627533"><ele>372.0</ele><time>2026-03-28T09:50:01.767Z</time></trkpt><trkpt lat="45.7417117" lon="8.2627417"><ele>369.5</ele><time>2026-03-28T09:50:02.766Z</time></trkpt><trkpt lat="45.7419417" lon="8.2627733"><ele>367.0</ele><time>2026-03-28T09:50:03.765Z</time></trkpt><trkpt lat="45.742175" lon="8.2628383"><ele>367.0</ele><time>2026-03-28T09:50:04.765Z</time></trkpt><trkpt lat="45.7424133" lon="8.2629183"><ele>367.0</ele><time>2026-03-28T09:50:05.767Z</time></trkpt><trkpt lat="45.7426567" lon="8.2629967"><ele>366.5</ele><time>2026-03-28T09:50:06.767Z</time></trkpt><trkpt lat="45.742905" lon="8.2630767"><ele>366.0</ele><time>2026-03-28T09:50:07.767Z</time></trkpt><trkpt lat="45.7431533" lon="8.2631567"><ele>374.5</ele><time>2026-03-28T09:50:08.767Z</time></trkpt><trkpt lat="45.7433983" lon="8.2632183"><ele>383.0</ele><time>2026-03-28T09:50:09.77Z</time></trkpt><trkpt lat="45.7436367" lon="8.2632667"><ele>383.0</ele><time>2026-03-28T09:50:10.767Z</time></trkpt><trkpt lat="45.74387" lon="8.2633283"><ele>383.0</ele><time>2026-03-28T09:50:11.767Z</time></trkpt><trkpt lat="45.7441033" lon="8.2634167"><ele>383.0</ele><time>2026-03-28T09:50:12.766Z</time></trkpt><trkpt lat="45.7443367" lon="8.2635283"><ele>383.0</ele><time>2026-03-28T09:50:13.767Z</time></trkpt><trkpt lat="45.7445833" lon="8.2636383"><ele>377.0</ele><time>2026-03-28T09:50:14.766Z</time></trkpt><trkpt lat="45.7448283" lon="8.2637417"><ele>371.0</ele><time>2026-03-28T09:50:15.768Z</time></trkpt><trkpt lat="45.7450817" lon="8.26383"><ele>371.0</ele><time>2026-03-28T09:50:16.767Z</time></trkpt><trkpt lat="45.7453283" lon="8.26391"><ele>371.0</ele><time>2026-03-28T09:50:17.766Z</time></trkpt><trkpt lat="45.7455617" lon="8.2639883"><ele>375.33333333333337</ele><time>2026-03-28T09:50:18.766Z</time></trkpt><trkpt lat="45.745785" lon="8.2640633"><ele>379.6666666666667</ele><time>2026-03-28T09:50:19.767Z</time></trkpt><trkpt lat="45.7459933" lon="8.264125"><ele>384.0</ele><time>2026-03-28T09:50:20.767Z</time></trkpt><trkpt lat="45.7461917" lon="8.2641533"><ele>384.66666666666663</ele><time>2026-03-28T09:50:21.764Z</time></trkpt><trkpt lat="45.7463817" lon="8.2641517"><ele>385.3333333333333</ele><time>2026-03-28T09:50:22.767Z</time></trkpt><trkpt lat="45.7465717" lon="8.2641183"><ele>386.0</ele><time>2026-03-28T09:50:23.767Z</time></trkpt><trkpt lat="45.7467583" lon="8.2640817"><ele>386.66666666666663</ele><time>2026-03-28T09:50:24.768Z</time></trkpt><trkpt lat="45.7469333" lon="8.2640517"><ele>387.33333333333337</ele><time>2026-03-28T09:50:25.767Z</time></trkpt><trkpt lat="45.7470967" lon="8.2640333"><ele>388.0</ele><time>2026-03-28T09:50:26.763Z</time></trkpt><trkpt lat="45.7472467" lon="8.2640383"><ele>388.0</ele><time>2026-03-28T09:50:27.768Z</time></trkpt><trkpt lat="45.7473883" lon="8.264075"><ele>388.0</ele><time>2026-03-28T09:50:28.767Z</time></trkpt><trkpt lat="45.747515" lon="8.2641367"><ele>388.0</ele><time>2026-03-28T09:50:29.768Z</time></trkpt><trkpt lat="45.74763" lon="8.2642283"><ele>388.0</ele><time>2026-03-28T09:50:30.767Z</time></trkpt><trkpt lat="45.7477383" lon="8.26434"><ele>387.75</ele><time>2026-03-28T09:50:31.768Z</time></trkpt><trkpt lat="45.7478467" lon="8.264455"><ele>387.5</ele><time>2026-03-28T09:50:32.767Z</time></trkpt><trkpt lat="45.747955" lon="8.2645767"><ele>387.25</ele><time>2026-03-28T09:50:33.764Z</time></trkpt><trkpt lat="45.7480617" lon="8.26471"><ele>387.0</ele><time>2026-03-28T09:50:34.764Z</time></trkpt><trkpt lat="45.7481883" lon="8.26483"><ele>387.33333333333337</ele><time>2026-03-28T09:50:35.769Z</time></trkpt><trkpt lat="45.7483367" lon="8.26491"><ele>387.6666666666667</ele><time>2026-03-28T09:50:36.767Z</time></trkpt><trkpt lat="45.748505" lon="8.2649617"><ele>388.0</ele><time>2026-03-28T09:50:37.767Z</time></trkpt><trkpt lat="45.7486833" lon="8.2649867"><ele>388.0</ele><time>2026-03-28T09:50:38.766Z</time></trkpt><trkpt lat="45.7488733" lon="8.26499"><ele>388.0</ele><time>2026-03-28T09:50:39.767Z</time></trkpt><trkpt lat="45.7490683" lon="8.265005"><ele>388.0</ele><time>2026-03-28T09:50:40.767Z</time></trkpt><trkpt lat="45.7492683" lon="8.2650367"><ele>388.33333333333337</ele><time>2026-03-28T09:50:41.763Z</time></trkpt><trkpt lat="45.74947" lon="8.265075"><ele>388.66666666666663</ele><time>2026-03-28T09:50:42.764Z</time></trkpt><trkpt lat="45.749675" lon="8.2651233"><ele>389.0</ele><time>2026-03-28T09:50:43.765Z</time></trkpt><trkpt lat="45.74989" lon="8.2651917"><ele>389.0</ele><time>2026-03-28T09:50:44.763Z</time></trkpt><trkpt lat="45.7500933" lon="8.2652633"><ele>389.0</ele><time>2026-03-28T09:50:45.763Z</time></trkpt><trkpt lat="45.7502833" lon="8.26533"><ele>389.0</ele><time>2026-03-28T09:50:46.765Z</time></trkpt><trkpt lat="45.750465" lon="8.2653883"><ele>389.0</ele><time>2026-03-28T09:50:47.764Z</time></trkpt><trkpt lat="45.750645" lon="8.26545"><ele>389.0</ele><time>2026-03-28T09:50:48.764Z</time></trkpt><trkpt lat="45.7508333" lon="8.265515"><ele>389.0</ele><time>2026-03-28T09:50:49.765Z</time></trkpt><trkpt lat="45.7510183" lon="8.2655783"><ele>390.66666666666663</ele><time>2026-03-28T09:50:50.768Z</time></trkpt><trkpt lat="45.7512067" lon="8.2656433"><ele>392.33333333333337</ele><time>2026-03-28T09:50:51.767Z</time></trkpt><trkpt lat="45.7513983" lon="8.2657067"><ele>394.0</ele><time>2026-03-28T09:50:52.767Z</time></trkpt><trkpt lat="45.7515917" lon="8.2657683"><ele>394.0</ele><time>2026-03-28T09:50:53.768Z</time></trkpt><trkpt lat="45.7517817" lon="8.2658267"><ele>394.0</ele><time>2026-03-28T09:50:54.767Z</time></trkpt><trkpt lat="45.7519683" lon="8.2658883"><ele>394.0</ele><time>2026-03-28T09:50:55.767Z</time></trkpt><trkpt lat="45.7521467" lon="8.2659517"><ele>394.0</ele><time>2026-03-28T09:50:56.767Z</time></trkpt><trkpt lat="45.7523217" lon="8.2660133"><ele>394.0</ele><time>2026-03-28T09:50:57.768Z</time></trkpt><trkpt lat="45.7524967" lon="8.2660717"><ele>394.0</ele><time>2026-03-28T09:50:58.767Z</time></trkpt><trkpt lat="45.7526617" lon="8.2661233"><ele>394.0</ele><time>2026-03-28T09:50:59.766Z</time></trkpt><trkpt lat="45.7528117" lon="8.26617"><ele>394.0</ele><time>2026-03-28T09:51:00.767Z</time></trkpt><trkpt lat="45.752955" lon="8.2662167"><ele>394.0</ele><time>2026-03-28T09:51:01.767Z</time></trkpt><trkpt lat="45.753085" lon="8.2662633"><ele>394.0</ele><time>2026-03-28T09:51:02.767Z</time></trkpt><trkpt lat="45.7532033" lon="8.266305"><ele>394.0</ele><time>2026-03-28T09:51:03.767Z</time></trkpt><trkpt lat="45.7533083" lon="8.26634"><ele>394.0</ele><time>2026-03-28T09:51:04.767Z</time></trkpt><trkpt lat="45.7534083" lon="8.266375"><ele>394.0</ele><time>2026-03-28T09:51:05.767Z</time></trkpt><trkpt lat="45.7535167" lon="8.2664117"><ele>394.0</ele><time>2026-03-28T09:51:06.767Z</time></trkpt><trkpt lat="45.753625" lon="8.2664517"><ele>394.0</ele><time>2026-03-28T09:51:07.767Z</time></trkpt><trkpt lat="45.7537333" lon="8.2664867"><ele>394.0</ele><time>2026-03-28T09:51:08.768Z</time></trkpt><trkpt lat="45.7538417" lon="8.2665233"><ele>394.0</ele><time>2026-03-28T09:51:09.767Z</time></trkpt><trkpt lat="45.7539517" lon="8.2665633"><ele>394.0</ele><time>2026-03-28T09:51:10.767Z</time></trkpt><trkpt lat="45.7540633" lon="8.2665983"><ele>394.0</ele><time>2026-03-28T09:51:11.768Z</time></trkpt><trkpt lat="45.7541683" lon="8.26663"><ele>394.0</ele><time>2026-03-28T09:51:12.766Z</time></trkpt><trkpt lat="45.7542733" lon="8.266665"><ele>394.2</ele><time>2026-03-28T09:51:13.767Z</time></trkpt><trkpt lat="45.7543783" lon="8.2667033"><ele>394.4</ele><time>2026-03-28T09:51:14.767Z</time></trkpt><trkpt lat="45.7544817" lon="8.2667383"><ele>394.6</ele><time>2026-03-28T09:51:15.768Z</time></trkpt><trkpt lat="45.7545883" lon="8.2667733"><ele>394.8</ele><time>2026-03-28T09:51:16.767Z</time></trkpt><trkpt lat="45.7546983" lon="8.2668067"><ele>395.0</ele><time>2026-03-28T09:51:17.763Z</time></trkpt><trkpt lat="45.75481" lon="8.2668433"><ele>395.0</ele><time>2026-03-28T09:51:18.765Z</time></trkpt><trkpt lat="45.7549233" lon="8.26688"><ele>395.0</ele><time>2026-03-28T09:51:19.765Z</time></trkpt><trkpt lat="45.7550417" lon="8.2669133"><ele>395.0</ele><time>2026-03-28T09:51:20.763Z</time></trkpt><trkpt lat="45.7551533" lon="8.266955"><ele>395.0</ele><time>2026-03-28T09:51:21.764Z</time></trkpt><trkpt lat="45.7552683" lon="8.2669933"><ele>395.75</ele><time>2026-03-28T09:51:22.765Z</time></trkpt><trkpt lat="45.7553817" lon="8.2670367"><ele>396.5</ele><time>2026-03-28T09:51:23.765Z</time></trkpt><trkpt lat="45.7554933" lon="8.2670817"><ele>397.25</ele><time>2026-03-28T09:51:24.764Z</time></trkpt><trkpt lat="45.7556067" lon="8.26712"><ele>398.0</ele><time>2026-03-28T09:51:25.765Z</time></trkpt><trkpt lat="45.75572" lon="8.2671567"><ele>398.0</ele><time>2026-03-28T09:51:26.764Z</time></trkpt><trkpt lat="45.7558317" lon="8.267195"><ele>398.0</ele><time>2026-03-28T09:51:27.764Z</time></trkpt><trkpt lat="45.7559367" lon="8.2672317"><ele>398.0</ele><time>2026-03-28T09:51:28.768Z</time></trkpt><trkpt lat="45.7560367" lon="8.2672667"><ele>398.0</ele><time>2026-03-28T09:51:29.769Z</time></trkpt><trkpt lat="45.7561383" lon="8.2672967"><ele>398.0</ele><time>2026-03-28T09:51:30.767Z</time></trkpt><trkpt lat="45.7562467" lon="8.267325"><ele>398.4</ele><time>2026-03-28T09:51:31.767Z</time></trkpt><trkpt lat="45.7563583" lon="8.2673533"><ele>398.79999999999995</ele><time>2026-03-28T09:51:32.768Z</time></trkpt><trkpt lat="45.7564633" lon="8.267385"><ele>399.2</ele><time>2026-03-28T09:51:33.767Z</time></trkpt><trkpt lat="45.75656" lon="8.2674167"><ele>399.6</ele><time>2026-03-28T09:51:34.766Z</time></trkpt><trkpt lat="45.7566533" lon="8.2674467"><ele>400.0</ele><time>2026-03-28T09:51:35.767Z</time></trkpt><trkpt lat="45.7567467" lon="8.2674733"><ele>400.00000000000006</ele><time>2026-03-28T09:51:36.768Z</time></trkpt><trkpt lat="45.756835" lon="8.267505"><ele>400.0</ele><time>2026-03-28T09:51:37.764Z</time></trkpt><trkpt lat="45.7569233" lon="8.2675367"><ele>400.0</ele><time>2026-03-28T09:51:38.766Z</time></trkpt><trkpt lat="45.75701" lon="8.2675633"><ele>400.0</ele><time>2026-03-28T09:51:39.765Z</time></trkpt><trkpt lat="45.7570933" lon="8.2675883"><ele>400.00000000000006</ele><time>2026-03-28T09:51:40.765Z</time></trkpt><trkpt lat="45.7571667" lon="8.26761"><ele>400.0</ele><time>2026-03-28T09:51:41.764Z</time></trkpt><trkpt lat="45.7572767" lon="8.2676583"><ele>400.5</ele><time>2026-03-28T09:51:43.764Z</time></trkpt><trkpt lat="45.75741" lon="8.26771"><ele>401.0</ele><time>2026-03-28T09:51:45.764Z</time></trkpt><trkpt lat="45.7575017" lon="8.2677383"><ele>401.5</ele><time>2026-03-28T09:51:46.764Z</time></trkpt><trkpt lat="45.7576117" lon="8.2677683"><ele>402.0</ele><time>2026-03-28T09:51:47.765Z</time></trkpt><trkpt lat="45.7577233" lon="8.2678033"><ele>402.40000000000003</ele><time>2026-03-28T09:51:48.764Z</time></trkpt><trkpt lat="45.75783" lon="8.267845"><ele>402.8</ele><time>2026-03-28T09:51:49.764Z</time></trkpt><trkpt lat="45.7579317" lon="8.26788"><ele>403.2</ele><time>2026-03-28T09:51:50.764Z</time></trkpt><trkpt lat="45.7580283" lon="8.2679133"><ele>403.6</ele><time>2026-03-28T09:51:51.764Z</time></trkpt><trkpt lat="45.7581333" lon="8.267945"><ele>404.0</ele><time>2026-03-28T09:51:52.764Z</time></trkpt><trkpt lat="45.7582533" lon="8.2679783"><ele>404.0</ele><time>2026-03-28T09:51:53.765Z</time></trkpt><trkpt lat="45.758395" lon="8.268015"><ele>404.0</ele><time>2026-03-28T09:51:54.765Z</time></trkpt><trkpt lat="45.75855" lon="8.2680567"><ele>404.0</ele><time>2026-03-28T09:51:55.765Z</time></trkpt><trkpt lat="45.7587017" lon="8.26812"><ele>404.0</ele><time>2026-03-28T09:51:56.765Z</time></trkpt><trkpt lat="45.75885" lon="8.2681733"><ele>404.0</ele><time>2026-03-28T09:51:57.764Z</time></trkpt><trkpt lat="45.7589833" lon="8.2682217"><ele>404.0</ele><time>2026-03-28T09:51:58.767Z</time></trkpt><trkpt lat="45.7591" lon="8.2682683"><ele>404.0</ele><time>2026-03-28T09:51:59.767Z</time></trkpt><trkpt lat="45.759215" lon="8.2683033"><ele>404.0</ele><time>2026-03-28T09:52:00.767Z</time></trkpt><trkpt lat="45.7593217" lon="8.2683317"><ele>404.0</ele><time>2026-03-28T09:52:01.765Z</time></trkpt><trkpt lat="45.7594167" lon="8.2683633"><ele>404.0</ele><time>2026-03-28T09:52:02.764Z</time></trkpt><trkpt lat="45.7595" lon="8.2683883"><ele>404.0</ele><time>2026-03-28T09:52:03.765Z</time></trkpt><trkpt lat="45.7595733" lon="8.2684033"><ele>404.0</ele><time>2026-03-28T09:52:04.764Z</time></trkpt><trkpt lat="45.75969" lon="8.268435"><ele>404.16666666666663</ele><time>2026-03-28T09:52:06.764Z</time></trkpt><trkpt lat="45.759755" lon="8.2684483"><ele>404.3333333333333</ele><time>2026-03-28T09:52:07.765Z</time></trkpt><trkpt lat="45.75983" lon="8.2684667"><ele>404.5</ele><time>2026-03-28T09:52:08.764Z</time></trkpt><trkpt lat="45.7599217" lon="8.2684833"><ele>404.66666666666663</ele><time>2026-03-28T09:52:09.765Z</time></trkpt><trkpt lat="45.76002" lon="8.2684883"><ele>404.8333333333333</ele><time>2026-03-28T09:52:10.768Z</time></trkpt><trkpt lat="45.760135" lon="8.26849"><ele>405.0</ele><time>2026-03-28T09:52:11.767Z</time></trkpt><trkpt lat="45.7602617" lon="8.2684983"><ele>405.0</ele><time>2026-03-28T09:52:12.767Z</time></trkpt><trkpt lat="45.7603967" lon="8.2685133"><ele>405.0</ele><time>2026-03-28T09:52:13.764Z</time></trkpt><trkpt lat="45.7605233" lon="8.268525"><ele>405.0</ele><time>2026-03-28T09:52:14.767Z</time></trkpt><trkpt lat="45.760625" lon="8.268525"><ele>405.0</ele><time>2026-03-28T09:52:15.767Z</time></trkpt><trkpt lat="45.76071" lon="8.2685283"><ele>405.0</ele><time>2026-03-28T09:52:16.767Z</time></trkpt><trkpt lat="45.7607783" lon="8.2685233"><ele>404.99999999999994</ele><time>2026-03-28T09:52:17.763Z</time></trkpt><trkpt lat="45.7608433" lon="8.2685217"><ele>405.0</ele><time>2026-03-28T09:52:18.764Z</time></trkpt><trkpt lat="45.7609133" lon="8.2685283"><ele>405.0</ele><time>2026-03-28T09:52:19.764Z</time></trkpt><trkpt lat="45.7609783" lon="8.2685383"><ele>405.0</ele><time>2026-03-28T09:52:20.764Z</time></trkpt><trkpt lat="45.761045" lon="8.268545"><ele>405.0</ele><time>2026-03-28T09:52:21.765Z</time></trkpt><trkpt lat="45.7611083" lon="8.26855"><ele>404.99999999999994</ele><time>2026-03-28T09:52:22.764Z</time></trkpt><trkpt lat="45.7612067" lon="8.2685617"><ele>405.0</ele><time>2026-03-28T09:52:24.765Z</time></trkpt><trkpt lat="45.7613033" lon="8.268575"><ele>405.5</ele><time>2026-03-28T09:52:26.764Z</time></trkpt><trkpt lat="45.7613967" lon="8.26859"><ele>406.0</ele><time>2026-03-28T09:52:28.767Z</time></trkpt><trkpt lat="45.7614633" lon="8.2686067"><ele>406.5</ele><time>2026-03-28T09:52:30.767Z</time></trkpt><trkpt lat="45.76155" lon="8.2686217"><ele>407.0</ele><time>2026-03-28T09:52:33.767Z</time></trkpt><trkpt lat="45.7616367" lon="8.2686033"><ele>407.5</ele><time>2026-03-28T09:52:36.768Z</time></trkpt><trkpt lat="45.7617017" lon="8.268555"><ele>408.0</ele><time>2026-03-28T09:52:38.767Z</time></trkpt><trkpt lat="45.761775" lon="8.2685683"><ele>408.0</ele><time>2026-03-28T09:52:41.767Z</time></trkpt><trkpt lat="45.7618433" lon="8.2686033"><ele>408.0</ele><time>2026-03-28T09:52:43.767Z</time></trkpt><trkpt lat="45.76193" lon="8.2686367"><ele>408.0</ele><time>2026-03-28T09:52:45.764Z</time></trkpt><trkpt lat="45.7620167" lon="8.2686733"><ele>408.0</ele><time>2026-03-28T09:52:47.765Z</time></trkpt><trkpt lat="45.7621333" lon="8.2686983"><ele>408.0</ele><time>2026-03-28T09:52:49.765Z</time></trkpt><trkpt lat="45.76221" lon="8.2687167"><ele>408.0</ele><time>2026-03-28T09:52:50.764Z</time></trkpt><trkpt lat="45.762325" lon="8.2687467"><ele>408.0</ele><time>2026-03-28T09:52:51.764Z</time></trkpt><trkpt lat="45.762455" lon="8.268785"><ele>408.0</ele><time>2026-03-28T09:52:52.764Z</time></trkpt><trkpt lat="45.76258" lon="8.2688083"><ele>408.0</ele><time>2026-03-28T09:52:53.765Z</time></trkpt><trkpt lat="45.762705" lon="8.2688217"><ele>408.0</ele><time>2026-03-28T09:52:54.765Z</time></trkpt><trkpt lat="45.7628217" lon="8.268835"><ele>407.79999999999995</ele><time>2026-03-28T09:52:55.765Z</time></trkpt><trkpt lat="45.7629367" lon="8.2688467"><ele>407.6</ele><time>2026-03-28T09:52:56.764Z</time></trkpt><trkpt lat="45.7630483" lon="8.2688567"><ele>407.4</ele><time>2026-03-28T09:52:57.764Z</time></trkpt><trkpt lat="45.7631517" lon="8.2688617"><ele>407.20000000000005</ele><time>2026-03-28T09:52:58.767Z</time></trkpt><trkpt lat="45.7632467" lon="8.26886"><ele>407.0</ele><time>2026-03-28T09:52:59.763Z</time></trkpt><trkpt lat="45.7633467" lon="8.26886"><ele>407.0</ele><time>2026-03-28T09:53:00.767Z</time></trkpt><trkpt lat="45.7634433" lon="8.2688733"><ele>407.0</ele><time>2026-03-28T09:53:01.764Z</time></trkpt><trkpt lat="45.763555" lon="8.2688817"><ele>407.0</ele><time>2026-03-28T09:53:02.767Z</time></trkpt><trkpt lat="45.76367" lon="8.2688917"><ele>407.0</ele><time>2026-03-28T09:53:03.767Z</time></trkpt><trkpt lat="45.76378" lon="8.2688983"><ele>407.0</ele><time>2026-03-28T09:53:04.767Z</time></trkpt><trkpt lat="45.7638783" lon="8.26892"><ele>407.0</ele><time>2026-03-28T09:53:05.763Z</time></trkpt><trkpt lat="45.7639817" lon="8.2689467"><ele>407.0</ele><time>2026-03-28T09:53:06.766Z</time></trkpt><trkpt lat="45.7640767" lon="8.26897"><ele>407.0</ele><time>2026-03-28T09:53:07.765Z</time></trkpt><trkpt lat="45.764175" lon="8.2689867"><ele>407.0</ele><time>2026-03-28T09:53:08.767Z</time></trkpt><trkpt lat="45.7642683" lon="8.2689883"><ele>407.0</ele><time>2026-03-28T09:53:09.764Z</time></trkpt><trkpt lat="45.764355" lon="8.2689883"><ele>407.3333333333333</ele><time>2026-03-28T09:53:10.766Z</time></trkpt><trkpt lat="45.7644333" lon="8.2689833"><ele>407.66666666666663</ele><time>2026-03-28T09:53:11.767Z</time></trkpt><trkpt lat="45.7645133" lon="8.2689883"><ele>408.0</ele><time>2026-03-28T09:53:12.765Z</time></trkpt><trkpt lat="45.76459" lon="8.2689983"><ele>408.33333333333337</ele><time>2026-03-28T09:53:13.765Z</time></trkpt><trkpt lat="45.7646667" lon="8.2689783"><ele>408.6666666666667</ele><time>2026-03-28T09:53:14.765Z</time></trkpt><trkpt lat="45.764745" lon="8.268955"><ele>409.0</ele><time>2026-03-28T09:53:15.767Z</time></trkpt><trkpt lat="45.764815" lon="8.2689367"><ele>409.00000000000006</ele><time>2026-03-28T09:53:16.764Z</time></trkpt><trkpt lat="45.7648867" lon="8.2688917"><ele>409.0</ele><time>2026-03-28T09:53:17.765Z</time></trkpt><trkpt lat="45.76496" lon="8.26883"><ele>409.0</ele><time>2026-03-28T09:53:18.765Z</time></trkpt><trkpt lat="45.765015" lon="8.268745"><ele>409.0</ele><time>2026-03-28T09:53:19.764Z</time></trkpt><trkpt lat="45.7650667" lon="8.2686533"><ele>409.00000000000006</ele><time>2026-03-28T09:53:20.764Z</time></trkpt><trkpt lat="45.7651217" lon="8.268555"><ele>409.0</ele><time>2026-03-28T09:53:21.764Z</time></trkpt><trkpt lat="45.7651817" lon="8.2684483"><ele>409.00000000000006</ele><time>2026-03-28T09:53:22.765Z</time></trkpt><trkpt lat="45.76524" lon="8.2683467"><ele>409.0</ele><time>2026-03-28T09:53:23.767Z</time></trkpt><trkpt lat="45.7652967" lon="8.268255"><ele>409.0</ele><time>2026-03-28T09:53:24.767Z</time></trkpt><trkpt lat="45.7653467" lon="8.268175"><ele>409.0</ele><time>2026-03-28T09:53:25.764Z</time></trkpt><trkpt lat="45.7653983" lon="8.2681083"><ele>409.00000000000006</ele><time>2026-03-28T09:53:26.767Z</time></trkpt><trkpt lat="45.7654533" lon="8.2680433"><ele>409.0</ele><time>2026-03-28T09:53:27.764Z</time></trkpt><trkpt lat="45.7655133" lon="8.2679867"><ele>409.00000000000006</ele><time>2026-03-28T09:53:28.765Z</time></trkpt><trkpt lat="45.7655783" lon="8.2679417"><ele>409.0</ele><time>2026-03-28T09:53:29.764Z</time></trkpt><trkpt lat="45.765645" lon="8.2678933"><ele>409.0</ele><time>2026-03-28T09:53:30.767Z</time></trkpt><trkpt lat="45.7657233" lon="8.267855"><ele>409.0</ele><time>2026-03-28T09:53:31.767Z</time></trkpt><trkpt lat="45.7658067" lon="8.26783"><ele>409.00000000000006</ele><time>2026-03-28T09:53:32.767Z</time></trkpt><trkpt lat="45.7659017" lon="8.2678233"><ele>409.0</ele><time>2026-03-28T09:53:33.767Z</time></trkpt><trkpt lat="45.7660033" lon="8.2678167"><ele>409.25</ele><time>2026-03-28T09:53:34.768Z</time></trkpt><trkpt lat="45.766125" lon="8.26781"><ele>409.5</ele><time>2026-03-28T09:53:35.767Z</time></trkpt><trkpt lat="45.7662567" lon="8.2678083"><ele>409.75</ele><time>2026-03-28T09:53:36.768Z</time></trkpt><trkpt lat="45.7663983" lon="8.2678"><ele>410.0</ele><time>2026-03-28T09:53:37.767Z</time></trkpt><trkpt lat="45.7665283" lon="8.2678"><ele>410.0</ele><time>2026-03-28T09:53:38.767Z</time></trkpt><trkpt lat="45.7666583" lon="8.2678017"><ele>410.0</ele><time>2026-03-28T09:53:39.767Z</time></trkpt><trkpt lat="45.76678" lon="8.2678067"><ele>410.0</ele><time>2026-03-28T09:53:40.767Z</time></trkpt><trkpt lat="45.7669117" lon="8.26781"><ele>410.0</ele><time>2026-03-28T09:53:41.767Z</time></trkpt><trkpt lat="45.7670417" lon="8.2678033"><ele>410.66666666666663</ele><time>2026-03-28T09:53:42.767Z</time></trkpt><trkpt lat="45.7671833" lon="8.2678"><ele>411.33333333333337</ele><time>2026-03-28T09:53:43.767Z</time></trkpt><trkpt lat="45.7673417" lon="8.2678"><ele>412.0</ele><time>2026-03-28T09:53:44.768Z</time></trkpt><trkpt lat="45.767505" lon="8.2678017"><ele>412.0</ele><time>2026-03-28T09:53:45.767Z</time></trkpt><trkpt lat="45.7676717" lon="8.2678017"><ele>412.0</ele><time>2026-03-28T09:53:46.767Z</time></trkpt><trkpt lat="45.767845" lon="8.26781"><ele>412.0</ele><time>2026-03-28T09:53:47.764Z</time></trkpt><trkpt lat="45.76803" lon="8.2678167"><ele>412.0</ele><time>2026-03-28T09:53:48.765Z</time></trkpt><trkpt lat="45.76822" lon="8.26782"><ele>412.0</ele><time>2026-03-28T09:53:49.767Z</time></trkpt><trkpt lat="45.7684133" lon="8.2678217"><ele>412.0</ele><time>2026-03-28T09:53:50.765Z</time></trkpt><trkpt lat="45.7685983" lon="8.26782"><ele>411.33333333333337</ele><time>2026-03-28T09:53:51.767Z</time></trkpt><trkpt lat="45.7687733" lon="8.2678233"><ele>410.66666666666663</ele><time>2026-03-28T09:53:52.767Z</time></trkpt><trkpt lat="45.7689383" lon="8.2678267"><ele>410.0</ele><time>2026-03-28T09:53:53.767Z</time></trkpt><trkpt lat="45.7691083" lon="8.2678433"><ele>410.0</ele><time>2026-03-28T09:53:54.77Z</time></trkpt><trkpt lat="45.769275" lon="8.26788"><ele>410.0</ele><time>2026-03-28T09:53:55.768Z</time></trkpt><trkpt lat="45.7694383" lon="8.267935"><ele>410.0</ele><time>2026-03-28T09:53:56.767Z</time></trkpt><trkpt lat="45.7696" lon="8.2679967"><ele>410.0</ele><time>2026-03-28T09:53:57.768Z</time></trkpt><trkpt lat="45.7697633" lon="8.2680683"><ele>410.0</ele><time>2026-03-28T09:53:58.767Z</time></trkpt><trkpt lat="45.76992" lon="8.2681417"><ele>410.0</ele><time>2026-03-28T09:53:59.767Z</time></trkpt><trkpt lat="45.770075" lon="8.2682167"><ele>410.0</ele><time>2026-03-28T09:54:00.764Z</time></trkpt><trkpt lat="45.7702383" lon="8.26829"><ele>410.0</ele><time>2026-03-28T09:54:01.768Z</time></trkpt><trkpt lat="45.7704067" lon="8.268365"><ele>410.0</ele><time>2026-03-28T09:54:02.768Z</time></trkpt><trkpt lat="45.7705767" lon="8.268445"><ele>410.0</ele><time>2026-03-28T09:54:03.767Z</time></trkpt><trkpt lat="45.7707517" lon="8.2685267"><ele>410.0</ele><time>2026-03-28T09:54:04.768Z</time></trkpt><trkpt lat="45.7709367" lon="8.26861"><ele>410.0</ele><time>2026-03-28T09:54:05.767Z</time></trkpt><trkpt lat="45.7711183" lon="8.2686933"><ele>410.3333333333333</ele><time>2026-03-28T09:54:06.767Z</time></trkpt><trkpt lat="45.7712933" lon="8.2687733"><ele>410.66666666666663</ele><time>2026-03-28T09:54:07.769Z</time></trkpt><trkpt lat="45.771475" lon="8.2688533"><ele>411.0</ele><time>2026-03-28T09:54:08.767Z</time></trkpt><trkpt lat="45.7716633" lon="8.2689367"><ele>413.0</ele><time>2026-03-28T09:54:09.767Z</time></trkpt><trkpt lat="45.7718583" lon="8.2690283"><ele>415.0</ele><time>2026-03-28T09:54:10.768Z</time></trkpt><trkpt lat="45.7720617" lon="8.2691217"><ele>417.0</ele><time>2026-03-28T09:54:11.767Z</time></trkpt><trkpt lat="45.7722733" lon="8.2692183"><ele>417.0</ele><time>2026-03-28T09:54:12.767Z</time></trkpt><trkpt lat="45.7724767" lon="8.2693133"><ele>417.0</ele><time>2026-03-28T09:54:13.768Z</time></trkpt><trkpt lat="45.77267" lon="8.2694033"><ele>417.0</ele><time>2026-03-28T09:54:14.767Z</time></trkpt><trkpt lat="45.7728683" lon="8.2694867"><ele>415.66666666666663</ele><time>2026-03-28T09:54:15.768Z</time></trkpt><trkpt lat="45.7730783" lon="8.269545"><ele>414.3333333333333</ele><time>2026-03-28T09:54:16.767Z</time></trkpt><trkpt lat="45.7732917" lon="8.2695917"><ele>413.0</ele><time>2026-03-28T09:54:17.767Z</time></trkpt><trkpt lat="45.7735033" lon="8.269635"><ele>411.3333333333333</ele><time>2026-03-28T09:54:18.767Z</time></trkpt><trkpt lat="45.7737067" lon="8.2696783"><ele>409.66666666666663</ele><time>2026-03-28T09:54:19.768Z</time></trkpt><trkpt lat="45.7739" lon="8.2697183"><ele>408.0</ele><time>2026-03-28T09:54:20.767Z</time></trkpt><trkpt lat="45.7740933" lon="8.2697633"><ele>409.66666666666663</ele><time>2026-03-28T09:54:21.767Z</time></trkpt><trkpt lat="45.7742867" lon="8.2698217"><ele>411.3333333333333</ele><time>2026-03-28T09:54:22.767Z</time></trkpt><trkpt lat="45.7744783" lon="8.2699167"><ele>413.0</ele><time>2026-03-28T09:54:23.767Z</time></trkpt><trkpt lat="45.774665" lon="8.27004"><ele>413.0</ele><time>2026-03-28T09:54:24.767Z</time></trkpt><trkpt lat="45.77484" lon="8.2701767"><ele>413.0</ele><time>2026-03-28T09:54:25.768Z</time></trkpt><trkpt lat="45.775" lon="8.27032"><ele>413.0</ele><time>2026-03-28T09:54:26.767Z</time></trkpt><trkpt lat="45.77515" lon="8.27047"><ele>412.66666666666663</ele><time>2026-03-28T09:54:27.767Z</time></trkpt><trkpt lat="45.7752967" lon="8.2706283"><ele>412.33333333333337</ele><time>2026-03-28T09:54:28.768Z</time></trkpt><trkpt lat="45.7754367" lon="8.270775"><ele>412.0</ele><time>2026-03-28T09:54:29.768Z</time></trkpt><trkpt lat="45.7755667" lon="8.2709133"><ele>412.0</ele><time>2026-03-28T09:54:30.767Z</time></trkpt><trkpt lat="45.7756833" lon="8.2710417"><ele>412.0</ele><time>2026-03-28T09:54:31.764Z</time></trkpt><trkpt lat="45.7757917" lon="8.2711667"><ele>412.0</ele><time>2026-03-28T09:54:32.764Z</time></trkpt><trkpt lat="45.775905" lon="8.2712833"><ele>412.0</ele><time>2026-03-28T09:54:33.765Z</time></trkpt><trkpt lat="45.7760267" lon="8.2714017"><ele>412.6666666666667</ele><time>2026-03-28T09:54:34.764Z</time></trkpt><trkpt lat="45.7761617" lon="8.2715267"><ele>413.33333333333337</ele><time>2026-03-28T09:54:35.764Z</time></trkpt><trkpt lat="45.7763067" lon="8.2716717"><ele>414.0</ele><time>2026-03-28T09:54:36.764Z</time></trkpt><trkpt lat="45.77646" lon="8.2718417"><ele>414.0</ele><time>2026-03-28T09:54:37.765Z</time></trkpt><trkpt lat="45.77662" lon="8.2720267"><ele>414.0</ele><time>2026-03-28T09:54:38.764Z</time></trkpt><trkpt lat="45.7767883" lon="8.2722183"><ele>414.0</ele><time>2026-03-28T09:54:39.764Z</time></trkpt><trkpt lat="45.7769633" lon="8.27241"><ele>414.5</ele><time>2026-03-28T09:54:40.768Z</time></trkpt><trkpt lat="45.77715" lon="8.2726"><ele>415.0</ele><time>2026-03-28T09:54:41.768Z</time></trkpt><trkpt lat="45.7773433" lon="8.272795"><ele>415.0</ele><time>2026-03-28T09:54:42.767Z</time></trkpt><trkpt lat="45.777535" lon="8.2729933"><ele>415.0</ele><time>2026-03-28T09:54:43.768Z</time></trkpt><trkpt lat="45.777725" lon="8.2731933"><ele>414.0</ele><time>2026-03-28T09:54:44.767Z</time></trkpt><trkpt lat="45.7779117" lon="8.2733917"><ele>413.0</ele><time>2026-03-28T09:54:45.771Z</time></trkpt><trkpt lat="45.7780933" lon="8.2735883"><ele>413.0</ele><time>2026-03-28T09:54:46.767Z</time></trkpt><trkpt lat="45.778275" lon="8.2737817"><ele>413.0</ele><time>2026-03-28T09:54:47.767Z</time></trkpt><trkpt lat="45.778455" lon="8.2739717"><ele>413.66666666666663</ele><time>2026-03-28T09:54:48.767Z</time></trkpt><trkpt lat="45.7786333" lon="8.2741583"><ele>414.33333333333337</ele><time>2026-03-28T09:54:49.764Z</time></trkpt><trkpt lat="45.778815" lon="8.2743483"><ele>415.0</ele><time>2026-03-28T09:54:50.764Z</time></trkpt><trkpt lat="45.7789983" lon="8.2745483"><ele>415.0</ele><time>2026-03-28T09:54:51.764Z</time></trkpt><trkpt lat="45.77919" lon="8.27475"><ele>415.0</ele><time>2026-03-28T09:54:52.764Z</time></trkpt><trkpt lat="45.7793833" lon="8.2749567"><ele>415.0</ele><time>2026-03-28T09:54:53.765Z</time></trkpt><trkpt lat="45.7795767" lon="8.2751617"><ele>415.0</ele><time>2026-03-28T09:54:54.764Z</time></trkpt><trkpt lat="45.77976" lon="8.2753617"><ele>415.0</ele><time>2026-03-28T09:54:55.765Z</time></trkpt><trkpt lat="45.7799283" lon="8.2755483"><ele>415.0</ele><time>2026-03-28T09:54:56.769Z</time></trkpt><trkpt lat="45.7800883" lon="8.2757267"><ele>415.0</ele><time>2026-03-28T09:54:57.767Z</time></trkpt><trkpt lat="45.7802417" lon="8.2758933"><ele>415.0</ele><time>2026-03-28T09:54:58.768Z</time></trkpt><trkpt lat="45.7803967" lon="8.2760483"><ele>415.0</ele><time>2026-03-28T09:54:59.767Z</time></trkpt><trkpt lat="45.7805517" lon="8.2761883"><ele>415.0</ele><time>2026-03-28T09:55:00.767Z</time></trkpt><trkpt lat="45.7807067" lon="8.2763033"><ele>415.0</ele><time>2026-03-28T09:55:01.768Z</time></trkpt><trkpt lat="45.7808517" lon="8.276405"><ele>415.0</ele><time>2026-03-28T09:55:02.767Z</time></trkpt><trkpt lat="45.7809767" lon="8.27651"><ele>415.0</ele><time>2026-03-28T09:55:03.767Z</time></trkpt><trkpt lat="45.78108" lon="8.2766283"><ele>415.0</ele><time>2026-03-28T09:55:04.767Z</time></trkpt><trkpt lat="45.7811733" lon="8.2767467"><ele>416.5</ele><time>2026-03-28T09:55:05.767Z</time></trkpt><trkpt lat="45.781265" lon="8.2768633"><ele>418.0</ele><time>2026-03-28T09:55:06.767Z</time></trkpt><trkpt lat="45.7813617" lon="8.2769833"><ele>419.5</ele><time>2026-03-28T09:55:07.768Z</time></trkpt><trkpt lat="45.78147" lon="8.27711"><ele>421.0</ele><time>2026-03-28T09:55:08.767Z</time></trkpt><trkpt lat="45.7815917" lon="8.2772367"><ele>424.0</ele><time>2026-03-28T09:55:09.767Z</time></trkpt><trkpt lat="45.7817383" lon="8.277345"><ele>427.0</ele><time>2026-03-28T09:55:10.767Z</time></trkpt><trkpt lat="45.781905" lon="8.277445"><ele>430.0</ele><time>2026-03-28T09:55:11.768Z</time></trkpt><trkpt lat="45.7820867" lon="8.2775333"><ele>430.0</ele><time>2026-03-28T09:55:12.767Z</time></trkpt><trkpt lat="45.7822833" lon="8.2776233"><ele>430.0</ele><time>2026-03-28T09:55:13.767Z</time></trkpt><trkpt lat="45.7824967" lon="8.2777083"><ele>430.0</ele><time>2026-03-28T09:55:14.764Z</time></trkpt><trkpt lat="45.78272" lon="8.27779"><ele>426.5</ele><time>2026-03-28T09:55:15.767Z</time></trkpt><trkpt lat="45.782955" lon="8.2778567"><ele>423.0</ele><time>2026-03-28T09:55:16.768Z</time></trkpt><trkpt lat="45.783195" lon="8.2779267"><ele>423.0</ele><time>2026-03-28T09:55:17.767Z</time></trkpt><trkpt lat="45.7834367" lon="8.2779983"><ele>423.0</ele><time>2026-03-28T09:55:18.767Z</time></trkpt><trkpt lat="45.78368" lon="8.278075"><ele>427.0</ele><time>2026-03-28T09:55:19.767Z</time></trkpt><trkpt lat="45.7839183" lon="8.27814"><ele>431.0</ele><time>2026-03-28T09:55:20.767Z</time></trkpt><trkpt lat="45.784155" lon="8.27819"><ele>429.0</ele><time>2026-03-28T09:55:21.767Z</time></trkpt><trkpt lat="45.7843833" lon="8.27824"><ele>427.0</ele><time>2026-03-28T09:55:22.769Z</time></trkpt><trkpt lat="45.784625" lon="8.2782567"><ele>427.0</ele><time>2026-03-28T09:55:23.765Z</time></trkpt><trkpt lat="45.7848833" lon="8.278245"><ele>427.0</ele><time>2026-03-28T09:55:24.765Z</time></trkpt><trkpt lat="45.785145" lon="8.2782167"><ele>432.5</ele><time>2026-03-28T09:55:25.768Z</time></trkpt><trkpt lat="45.785405" lon="8.2781733"><ele>438.0</ele><time>2026-03-28T09:55:26.768Z</time></trkpt><trkpt lat="45.7856567" lon="8.2781233"><ele>430.0</ele><time>2026-03-28T09:55:27.767Z</time></trkpt><trkpt lat="45.7858983" lon="8.27807"><ele>422.0</ele><time>2026-03-28T09:55:28.767Z</time></trkpt><trkpt lat="45.7861333" lon="8.2780133"><ele>422.0</ele><time>2026-03-28T09:55:29.767Z</time></trkpt><trkpt lat="45.7863617" lon="8.2779667"><ele>422.0</ele><time>2026-03-28T09:55:30.764Z</time></trkpt><trkpt lat="45.78659" lon="8.277915"><ele>422.0</ele><time>2026-03-28T09:55:31.767Z</time></trkpt><trkpt lat="45.78681" lon="8.277885"><ele>422.0</ele><time>2026-03-28T09:55:32.763Z</time></trkpt><trkpt lat="45.7870267" lon="8.27789"><ele>422.0</ele><time>2026-03-28T09:55:33.768Z</time></trkpt><trkpt lat="45.7872433" lon="8.2779317"><ele>423.0</ele><time>2026-03-28T09:55:34.767Z</time></trkpt><trkpt lat="45.7874617" lon="8.278"><ele>424.0</ele><time>2026-03-28T09:55:35.767Z</time></trkpt><trkpt lat="45.787675" lon="8.2780767"><ele>425.0</ele><time>2026-03-28T09:55:36.767Z</time></trkpt><trkpt lat="45.7878883" lon="8.2781467"><ele>427.0</ele><time>2026-03-28T09:55:37.768Z</time></trkpt><trkpt lat="45.7881" lon="8.2782133"><ele>429.0</ele><time>2026-03-28T09:55:38.767Z</time></trkpt><trkpt lat="45.7883033" lon="8.27828"><ele>431.0</ele><time>2026-03-28T09:55:39.768Z</time></trkpt><trkpt lat="45.7885033" lon="8.2783367"><ele>433.3333333333333</ele><time>2026-03-28T09:55:40.768Z</time></trkpt><trkpt lat="45.7887017" lon="8.2784"><ele>435.66666666666663</ele><time>2026-03-28T09:55:41.767Z</time></trkpt><trkpt lat="45.788905" lon="8.2784583"><ele>438.0</ele><time>2026-03-28T09:55:42.768Z</time></trkpt><trkpt lat="45.7891167" lon="8.2785233"><ele>438.0</ele><time>2026-03-28T09:55:43.768Z</time></trkpt><trkpt lat="45.789325" lon="8.2785917"><ele>438.0</ele><time>2026-03-28T09:55:44.767Z</time></trkpt><trkpt lat="45.7895217" lon="8.2786567"><ele>438.0</ele><time>2026-03-28T09:55:45.764Z</time></trkpt><trkpt lat="45.7897083" lon="8.2787167"><ele>438.33333333333337</ele><time>2026-03-28T09:55:46.767Z</time></trkpt><trkpt lat="45.7898817" lon="8.2787767"><ele>438.6666666666667</ele><time>2026-03-28T09:55:47.764Z</time></trkpt><trkpt lat="45.7900517" lon="8.2788267"><ele>439.0</ele><time>2026-03-28T09:55:48.766Z</time></trkpt><trkpt lat="45.79021" lon="8.2788717"><ele>439.0</ele><time>2026-03-28T09:55:49.765Z</time></trkpt><trkpt lat="45.7903683" lon="8.27888"><ele>439.0</ele><time>2026-03-28T09:55:50.769Z</time></trkpt><trkpt lat="45.790525" lon="8.2788533"><ele>439.0</ele><time>2026-03-28T09:55:51.768Z</time></trkpt><trkpt lat="45.7906883" lon="8.2787683"><ele>439.0</ele><time>2026-03-28T09:55:52.768Z</time></trkpt><trkpt lat="45.7908433" lon="8.2786367"><ele>439.0</ele><time>2026-03-28T09:55:53.764Z</time></trkpt><trkpt lat="45.79099" lon="8.278485"><ele>439.0</ele><time>2026-03-28T09:55:54.767Z</time></trkpt><trkpt lat="45.7911233" lon="8.27831"><ele>437.6666666666667</ele><time>2026-03-28T09:55:55.767Z</time></trkpt><trkpt lat="45.7912533" lon="8.278145"><ele>436.33333333333337</ele><time>2026-03-28T09:55:56.767Z</time></trkpt><trkpt lat="45.7913767" lon="8.2779933"><ele>435.0</ele><time>2026-03-28T09:55:57.767Z</time></trkpt><trkpt lat="45.7914933" lon="8.2778433"><ele>435.33333333333337</ele><time>2026-03-28T09:55:58.765Z</time></trkpt><trkpt lat="45.7916083" lon="8.2777"><ele>435.6666666666667</ele><time>2026-03-28T09:55:59.767Z</time></trkpt><trkpt lat="45.7917267" lon="8.2775583"><ele>436.0</ele><time>2026-03-28T09:56:00.767Z</time></trkpt><trkpt lat="45.7918433" lon="8.27742"><ele>436.0</ele><time>2026-03-28T09:56:01.768Z</time></trkpt><trkpt lat="45.79196" lon="8.2772967"><ele>436.0</ele><time>2026-03-28T09:56:02.764Z</time></trkpt><trkpt lat="45.7920717" lon="8.27719"><ele>436.0</ele><time>2026-03-28T09:56:03.768Z</time></trkpt><trkpt lat="45.7921683" lon="8.27713"><ele>436.0</ele><time>2026-03-28T09:56:04.768Z</time></trkpt><trkpt lat="45.7922417" lon="8.2770717"><ele>435.5</ele><time>2026-03-28T09:56:05.767Z</time></trkpt><trkpt lat="45.7923417" lon="8.277"><ele>435.0</ele><time>2026-03-28T09:56:07.768Z</time></trkpt><trkpt lat="45.7924517" lon="8.276905"><ele>434.5</ele><time>2026-03-28T09:56:23.767Z</time></trkpt><trkpt lat="45.7925333" lon="8.2768383"><ele>434.0</ele><time>2026-03-28T09:56:24.767Z</time></trkpt><trkpt lat="45.7926483" lon="8.2767467"><ele>433.3333333333333</ele><time>2026-03-28T09:56:25.768Z</time></trkpt><trkpt lat="45.79277" lon="8.2766483"><ele>432.66666666666663</ele><time>2026-03-28T09:56:26.768Z</time></trkpt><trkpt lat="45.7929083" lon="8.276515"><ele>432.0</ele><time>2026-03-28T09:56:27.767Z</time></trkpt><trkpt lat="45.7930517" lon="8.2763567"><ele>431.33333333333337</ele><time>2026-03-28T09:56:28.767Z</time></trkpt><trkpt lat="45.7931967" lon="8.276185"><ele>430.6666666666667</ele><time>2026-03-28T09:56:29.768Z</time></trkpt><trkpt lat="45.79333" lon="8.2760183"><ele>430.0</ele><time>2026-03-28T09:56:30.765Z</time></trkpt><trkpt lat="45.7934533" lon="8.2758617"><ele>432.0</ele><time>2026-03-28T09:56:31.767Z</time></trkpt><trkpt lat="45.7935733" lon="8.275715"><ele>434.0</ele><time>2026-03-28T09:56:32.767Z</time></trkpt><trkpt lat="45.7937" lon="8.2755633"><ele>436.0</ele><time>2026-03-28T09:56:33.767Z</time></trkpt><trkpt lat="45.7938333" lon="8.2754067"><ele>436.0</ele><time>2026-03-28T09:56:34.767Z</time></trkpt><trkpt lat="45.79396" lon="8.2752583"><ele>436.0</ele><time>2026-03-28T09:56:35.767Z</time></trkpt><trkpt lat="45.7940833" lon="8.2751183"><ele>436.0</ele><time>2026-03-28T09:56:36.768Z</time></trkpt><trkpt lat="45.7941967" lon="8.2749783"><ele>436.0</ele><time>2026-03-28T09:56:37.768Z</time></trkpt><trkpt lat="45.7943033" lon="8.274825"><ele>436.0</ele><time>2026-03-28T09:56:38.764Z</time></trkpt><trkpt lat="45.7944" lon="8.2746467"><ele>436.0</ele><time>2026-03-28T09:56:39.767Z</time></trkpt><trkpt lat="45.794495" lon="8.27445"><ele>436.6666666666667</ele><time>2026-03-28T09:56:40.764Z</time></trkpt><trkpt lat="45.79459" lon="8.274245"><ele>437.33333333333337</ele><time>2026-03-28T09:56:41.768Z</time></trkpt><trkpt lat="45.79469" lon="8.2740317"><ele>438.0</ele><time>2026-03-28T09:56:42.764Z</time></trkpt><trkpt lat="45.7947933" lon="8.2738033"><ele>438.0</ele><time>2026-03-28T09:56:43.764Z</time></trkpt><trkpt lat="45.7949017" lon="8.2735767"><ele>438.0</ele><time>2026-03-28T09:56:44.767Z</time></trkpt><trkpt lat="45.7950083" lon="8.2733683"><ele>438.0</ele><time>2026-03-28T09:56:45.769Z</time></trkpt><trkpt lat="45.79512" lon="8.2731683"><ele>440.66666666666663</ele><time>2026-03-28T09:56:46.767Z</time></trkpt><trkpt lat="45.7952333" lon="8.2729733"><ele>443.3333333333333</ele><time>2026-03-28T09:56:47.767Z</time></trkpt><trkpt lat="45.79535" lon="8.2727833"><ele>446.0</ele><time>2026-03-28T09:56:48.764Z</time></trkpt><trkpt lat="45.79547" lon="8.2726017"><ele>446.0</ele><time>2026-03-28T09:56:49.767Z</time></trkpt><trkpt lat="45.7955917" lon="8.2724367"><ele>446.0</ele><time>2026-03-28T09:56:50.767Z</time></trkpt><trkpt lat="45.795725" lon="8.272295"><ele>446.0</ele><time>2026-03-28T09:56:51.764Z</time></trkpt><trkpt lat="45.7958717" lon="8.272175"><ele>443.0</ele><time>2026-03-28T09:56:52.766Z</time></trkpt><trkpt lat="45.7960217" lon="8.272075"><ele>440.0</ele><time>2026-03-28T09:56:53.764Z</time></trkpt><trkpt lat="45.7961783" lon="8.272"><ele>437.0</ele><time>2026-03-28T09:56:54.767Z</time></trkpt><trkpt lat="45.7963633" lon="8.2719767"><ele>437.0</ele><time>2026-03-28T09:56:55.768Z</time></trkpt><trkpt lat="45.7965733" lon="8.2719867"><ele>437.0</ele><time>2026-03-28T09:56:56.767Z</time></trkpt><trkpt lat="45.7967933" lon="8.2719967"><ele>437.0</ele><time>2026-03-28T09:56:57.765Z</time></trkpt><trkpt lat="45.7970133" lon="8.2720183"><ele>435.5</ele><time>2026-03-28T09:56:58.767Z</time></trkpt><trkpt lat="45.7972383" lon="8.27204"><ele>434.0</ele><time>2026-03-28T09:56:59.765Z</time></trkpt><trkpt lat="45.7974667" lon="8.27206"><ele>435.0</ele><time>2026-03-28T09:57:00.764Z</time></trkpt><trkpt lat="45.7976967" lon="8.2720867"><ele>436.0</ele><time>2026-03-28T09:57:01.764Z</time></trkpt><trkpt lat="45.7979217" lon="8.2721117"><ele>436.0</ele><time>2026-03-28T09:57:02.764Z</time></trkpt><trkpt lat="45.7981333" lon="8.2721333"><ele>436.0</ele><time>2026-03-28T09:57:03.764Z</time></trkpt><trkpt lat="45.7983367" lon="8.2721667"><ele>436.0</ele><time>2026-03-28T09:57:04.766Z</time></trkpt><trkpt lat="45.798545" lon="8.27221"><ele>439.33333333333337</ele><time>2026-03-28T09:57:05.765Z</time></trkpt><trkpt lat="45.7987517" lon="8.272265"><ele>442.66666666666663</ele><time>2026-03-28T09:57:06.764Z</time></trkpt><trkpt lat="45.7989633" lon="8.2723317"><ele>446.0</ele><time>2026-03-28T09:57:07.764Z</time></trkpt><trkpt lat="45.7991867" lon="8.2724133"><ele>447.5</ele><time>2026-03-28T09:57:08.764Z</time></trkpt><trkpt lat="45.7994167" lon="8.2725"><ele>449.0</ele><time>2026-03-28T09:57:09.765Z</time></trkpt><trkpt lat="45.799655" lon="8.272585"><ele>449.0</ele><time>2026-03-28T09:57:10.765Z</time></trkpt><trkpt lat="45.7998967" lon="8.272675"><ele>449.0</ele><time>2026-03-28T09:57:11.765Z</time></trkpt><trkpt lat="45.8001383" lon="8.272765"><ele>451.5</ele><time>2026-03-28T09:57:12.765Z</time></trkpt><trkpt lat="45.8003783" lon="8.2728617"><ele>454.0</ele><time>2026-03-28T09:57:13.765Z</time></trkpt><trkpt lat="45.80062" lon="8.27296"><ele>454.0</ele><time>2026-03-28T09:57:14.764Z</time></trkpt><trkpt lat="45.8008633" lon="8.273055"><ele>454.0</ele><time>2026-03-28T09:57:15.764Z</time></trkpt><trkpt lat="45.801105" lon="8.2731517"><ele>452.5</ele><time>2026-03-28T09:57:16.764Z</time></trkpt><trkpt lat="45.801345" lon="8.27325"><ele>451.0</ele><time>2026-03-28T09:57:17.764Z</time></trkpt><trkpt lat="45.8015833" lon="8.2733467"><ele>451.0</ele><time>2026-03-28T09:57:18.765Z</time></trkpt><trkpt lat="45.80182" lon="8.2734383"><ele>451.0</ele><time>2026-03-28T09:57:19.765Z</time></trkpt><trkpt lat="45.8020533" lon="8.27353"><ele>449.0</ele><time>2026-03-28T09:57:20.764Z</time></trkpt><trkpt lat="45.802285" lon="8.2736183"><ele>447.0</ele><time>2026-03-28T09:57:21.765Z</time></trkpt><trkpt lat="45.8025067" lon="8.2737033"><ele>447.0</ele><time>2026-03-28T09:57:22.765Z</time></trkpt><trkpt lat="45.8027117" lon="8.2737833"><ele>447.0</ele><time>2026-03-28T09:57:23.764Z</time></trkpt><trkpt lat="45.8029" lon="8.2738483"><ele>447.0</ele><time>2026-03-28T09:57:24.764Z</time></trkpt><trkpt lat="45.8030783" lon="8.27388"><ele>447.0</ele><time>2026-03-28T09:57:25.765Z</time></trkpt><trkpt lat="45.8032517" lon="8.2738567"><ele>447.0</ele><time>2026-03-28T09:57:26.765Z</time></trkpt><trkpt lat="45.8034283" lon="8.2737783"><ele>447.0</ele><time>2026-03-28T09:57:27.765Z</time></trkpt><trkpt lat="45.803605" lon="8.2736683"><ele>453.33333333333337</ele><time>2026-03-28T09:57:28.764Z</time></trkpt><trkpt lat="45.8037817" lon="8.2735483"><ele>459.6666666666667</ele><time>2026-03-28T09:57:29.764Z</time></trkpt><trkpt lat="45.8039617" lon="8.2734217"><ele>466.0</ele><time>2026-03-28T09:57:30.765Z</time></trkpt><trkpt lat="45.80415" lon="8.2732967"><ele>468.33333333333337</ele><time>2026-03-28T09:57:31.765Z</time></trkpt><trkpt lat="45.8043433" lon="8.2731717"><ele>470.66666666666663</ele><time>2026-03-28T09:57:32.768Z</time></trkpt><trkpt lat="45.804535" lon="8.273045"><ele>473.0</ele><time>2026-03-28T09:57:33.767Z</time></trkpt><trkpt lat="45.8047183" lon="8.2729133"><ele>473.0</ele><time>2026-03-28T09:57:34.767Z</time></trkpt><trkpt lat="45.8048783" lon="8.272775"><ele>473.0</ele><time>2026-03-28T09:57:35.764Z</time></trkpt><trkpt lat="45.805015" lon="8.2726333"><ele>473.0</ele><time>2026-03-28T09:57:36.768Z</time></trkpt><trkpt lat="45.8051333" lon="8.2724883"><ele>474.0</ele><time>2026-03-28T09:57:37.769Z</time></trkpt><trkpt lat="45.80524" lon="8.272355"><ele>475.0</ele><time>2026-03-28T09:57:38.767Z</time></trkpt><trkpt lat="45.8053367" lon="8.272235"><ele>476.0</ele><time>2026-03-28T09:57:39.765Z</time></trkpt><trkpt lat="45.805435" lon="8.27214"><ele>477.0</ele><time>2026-03-28T09:57:40.766Z</time></trkpt><trkpt lat="45.805535" lon="8.27206"><ele>475.40000000000003</ele><time>2026-03-28T09:57:41.764Z</time></trkpt><trkpt lat="45.8056217" lon="8.2720017"><ele>473.80000000000007</ele><time>2026-03-28T09:57:42.768Z</time></trkpt><trkpt lat="45.8056967" lon="8.2719633"><ele>472.2</ele><time>2026-03-28T09:57:43.768Z</time></trkpt><trkpt lat="45.8057617" lon="8.2719417"><ele>470.6</ele><time>2026-03-28T09:57:44.767Z</time></trkpt><trkpt lat="45.8058767" lon="8.2719533"><ele>469.0</ele><time>2026-03-28T09:57:46.767Z</time></trkpt><trkpt lat="45.80593" lon="8.2720717"><ele>469.0</ele><time>2026-03-28T09:57:48.766Z</time></trkpt><trkpt lat="45.8058633" lon="8.272195"><ele>469.0</ele><time>2026-03-28T09:57:50.764Z</time></trkpt><trkpt lat="45.8057767" lon="8.2722"><ele>469.0</ele><time>2026-03-28T09:57:51.764Z</time></trkpt><trkpt lat="45.805675" lon="8.272195"><ele>469.0</ele><time>2026-03-28T09:57:52.766Z</time></trkpt><trkpt lat="45.805565" lon="8.272215"><ele>469.0</ele><time>2026-03-28T09:57:53.764Z</time></trkpt><trkpt lat="45.8054533" lon="8.2722717"><ele>471.6666666666667</ele><time>2026-03-28T09:57:54.768Z</time></trkpt><trkpt lat="45.8053483" lon="8.2724033"><ele>474.33333333333337</ele><time>2026-03-28T09:57:55.764Z</time></trkpt><trkpt lat="45.805275" lon="8.2725867"><ele>477.0</ele><time>2026-03-28T09:57:56.765Z</time></trkpt><trkpt lat="45.805215" lon="8.2728083"><ele>475.66666666666663</ele><time>2026-03-28T09:57:57.765Z</time></trkpt><trkpt lat="45.8051433" lon="8.27303"><ele>474.3333333333333</ele><time>2026-03-28T09:57:58.768Z</time></trkpt><trkpt lat="45.80505" lon="8.2732467"><ele>473.0</ele><time>2026-03-28T09:57:59.769Z</time></trkpt><trkpt lat="45.80493" lon="8.2734417"><ele>476.0</ele><time>2026-03-28T09:58:00.767Z</time></trkpt><trkpt lat="45.80478" lon="8.2736233"><ele>479.0</ele><time>2026-03-28T09:58:01.767Z</time></trkpt><trkpt lat="45.8046117" lon="8.27379"><ele>482.0</ele><time>2026-03-28T09:58:02.768Z</time></trkpt><trkpt lat="45.8044217" lon="8.273945"><ele>486.0</ele><time>2026-03-28T09:58:03.767Z</time></trkpt><trkpt lat="45.8042217" lon="8.2740917"><ele>490.0</ele><time>2026-03-28T09:58:04.767Z</time></trkpt><trkpt lat="45.8040217" lon="8.2742483"><ele>490.0</ele><time>2026-03-28T09:58:05.764Z</time></trkpt><trkpt lat="45.803815" lon="8.2744117"><ele>490.0</ele><time>2026-03-28T09:58:06.764Z</time></trkpt><trkpt lat="45.8036067" lon="8.274575"><ele>491.33333333333337</ele><time>2026-03-28T09:58:07.768Z</time></trkpt><trkpt lat="45.80341" lon="8.2747283"><ele>492.66666666666663</ele><time>2026-03-28T09:58:08.767Z</time></trkpt><trkpt lat="45.803215" lon="8.2748783"><ele>494.0</ele><time>2026-03-28T09:58:09.764Z</time></trkpt><trkpt lat="45.803025" lon="8.27503"><ele>494.0</ele><time>2026-03-28T09:58:10.766Z</time></trkpt><trkpt lat="45.8028433" lon="8.275175"><ele>494.0</ele><time>2026-03-28T09:58:11.764Z</time></trkpt><trkpt lat="45.80268" lon="8.2753033"><ele>494.0</ele><time>2026-03-28T09:58:12.767Z</time></trkpt><trkpt lat="45.8025383" lon="8.2754083"><ele>494.0</ele><time>2026-03-28T09:58:13.768Z</time></trkpt><trkpt lat="45.8024217" lon="8.2754933"><ele>494.0</ele><time>2026-03-28T09:58:14.767Z</time></trkpt><trkpt lat="45.8023333" lon="8.2755767"><ele>494.0</ele><time>2026-03-28T09:58:15.767Z</time></trkpt><trkpt lat="45.8022867" lon="8.27568"><ele>494.0</ele><time>2026-03-28T09:58:16.767Z</time></trkpt><trkpt lat="45.8022633" lon="8.2758083"><ele>494.0</ele><time>2026-03-28T09:58:17.767Z</time></trkpt><trkpt lat="45.8022633" lon="8.2759433"><ele>494.4</ele><time>2026-03-28T09:58:18.767Z</time></trkpt><trkpt lat="45.8022717" lon="8.2760617"><ele>494.79999999999995</ele><time>2026-03-28T09:58:19.768Z</time></trkpt><trkpt lat="45.802325" lon="8.276165"><ele>495.20000000000005</ele><time>2026-03-28T09:58:20.768Z</time></trkpt><trkpt lat="45.8023833" lon="8.2762383"><ele>495.6</ele><time>2026-03-28T09:58:21.769Z</time></trkpt><trkpt lat="45.8024633" lon="8.2762483"><ele>496.0</ele><time>2026-03-28T09:58:22.765Z</time></trkpt><trkpt lat="45.8026433" lon="8.2761233"><ele>506.5</ele><time>2026-03-28T09:58:23.766Z</time></trkpt><trkpt lat="45.80285" lon="8.2758967"><ele>517.0</ele><time>2026-03-28T09:58:24.766Z</time></trkpt><trkpt lat="45.80303" lon="8.2757017"><ele>509.33333333333337</ele><time>2026-03-28T09:58:25.766Z</time></trkpt><trkpt lat="45.8031833" lon="8.2754967"><ele>501.66666666666663</ele><time>2026-03-28T09:58:26.767Z</time></trkpt><trkpt lat="45.80331" lon="8.2753083"><ele>494.0</ele><time>2026-03-28T09:58:27.767Z</time></trkpt><trkpt lat="45.803415" lon="8.275125"><ele>501.0</ele><time>2026-03-28T09:58:28.768Z</time></trkpt><trkpt lat="45.8035283" lon="8.2749933"><ele>508.0</ele><time>2026-03-28T09:58:29.765Z</time></trkpt><trkpt lat="45.80366" lon="8.2749183"><ele>515.0</ele><time>2026-03-28T09:58:30.764Z</time></trkpt><trkpt lat="45.8038033" lon="8.2748967"><ele>522.0</ele><time>2026-03-28T09:58:31.768Z</time></trkpt><trkpt lat="45.8039583" lon="8.2748817"><ele>522.0</ele><time>2026-03-28T09:58:32.767Z</time></trkpt><trkpt lat="45.8041283" lon="8.2748367"><ele>522.0</ele><time>2026-03-28T09:58:33.764Z</time></trkpt><trkpt lat="45.80431" lon="8.27476"><ele>522.0</ele><time>2026-03-28T09:58:34.768Z</time></trkpt><trkpt lat="45.804495" lon="8.2746517"><ele>517.6666666666666</ele><time>2026-03-28T09:58:35.767Z</time></trkpt><trkpt lat="45.804695" lon="8.2745633"><ele>513.3333333333333</ele><time>2026-03-28T09:58:36.765Z</time></trkpt><trkpt lat="45.8049067" lon="8.274495"><ele>509.0</ele><time>2026-03-28T09:58:37.766Z</time></trkpt><trkpt lat="45.8051267" lon="8.2744083"><ele>515.3333333333333</ele><time>2026-03-28T09:58:38.767Z</time></trkpt><trkpt lat="45.8053367" lon="8.2742883"><ele>521.6666666666666</ele><time>2026-03-28T09:58:39.765Z</time></trkpt><trkpt lat="45.8055367" lon="8.27415"><ele>528.0</ele><time>2026-03-28T09:58:40.765Z</time></trkpt><trkpt lat="45.8057133" lon="8.274015"><ele>528.6666666666666</ele><time>2026-03-28T09:58:41.765Z</time></trkpt><trkpt lat="45.805875" lon="8.2738833"><ele>529.3333333333333</ele><time>2026-03-28T09:58:42.764Z</time></trkpt><trkpt lat="45.8060167" lon="8.2737383"><ele>530.0</ele><time>2026-03-28T09:58:43.769Z</time></trkpt><trkpt lat="45.8061267" lon="8.2735933"><ele>530.0</ele><time>2026-03-28T09:58:44.767Z</time></trkpt><trkpt lat="45.806215" lon="8.2734717"><ele>530.0</ele><time>2026-03-28T09:58:45.768Z</time></trkpt><trkpt lat="45.8062967" lon="8.273375"><ele>530.0</ele><time>2026-03-28T09:58:46.766Z</time></trkpt><trkpt lat="45.8063767" lon="8.2733383"><ele>530.0</ele><time>2026-03-28T09:58:47.767Z</time></trkpt><trkpt lat="45.8064533" lon="8.2733417"><ele>530.0</ele><time>2026-03-28T09:58:48.764Z</time></trkpt><trkpt lat="45.8065533" lon="8.2734117"><ele>530.0</ele><time>2026-03-28T09:58:50.765Z</time></trkpt><trkpt lat="45.8065433" lon="8.273545"><ele>530.0</ele><time>2026-03-28T09:58:52.765Z</time></trkpt><trkpt lat="45.806315" lon="8.273715"><ele>530.0</ele><time>2026-03-28T09:58:53.765Z</time></trkpt><trkpt lat="45.8061683" lon="8.2738483"><ele>529.3333333333333</ele><time>2026-03-28T09:58:54.765Z</time></trkpt><trkpt lat="45.8059583" lon="8.2740267"><ele>528.6666666666666</ele><time>2026-03-28T09:58:55.766Z</time></trkpt><trkpt lat="45.805805" lon="8.274175"><ele>528.0</ele><time>2026-03-28T09:58:56.764Z</time></trkpt><trkpt lat="45.80564" lon="8.2743417"><ele>528.0</ele><time>2026-03-28T09:58:57.767Z</time></trkpt><trkpt lat="45.805465" lon="8.2744983"><ele>528.0</ele><time>2026-03-28T09:58:58.767Z</time></trkpt><trkpt lat="45.80527" lon="8.2746567"><ele>528.0</ele><time>2026-03-28T09:58:59.765Z</time></trkpt><trkpt lat="45.80508" lon="8.27482"><ele>531.3333333333334</ele><time>2026-03-28T09:59:00.767Z</time></trkpt><trkpt lat="45.8048867" lon="8.2749683"><ele>534.6666666666667</ele><time>2026-03-28T09:59:01.766Z</time></trkpt><trkpt lat="45.804695" lon="8.2750917"><ele>538.0</ele><time>2026-03-28T09:59:02.765Z</time></trkpt><trkpt lat="45.8045083" lon="8.2751967"><ele>538.0</ele><time>2026-03-28T09:59:03.764Z</time></trkpt><trkpt lat="45.8043333" lon="8.275285"><ele>538.0</ele><time>2026-03-28T09:59:04.768Z</time></trkpt><trkpt lat="45.8041717" lon="8.2753533"><ele>538.0</ele><time>2026-03-28T09:59:05.765Z</time></trkpt><trkpt lat="45.80403" lon="8.2754267"><ele>534.0</ele><time>2026-03-28T09:59:06.765Z</time></trkpt><trkpt lat="45.8039117" lon="8.27552"><ele>530.0</ele><time>2026-03-28T09:59:07.767Z</time></trkpt><trkpt lat="45.8038217" lon="8.2756517"><ele>526.0</ele><time>2026-03-28T09:59:08.768Z</time></trkpt><trkpt lat="45.8037667" lon="8.275845"><ele>522.0</ele><time>2026-03-28T09:59:09.767Z</time></trkpt><trkpt lat="45.8037333" lon="8.2760683"><ele>537.0</ele><time>2026-03-28T09:59:10.767Z</time></trkpt><trkpt lat="45.8037117" lon="8.2763317"><ele>552.0</ele><time>2026-03-28T09:59:11.767Z</time></trkpt><trkpt lat="45.8036933" lon="8.2766083"><ele>567.0</ele><time>2026-03-28T09:59:12.768Z</time></trkpt><trkpt lat="45.8036833" lon="8.276905"><ele>572.3333333333334</ele><time>2026-03-28T09:59:13.768Z</time></trkpt><trkpt lat="45.803675" lon="8.2772"><ele>577.6666666666667</ele><time>2026-03-28T09:59:14.767Z</time></trkpt><trkpt lat="45.80365" lon="8.2774783"><ele>583.0</ele><time>2026-03-28T09:59:15.766Z</time></trkpt><trkpt lat="45.80359" lon="8.2777417"><ele>579.3333333333334</ele><time>2026-03-28T09:59:16.765Z</time></trkpt><trkpt lat="45.8034967" lon="8.27798"><ele>575.6666666666666</ele><time>2026-03-28T09:59:17.764Z</time></trkpt><trkpt lat="45.803355" lon="8.2781817"><ele>572.0</ele><time>2026-03-28T09:59:18.764Z</time></trkpt><trkpt lat="45.8031767" lon="8.278345"><ele>572.0</ele><time>2026-03-28T09:59:19.765Z</time></trkpt><trkpt lat="45.8029833" lon="8.278485"><ele>572.0</ele><time>2026-03-28T09:59:20.764Z</time></trkpt><trkpt lat="45.80279" lon="8.2786017"><ele>572.0</ele><time>2026-03-28T09:59:21.765Z</time></trkpt><trkpt lat="45.8026233" lon="8.2787"><ele>574.5</ele><time>2026-03-28T09:59:22.765Z</time></trkpt><trkpt lat="45.8024967" lon="8.278785"><ele>577.0</ele><time>2026-03-28T09:59:23.767Z</time></trkpt><trkpt lat="45.802405" lon="8.2788833"><ele>579.5</ele><time>2026-03-28T09:59:24.765Z</time></trkpt><trkpt lat="45.8023467" lon="8.2790333"><ele>582.0</ele><time>2026-03-28T09:59:25.768Z</time></trkpt><trkpt lat="45.8023167" lon="8.2792283"><ele>582.0</ele><time>2026-03-28T09:59:26.767Z</time></trkpt><trkpt lat="45.802325" lon="8.2794733"><ele>582.0</ele><time>2026-03-28T09:59:27.767Z</time></trkpt><trkpt lat="45.8023567" lon="8.27973"><ele>582.0</ele><time>2026-03-28T09:59:28.767Z</time></trkpt><trkpt lat="45.8024083" lon="8.27996"><ele>584.3333333333334</ele><time>2026-03-28T09:59:29.767Z</time></trkpt><trkpt lat="45.8024867" lon="8.2801567"><ele>586.6666666666667</ele><time>2026-03-28T09:59:30.768Z</time></trkpt><trkpt lat="45.8026067" lon="8.2803467"><ele>589.0</ele><time>2026-03-28T09:59:31.765Z</time></trkpt><trkpt lat="45.8027517" lon="8.2805283"><ele>592.0</ele><time>2026-03-28T09:59:32.765Z</time></trkpt><trkpt lat="45.8029183" lon="8.2807217"><ele>595.0</ele><time>2026-03-28T09:59:33.765Z</time></trkpt><trkpt lat="45.8030967" lon="8.2809267"><ele>598.0</ele><time>2026-03-28T09:59:34.764Z</time></trkpt><trkpt lat="45.8032717" lon="8.281125"><ele>598.0</ele><time>2026-03-28T09:59:35.764Z</time></trkpt><trkpt lat="45.8034283" lon="8.2813067"><ele>598.0</ele><time>2026-03-28T09:59:36.764Z</time></trkpt><trkpt lat="45.8035683" lon="8.2814817"><ele>598.0</ele><time>2026-03-28T09:59:37.766Z</time></trkpt><trkpt lat="45.8036733" lon="8.2816783"><ele>602.0</ele><time>2026-03-28T09:59:38.764Z</time></trkpt><trkpt lat="45.80375" lon="8.2819"><ele>606.0</ele><time>2026-03-28T09:59:39.765Z</time></trkpt><trkpt lat="45.80379" lon="8.282145"><ele>610.0</ele><time>2026-03-28T09:59:40.769Z</time></trkpt><trkpt lat="45.8037967" lon="8.2823917"><ele>614.0</ele><time>2026-03-28T09:59:41.767Z</time></trkpt><trkpt lat="45.8037633" lon="8.2826467"><ele>618.0</ele><time>2026-03-28T09:59:42.767Z</time></trkpt><trkpt lat="45.8036867" lon="8.2829017"><ele>622.0</ele><time>2026-03-28T09:59:43.768Z</time></trkpt><trkpt lat="45.80359" lon="8.2831667"><ele>629.6666666666667</ele><time>2026-03-28T09:59:44.767Z</time></trkpt><trkpt lat="45.8035017" lon="8.2834267"><ele>637.3333333333334</ele><time>2026-03-28T09:59:45.764Z</time></trkpt><trkpt lat="45.8034267" lon="8.28366"><ele>645.0</ele><time>2026-03-28T09:59:46.764Z</time></trkpt><trkpt lat="45.8033733" lon="8.2838767"><ele>634.0</ele><time>2026-03-28T09:59:47.764Z</time></trkpt><trkpt lat="45.8033517" lon="8.2841017"><ele>623.0</ele><time>2026-03-28T09:59:48.765Z</time></trkpt><trkpt lat="45.8033717" lon="8.284335"><ele>612.0</ele><time>2026-03-28T09:59:49.765Z</time></trkpt><trkpt lat="45.8034067" lon="8.2845717"><ele>616.3333333333334</ele><time>2026-03-28T09:59:50.765Z</time></trkpt><trkpt lat="45.8034233" lon="8.2848083"><ele>620.6666666666667</ele><time>2026-03-28T09:59:51.767Z</time></trkpt><trkpt lat="45.8034083" lon="8.2850533"><ele>625.0</ele><time>2026-03-28T09:59:52.765Z</time></trkpt><trkpt lat="45.8033433" lon="8.2853017"><ele>625.0</ele><time>2026-03-28T09:59:53.764Z</time></trkpt><trkpt lat="45.8032517" lon="8.285545"><ele>625.0</ele><time>2026-03-28T09:59:54.768Z</time></trkpt><trkpt lat="45.80312" lon="8.2857733"><ele>625.0</ele><time>2026-03-28T09:59:55.765Z</time></trkpt><trkpt lat="45.8029783" lon="8.28599"><ele>628.0</ele><time>2026-03-28T09:59:56.765Z</time></trkpt><trkpt lat="45.8028617" lon="8.2861883"><ele>631.0</ele><time>2026-03-28T09:59:57.764Z</time></trkpt><trkpt lat="45.80276" lon="8.2863683"><ele>634.0</ele><time>2026-03-28T09:59:58.765Z</time></trkpt><trkpt lat="45.8026883" lon="8.28656"><ele>627.25</ele><time>2026-03-28T09:59:59.764Z</time></trkpt><trkpt lat="45.8026417" lon="8.28675"><ele>620.5</ele><time>2026-03-28T10:00:00.765Z</time></trkpt><trkpt lat="45.8026" lon="8.2869167"><ele>613.75</ele><time>2026-03-28T10:00:01.765Z</time></trkpt><trkpt lat="45.8025467" lon="8.287045"><ele>607.0</ele><time>2026-03-28T10:00:02.764Z</time></trkpt><trkpt lat="45.8024917" lon="8.2871533"><ele>608.0</ele><time>2026-03-28T10:00:03.764Z</time></trkpt><trkpt lat="45.80246" lon="8.2872633"><ele>609.0</ele><time>2026-03-28T10:00:04.765Z</time></trkpt><trkpt lat="45.8024583" lon="8.28738"><ele>610.0</ele><time>2026-03-28T10:00:05.764Z</time></trkpt><trkpt lat="45.8024817" lon="8.2874817"><ele>611.0</ele><time>2026-03-28T10:00:06.765Z</time></trkpt><trkpt lat="45.80253" lon="8.2875483"><ele>612.0</ele><time>2026-03-28T10:00:07.765Z</time></trkpt><trkpt lat="45.8026017" lon="8.2875517"><ele>613.0</ele><time>2026-03-28T10:00:08.764Z</time></trkpt><trkpt lat="45.8026883" lon="8.2874667"><ele>626.0</ele><time>2026-03-28T10:00:09.766Z</time></trkpt><trkpt lat="45.8027583" lon="8.2873333"><ele>639.0</ele><time>2026-03-28T10:00:10.766Z</time></trkpt><trkpt lat="45.8027783" lon="8.2870917"><ele>652.0</ele><time>2026-03-28T10:00:11.765Z</time></trkpt><trkpt lat="45.8028267" lon="8.286855"><ele>652.0</ele><time>2026-03-28T10:00:12.765Z</time></trkpt><trkpt lat="45.8028917" lon="8.286635"><ele>652.0</ele><time>2026-03-28T10:00:13.767Z</time></trkpt><trkpt lat="45.802985" lon="8.2864333"><ele>652.0</ele><time>2026-03-28T10:00:14.764Z</time></trkpt><trkpt lat="45.803105" lon="8.28621"><ele>646.0</ele><time>2026-03-28T10:00:15.768Z</time></trkpt><trkpt lat="45.8032417" lon="8.2860283"><ele>640.0</ele><time>2026-03-28T10:00:16.767Z</time></trkpt><trkpt lat="45.8033667" lon="8.2858433"><ele>634.0</ele><time>2026-03-28T10:00:17.767Z</time></trkpt><trkpt lat="45.8034767" lon="8.285675"><ele>647.75</ele><time>2026-03-28T10:00:18.767Z</time></trkpt><trkpt lat="45.8035717" lon="8.2855167"><ele>661.5</ele><time>2026-03-28T10:00:19.765Z</time></trkpt><trkpt lat="45.8036433" lon="8.2853733"><ele>675.25</ele><time>2026-03-28T10:00:20.768Z</time></trkpt><trkpt lat="45.8037" lon="8.2852567"><ele>689.0</ele><time>2026-03-28T10:00:21.767Z</time></trkpt><trkpt lat="45.80376" lon="8.28517"><ele>689.0</ele><time>2026-03-28T10:00:22.767Z</time></trkpt><trkpt lat="45.80382" lon="8.2851233"><ele>689.0</ele><time>2026-03-28T10:00:23.768Z</time></trkpt><trkpt lat="45.80393" lon="8.2851733"><ele>689.0</ele><time>2026-03-28T10:00:25.768Z</time></trkpt><trkpt lat="45.803975" lon="8.2853117"><ele>689.0</ele><time>2026-03-28T10:00:27.765Z</time></trkpt><trkpt lat="45.8039" lon="8.2855083"><ele>689.0</ele><time>2026-03-28T10:00:29.766Z</time></trkpt><trkpt lat="45.80377" lon="8.285655"><ele>692.3333333333333</ele><time>2026-03-28T10:00:30.766Z</time></trkpt><trkpt lat="45.8035983" lon="8.2858417"><ele>695.6666666666666</ele><time>2026-03-28T10:00:31.768Z</time></trkpt><trkpt lat="45.8034383" lon="8.286035"><ele>699.0</ele><time>2026-03-28T10:00:32.765Z</time></trkpt><trkpt lat="45.8033017" lon="8.2862383"><ele>683.3333333333334</ele><time>2026-03-28T10:00:33.764Z</time></trkpt><trkpt lat="45.8031883" lon="8.2864183"><ele>667.6666666666667</ele><time>2026-03-28T10:00:34.767Z</time></trkpt><trkpt lat="45.8030933" lon="8.2865833"><ele>652.0</ele><time>2026-03-28T10:00:35.764Z</time></trkpt><trkpt lat="45.8030217" lon="8.28677"><ele>652.0</ele><time>2026-03-28T10:00:36.765Z</time></trkpt><trkpt lat="45.802975" lon="8.2869833"><ele>652.0</ele><time>2026-03-28T10:00:37.765Z</time></trkpt><trkpt lat="45.8029567" lon="8.287225"><ele>652.0</ele><time>2026-03-28T10:00:38.765Z</time></trkpt><trkpt lat="45.8029617" lon="8.2874783"><ele>652.3333333333334</ele><time>2026-03-28T10:00:39.765Z</time></trkpt><trkpt lat="45.8029867" lon="8.2877183"><ele>652.6666666666666</ele><time>2026-03-28T10:00:40.768Z</time></trkpt><trkpt lat="45.803025" lon="8.2879383"><ele>653.0</ele><time>2026-03-28T10:00:41.768Z</time></trkpt><trkpt lat="45.8030767" lon="8.2881283"><ele>653.0</ele><time>2026-03-28T10:00:42.768Z</time></trkpt><trkpt lat="45.80314" lon="8.2882817"><ele>653.0</ele><time>2026-03-28T10:00:43.769Z</time></trkpt><trkpt lat="45.8032083" lon="8.2883967"><ele>653.0</ele><time>2026-03-28T10:00:44.769Z</time></trkpt><trkpt lat="45.8032817" lon="8.288465"><ele>653.0</ele><time>2026-03-28T10:00:45.768Z</time></trkpt><trkpt lat="45.80336" lon="8.2884833"><ele>653.0</ele><time>2026-03-28T10:00:46.767Z</time></trkpt><trkpt lat="45.8034383" lon="8.288445"><ele>653.0</ele><time>2026-03-28T10:00:47.768Z</time></trkpt><trkpt lat="45.803495" lon="8.288395"><ele>653.0</ele><time>2026-03-28T10:00:48.769Z</time></trkpt><trkpt lat="45.8035067" lon="8.288255"><ele>653.0</ele><time>2026-03-28T10:00:49.767Z</time></trkpt><trkpt lat="45.80347" lon="8.2880683"><ele>653.0</ele><time>2026-03-28T10:00:50.765Z</time></trkpt><trkpt lat="45.8034383" lon="8.2878883"><ele>653.0</ele><time>2026-03-28T10:00:51.764Z</time></trkpt><trkpt lat="45.803435" lon="8.28769"><ele>652.6666666666666</ele><time>2026-03-28T10:00:52.768Z</time></trkpt><trkpt lat="45.8034533" lon="8.287475"><ele>652.3333333333334</ele><time>2026-03-28T10:00:53.767Z</time></trkpt><trkpt lat="45.803475" lon="8.2872367"><ele>652.0</ele><time>2026-03-28T10:00:54.767Z</time></trkpt><trkpt lat="45.8034817" lon="8.2869867"><ele>652.0</ele><time>2026-03-28T10:00:55.767Z</time></trkpt><trkpt lat="45.8034717" lon="8.28677"><ele>652.0</ele><time>2026-03-28T10:00:56.768Z</time></trkpt><trkpt lat="45.803465" lon="8.2865967"><ele>652.0</ele><time>2026-03-28T10:00:57.764Z</time></trkpt><trkpt lat="45.803475" lon="8.2864583"><ele>652.0</ele><time>2026-03-28T10:00:58.765Z</time></trkpt><trkpt lat="45.8035" lon="8.286355"><ele>652.0</ele><time>2026-03-28T10:00:59.765Z</time></trkpt><trkpt lat="45.8035983" lon="8.2862967"><ele>661.4000000000001</ele><time>2026-03-28T10:01:01.765Z</time></trkpt><trkpt lat="45.803665" lon="8.2863583"><ele>670.8000000000001</ele><time>2026-03-28T10:01:02.766Z</time></trkpt><trkpt lat="45.8037217" lon="8.28648"><ele>680.2</ele><time>2026-03-28T10:01:03.764Z</time></trkpt><trkpt lat="45.803715" lon="8.2866233"><ele>689.6</ele><time>2026-03-28T10:01:04.765Z</time></trkpt><trkpt lat="45.8036567" lon="8.2868383"><ele>699.0</ele><time>2026-03-28T10:01:05.765Z</time></trkpt><trkpt lat="45.8036417" lon="8.2870533"><ele>700.3333333333334</ele><time>2026-03-28T10:01:06.766Z</time></trkpt><trkpt lat="45.803655" lon="8.2872817"><ele>701.6666666666667</ele><time>2026-03-28T10:01:07.765Z</time></trkpt><trkpt lat="45.8036917" lon="8.287525"><ele>703.0</ele><time>2026-03-28T10:01:08.766Z</time></trkpt><trkpt lat="45.8037383" lon="8.287785"><ele>703.0</ele><time>2026-03-28T10:01:09.765Z</time></trkpt><trkpt lat="45.8037783" lon="8.28806"><ele>703.0</ele><time>2026-03-28T10:01:10.768Z</time></trkpt><trkpt lat="45.8038167" lon="8.2883167"><ele>703.0</ele><time>2026-03-28T10:01:11.767Z</time></trkpt><trkpt lat="45.803855" lon="8.2885483"><ele>702.0</ele><time>2026-03-28T10:01:12.765Z</time></trkpt><trkpt lat="45.803905" lon="8.288755"><ele>701.0</ele><time>2026-03-28T10:01:13.768Z</time></trkpt><trkpt lat="45.8039733" lon="8.2889417"><ele>700.0</ele><time>2026-03-28T10:01:14.768Z</time></trkpt><trkpt lat="45.8040667" lon="8.2891017"><ele>699.0</ele><time>2026-03-28T10:01:15.768Z</time></trkpt><trkpt lat="45.8041933" lon="8.2892367"><ele>706.0</ele><time>2026-03-28T10:01:16.765Z</time></trkpt><trkpt lat="45.8043433" lon="8.2893483"><ele>713.0</ele><time>2026-03-28T10:01:17.764Z</time></trkpt><trkpt lat="45.80452" lon="8.2894417"><ele>720.0</ele><time>2026-03-28T10:01:18.765Z</time></trkpt><trkpt lat="45.804715" lon="8.2895333"><ele>720.0</ele><time>2026-03-28T10:01:19.765Z</time></trkpt><trkpt lat="45.80492" lon="8.2896217"><ele>720.0</ele><time>2026-03-28T10:01:20.764Z</time></trkpt><trkpt lat="45.805115" lon="8.289705"><ele>720.0</ele><time>2026-03-28T10:01:21.765Z</time></trkpt><trkpt lat="45.8053017" lon="8.289765"><ele>724.0</ele><time>2026-03-28T10:01:22.765Z</time></trkpt><trkpt lat="45.8054967" lon="8.289795"><ele>728.0</ele><time>2026-03-28T10:01:23.768Z</time></trkpt><trkpt lat="45.8057033" lon="8.289785"><ele>732.0</ele><time>2026-03-28T10:01:24.768Z</time></trkpt><trkpt lat="45.80591" lon="8.289755"><ele>729.75</ele><time>2026-03-28T10:01:25.768Z</time></trkpt><trkpt lat="45.806085" lon="8.289735"><ele>727.5</ele><time>2026-03-28T10:01:26.768Z</time></trkpt><trkpt lat="45.8062283" lon="8.2897467"><ele>725.25</ele><time>2026-03-28T10:01:27.764Z</time></trkpt><trkpt lat="45.80635" lon="8.289795"><ele>723.0</ele><time>2026-03-28T10:01:28.767Z</time></trkpt><trkpt lat="45.8064367" lon="8.2899017"><ele>722.0</ele><time>2026-03-28T10:01:29.765Z</time></trkpt><trkpt lat="45.806485" lon="8.2900567"><ele>721.0</ele><time>2026-03-28T10:01:30.764Z</time></trkpt><trkpt lat="45.8064983" lon="8.2902267"><ele>720.0</ele><time>2026-03-28T10:01:31.765Z</time></trkpt><trkpt lat="45.8064933" lon="8.2903917"><ele>719.0</ele><time>2026-03-28T10:01:32.764Z</time></trkpt><trkpt lat="45.8064983" lon="8.2905483"><ele>716.5</ele><time>2026-03-28T10:01:33.766Z</time></trkpt><trkpt lat="45.8065417" lon="8.2906967"><ele>714.0</ele><time>2026-03-28T10:01:34.766Z</time></trkpt><trkpt lat="45.80662" lon="8.2908333"><ele>711.5</ele><time>2026-03-28T10:01:35.765Z</time></trkpt><trkpt lat="45.8067033" lon="8.290985"><ele>709.0</ele><time>2026-03-28T10:01:36.766Z</time></trkpt><trkpt lat="45.806765" lon="8.29117"><ele>709.0</ele><time>2026-03-28T10:01:37.768Z</time></trkpt><trkpt lat="45.8068017" lon="8.2913833"><ele>709.0</ele><time>2026-03-28T10:01:38.764Z</time></trkpt><trkpt lat="45.8068267" lon="8.291595"><ele>709.0</ele><time>2026-03-28T10:01:39.764Z</time></trkpt><trkpt lat="45.8068517" lon="8.2917767"><ele>709.0</ele><time>2026-03-28T10:01:40.768Z</time></trkpt><trkpt lat="45.806865" lon="8.2919317"><ele>708.0</ele><time>2026-03-28T10:01:41.769Z</time></trkpt><trkpt lat="45.8068483" lon="8.2920767"><ele>707.0</ele><time>2026-03-28T10:01:42.767Z</time></trkpt><trkpt lat="45.806805" lon="8.2922167"><ele>706.0</ele><time>2026-03-28T10:01:43.768Z</time></trkpt><trkpt lat="45.8067567" lon="8.2923467"><ele>705.0</ele><time>2026-03-28T10:01:44.767Z</time></trkpt><trkpt lat="45.80671" lon="8.292465"><ele>704.0</ele><time>2026-03-28T10:01:45.768Z</time></trkpt><trkpt lat="45.8066617" lon="8.29257"><ele>704.0</ele><time>2026-03-28T10:01:46.768Z</time></trkpt><trkpt lat="45.8066133" lon="8.2926733"><ele>704.0</ele><time>2026-03-28T10:01:47.768Z</time></trkpt><trkpt lat="45.8065833" lon="8.29277"><ele>704.0</ele><time>2026-03-28T10:01:48.769Z</time></trkpt><trkpt lat="45.8065717" lon="8.292875"><ele>704.0</ele><time>2026-03-28T10:01:49.768Z</time></trkpt><trkpt lat="45.8065833" lon="8.292995"><ele>704.0</ele><time>2026-03-28T10:01:50.768Z</time></trkpt><trkpt lat="45.8066217" lon="8.293125"><ele>704.0</ele><time>2026-03-28T10:01:51.768Z</time></trkpt><trkpt lat="45.8066767" lon="8.29325"><ele>705.25</ele><time>2026-03-28T10:01:52.768Z</time></trkpt><trkpt lat="45.80673" lon="8.2933783"><ele>706.5</ele><time>2026-03-28T10:01:53.767Z</time></trkpt><trkpt lat="45.806775" lon="8.2935317"><ele>707.75</ele><time>2026-03-28T10:01:54.767Z</time></trkpt><trkpt lat="45.8068133" lon="8.2937217"><ele>709.0</ele><time>2026-03-28T10:01:55.768Z</time></trkpt><trkpt lat="45.8068417" lon="8.2939283"><ele>711.0</ele><time>2026-03-28T10:01:56.768Z</time></trkpt><trkpt lat="45.8068717" lon="8.294125"><ele>713.0</ele><time>2026-03-28T10:01:57.764Z</time></trkpt><trkpt lat="45.8068883" lon="8.2943067"><ele>715.0</ele><time>2026-03-28T10:01:58.767Z</time></trkpt><trkpt lat="45.8069117" lon="8.2944533"><ele>717.0</ele><time>2026-03-28T10:01:59.764Z</time></trkpt><trkpt lat="45.8069383" lon="8.2945733"><ele>717.0</ele><time>2026-03-28T10:02:00.765Z</time></trkpt><trkpt lat="45.806995" lon="8.2946617"><ele>717.0</ele><time>2026-03-28T10:02:01.765Z</time></trkpt><trkpt lat="45.8070617" lon="8.2947183"><ele>717.0</ele><time>2026-03-28T10:02:02.764Z</time></trkpt><trkpt lat="45.8071367" lon="8.2947333"><ele>717.0</ele><time>2026-03-28T10:02:03.764Z</time></trkpt><trkpt lat="45.8072283" lon="8.2946867"><ele>717.0</ele><time>2026-03-28T10:02:04.766Z</time></trkpt><trkpt lat="45.8073383" lon="8.2946083"><ele>717.0</ele><time>2026-03-28T10:02:05.765Z</time></trkpt><trkpt lat="45.80744" lon="8.29454"><ele>717.0</ele><time>2026-03-28T10:02:06.766Z</time></trkpt><trkpt lat="45.8075367" lon="8.294465"><ele>717.0</ele><time>2026-03-28T10:02:07.765Z</time></trkpt><trkpt lat="45.8076333" lon="8.2944017"><ele>717.0</ele><time>2026-03-28T10:02:08.764Z</time></trkpt><trkpt lat="45.8077267" lon="8.2943767"><ele>717.0</ele><time>2026-03-28T10:02:09.765Z</time></trkpt><trkpt lat="45.807795" lon="8.2944117"><ele>718.25</ele><time>2026-03-28T10:02:10.768Z</time></trkpt><trkpt lat="45.8078483" lon="8.2945017"><ele>719.5</ele><time>2026-03-28T10:02:11.767Z</time></trkpt><trkpt lat="45.807885" lon="8.29463"><ele>720.75</ele><time>2026-03-28T10:02:12.767Z</time></trkpt><trkpt lat="45.80791" lon="8.29483"><ele>722.0</ele><time>2026-03-28T10:02:13.769Z</time></trkpt><trkpt lat="45.8079533" lon="8.29503"><ele>722.0</ele><time>2026-03-28T10:02:14.769Z</time></trkpt><trkpt lat="45.8079933" lon="8.2952267"><ele>722.0</ele><time>2026-03-28T10:02:15.768Z</time></trkpt><trkpt lat="45.8080283" lon="8.2954017"><ele>722.0</ele><time>2026-03-28T10:02:16.767Z</time></trkpt><trkpt lat="45.8080767" lon="8.2955433"><ele>722.0</ele><time>2026-03-28T10:02:17.769Z</time></trkpt><trkpt lat="45.8081367" lon="8.2956533"><ele>720.8</ele><time>2026-03-28T10:02:18.768Z</time></trkpt><trkpt lat="45.8082117" lon="8.295715"><ele>719.6</ele><time>2026-03-28T10:02:19.764Z</time></trkpt><trkpt lat="45.8083017" lon="8.2957317"><ele>718.4</ele><time>2026-03-28T10:02:20.764Z</time></trkpt><trkpt lat="45.8084" lon="8.295695"><ele>717.1999999999999</ele><time>2026-03-28T10:02:21.765Z</time></trkpt><trkpt lat="45.8085033" lon="8.2956617"><ele>716.0</ele><time>2026-03-28T10:02:22.766Z</time></trkpt><trkpt lat="45.8086183" lon="8.2956483"><ele>716.0</ele><time>2026-03-28T10:02:23.764Z</time></trkpt><trkpt lat="45.8087283" lon="8.2956567"><ele>716.0</ele><time>2026-03-28T10:02:24.766Z</time></trkpt><trkpt lat="45.8088383" lon="8.2956617"><ele>716.0</ele><time>2026-03-28T10:02:25.767Z</time></trkpt><trkpt lat="45.8089333" lon="8.2956833"><ele>716.0</ele><time>2026-03-28T10:02:26.768Z</time></trkpt><trkpt lat="45.8090067" lon="8.295735"><ele>716.0</ele><time>2026-03-28T10:02:27.765Z</time></trkpt><trkpt lat="45.8090533" lon="8.295825"><ele>716.0</ele><time>2026-03-28T10:02:28.767Z</time></trkpt><trkpt lat="45.8090917" lon="8.2959117"><ele>716.0</ele><time>2026-03-28T10:02:29.765Z</time></trkpt><trkpt lat="45.8091033" lon="8.296005"><ele>716.0</ele><time>2026-03-28T10:02:30.765Z</time></trkpt><trkpt lat="45.809075" lon="8.2960933"><ele>716.0</ele><time>2026-03-28T10:02:31.765Z</time></trkpt><trkpt lat="45.80899" lon="8.296185"><ele>716.0</ele><time>2026-03-28T10:02:32.768Z</time></trkpt><trkpt lat="45.8089017" lon="8.296295"><ele>716.0</ele><time>2026-03-28T10:02:33.766Z</time></trkpt><trkpt lat="45.8087617" lon="8.2964367"><ele>717.5</ele><time>2026-03-28T10:02:34.765Z</time></trkpt><trkpt lat="45.8086567" lon="8.2965767"><ele>719.0</ele><time>2026-03-28T10:02:35.764Z</time></trkpt><trkpt lat="45.8086" lon="8.2967317"><ele>720.5</ele><time>2026-03-28T10:02:36.77Z</time></trkpt><trkpt lat="45.808575" lon="8.2969183"><ele>722.0</ele><time>2026-03-28T10:02:37.768Z</time></trkpt><trkpt lat="45.808595" lon="8.297125"><ele>723.6666666666666</ele><time>2026-03-28T10:02:38.767Z</time></trkpt><trkpt lat="45.80866" lon="8.2973433"><ele>725.3333333333334</ele><time>2026-03-28T10:02:39.767Z</time></trkpt><trkpt lat="45.8087267" lon="8.2975783"><ele>727.0</ele><time>2026-03-28T10:02:40.766Z</time></trkpt><trkpt lat="45.8087933" lon="8.2978317"><ele>725.3333333333334</ele><time>2026-03-28T10:02:41.765Z</time></trkpt><trkpt lat="45.8088517" lon="8.29812"><ele>723.6666666666666</ele><time>2026-03-28T10:02:42.765Z</time></trkpt><trkpt lat="45.8089133" lon="8.2984017"><ele>722.0</ele><time>2026-03-28T10:02:43.766Z</time></trkpt><trkpt lat="45.8089717" lon="8.2986683"><ele>722.0</ele><time>2026-03-28T10:02:44.765Z</time></trkpt><trkpt lat="45.80902" lon="8.2989133"><ele>722.0</ele><time>2026-03-28T10:02:45.768Z</time></trkpt><trkpt lat="45.809065" lon="8.2991283"><ele>722.0</ele><time>2026-03-28T10:02:46.768Z</time></trkpt><trkpt lat="45.8091117" lon="8.2993083"><ele>721.4000000000001</ele><time>2026-03-28T10:02:47.767Z</time></trkpt><trkpt lat="45.8091683" lon="8.2994417"><ele>720.8000000000001</ele><time>2026-03-28T10:02:48.768Z</time></trkpt><trkpt lat="45.809245" lon="8.299535"><ele>720.2</ele><time>2026-03-28T10:02:49.765Z</time></trkpt><trkpt lat="45.8093267" lon="8.299585"><ele>719.6</ele><time>2026-03-28T10:02:50.77Z</time></trkpt><trkpt lat="45.8094167" lon="8.29961"><ele>719.0</ele><time>2026-03-28T10:02:51.768Z</time></trkpt><trkpt lat="45.8095" lon="8.29965"><ele>723.8000000000001</ele><time>2026-03-28T10:02:52.768Z</time></trkpt><trkpt lat="45.80956" lon="8.2997383"><ele>728.6</ele><time>2026-03-28T10:02:53.768Z</time></trkpt><trkpt lat="45.8095617" lon="8.299865"><ele>733.4</ele><time>2026-03-28T10:02:54.768Z</time></trkpt><trkpt lat="45.8095383" lon="8.3000117"><ele>738.2</ele><time>2026-03-28T10:02:55.768Z</time></trkpt><trkpt lat="45.8095317" lon="8.3001733"><ele>743.0</ele><time>2026-03-28T10:02:56.767Z</time></trkpt><trkpt lat="45.809555" lon="8.300365"><ele>743.0</ele><time>2026-03-28T10:02:57.765Z</time></trkpt><trkpt lat="45.80961" lon="8.3005667"><ele>743.0</ele><time>2026-03-28T10:02:58.767Z</time></trkpt><trkpt lat="45.8096917" lon="8.30075"><ele>743.0</ele><time>2026-03-28T10:02:59.764Z</time></trkpt><trkpt lat="45.8097817" lon="8.300905"><ele>743.0</ele><time>2026-03-28T10:03:00.767Z</time></trkpt><trkpt lat="45.8098967" lon="8.301035"><ele>744.75</ele><time>2026-03-28T10:03:01.768Z</time></trkpt><trkpt lat="45.8100267" lon="8.3011383"><ele>746.5</ele><time>2026-03-28T10:03:02.764Z</time></trkpt><trkpt lat="45.8101317" lon="8.3012467"><ele>748.25</ele><time>2026-03-28T10:03:03.768Z</time></trkpt><trkpt lat="45.8102067" lon="8.30138"><ele>750.0</ele><time>2026-03-28T10:03:04.768Z</time></trkpt><trkpt lat="45.81025" lon="8.3015517"><ele>750.0</ele><time>2026-03-28T10:03:05.764Z</time></trkpt><trkpt lat="45.81029" lon="8.30173"><ele>750.0</ele><time>2026-03-28T10:03:06.765Z</time></trkpt><trkpt lat="45.81035" lon="8.3019067"><ele>750.0</ele><time>2026-03-28T10:03:07.765Z</time></trkpt><trkpt lat="45.810445" lon="8.302075"><ele>750.0</ele><time>2026-03-28T10:03:08.768Z</time></trkpt><trkpt lat="45.8105717" lon="8.302235"><ele>754.0</ele><time>2026-03-28T10:03:09.769Z</time></trkpt><trkpt lat="45.8107133" lon="8.3023917"><ele>758.0</ele><time>2026-03-28T10:03:10.768Z</time></trkpt><trkpt lat="45.8108633" lon="8.30256"><ele>762.0</ele><time>2026-03-28T10:03:11.769Z</time></trkpt><trkpt lat="45.811" lon="8.3027317"><ele>762.0</ele><time>2026-03-28T10:03:12.764Z</time></trkpt><trkpt lat="45.8111217" lon="8.3028733"><ele>762.0</ele><time>2026-03-28T10:03:13.768Z</time></trkpt><trkpt lat="45.8112267" lon="8.3029867"><ele>762.0</ele><time>2026-03-28T10:03:14.769Z</time></trkpt><trkpt lat="45.8113317" lon="8.3030667"><ele>762.0</ele><time>2026-03-28T10:03:15.769Z</time></trkpt><trkpt lat="45.8114567" lon="8.3031067"><ele>767.75</ele><time>2026-03-28T10:03:16.768Z</time></trkpt><trkpt lat="45.811585" lon="8.3031283"><ele>773.5</ele><time>2026-03-28T10:03:17.764Z</time></trkpt><trkpt lat="45.8117133" lon="8.3030933"><ele>779.25</ele><time>2026-03-28T10:03:18.765Z</time></trkpt><trkpt lat="45.8118317" lon="8.3030267"><ele>785.0</ele><time>2026-03-28T10:03:19.767Z</time></trkpt><trkpt lat="45.81194" lon="8.302955"><ele>785.0</ele><time>2026-03-28T10:03:20.765Z</time></trkpt><trkpt lat="45.8120417" lon="8.3029283"><ele>785.0</ele><time>2026-03-28T10:03:21.764Z</time></trkpt><trkpt lat="45.8121417" lon="8.3029583"><ele>785.0</ele><time>2026-03-28T10:03:22.765Z</time></trkpt><trkpt lat="45.8122267" lon="8.30306"><ele>785.0</ele><time>2026-03-28T10:03:23.765Z</time></trkpt><trkpt lat="45.8122267" lon="8.3032367"><ele>785.0</ele><time>2026-03-28T10:03:24.767Z</time></trkpt><trkpt lat="45.8122267" lon="8.3034317"><ele>779.3333333333334</ele><time>2026-03-28T10:03:25.765Z</time></trkpt><trkpt lat="45.81223" lon="8.3036633"><ele>773.6666666666667</ele><time>2026-03-28T10:03:26.765Z</time></trkpt><trkpt lat="45.8122367" lon="8.3039233"><ele>768.0</ele><time>2026-03-28T10:03:27.764Z</time></trkpt><trkpt lat="45.8122483" lon="8.3042067"><ele>766.0</ele><time>2026-03-28T10:03:28.765Z</time></trkpt><trkpt lat="45.812265" lon="8.3044867"><ele>764.0</ele><time>2026-03-28T10:03:29.768Z</time></trkpt><trkpt lat="45.8122767" lon="8.304755"><ele>762.0</ele><time>2026-03-28T10:03:30.766Z</time></trkpt><trkpt lat="45.8122917" lon="8.3050117"><ele>757.3333333333334</ele><time>2026-03-28T10:03:31.765Z</time></trkpt><trkpt lat="45.812305" lon="8.3052517"><ele>752.6666666666667</ele><time>2026-03-28T10:03:32.764Z</time></trkpt><trkpt lat="45.812325" lon="8.305475"><ele>748.0</ele><time>2026-03-28T10:03:33.764Z</time></trkpt><trkpt lat="45.8123667" lon="8.305675"><ele>745.25</ele><time>2026-03-28T10:03:34.765Z</time></trkpt><trkpt lat="45.812425" lon="8.305845"><ele>742.5</ele><time>2026-03-28T10:03:35.768Z</time></trkpt><trkpt lat="45.8124867" lon="8.3059933"><ele>739.75</ele><time>2026-03-28T10:03:36.764Z</time></trkpt><trkpt lat="45.812555" lon="8.30611"><ele>737.0</ele><time>2026-03-28T10:03:37.769Z</time></trkpt><trkpt lat="45.8126383" lon="8.3061883"><ele>741.0</ele><time>2026-03-28T10:03:38.769Z</time></trkpt><trkpt lat="45.8127317" lon="8.3062267"><ele>745.0</ele><time>2026-03-28T10:03:39.764Z</time></trkpt><trkpt lat="45.8128367" lon="8.3062117"><ele>749.0</ele><time>2026-03-28T10:03:40.768Z</time></trkpt><trkpt lat="45.812935" lon="8.306165"><ele>753.0</ele><time>2026-03-28T10:03:41.768Z</time></trkpt><trkpt lat="45.813025" lon="8.3061233"><ele>757.0</ele><time>2026-03-28T10:03:42.767Z</time></trkpt><trkpt lat="45.81311" lon="8.3061017"><ele>757.0</ele><time>2026-03-28T10:03:43.767Z</time></trkpt><trkpt lat="45.8131883" lon="8.30611"><ele>757.0</ele><time>2026-03-28T10:03:44.767Z</time></trkpt><trkpt lat="45.813255" lon="8.3061567"><ele>757.0</ele><time>2026-03-28T10:03:45.767Z</time></trkpt><trkpt lat="45.8132983" lon="8.30624"><ele>757.0</ele><time>2026-03-28T10:03:46.767Z</time></trkpt><trkpt lat="45.8133033" lon="8.30635"><ele>757.0</ele><time>2026-03-28T10:03:47.765Z</time></trkpt><trkpt lat="45.81328" lon="8.3064867"><ele>757.0</ele><time>2026-03-28T10:03:48.766Z</time></trkpt><trkpt lat="45.8132017" lon="8.3066267"><ele>752.75</ele><time>2026-03-28T10:03:49.765Z</time></trkpt><trkpt lat="45.813085" lon="8.3067633"><ele>748.5</ele><time>2026-03-28T10:03:50.766Z</time></trkpt><trkpt lat="45.8129833" lon="8.30689"><ele>744.25</ele><time>2026-03-28T10:03:51.764Z</time></trkpt><trkpt lat="45.8128867" lon="8.306995"><ele>740.0</ele><time>2026-03-28T10:03:52.765Z</time></trkpt><trkpt lat="45.812785" lon="8.3070633"><ele>740.0</ele><time>2026-03-28T10:03:53.765Z</time></trkpt><trkpt lat="45.812685" lon="8.3071133"><ele>740.0</ele><time>2026-03-28T10:03:54.766Z</time></trkpt><trkpt lat="45.8126033" lon="8.3071633"><ele>740.0</ele><time>2026-03-28T10:03:55.765Z</time></trkpt><trkpt lat="45.8125383" lon="8.30724"><ele>740.0</ele><time>2026-03-28T10:03:56.765Z</time></trkpt><trkpt lat="45.8124983" lon="8.3073483"><ele>740.0</ele><time>2026-03-28T10:03:57.765Z</time></trkpt><trkpt lat="45.81249" lon="8.3074717"><ele>740.25</ele><time>2026-03-28T10:03:58.768Z</time></trkpt><trkpt lat="45.81252" lon="8.3076067"><ele>740.5</ele><time>2026-03-28T10:03:59.768Z</time></trkpt><trkpt lat="45.8125783" lon="8.3077833"><ele>740.75</ele><time>2026-03-28T10:04:00.768Z</time></trkpt><trkpt lat="45.8127183" lon="8.3079433"><ele>741.0</ele><time>2026-03-28T10:04:01.765Z</time></trkpt><trkpt lat="45.812875" lon="8.308125"><ele>740.0</ele><time>2026-03-28T10:04:02.766Z</time></trkpt><trkpt lat="45.813035" lon="8.30831"><ele>739.0</ele><time>2026-03-28T10:04:03.768Z</time></trkpt><trkpt lat="45.813175" lon="8.3084783"><ele>738.0</ele><time>2026-03-28T10:04:04.767Z</time></trkpt><trkpt lat="45.8132867" lon="8.3086267"><ele>738.0</ele><time>2026-03-28T10:04:05.767Z</time></trkpt><trkpt lat="45.81338" lon="8.3087467"><ele>738.0</ele><time>2026-03-28T10:04:06.768Z</time></trkpt><trkpt lat="45.8134317" lon="8.3088617"><ele>738.0</ele><time>2026-03-28T10:04:07.765Z</time></trkpt><trkpt lat="45.8134633" lon="8.3089667"><ele>738.0</ele><time>2026-03-28T10:04:08.764Z</time></trkpt><trkpt lat="45.8134617" lon="8.3090683"><ele>738.0</ele><time>2026-03-28T10:04:09.765Z</time></trkpt><trkpt lat="45.81341" lon="8.3091567"><ele>738.25</ele><time>2026-03-28T10:04:10.768Z</time></trkpt><trkpt lat="45.8133317" lon="8.3092233"><ele>738.5</ele><time>2026-03-28T10:04:11.764Z</time></trkpt><trkpt lat="45.8131967" lon="8.3092783"><ele>738.75</ele><time>2026-03-28T10:04:12.766Z</time></trkpt><trkpt lat="45.8130367" lon="8.3092733"><ele>739.0</ele><time>2026-03-28T10:04:13.766Z</time></trkpt><trkpt lat="45.812845" lon="8.3092167"><ele>746.6666666666667</ele><time>2026-03-28T10:04:14.765Z</time></trkpt><trkpt lat="45.81265" lon="8.3091467"><ele>754.3333333333334</ele><time>2026-03-28T10:04:15.766Z</time></trkpt><trkpt lat="45.8124583" lon="8.3090767"><ele>762.0</ele><time>2026-03-28T10:04:16.765Z</time></trkpt><trkpt lat="45.8122717" lon="8.3089917"><ele>754.25</ele><time>2026-03-28T10:04:17.766Z</time></trkpt><trkpt lat="45.81213" lon="8.30889"><ele>746.5</ele><time>2026-03-28T10:04:18.766Z</time></trkpt><trkpt lat="45.8120183" lon="8.3087667"><ele>738.75</ele><time>2026-03-28T10:04:19.765Z</time></trkpt><trkpt lat="45.8119317" lon="8.3086483"><ele>731.0</ele><time>2026-03-28T10:04:20.764Z</time></trkpt><trkpt lat="45.8118533" lon="8.3085767"><ele>732.5999999999999</ele><time>2026-03-28T10:04:21.765Z</time></trkpt><trkpt lat="45.8117733" lon="8.3085417"><ele>734.2</ele><time>2026-03-28T10:04:22.764Z</time></trkpt><trkpt lat="45.8116867" lon="8.3085267"><ele>735.8</ele><time>2026-03-28T10:04:23.764Z</time></trkpt><trkpt lat="45.8115983" lon="8.30857"><ele>737.4000000000001</ele><time>2026-03-28T10:04:24.765Z</time></trkpt><trkpt lat="45.81151" lon="8.3086917"><ele>739.0</ele><time>2026-03-28T10:04:25.766Z</time></trkpt><trkpt lat="45.81142" lon="8.3088917"><ele>749.0</ele><time>2026-03-28T10:04:26.765Z</time></trkpt><trkpt lat="45.811315" lon="8.3091483"><ele>759.0</ele><time>2026-03-28T10:04:27.765Z</time></trkpt><trkpt lat="45.81122" lon="8.309365"><ele>769.0</ele><time>2026-03-28T10:04:28.768Z</time></trkpt><trkpt lat="45.8111367" lon="8.3095567"><ele>769.0</ele><time>2026-03-28T10:04:29.765Z</time></trkpt><trkpt lat="45.81105" lon="8.3097383"><ele>769.0</ele><time>2026-03-28T10:04:30.768Z</time></trkpt><trkpt lat="45.8110017" lon="8.30993"><ele>769.0</ele><time>2026-03-28T10:04:31.77Z</time></trkpt><trkpt lat="45.8109767" lon="8.3101567"><ele>766.3333333333333</ele><time>2026-03-28T10:04:32.764Z</time></trkpt><trkpt lat="45.8109783" lon="8.3104"><ele>763.6666666666666</ele><time>2026-03-28T10:04:33.767Z</time></trkpt><trkpt lat="45.8109933" lon="8.3106517"><ele>761.0</ele><time>2026-03-28T10:04:34.767Z</time></trkpt><trkpt lat="45.8110183" lon="8.3108717"><ele>766.0</ele><time>2026-03-28T10:04:35.768Z</time></trkpt><trkpt lat="45.8110367" lon="8.3110683"><ele>771.0</ele><time>2026-03-28T10:04:36.768Z</time></trkpt><trkpt lat="45.8110167" lon="8.311255"><ele>776.0</ele><time>2026-03-28T10:04:37.765Z</time></trkpt><trkpt lat="45.8110017" lon="8.3114133"><ele>781.0</ele><time>2026-03-28T10:04:38.764Z</time></trkpt><trkpt lat="45.810985" lon="8.3115717"><ele>786.5999999999999</ele><time>2026-03-28T10:04:39.765Z</time></trkpt><trkpt lat="45.8109917" lon="8.3117417"><ele>792.2</ele><time>2026-03-28T10:04:40.768Z</time></trkpt><trkpt lat="45.8110017" lon="8.3119017"><ele>797.8</ele><time>2026-03-28T10:04:41.764Z</time></trkpt><trkpt lat="45.8110167" lon="8.3120367"><ele>803.4000000000001</ele><time>2026-03-28T10:04:42.765Z</time></trkpt><trkpt lat="45.8110317" lon="8.3121583"><ele>809.0</ele><time>2026-03-28T10:04:43.765Z</time></trkpt><trkpt lat="45.8110267" lon="8.31227"><ele>807.0</ele><time>2026-03-28T10:04:44.764Z</time></trkpt><trkpt lat="45.810975" lon="8.312335"><ele>805.0</ele><time>2026-03-28T10:04:45.768Z</time></trkpt><trkpt lat="45.810905" lon="8.3123267"><ele>803.0</ele><time>2026-03-28T10:04:46.765Z</time></trkpt><trkpt lat="45.8108367" lon="8.3123167"><ele>801.0</ele><time>2026-03-28T10:04:47.766Z</time></trkpt><trkpt lat="45.810735" lon="8.3121933"><ele>799.0</ele><time>2026-03-28T10:04:48.766Z</time></trkpt><trkpt lat="45.8106267" lon="8.3120183"><ele>793.0</ele><time>2026-03-28T10:04:49.765Z</time></trkpt><trkpt lat="45.810555" lon="8.31179"><ele>787.0</ele><time>2026-03-28T10:04:50.764Z</time></trkpt><trkpt lat="45.8104867" lon="8.3115667"><ele>781.0</ele><time>2026-03-28T10:04:51.764Z</time></trkpt><trkpt lat="45.8103883" lon="8.3113683"><ele>783.3333333333333</ele><time>2026-03-28T10:04:52.766Z</time></trkpt><trkpt lat="45.8103" lon="8.3111683"><ele>785.6666666666667</ele><time>2026-03-28T10:04:53.764Z</time></trkpt><trkpt lat="45.8102183" lon="8.3109817"><ele>788.0</ele><time>2026-03-28T10:04:54.765Z</time></trkpt><trkpt lat="45.81012" lon="8.3108333"><ele>788.0</ele><time>2026-03-28T10:04:55.766Z</time></trkpt><trkpt lat="45.810005" lon="8.3107433"><ele>788.0</ele><time>2026-03-28T10:04:56.764Z</time></trkpt><trkpt lat="45.80987" lon="8.3107133"><ele>788.0</ele><time>2026-03-28T10:04:57.764Z</time></trkpt><trkpt lat="45.8097333" lon="8.310725"><ele>788.0</ele><time>2026-03-28T10:04:58.768Z</time></trkpt><trkpt lat="45.8096133" lon="8.3107283"><ele>788.0</ele><time>2026-03-28T10:04:59.768Z</time></trkpt><trkpt lat="45.8095217" lon="8.3106917"><ele>788.0</ele><time>2026-03-28T10:05:00.765Z</time></trkpt><trkpt lat="45.8094383" lon="8.31063"><ele>788.0</ele><time>2026-03-28T10:05:01.765Z</time></trkpt><trkpt lat="45.8093817" lon="8.31053"><ele>788.0</ele><time>2026-03-28T10:05:02.764Z</time></trkpt><trkpt lat="45.8093317" lon="8.3104033"><ele>788.0</ele><time>2026-03-28T10:05:03.768Z</time></trkpt><trkpt lat="45.8093333" lon="8.3102"><ele>799.6666666666667</ele><time>2026-03-28T10:05:04.765Z</time></trkpt><trkpt lat="45.8093133" lon="8.30998"><ele>811.3333333333333</ele><time>2026-03-28T10:05:05.766Z</time></trkpt><trkpt lat="45.8093233" lon="8.30972"><ele>823.0</ele><time>2026-03-28T10:05:06.764Z</time></trkpt><trkpt lat="45.8093183" lon="8.30945"><ele>823.6666666666666</ele><time>2026-03-28T10:05:07.766Z</time></trkpt><trkpt lat="45.809315" lon="8.3091767"><ele>824.3333333333333</ele><time>2026-03-28T10:05:08.768Z</time></trkpt><trkpt lat="45.8093183" lon="8.3089017"><ele>825.0</ele><time>2026-03-28T10:05:09.768Z</time></trkpt><trkpt lat="45.8093083" lon="8.3086617"><ele>826.5</ele><time>2026-03-28T10:05:10.769Z</time></trkpt><trkpt lat="45.8092967" lon="8.3084467"><ele>828.0</ele><time>2026-03-28T10:05:11.764Z</time></trkpt><trkpt lat="45.8093033" lon="8.3082483"><ele>829.5</ele><time>2026-03-28T10:05:12.764Z</time></trkpt><trkpt lat="45.80934" lon="8.3080567"><ele>831.0</ele><time>2026-03-28T10:05:13.768Z</time></trkpt><trkpt lat="45.80942" lon="8.30789"><ele>825.4</ele><time>2026-03-28T10:05:14.765Z</time></trkpt><trkpt lat="45.8095033" lon="8.3077467"><ele>819.8</ele><time>2026-03-28T10:05:15.766Z</time></trkpt><trkpt lat="45.80957" lon="8.3076233"><ele>814.1999999999999</ele><time>2026-03-28T10:05:16.764Z</time></trkpt><trkpt lat="45.8096" lon="8.3075033"><ele>808.5999999999999</ele><time>2026-03-28T10:05:17.764Z</time></trkpt><trkpt lat="45.8096017" lon="8.3073867"><ele>803.0</ele><time>2026-03-28T10:05:18.764Z</time></trkpt><trkpt lat="45.8096117" lon="8.3072633"><ele>799.0</ele><time>2026-03-28T10:05:19.765Z</time></trkpt><trkpt lat="45.8096" lon="8.3071233"><ele>795.0</ele><time>2026-03-28T10:05:20.768Z</time></trkpt><trkpt lat="45.8095317" lon="8.3069817"><ele>791.0</ele><time>2026-03-28T10:05:21.764Z</time></trkpt><trkpt lat="45.8094317" lon="8.306835"><ele>787.0</ele><time>2026-03-28T10:05:22.767Z</time></trkpt><trkpt lat="45.8093033" lon="8.30668"><ele>793.0</ele><time>2026-03-28T10:05:23.768Z</time></trkpt><trkpt lat="45.80917" lon="8.3065267"><ele>799.0</ele><time>2026-03-28T10:05:24.767Z</time></trkpt><trkpt lat="45.8090617" lon="8.3063767"><ele>805.0</ele><time>2026-03-28T10:05:25.768Z</time></trkpt><trkpt lat="45.8089833" lon="8.3062233"><ele>805.0</ele><time>2026-03-28T10:05:26.768Z</time></trkpt><trkpt lat="45.8089033" lon="8.306095"><ele>805.0</ele><time>2026-03-28T10:05:27.764Z</time></trkpt><trkpt lat="45.8088017" lon="8.30599"><ele>805.0</ele><time>2026-03-28T10:05:28.766Z</time></trkpt><trkpt lat="45.808685" lon="8.305905"><ele>805.0</ele><time>2026-03-28T10:05:29.764Z</time></trkpt><trkpt lat="45.8085517" lon="8.30583"><ele>810.2</ele><time>2026-03-28T10:05:30.768Z</time></trkpt><trkpt lat="45.8084333" lon="8.3057683"><ele>815.4</ele><time>2026-03-28T10:05:31.767Z</time></trkpt><trkpt lat="45.8083267" lon="8.3057483"><ele>820.5999999999999</ele><time>2026-03-28T10:05:32.765Z</time></trkpt><trkpt lat="45.808235" lon="8.305785"><ele>825.8</ele><time>2026-03-28T10:05:33.764Z</time></trkpt><trkpt lat="45.8081617" lon="8.305875"><ele>831.0</ele><time>2026-03-28T10:05:34.768Z</time></trkpt><trkpt lat="45.808125" lon="8.306015"><ele>831.0</ele><time>2026-03-28T10:05:35.767Z</time></trkpt><trkpt lat="45.8081317" lon="8.3062017"><ele>831.0</ele><time>2026-03-28T10:05:36.764Z</time></trkpt><trkpt lat="45.80818" lon="8.3064183"><ele>831.0</ele><time>2026-03-28T10:05:37.768Z</time></trkpt><trkpt lat="45.80824" lon="8.3066417"><ele>835.6666666666667</ele><time>2026-03-28T10:05:38.767Z</time></trkpt><trkpt lat="45.8082917" lon="8.30687"><ele>840.3333333333334</ele><time>2026-03-28T10:05:39.768Z</time></trkpt><trkpt lat="45.80832" lon="8.3071017"><ele>845.0</ele><time>2026-03-28T10:05:40.768Z</time></trkpt><trkpt lat="45.8083267" lon="8.3073333"><ele>845.6666666666667</ele><time>2026-03-28T10:05:41.767Z</time></trkpt><trkpt lat="45.8083283" lon="8.307575"><ele>846.3333333333333</ele><time>2026-03-28T10:05:42.769Z</time></trkpt><trkpt lat="45.80835" lon="8.3078283"><ele>847.0</ele><time>2026-03-28T10:05:43.768Z</time></trkpt><trkpt lat="45.8083883" lon="8.3080817"><ele>847.3333333333333</ele><time>2026-03-28T10:05:44.768Z</time></trkpt><trkpt lat="45.8084133" lon="8.3083267"><ele>847.6666666666667</ele><time>2026-03-28T10:05:45.767Z</time></trkpt><trkpt lat="45.80842" lon="8.3085617"><ele>848.0</ele><time>2026-03-28T10:05:46.764Z</time></trkpt><trkpt lat="45.8084" lon="8.3087767"><ele>849.0</ele><time>2026-03-28T10:05:47.764Z</time></trkpt><trkpt lat="45.80837" lon="8.3089683"><ele>850.0</ele><time>2026-03-28T10:05:48.765Z</time></trkpt><trkpt lat="45.80835" lon="8.3091683"><ele>851.0</ele><time>2026-03-28T10:05:49.765Z</time></trkpt><trkpt lat="45.8083433" lon="8.3093817"><ele>852.0</ele><time>2026-03-28T10:05:50.765Z</time></trkpt><trkpt lat="45.808355" lon="8.3096183"><ele>851.3333333333333</ele><time>2026-03-28T10:05:51.764Z</time></trkpt><trkpt lat="45.808375" lon="8.3098817"><ele>850.6666666666666</ele><time>2026-03-28T10:05:52.765Z</time></trkpt><trkpt lat="45.8084033" lon="8.31017"><ele>850.0</ele><time>2026-03-28T10:05:53.769Z</time></trkpt><trkpt lat="45.8084417" lon="8.3104833"><ele>849.0</ele><time>2026-03-28T10:05:54.767Z</time></trkpt><trkpt lat="45.8084783" lon="8.3108"><ele>848.0</ele><time>2026-03-28T10:05:55.768Z</time></trkpt><trkpt lat="45.8085133" lon="8.3111017"><ele>847.0</ele><time>2026-03-28T10:05:56.767Z</time></trkpt><trkpt lat="45.8085467" lon="8.31137"><ele>845.75</ele><time>2026-03-28T10:05:57.767Z</time></trkpt><trkpt lat="45.8085783" lon="8.31159"><ele>844.5</ele><time>2026-03-28T10:05:58.768Z</time></trkpt><trkpt lat="45.8086033" lon="8.3117783"><ele>843.25</ele><time>2026-03-28T10:05:59.767Z</time></trkpt><trkpt lat="45.808615" lon="8.3119467"><ele>842.0</ele><time>2026-03-28T10:06:00.767Z</time></trkpt><trkpt lat="45.8086017" lon="8.3121067"><ele>846.0</ele><time>2026-03-28T10:06:01.765Z</time></trkpt><trkpt lat="45.8085583" lon="8.31226"><ele>850.0</ele><time>2026-03-28T10:06:02.768Z</time></trkpt><trkpt lat="45.8085217" lon="8.3124183"><ele>854.0</ele><time>2026-03-28T10:06:03.767Z</time></trkpt><trkpt lat="45.80851" lon="8.3125783"><ele>858.0</ele><time>2026-03-28T10:06:04.767Z</time></trkpt><trkpt lat="45.8085283" lon="8.3127567"><ele>858.0</ele><time>2026-03-28T10:06:05.767Z</time></trkpt><trkpt lat="45.8085667" lon="8.312965"><ele>858.0</ele><time>2026-03-28T10:06:06.765Z</time></trkpt><trkpt lat="45.8086067" lon="8.3131917"><ele>858.0</ele><time>2026-03-28T10:06:07.767Z</time></trkpt><trkpt lat="45.8086417" lon="8.3134083"><ele>861.25</ele><time>2026-03-28T10:06:08.767Z</time></trkpt><trkpt lat="45.808655" lon="8.3136033"><ele>864.5</ele><time>2026-03-28T10:06:09.767Z</time></trkpt><trkpt lat="45.808645" lon="8.3137967"><ele>867.75</ele><time>2026-03-28T10:06:10.768Z</time></trkpt><trkpt lat="45.8086" lon="8.3139967"><ele>871.0</ele><time>2026-03-28T10:06:11.767Z</time></trkpt><trkpt lat="45.808555" lon="8.314185"><ele>874.0</ele><time>2026-03-28T10:06:12.767Z</time></trkpt><trkpt lat="45.8085367" lon="8.3143683"><ele>877.0</ele><time>2026-03-28T10:06:13.768Z</time></trkpt><trkpt lat="45.808555" lon="8.3145667"><ele>880.0</ele><time>2026-03-28T10:06:14.767Z</time></trkpt><trkpt lat="45.808605" lon="8.3147867"><ele>883.0</ele><time>2026-03-28T10:06:15.767Z</time></trkpt><trkpt lat="45.808665" lon="8.3150283"><ele>884.6666666666666</ele><time>2026-03-28T10:06:16.767Z</time></trkpt><trkpt lat="45.8087283" lon="8.315285"><ele>886.3333333333333</ele><time>2026-03-28T10:06:17.769Z</time></trkpt><trkpt lat="45.808785" lon="8.315565"><ele>888.0</ele><time>2026-03-28T10:06:18.767Z</time></trkpt><trkpt lat="45.8088317" lon="8.315845"><ele>889.0</ele><time>2026-03-28T10:06:19.768Z</time></trkpt><trkpt lat="45.8088683" lon="8.3161067"><ele>890.0</ele><time>2026-03-28T10:06:20.767Z</time></trkpt><trkpt lat="45.8089017" lon="8.31636"><ele>891.0</ele><time>2026-03-28T10:06:21.764Z</time></trkpt><trkpt lat="45.8089367" lon="8.31662"><ele>893.0</ele><time>2026-03-28T10:06:22.768Z</time></trkpt><trkpt lat="45.808965" lon="8.3168883"><ele>895.0</ele><time>2026-03-28T10:06:23.768Z</time></trkpt><trkpt lat="45.8089717" lon="8.3171517"><ele>897.0</ele><time>2026-03-28T10:06:24.765Z</time></trkpt><trkpt lat="45.8089783" lon="8.3173783"><ele>897.25</ele><time>2026-03-28T10:06:25.765Z</time></trkpt><trkpt lat="45.8089767" lon="8.3175883"><ele>897.5</ele><time>2026-03-28T10:06:26.764Z</time></trkpt><trkpt lat="45.8089583" lon="8.317785"><ele>897.75</ele><time>2026-03-28T10:06:27.768Z</time></trkpt><trkpt lat="45.8089167" lon="8.31795"><ele>898.0</ele><time>2026-03-28T10:06:28.768Z</time></trkpt><trkpt lat="45.8088367" lon="8.3180967"><ele>899.4</ele><time>2026-03-28T10:06:29.767Z</time></trkpt><trkpt lat="45.8087317" lon="8.318215"><ele>900.8</ele><time>2026-03-28T10:06:30.764Z</time></trkpt><trkpt lat="45.8086233" lon="8.3182967"><ele>902.2</ele><time>2026-03-28T10:06:31.765Z</time></trkpt><trkpt lat="45.808535" lon="8.3183717"><ele>903.6</ele><time>2026-03-28T10:06:32.764Z</time></trkpt><trkpt lat="45.8084733" lon="8.318455"><ele>905.0</ele><time>2026-03-28T10:06:33.765Z</time></trkpt><trkpt lat="45.8084233" lon="8.318555"><ele>906.8</ele><time>2026-03-28T10:06:34.766Z</time></trkpt><trkpt lat="45.80839" lon="8.3186767"><ele>908.6</ele><time>2026-03-28T10:06:35.764Z</time></trkpt><trkpt lat="45.8083767" lon="8.3188233"><ele>910.4000000000001</ele><time>2026-03-28T10:06:36.765Z</time></trkpt><trkpt lat="45.80838" lon="8.318995"><ele>912.2</ele><time>2026-03-28T10:06:37.768Z</time></trkpt><trkpt lat="45.8083867" lon="8.3191683"><ele>914.0</ele><time>2026-03-28T10:06:38.764Z</time></trkpt><trkpt lat="45.808405" lon="8.3193433"><ele>916.0</ele><time>2026-03-28T10:06:39.767Z</time></trkpt><trkpt lat="45.808445" lon="8.3195217"><ele>918.0</ele><time>2026-03-28T10:06:40.767Z</time></trkpt><trkpt lat="45.8085217" lon="8.3197183"><ele>920.0</ele><time>2026-03-28T10:06:41.768Z</time></trkpt><trkpt lat="45.808615" lon="8.3199133"><ele>922.5</ele><time>2026-03-28T10:06:42.767Z</time></trkpt><trkpt lat="45.8087017" lon="8.3200717"><ele>925.0</ele><time>2026-03-28T10:06:43.768Z</time></trkpt><trkpt lat="45.8087983" lon="8.320195"><ele>927.5</ele><time>2026-03-28T10:06:44.764Z</time></trkpt><trkpt lat="45.8088767" lon="8.3203167"><ele>930.0</ele><time>2026-03-28T10:06:45.764Z</time></trkpt><trkpt lat="45.8089333" lon="8.320455"><ele>932.25</ele><time>2026-03-28T10:06:46.764Z</time></trkpt><trkpt lat="45.80897" lon="8.3206183"><ele>934.5</ele><time>2026-03-28T10:06:47.765Z</time></trkpt><trkpt lat="45.8089833" lon="8.32081"><ele>936.75</ele><time>2026-03-28T10:06:48.766Z</time></trkpt><trkpt lat="45.8089883" lon="8.32102"><ele>939.0</ele><time>2026-03-28T10:06:49.765Z</time></trkpt><trkpt lat="45.80899" lon="8.321225"><ele>940.75</ele><time>2026-03-28T10:06:50.764Z</time></trkpt><trkpt lat="45.8089917" lon="8.3214183"><ele>942.5</ele><time>2026-03-28T10:06:51.764Z</time></trkpt><trkpt lat="45.8089933" lon="8.3215933"><ele>944.25</ele><time>2026-03-28T10:06:52.768Z</time></trkpt><trkpt lat="45.8090133" lon="8.3217483"><ele>946.0</ele><time>2026-03-28T10:06:53.767Z</time></trkpt><trkpt lat="45.80904" lon="8.3218983"><ele>946.0</ele><time>2026-03-28T10:06:54.767Z</time></trkpt><trkpt lat="45.809075" lon="8.32206"><ele>946.0</ele><time>2026-03-28T10:06:55.765Z</time></trkpt><trkpt lat="45.8091117" lon="8.3222517"><ele>946.0</ele><time>2026-03-28T10:06:56.764Z</time></trkpt><trkpt lat="45.8091583" lon="8.3224483"><ele>946.0</ele><time>2026-03-28T10:06:57.768Z</time></trkpt><trkpt lat="45.809195" lon="8.3226367"><ele>944.75</ele><time>2026-03-28T10:06:58.769Z</time></trkpt><trkpt lat="45.8092283" lon="8.322815"><ele>943.5</ele><time>2026-03-28T10:06:59.768Z</time></trkpt><trkpt lat="45.80927" lon="8.3229683"><ele>942.25</ele><time>2026-03-28T10:07:00.765Z</time></trkpt><trkpt lat="45.80933" lon="8.3230933"><ele>941.0</ele><time>2026-03-28T10:07:01.769Z</time></trkpt><trkpt lat="45.8094133" lon="8.323185"><ele>940.5</ele><time>2026-03-28T10:07:02.767Z</time></trkpt><trkpt lat="45.809525" lon="8.3232317"><ele>940.0</ele><time>2026-03-28T10:07:03.767Z</time></trkpt><trkpt lat="45.8096567" lon="8.3232567"><ele>939.5</ele><time>2026-03-28T10:07:04.765Z</time></trkpt><trkpt lat="45.80978" lon="8.3233"><ele>939.0</ele><time>2026-03-28T10:07:05.767Z</time></trkpt><trkpt lat="45.8098967" lon="8.3233767"><ele>939.0</ele><time>2026-03-28T10:07:06.767Z</time></trkpt><trkpt lat="45.8100183" lon="8.3234783"><ele>939.0</ele><time>2026-03-28T10:07:07.768Z</time></trkpt><trkpt lat="45.810145" lon="8.3236333"><ele>939.0</ele><time>2026-03-28T10:07:08.768Z</time></trkpt><trkpt lat="45.8102417" lon="8.3238083"><ele>943.0</ele><time>2026-03-28T10:07:09.768Z</time></trkpt><trkpt lat="45.8103283" lon="8.3239867"><ele>947.0</ele><time>2026-03-28T10:07:10.767Z</time></trkpt><trkpt lat="45.8104033" lon="8.3241617"><ele>951.0</ele><time>2026-03-28T10:07:11.764Z</time></trkpt><trkpt lat="45.8104583" lon="8.3243617"><ele>955.0</ele><time>2026-03-28T10:07:12.767Z</time></trkpt><trkpt lat="45.8104983" lon="8.3245633"><ele>951.0</ele><time>2026-03-28T10:07:13.767Z</time></trkpt><trkpt lat="45.8105267" lon="8.324745"><ele>947.0</ele><time>2026-03-28T10:07:14.768Z</time></trkpt><trkpt lat="45.8105367" lon="8.3249133"><ele>943.0</ele><time>2026-03-28T10:07:15.764Z</time></trkpt><trkpt lat="45.8105117" lon="8.325065"><ele>939.0</ele><time>2026-03-28T10:07:16.768Z</time></trkpt><trkpt lat="45.8104583" lon="8.3251867"><ele>939.0</ele><time>2026-03-28T10:07:17.767Z</time></trkpt><trkpt lat="45.8104183" lon="8.3253067"><ele>939.0000000000001</ele><time>2026-03-28T10:07:18.767Z</time></trkpt><trkpt lat="45.8103933" lon="8.3254333"><ele>939.0000000000001</ele><time>2026-03-28T10:07:19.766Z</time></trkpt><trkpt lat="45.8103933" lon="8.3255667"><ele>939.0</ele><time>2026-03-28T10:07:20.768Z</time></trkpt><trkpt lat="45.8104233" lon="8.3257183"><ele>939.0</ele><time>2026-03-28T10:07:21.767Z</time></trkpt><trkpt lat="45.81048" lon="8.325865"><ele>936.0</ele><time>2026-03-28T10:07:22.764Z</time></trkpt><trkpt lat="45.8105383" lon="8.3260233"><ele>933.0</ele><time>2026-03-28T10:07:23.765Z</time></trkpt><trkpt lat="45.8105933" lon="8.3262117"><ele>930.0</ele><time>2026-03-28T10:07:24.768Z</time></trkpt><trkpt lat="45.81063" lon="8.3264267"><ele>927.0</ele><time>2026-03-28T10:07:25.769Z</time></trkpt><trkpt lat="45.810655" lon="8.326645"><ele>923.5</ele><time>2026-03-28T10:07:26.767Z</time></trkpt><trkpt lat="45.8106833" lon="8.32684"><ele>920.0</ele><time>2026-03-28T10:07:27.767Z</time></trkpt><trkpt lat="45.8107183" lon="8.3270083"><ele>916.5</ele><time>2026-03-28T10:07:28.767Z</time></trkpt><trkpt lat="45.8107683" lon="8.3271517"><ele>913.0</ele><time>2026-03-28T10:07:29.765Z</time></trkpt><trkpt lat="45.8108467" lon="8.3272633"><ele>908.25</ele><time>2026-03-28T10:07:30.768Z</time></trkpt><trkpt lat="45.8109483" lon="8.327335"><ele>903.5</ele><time>2026-03-28T10:07:31.769Z</time></trkpt><trkpt lat="45.8110783" lon="8.32737"><ele>898.75</ele><time>2026-03-28T10:07:32.765Z</time></trkpt><trkpt lat="45.8112083" lon="8.327405"><ele>894.0</ele><time>2026-03-28T10:07:33.766Z</time></trkpt><trkpt lat="45.81139" lon="8.327385"><ele>893.3333333333333</ele><time>2026-03-28T10:07:34.769Z</time></trkpt><trkpt lat="45.811555" lon="8.327385"><ele>892.6666666666666</ele><time>2026-03-28T10:07:35.767Z</time></trkpt><trkpt lat="45.8117117" lon="8.32738"><ele>892.0</ele><time>2026-03-28T10:07:36.768Z</time></trkpt><trkpt lat="45.8118533" lon="8.32737"><ele>891.0</ele><time>2026-03-28T10:07:37.769Z</time></trkpt><trkpt lat="45.8119817" lon="8.327355"><ele>890.0</ele><time>2026-03-28T10:07:38.764Z</time></trkpt><trkpt lat="45.8121067" lon="8.3272883"><ele>889.0</ele><time>2026-03-28T10:07:39.765Z</time></trkpt><trkpt lat="45.812205" lon="8.327155"><ele>888.0</ele><time>2026-03-28T10:07:40.769Z</time></trkpt><trkpt lat="45.81229" lon="8.327"><ele>892.5</ele><time>2026-03-28T10:07:41.767Z</time></trkpt><trkpt lat="45.8123767" lon="8.32687"><ele>897.0</ele><time>2026-03-28T10:07:42.765Z</time></trkpt><trkpt lat="45.8124783" lon="8.3267717"><ele>901.5</ele><time>2026-03-28T10:07:43.768Z</time></trkpt><trkpt lat="45.8125883" lon="8.3266983"><ele>906.0</ele><time>2026-03-28T10:07:44.765Z</time></trkpt><trkpt lat="45.81269" lon="8.3266483"><ele>907.8</ele><time>2026-03-28T10:07:45.764Z</time></trkpt><trkpt lat="45.81279" lon="8.3266567"><ele>909.5999999999999</ele><time>2026-03-28T10:07:46.768Z</time></trkpt><trkpt lat="45.812875" lon="8.3267133"><ele>911.4</ele><time>2026-03-28T10:07:47.764Z</time></trkpt><trkpt lat="45.8129183" lon="8.3268133"><ele>913.2</ele><time>2026-03-28T10:07:48.767Z</time></trkpt><trkpt lat="45.8129283" lon="8.3269367"><ele>915.0</ele><time>2026-03-28T10:07:49.765Z</time></trkpt><trkpt lat="45.81288" lon="8.3271233"><ele>916.3333333333333</ele><time>2026-03-28T10:07:50.764Z</time></trkpt><trkpt lat="45.8128067" lon="8.3273417"><ele>917.6666666666666</ele><time>2026-03-28T10:07:51.768Z</time></trkpt><trkpt lat="45.8127383" lon="8.3275667"><ele>919.0</ele><time>2026-03-28T10:07:52.767Z</time></trkpt><trkpt lat="45.8126783" lon="8.327815"><ele>905.6666666666666</ele><time>2026-03-28T10:07:53.767Z</time></trkpt><trkpt lat="45.8126317" lon="8.3280667"><ele>892.3333333333333</ele><time>2026-03-28T10:07:54.765Z</time></trkpt><trkpt lat="45.8125883" lon="8.3283017"><ele>879.0</ele><time>2026-03-28T10:07:55.767Z</time></trkpt><trkpt lat="45.8125517" lon="8.3285083"><ele>879.0</ele><time>2026-03-28T10:07:56.764Z</time></trkpt><trkpt lat="45.812525" lon="8.328695"><ele>879.0</ele><time>2026-03-28T10:07:57.764Z</time></trkpt><trkpt lat="45.81253" lon="8.3288683"><ele>879.0</ele><time>2026-03-28T10:07:58.766Z</time></trkpt><trkpt lat="45.812565" lon="8.329045"><ele>879.0</ele><time>2026-03-28T10:07:59.767Z</time></trkpt><trkpt lat="45.81265" lon="8.3291983"><ele>883.25</ele><time>2026-03-28T10:08:00.767Z</time></trkpt><trkpt lat="45.81275" lon="8.3293183"><ele>887.5</ele><time>2026-03-28T10:08:01.768Z</time></trkpt><trkpt lat="45.8128467" lon="8.3294267"><ele>891.75</ele><time>2026-03-28T10:08:02.764Z</time></trkpt><trkpt lat="45.8129117" lon="8.3295517"><ele>896.0</ele><time>2026-03-28T10:08:03.769Z</time></trkpt><trkpt lat="45.8129483" lon="8.3297017"><ele>892.5</ele><time>2026-03-28T10:08:04.765Z</time></trkpt><trkpt lat="45.8129283" lon="8.329875"><ele>889.0</ele><time>2026-03-28T10:08:05.764Z</time></trkpt><trkpt lat="45.8128767" lon="8.3300483"><ele>885.5</ele><time>2026-03-28T10:08:06.764Z</time></trkpt><trkpt lat="45.8128383" lon="8.330205"><ele>882.0</ele><time>2026-03-28T10:08:07.768Z</time></trkpt><trkpt lat="45.81279" lon="8.3303567"><ele>882.0</ele><time>2026-03-28T10:08:08.764Z</time></trkpt><trkpt lat="45.8127883" lon="8.3304967"><ele>882.0</ele><time>2026-03-28T10:08:09.771Z</time></trkpt><trkpt lat="45.8128367" lon="8.330625"><ele>882.0</ele><time>2026-03-28T10:08:10.768Z</time></trkpt><trkpt lat="45.8129083" lon="8.3307217"><ele>882.0</ele><time>2026-03-28T10:08:11.768Z</time></trkpt><trkpt lat="45.812985" lon="8.3307817"><ele>882.0</ele><time>2026-03-28T10:08:12.767Z</time></trkpt><trkpt lat="45.8130767" lon="8.3307917"><ele>882.0</ele><time>2026-03-28T10:08:13.768Z</time></trkpt><trkpt lat="45.81319" lon="8.33072"><ele>882.0</ele><time>2026-03-28T10:08:14.764Z</time></trkpt><trkpt lat="45.8133267" lon="8.330615"><ele>882.0</ele><time>2026-03-28T10:08:15.767Z</time></trkpt><trkpt lat="45.813475" lon="8.330555"><ele>882.0</ele><time>2026-03-28T10:08:16.767Z</time></trkpt><trkpt lat="45.8136183" lon="8.3305083"><ele>881.75</ele><time>2026-03-28T10:08:17.767Z</time></trkpt><trkpt lat="45.81377" lon="8.3304267"><ele>881.5</ele><time>2026-03-28T10:08:18.768Z</time></trkpt><trkpt lat="45.8139017" lon="8.3303117"><ele>881.25</ele><time>2026-03-28T10:08:19.768Z</time></trkpt><trkpt lat="45.8139967" lon="8.33019"><ele>881.0</ele><time>2026-03-28T10:08:20.767Z</time></trkpt><trkpt lat="45.814085" lon="8.3300933"><ele>881.0</ele><time>2026-03-28T10:08:21.768Z</time></trkpt><trkpt lat="45.81416" lon="8.3300233"><ele>880.9999999999999</ele><time>2026-03-28T10:08:22.765Z</time></trkpt><trkpt lat="45.81424" lon="8.3300133"><ele>880.9999999999999</ele><time>2026-03-28T10:08:23.77Z</time></trkpt><trkpt lat="45.8143217" lon="8.3300133"><ele>881.0</ele><time>2026-03-28T10:08:24.768Z</time></trkpt><trkpt lat="45.8144317" lon="8.330065"><ele>881.0</ele><time>2026-03-28T10:08:25.765Z</time></trkpt><trkpt lat="45.81458" lon="8.330245"><ele>876.3333333333334</ele><time>2026-03-28T10:08:26.765Z</time></trkpt><trkpt lat="45.8147383" lon="8.3304567"><ele>871.6666666666667</ele><time>2026-03-28T10:08:27.765Z</time></trkpt><trkpt lat="45.81488" lon="8.3306617"><ele>867.0</ele><time>2026-03-28T10:08:28.765Z</time></trkpt><trkpt lat="45.815045" lon="8.330835"><ele>873.0</ele><time>2026-03-28T10:08:29.769Z</time></trkpt><trkpt lat="45.8152183" lon="8.331015"><ele>879.0</ele><time>2026-03-28T10:08:30.768Z</time></trkpt><trkpt lat="45.8153817" lon="8.3311733"><ele>885.0</ele><time>2026-03-28T10:08:31.768Z</time></trkpt><trkpt lat="45.81552" lon="8.33132"><ele>881.75</ele><time>2026-03-28T10:08:32.767Z</time></trkpt><trkpt lat="45.815645" lon="8.331445"><ele>878.5</ele><time>2026-03-28T10:08:33.768Z</time></trkpt><trkpt lat="45.8157733" lon="8.3315467"><ele>875.25</ele><time>2026-03-28T10:08:34.767Z</time></trkpt><trkpt lat="45.815905" lon="8.3316217"><ele>872.0</ele><time>2026-03-28T10:08:35.767Z</time></trkpt><trkpt lat="45.8160517" lon="8.3316683"><ele>872.0</ele><time>2026-03-28T10:08:36.764Z</time></trkpt><trkpt lat="45.8161933" lon="8.33169"><ele>872.0</ele><time>2026-03-28T10:08:37.768Z</time></trkpt><trkpt lat="45.8163133" lon="8.3317117"><ele>872.0</ele><time>2026-03-28T10:08:38.767Z</time></trkpt><trkpt lat="45.816415" lon="8.33174"><ele>872.0</ele><time>2026-03-28T10:08:39.764Z</time></trkpt><trkpt lat="45.8164933" lon="8.3317883"><ele>872.0</ele><time>2026-03-28T10:08:40.768Z</time></trkpt><trkpt lat="45.816565" lon="8.3318567"><ele>872.0</ele><time>2026-03-28T10:08:41.767Z</time></trkpt><trkpt lat="45.8166267" lon="8.3319483"><ele>872.0</ele><time>2026-03-28T10:08:42.765Z</time></trkpt><trkpt lat="45.8166717" lon="8.3320633"><ele>872.0</ele><time>2026-03-28T10:08:43.768Z</time></trkpt><trkpt lat="45.8166983" lon="8.332225"><ele>872.0</ele><time>2026-03-28T10:08:44.765Z</time></trkpt><trkpt lat="45.8167117" lon="8.3324183"><ele>866.75</ele><time>2026-03-28T10:08:45.766Z</time></trkpt><trkpt lat="45.81673" lon="8.3326233"><ele>861.5</ele><time>2026-03-28T10:08:46.769Z</time></trkpt><trkpt lat="45.8167517" lon="8.3328267"><ele>856.25</ele><time>2026-03-28T10:08:47.764Z</time></trkpt><trkpt lat="45.816765" lon="8.3330217"><ele>851.0</ele><time>2026-03-28T10:08:48.769Z</time></trkpt><trkpt lat="45.8167617" lon="8.33321"><ele>848.0</ele><time>2026-03-28T10:08:49.768Z</time></trkpt><trkpt lat="45.8167233" lon="8.3333967"><ele>845.0</ele><time>2026-03-28T10:08:50.768Z</time></trkpt><trkpt lat="45.8166567" lon="8.3335783"><ele>842.0</ele><time>2026-03-28T10:08:51.768Z</time></trkpt><trkpt lat="45.816575" lon="8.33374"><ele>839.0</ele><time>2026-03-28T10:08:52.767Z</time></trkpt><trkpt lat="45.8164917" lon="8.3338867"><ele>838.0</ele><time>2026-03-28T10:08:53.764Z</time></trkpt><trkpt lat="45.8164217" lon="8.33402"><ele>837.0</ele><time>2026-03-28T10:08:54.764Z</time></trkpt><trkpt lat="45.816395" lon="8.3341583"><ele>836.0</ele><time>2026-03-28T10:08:55.768Z</time></trkpt><trkpt lat="45.8164133" lon="8.334305"><ele>835.0</ele><time>2026-03-28T10:08:56.767Z</time></trkpt><trkpt lat="45.816475" lon="8.3344433"><ele>834.0</ele><time>2026-03-28T10:08:57.768Z</time></trkpt><trkpt lat="45.8165683" lon="8.3345683"><ele>834.0</ele><time>2026-03-28T10:08:58.768Z</time></trkpt><trkpt lat="45.8166983" lon="8.3346567"><ele>834.0</ele><time>2026-03-28T10:08:59.768Z</time></trkpt><trkpt lat="45.8168467" lon="8.3347233"><ele>834.0</ele><time>2026-03-28T10:09:00.765Z</time></trkpt><trkpt lat="45.817005" lon="8.3347883"><ele>827.6666666666667</ele><time>2026-03-28T10:09:01.769Z</time></trkpt><trkpt lat="45.8171683" lon="8.3348617"><ele>821.3333333333334</ele><time>2026-03-28T10:09:02.767Z</time></trkpt><trkpt lat="45.8173217" lon="8.3349317"><ele>815.0</ele><time>2026-03-28T10:09:03.768Z</time></trkpt><trkpt lat="45.8174533" lon="8.3349833"><ele>815.0</ele><time>2026-03-28T10:09:04.766Z</time></trkpt><trkpt lat="45.8175633" lon="8.334995"><ele>815.0</ele><time>2026-03-28T10:09:05.764Z</time></trkpt><trkpt lat="45.8176533" lon="8.3349617"><ele>815.0</ele><time>2026-03-28T10:09:06.765Z</time></trkpt><trkpt lat="45.8177283" lon="8.3348733"><ele>815.0</ele><time>2026-03-28T10:09:07.765Z</time></trkpt><trkpt lat="45.8177783" lon="8.3347333"><ele>815.0</ele><time>2026-03-28T10:09:08.765Z</time></trkpt><trkpt lat="45.8178283" lon="8.3345883"><ele>816.3333333333334</ele><time>2026-03-28T10:09:09.765Z</time></trkpt><trkpt lat="45.8178783" lon="8.3344767"><ele>817.6666666666667</ele><time>2026-03-28T10:09:10.765Z</time></trkpt><trkpt lat="45.8179333" lon="8.3343917"><ele>819.0</ele><time>2026-03-28T10:09:11.764Z</time></trkpt><trkpt lat="45.81799" lon="8.3343483"><ele>820.3333333333333</ele><time>2026-03-28T10:09:12.767Z</time></trkpt><trkpt lat="45.8180783" lon="8.3343617"><ele>821.6666666666666</ele><time>2026-03-28T10:09:13.769Z</time></trkpt><trkpt lat="45.8181833" lon="8.3344167"><ele>823.0</ele><time>2026-03-28T10:09:14.767Z</time></trkpt><trkpt lat="45.8182767" lon="8.3344617"><ele>823.0</ele><time>2026-03-28T10:09:15.767Z</time></trkpt><trkpt lat="45.8183517" lon="8.3345733"><ele>823.0</ele><time>2026-03-28T10:09:16.767Z</time></trkpt><trkpt lat="45.8183933" lon="8.3347267"><ele>823.0</ele><time>2026-03-28T10:09:17.767Z</time></trkpt><trkpt lat="45.8184167" lon="8.3349167"><ele>823.0</ele><time>2026-03-28T10:09:18.767Z</time></trkpt><trkpt lat="45.8184433" lon="8.335125"><ele>822.25</ele><time>2026-03-28T10:09:19.767Z</time></trkpt><trkpt lat="45.8184783" lon="8.3353483"><ele>821.5</ele><time>2026-03-28T10:09:20.764Z</time></trkpt><trkpt lat="45.81851" lon="8.3355617"><ele>820.75</ele><time>2026-03-28T10:09:21.765Z</time></trkpt><trkpt lat="45.8185333" lon="8.3357567"><ele>820.0</ele><time>2026-03-28T10:09:22.768Z</time></trkpt><trkpt lat="45.8185433" lon="8.3359283"><ele>823.0</ele><time>2026-03-28T10:09:23.767Z</time></trkpt><trkpt lat="45.81853" lon="8.33609"><ele>826.0</ele><time>2026-03-28T10:09:24.77Z</time></trkpt><trkpt lat="45.818485" lon="8.3362467"><ele>829.0</ele><time>2026-03-28T10:09:25.768Z</time></trkpt><trkpt lat="45.81841" lon="8.3363933"><ele>832.0</ele><time>2026-03-28T10:09:26.768Z</time></trkpt><trkpt lat="45.818315" lon="8.336525"><ele>832.0</ele><time>2026-03-28T10:09:27.765Z</time></trkpt><trkpt lat="45.8181917" lon="8.3366583"><ele>832.0</ele><time>2026-03-28T10:09:28.765Z</time></trkpt><trkpt lat="45.8180783" lon="8.3368"><ele>832.0</ele><time>2026-03-28T10:09:29.765Z</time></trkpt><trkpt lat="45.8179683" lon="8.3369383"><ele>832.0</ele><time>2026-03-28T10:09:30.765Z</time></trkpt><trkpt lat="45.81787" lon="8.3370667"><ele>832.0</ele><time>2026-03-28T10:09:31.768Z</time></trkpt><trkpt lat="45.8177733" lon="8.3371767"><ele>832.0</ele><time>2026-03-28T10:09:32.764Z</time></trkpt><trkpt lat="45.8176583" lon="8.3372483"><ele>832.0</ele><time>2026-03-28T10:09:33.765Z</time></trkpt><trkpt lat="45.8175467" lon="8.3372683"><ele>825.75</ele><time>2026-03-28T10:09:34.765Z</time></trkpt><trkpt lat="45.8174383" lon="8.337215"><ele>819.5</ele><time>2026-03-28T10:09:35.764Z</time></trkpt><trkpt lat="45.8173433" lon="8.337125"><ele>813.25</ele><time>2026-03-28T10:09:36.765Z</time></trkpt><trkpt lat="45.8172517" lon="8.3370517"><ele>807.0</ele><time>2026-03-28T10:09:37.765Z</time></trkpt><trkpt lat="45.817135" lon="8.3370283"><ele>807.0</ele><time>2026-03-28T10:09:38.765Z</time></trkpt><trkpt lat="45.8170017" lon="8.33706"><ele>807.0</ele><time>2026-03-28T10:09:39.764Z</time></trkpt><trkpt lat="45.8168533" lon="8.3371317"><ele>807.0</ele><time>2026-03-28T10:09:40.765Z</time></trkpt><trkpt lat="45.8166883" lon="8.337225"><ele>814.0</ele><time>2026-03-28T10:09:41.764Z</time></trkpt><trkpt lat="45.816505" lon="8.33732"><ele>821.0</ele><time>2026-03-28T10:09:42.765Z</time></trkpt><trkpt lat="45.816325" lon="8.3374117"><ele>828.0</ele><time>2026-03-28T10:09:43.765Z</time></trkpt><trkpt lat="45.8161617" lon="8.3375017"><ele>828.0</ele><time>2026-03-28T10:09:44.767Z</time></trkpt><trkpt lat="45.81603" lon="8.3375933"><ele>828.0</ele><time>2026-03-28T10:09:45.768Z</time></trkpt><trkpt lat="45.8159333" lon="8.337675"><ele>828.0</ele><time>2026-03-28T10:09:46.767Z</time></trkpt><trkpt lat="45.81586" lon="8.33779"><ele>828.0</ele><time>2026-03-28T10:09:47.764Z</time></trkpt><trkpt lat="45.8158133" lon="8.3379433"><ele>826.0</ele><time>2026-03-28T10:09:48.768Z</time></trkpt><trkpt lat="45.8157967" lon="8.338135"><ele>824.0</ele><time>2026-03-28T10:09:49.765Z</time></trkpt><trkpt lat="45.8158067" lon="8.3383367"><ele>822.0</ele><time>2026-03-28T10:09:50.769Z</time></trkpt><trkpt lat="45.8158183" lon="8.3385167"><ele>820.0</ele><time>2026-03-28T10:09:51.767Z</time></trkpt><trkpt lat="45.8158233" lon="8.33868"><ele>820.0</ele><time>2026-03-28T10:09:52.764Z</time></trkpt><trkpt lat="45.8158083" lon="8.33883"><ele>820.0</ele><time>2026-03-28T10:09:53.767Z</time></trkpt><trkpt lat="45.815765" lon="8.3389633"><ele>820.0</ele><time>2026-03-28T10:09:54.764Z</time></trkpt><trkpt lat="45.8156983" lon="8.3390833"><ele>820.0</ele><time>2026-03-28T10:09:55.768Z</time></trkpt><trkpt lat="45.8156067" lon="8.3391883"><ele>820.0</ele><time>2026-03-28T10:09:56.769Z</time></trkpt><trkpt lat="45.815475" lon="8.3392633"><ele>819.3333333333333</ele><time>2026-03-28T10:09:57.769Z</time></trkpt><trkpt lat="45.8152833" lon="8.3392833"><ele>818.6666666666667</ele><time>2026-03-28T10:09:58.765Z</time></trkpt><trkpt lat="45.81509" lon="8.339305"><ele>818.0</ele><time>2026-03-28T10:09:59.764Z</time></trkpt><trkpt lat="45.8149033" lon="8.339335"><ele>818.0</ele><time>2026-03-28T10:10:00.764Z</time></trkpt><trkpt lat="45.8147383" lon="8.33936"><ele>818.0</ele><time>2026-03-28T10:10:01.766Z</time></trkpt><trkpt lat="45.8145983" lon="8.339405"><ele>818.0</ele><time>2026-03-28T10:10:02.768Z</time></trkpt><trkpt lat="45.81447" lon="8.3394567"><ele>818.0</ele><time>2026-03-28T10:10:03.764Z</time></trkpt><trkpt lat="45.8143567" lon="8.339545"><ele>819.75</ele><time>2026-03-28T10:10:04.768Z</time></trkpt><trkpt lat="45.8142583" lon="8.33968"><ele>821.5</ele><time>2026-03-28T10:10:05.768Z</time></trkpt><trkpt lat="45.8141767" lon="8.33982"><ele>823.25</ele><time>2026-03-28T10:10:06.767Z</time></trkpt><trkpt lat="45.8140883" lon="8.3399417"><ele>825.0</ele><time>2026-03-28T10:10:07.765Z</time></trkpt><trkpt lat="45.8139783" lon="8.3400133"><ele>825.0</ele><time>2026-03-28T10:10:08.764Z</time></trkpt><trkpt lat="45.8138433" lon="8.34002"><ele>825.0</ele><time>2026-03-28T10:10:09.768Z</time></trkpt><trkpt lat="45.8136633" lon="8.3399583"><ele>825.0</ele><time>2026-03-28T10:10:10.767Z</time></trkpt><trkpt lat="45.8134617" lon="8.3398767"><ele>822.3333333333333</ele><time>2026-03-28T10:10:11.768Z</time></trkpt><trkpt lat="45.8132567" lon="8.3397967"><ele>819.6666666666666</ele><time>2026-03-28T10:10:12.767Z</time></trkpt><trkpt lat="45.8130567" lon="8.3397117"><ele>817.0</ele><time>2026-03-28T10:10:13.767Z</time></trkpt><trkpt lat="45.81288" lon="8.3396383"><ele>810.75</ele><time>2026-03-28T10:10:14.768Z</time></trkpt><trkpt lat="45.8127217" lon="8.3395633"><ele>804.5</ele><time>2026-03-28T10:10:15.765Z</time></trkpt><trkpt lat="45.812585" lon="8.3395067"><ele>798.25</ele><time>2026-03-28T10:10:16.767Z</time></trkpt><trkpt lat="45.8124617" lon="8.3394583"><ele>792.0</ele><time>2026-03-28T10:10:17.765Z</time></trkpt><trkpt lat="45.8123483" lon="8.3394217"><ele>792.0</ele><time>2026-03-28T10:10:18.766Z</time></trkpt><trkpt lat="45.8122433" lon="8.3393833"><ele>792.0</ele><time>2026-03-28T10:10:19.768Z</time></trkpt><trkpt lat="45.8121383" lon="8.33938"><ele>792.0</ele><time>2026-03-28T10:10:20.767Z</time></trkpt><trkpt lat="45.812045" lon="8.3394367"><ele>792.0</ele><time>2026-03-28T10:10:21.768Z</time></trkpt><trkpt lat="45.8119633" lon="8.3395483"><ele>792.0</ele><time>2026-03-28T10:10:22.768Z</time></trkpt><trkpt lat="45.8119033" lon="8.33971"><ele>796.75</ele><time>2026-03-28T10:10:23.768Z</time></trkpt><trkpt lat="45.811875" lon="8.3399"><ele>801.5</ele><time>2026-03-28T10:10:24.767Z</time></trkpt><trkpt lat="45.8118783" lon="8.3401183"><ele>806.25</ele><time>2026-03-28T10:10:25.77Z</time></trkpt><trkpt lat="45.8119" lon="8.34034"><ele>811.0</ele><time>2026-03-28T10:10:26.767Z</time></trkpt><trkpt lat="45.8118967" lon="8.3405433"><ele>815.25</ele><time>2026-03-28T10:10:27.764Z</time></trkpt><trkpt lat="45.8118733" lon="8.3407333"><ele>819.5</ele><time>2026-03-28T10:10:28.769Z</time></trkpt><trkpt lat="45.81183" lon="8.3409083"><ele>823.75</ele><time>2026-03-28T10:10:29.767Z</time></trkpt><trkpt lat="45.8117467" lon="8.3410533"><ele>828.0</ele><time>2026-03-28T10:10:30.768Z</time></trkpt><trkpt lat="45.811635" lon="8.3411783"><ele>822.6666666666667</ele><time>2026-03-28T10:10:31.764Z</time></trkpt><trkpt lat="45.81148" lon="8.3412433"><ele>817.3333333333334</ele><time>2026-03-28T10:10:32.767Z</time></trkpt><trkpt lat="45.8113133" lon="8.3413317"><ele>812.0</ele><time>2026-03-28T10:10:33.766Z</time></trkpt><trkpt lat="45.811155" lon="8.3414317"><ele>812.0</ele><time>2026-03-28T10:10:34.765Z</time></trkpt><trkpt lat="45.8109933" lon="8.3415233"><ele>812.0</ele><time>2026-03-28T10:10:35.767Z</time></trkpt><trkpt lat="45.8108517" lon="8.3415983"><ele>812.0</ele><time>2026-03-28T10:10:36.769Z</time></trkpt><trkpt lat="45.810725" lon="8.3416717"><ele>806.5</ele><time>2026-03-28T10:10:37.765Z</time></trkpt><trkpt lat="45.8106233" lon="8.3417583"><ele>801.0</ele><time>2026-03-28T10:10:38.764Z</time></trkpt><trkpt lat="45.8105517" lon="8.3418783"><ele>795.5</ele><time>2026-03-28T10:10:39.764Z</time></trkpt><trkpt lat="45.810525" lon="8.3420467"><ele>790.0</ele><time>2026-03-28T10:10:40.768Z</time></trkpt><trkpt lat="45.8105483" lon="8.3422233"><ele>789.0</ele><time>2026-03-28T10:10:41.767Z</time></trkpt><trkpt lat="45.8106183" lon="8.3423767"><ele>788.0</ele><time>2026-03-28T10:10:42.767Z</time></trkpt><trkpt lat="45.8107133" lon="8.3425117"><ele>787.0</ele><time>2026-03-28T10:10:43.767Z</time></trkpt><trkpt lat="45.8108283" lon="8.3426467"><ele>786.0</ele><time>2026-03-28T10:10:44.769Z</time></trkpt><trkpt lat="45.81095" lon="8.3428"><ele>787.6666666666667</ele><time>2026-03-28T10:10:45.767Z</time></trkpt><trkpt lat="45.8110733" lon="8.3429617"><ele>789.3333333333334</ele><time>2026-03-28T10:10:46.766Z</time></trkpt><trkpt lat="45.8111917" lon="8.3431267"><ele>791.0</ele><time>2026-03-28T10:10:47.766Z</time></trkpt><trkpt lat="45.8113017" lon="8.343285"><ele>791.0</ele><time>2026-03-28T10:10:48.767Z</time></trkpt><trkpt lat="45.8114033" lon="8.3434367"><ele>791.0</ele><time>2026-03-28T10:10:49.765Z</time></trkpt><trkpt lat="45.8114967" lon="8.3435817"><ele>791.0</ele><time>2026-03-28T10:10:50.767Z</time></trkpt><trkpt lat="45.8115733" lon="8.34373"><ele>791.0</ele><time>2026-03-28T10:10:51.766Z</time></trkpt><trkpt lat="45.8116233" lon="8.3438833"><ele>787.75</ele><time>2026-03-28T10:10:52.766Z</time></trkpt><trkpt lat="45.8116367" lon="8.3440517"><ele>784.5</ele><time>2026-03-28T10:10:53.767Z</time></trkpt><trkpt lat="45.8116067" lon="8.34423"><ele>781.25</ele><time>2026-03-28T10:10:54.767Z</time></trkpt><trkpt lat="45.8115333" lon="8.344405"><ele>778.0</ele><time>2026-03-28T10:10:55.77Z</time></trkpt><trkpt lat="45.8114133" lon="8.3445767"><ele>781.0</ele><time>2026-03-28T10:10:56.767Z</time></trkpt><trkpt lat="45.8112567" lon="8.3447533"><ele>784.0</ele><time>2026-03-28T10:10:57.765Z</time></trkpt><trkpt lat="45.8110883" lon="8.3449233"><ele>787.0</ele><time>2026-03-28T10:10:58.767Z</time></trkpt><trkpt lat="45.8109233" lon="8.345085"><ele>776.6666666666666</ele><time>2026-03-28T10:10:59.767Z</time></trkpt><trkpt lat="45.810775" lon="8.34523"><ele>766.3333333333333</ele><time>2026-03-28T10:11:00.767Z</time></trkpt><trkpt lat="45.810655" lon="8.345365"><ele>756.0</ele><time>2026-03-28T10:11:01.767Z</time></trkpt><trkpt lat="45.810565" lon="8.3455017"><ele>758.5</ele><time>2026-03-28T10:11:02.764Z</time></trkpt><trkpt lat="45.810515" lon="8.3456583"><ele>761.0</ele><time>2026-03-28T10:11:03.765Z</time></trkpt><trkpt lat="45.8105" lon="8.3458433"><ele>763.5</ele><time>2026-03-28T10:11:04.768Z</time></trkpt><trkpt lat="45.8105333" lon="8.34604"><ele>766.0</ele><time>2026-03-28T10:11:05.768Z</time></trkpt><trkpt lat="45.8105967" lon="8.3462217"><ele>764.0</ele><time>2026-03-28T10:11:06.767Z</time></trkpt><trkpt lat="45.8106683" lon="8.3463917"><ele>762.0</ele><time>2026-03-28T10:11:07.767Z</time></trkpt><trkpt lat="45.8107217" lon="8.346565"><ele>760.0</ele><time>2026-03-28T10:11:08.768Z</time></trkpt><trkpt lat="45.810745" lon="8.3467583"><ele>758.0</ele><time>2026-03-28T10:11:09.764Z</time></trkpt><trkpt lat="45.8107417" lon="8.3469767"><ele>758.6666666666666</ele><time>2026-03-28T10:11:10.767Z</time></trkpt><trkpt lat="45.8106917" lon="8.3472167"><ele>759.3333333333334</ele><time>2026-03-28T10:11:11.77Z</time></trkpt><trkpt lat="45.8106317" lon="8.3474483"><ele>760.0</ele><time>2026-03-28T10:11:12.764Z</time></trkpt><trkpt lat="45.8105617" lon="8.3476617"><ele>760.0</ele><time>2026-03-28T10:11:13.765Z</time></trkpt><trkpt lat="45.8104833" lon="8.3478633"><ele>760.0</ele><time>2026-03-28T10:11:14.769Z</time></trkpt><trkpt lat="45.8103933" lon="8.3480383"><ele>760.0</ele><time>2026-03-28T10:11:15.768Z</time></trkpt><trkpt lat="45.8103183" lon="8.3482083"><ele>761.25</ele><time>2026-03-28T10:11:16.765Z</time></trkpt><trkpt lat="45.8102433" lon="8.3483683"><ele>762.5</ele><time>2026-03-28T10:11:17.764Z</time></trkpt><trkpt lat="45.8102017" lon="8.3485383"><ele>763.75</ele><time>2026-03-28T10:11:18.764Z</time></trkpt><trkpt lat="45.8102183" lon="8.3487033"><ele>765.0</ele><time>2026-03-28T10:11:19.765Z</time></trkpt><trkpt lat="45.8102783" lon="8.3488467"><ele>758.25</ele><time>2026-03-28T10:11:20.765Z</time></trkpt><trkpt lat="45.8103733" lon="8.34895"><ele>751.5</ele><time>2026-03-28T10:11:21.765Z</time></trkpt><trkpt lat="45.8105067" lon="8.3490217"><ele>744.75</ele><time>2026-03-28T10:11:22.766Z</time></trkpt><trkpt lat="45.81065" lon="8.349075"><ele>738.0</ele><time>2026-03-28T10:11:23.764Z</time></trkpt><trkpt lat="45.8107867" lon="8.3491267"><ele>738.0</ele><time>2026-03-28T10:11:24.765Z</time></trkpt><trkpt lat="45.81092" lon="8.3491817"><ele>738.0</ele><time>2026-03-28T10:11:25.769Z</time></trkpt><trkpt lat="45.811045" lon="8.3492417"><ele>738.0</ele><time>2026-03-28T10:11:26.766Z</time></trkpt><trkpt lat="45.8111567" lon="8.3493133"><ele>738.0</ele><time>2026-03-28T10:11:27.766Z</time></trkpt><trkpt lat="45.8112467" lon="8.3494033"><ele>739.0</ele><time>2026-03-28T10:11:28.768Z</time></trkpt><trkpt lat="45.8112983" lon="8.3495233"><ele>740.0</ele><time>2026-03-28T10:11:29.768Z</time></trkpt><trkpt lat="45.8113233" lon="8.3496667"><ele>741.0</ele><time>2026-03-28T10:11:30.765Z</time></trkpt><trkpt lat="45.811345" lon="8.3498333"><ele>742.0</ele><time>2026-03-28T10:11:31.766Z</time></trkpt><trkpt lat="45.81137" lon="8.35"><ele>743.0</ele><time>2026-03-28T10:11:32.764Z</time></trkpt><trkpt lat="45.8113967" lon="8.3501433"><ele>743.5999999999999</ele><time>2026-03-28T10:11:33.767Z</time></trkpt><trkpt lat="45.8114033" lon="8.35027"><ele>744.1999999999999</ele><time>2026-03-28T10:11:34.767Z</time></trkpt><trkpt lat="45.8113933" lon="8.350385"><ele>744.8</ele><time>2026-03-28T10:11:35.764Z</time></trkpt><trkpt lat="45.8113583" lon="8.3505033"><ele>745.4</ele><time>2026-03-28T10:11:36.769Z</time></trkpt><trkpt lat="45.81131" lon="8.3506133"><ele>746.0</ele><time>2026-03-28T10:11:37.765Z</time></trkpt><trkpt lat="45.8112017" lon="8.3507167"><ele>746.0</ele><time>2026-03-28T10:11:38.767Z</time></trkpt><trkpt lat="45.8110567" lon="8.3507933"><ele>746.0</ele><time>2026-03-28T10:11:39.767Z</time></trkpt><trkpt lat="45.81094" lon="8.3508667"><ele>746.0</ele><time>2026-03-28T10:11:40.768Z</time></trkpt><trkpt lat="45.810845" lon="8.3509433"><ele>746.0</ele><time>2026-03-28T10:11:41.767Z</time></trkpt><trkpt lat="45.81078" lon="8.351035"><ele>743.4</ele><time>2026-03-28T10:11:42.768Z</time></trkpt><trkpt lat="45.8107367" lon="8.351155"><ele>740.8</ele><time>2026-03-28T10:11:43.768Z</time></trkpt><trkpt lat="45.81073" lon="8.3512983"><ele>738.1999999999999</ele><time>2026-03-28T10:11:44.768Z</time></trkpt><trkpt lat="45.8107433" lon="8.3514467"><ele>735.5999999999999</ele><time>2026-03-28T10:11:45.767Z</time></trkpt><trkpt lat="45.8107483" lon="8.3515983"><ele>733.0</ele><time>2026-03-28T10:11:46.767Z</time></trkpt><trkpt lat="45.8107317" lon="8.351745"><ele>733.0</ele><time>2026-03-28T10:11:47.764Z</time></trkpt><trkpt lat="45.810695" lon="8.3518833"><ele>733.0</ele><time>2026-03-28T10:11:48.768Z</time></trkpt><trkpt lat="45.8106283" lon="8.3520133"><ele>733.0</ele><time>2026-03-28T10:11:49.767Z</time></trkpt><trkpt lat="45.810525" lon="8.3521383"><ele>733.0</ele><time>2026-03-28T10:11:50.767Z</time></trkpt><trkpt lat="45.8104183" lon="8.3522867"><ele>735.5</ele><time>2026-03-28T10:11:51.767Z</time></trkpt><trkpt lat="45.8103183" lon="8.35245"><ele>738.0</ele><time>2026-03-28T10:11:52.768Z</time></trkpt><trkpt lat="45.8102" lon="8.352595"><ele>740.5</ele><time>2026-03-28T10:11:53.764Z</time></trkpt><trkpt lat="45.8101" lon="8.35274"><ele>743.0</ele><time>2026-03-28T10:11:54.768Z</time></trkpt><trkpt lat="45.8099967" lon="8.3528717"><ele>734.75</ele><time>2026-03-28T10:11:55.765Z</time></trkpt><trkpt lat="45.8099183" lon="8.3530117"><ele>726.5</ele><time>2026-03-28T10:11:56.768Z</time></trkpt><trkpt lat="45.8098733" lon="8.3531933"><ele>718.25</ele><time>2026-03-28T10:11:57.767Z</time></trkpt><trkpt lat="45.80986" lon="8.3534233"><ele>710.0</ele><time>2026-03-28T10:11:58.767Z</time></trkpt><trkpt lat="45.8098483" lon="8.3536967"><ele>710.6666666666666</ele><time>2026-03-28T10:11:59.768Z</time></trkpt><trkpt lat="45.8098333" lon="8.3539833"><ele>711.3333333333334</ele><time>2026-03-28T10:12:00.768Z</time></trkpt><trkpt lat="45.8098167" lon="8.3542583"><ele>712.0</ele><time>2026-03-28T10:12:01.766Z</time></trkpt><trkpt lat="45.8098017" lon="8.354495"><ele>712.0</ele><time>2026-03-28T10:12:02.767Z</time></trkpt><trkpt lat="45.8097883" lon="8.3547033"><ele>712.0</ele><time>2026-03-28T10:12:03.766Z</time></trkpt><trkpt lat="45.8097617" lon="8.3549017"><ele>712.0</ele><time>2026-03-28T10:12:04.767Z</time></trkpt><trkpt lat="45.8097133" lon="8.3550883"><ele>712.0</ele><time>2026-03-28T10:12:05.767Z</time></trkpt><trkpt lat="45.809625" lon="8.3552667"><ele>712.25</ele><time>2026-03-28T10:12:06.768Z</time></trkpt><trkpt lat="45.809535" lon="8.355445"><ele>712.5</ele><time>2026-03-28T10:12:07.767Z</time></trkpt><trkpt lat="45.8094567" lon="8.3556033"><ele>712.75</ele><time>2026-03-28T10:12:08.768Z</time></trkpt><trkpt lat="45.80939" lon="8.3557433"><ele>713.0</ele><time>2026-03-28T10:12:09.767Z</time></trkpt><trkpt lat="45.8093383" lon="8.3558983"><ele>703.0</ele><time>2026-03-28T10:12:10.767Z</time></trkpt><trkpt lat="45.809315" lon="8.3560917"><ele>693.0</ele><time>2026-03-28T10:12:11.768Z</time></trkpt><trkpt lat="45.8093017" lon="8.3563133"><ele>683.0</ele><time>2026-03-28T10:12:12.77Z</time></trkpt><trkpt lat="45.809295" lon="8.3565367"><ele>673.0</ele><time>2026-03-28T10:12:13.769Z</time></trkpt><trkpt lat="45.8093" lon="8.35675"><ele>674.75</ele><time>2026-03-28T10:12:14.767Z</time></trkpt><trkpt lat="45.80933" lon="8.356955"><ele>676.5</ele><time>2026-03-28T10:12:15.768Z</time></trkpt><trkpt lat="45.80938" lon="8.3571483"><ele>678.25</ele><time>2026-03-28T10:12:16.768Z</time></trkpt><trkpt lat="45.809435" lon="8.3573067"><ele>680.0</ele><time>2026-03-28T10:12:17.768Z</time></trkpt><trkpt lat="45.8095033" lon="8.3574283"><ele>680.0</ele><time>2026-03-28T10:12:18.767Z</time></trkpt><trkpt lat="45.8096" lon="8.3575217"><ele>680.0</ele><time>2026-03-28T10:12:19.767Z</time></trkpt><trkpt lat="45.8097333" lon="8.3575917"><ele>680.0</ele><time>2026-03-28T10:12:20.768Z</time></trkpt><trkpt lat="45.8098833" lon="8.3576683"><ele>680.0</ele><time>2026-03-28T10:12:21.767Z</time></trkpt><trkpt lat="45.8100467" lon="8.3577517"><ele>683.0</ele><time>2026-03-28T10:12:22.768Z</time></trkpt><trkpt lat="45.8102317" lon="8.3578417"><ele>686.0</ele><time>2026-03-28T10:12:23.768Z</time></trkpt><trkpt lat="45.8104267" lon="8.3579283"><ele>689.0</ele><time>2026-03-28T10:12:24.764Z</time></trkpt><trkpt lat="45.8106067" lon="8.35801"><ele>677.0</ele><time>2026-03-28T10:12:25.767Z</time></trkpt><trkpt lat="45.8107683" lon="8.35808"><ele>665.0</ele><time>2026-03-28T10:12:26.767Z</time></trkpt><trkpt lat="45.8109133" lon="8.3581433"><ele>653.0</ele><time>2026-03-28T10:12:27.765Z</time></trkpt><trkpt lat="45.8110583" lon="8.35819"><ele>652.6666666666666</ele><time>2026-03-28T10:12:28.766Z</time></trkpt><trkpt lat="45.8112117" lon="8.3582083"><ele>652.3333333333334</ele><time>2026-03-28T10:12:29.766Z</time></trkpt><trkpt lat="45.8113683" lon="8.3582167"><ele>652.0</ele><time>2026-03-28T10:12:30.768Z</time></trkpt><trkpt lat="45.8115217" lon="8.3582217"><ele>652.0</ele><time>2026-03-28T10:12:31.765Z</time></trkpt><trkpt lat="45.8116683" lon="8.3582183"><ele>652.0</ele><time>2026-03-28T10:12:32.766Z</time></trkpt><trkpt lat="45.811805" lon="8.3582133"><ele>652.0</ele><time>2026-03-28T10:12:33.767Z</time></trkpt><trkpt lat="45.811925" lon="8.358205"><ele>652.0</ele><time>2026-03-28T10:12:34.767Z</time></trkpt><trkpt lat="45.812025" lon="8.35821"><ele>649.8333333333334</ele><time>2026-03-28T10:12:35.767Z</time></trkpt><trkpt lat="45.81211" lon="8.35825"><ele>647.6666666666667</ele><time>2026-03-28T10:12:36.767Z</time></trkpt><trkpt lat="45.8121717" lon="8.3583217"><ele>645.5</ele><time>2026-03-28T10:12:37.766Z</time></trkpt><trkpt lat="45.81222" lon="8.3584067"><ele>643.3333333333334</ele><time>2026-03-28T10:12:38.764Z</time></trkpt><trkpt lat="45.8122467" lon="8.35849"><ele>641.1666666666666</ele><time>2026-03-28T10:12:39.764Z</time></trkpt><trkpt lat="45.8122233" lon="8.3585867"><ele>639.0</ele><time>2026-03-28T10:12:40.768Z</time></trkpt><trkpt lat="45.81217" lon="8.3586667"><ele>639.0</ele><time>2026-03-28T10:12:41.764Z</time></trkpt><trkpt lat="45.8120967" lon="8.358735"><ele>639.0</ele><time>2026-03-28T10:12:42.767Z</time></trkpt><trkpt lat="45.812" lon="8.3587917"><ele>639.0</ele><time>2026-03-28T10:12:43.766Z</time></trkpt><trkpt lat="45.81183" lon="8.3587833"><ele>639.0</ele><time>2026-03-28T10:12:44.766Z</time></trkpt><trkpt lat="45.8115867" lon="8.358765"><ele>643.3333333333334</ele><time>2026-03-28T10:12:45.767Z</time></trkpt><trkpt lat="45.8113733" lon="8.358755"><ele>647.6666666666667</ele><time>2026-03-28T10:12:46.767Z</time></trkpt><trkpt lat="45.8111867" lon="8.3587533"><ele>652.0</ele><time>2026-03-28T10:12:47.766Z</time></trkpt><trkpt lat="45.81098" lon="8.358735"><ele>652.3333333333334</ele><time>2026-03-28T10:12:48.767Z</time></trkpt><trkpt lat="45.8107817" lon="8.3586883"><ele>652.6666666666666</ele><time>2026-03-28T10:12:49.767Z</time></trkpt><trkpt lat="45.8105783" lon="8.3586533"><ele>653.0</ele><time>2026-03-28T10:12:50.764Z</time></trkpt><trkpt lat="45.8103867" lon="8.3586317"><ele>653.0</ele><time>2026-03-28T10:12:51.764Z</time></trkpt><trkpt lat="45.8102067" lon="8.3586117"><ele>653.0</ele><time>2026-03-28T10:12:52.765Z</time></trkpt><trkpt lat="45.81005" lon="8.3586033"><ele>653.0</ele><time>2026-03-28T10:12:53.767Z</time></trkpt><trkpt lat="45.80991" lon="8.3585983"><ele>650.8</ele><time>2026-03-28T10:12:54.767Z</time></trkpt><trkpt lat="45.8097817" lon="8.3585933"><ele>648.5999999999999</ele><time>2026-03-28T10:12:55.768Z</time></trkpt><trkpt lat="45.8096683" lon="8.3585817"><ele>646.4000000000001</ele><time>2026-03-28T10:12:56.768Z</time></trkpt><trkpt lat="45.8095717" lon="8.3585583"><ele>644.2</ele><time>2026-03-28T10:12:57.768Z</time></trkpt><trkpt lat="45.80948" lon="8.358555"><ele>642.0</ele><time>2026-03-28T10:12:58.767Z</time></trkpt><trkpt lat="45.8093967" lon="8.3585767"><ele>642.0</ele><time>2026-03-28T10:12:59.764Z</time></trkpt><trkpt lat="45.8093283" lon="8.3586317"><ele>642.0</ele><time>2026-03-28T10:13:00.767Z</time></trkpt><trkpt lat="45.809275" lon="8.3587217"><ele>642.0</ele><time>2026-03-28T10:13:01.767Z</time></trkpt><trkpt lat="45.809255" lon="8.3588283"><ele>642.0</ele><time>2026-03-28T10:13:02.767Z</time></trkpt><trkpt lat="45.8092783" lon="8.3589483"><ele>642.0</ele><time>2026-03-28T10:13:03.767Z</time></trkpt><trkpt lat="45.8093483" lon="8.3590433"><ele>642.0</ele><time>2026-03-28T10:13:04.768Z</time></trkpt><trkpt lat="45.80944" lon="8.3591083"><ele>633.75</ele><time>2026-03-28T10:13:05.767Z</time></trkpt><trkpt lat="45.8095683" lon="8.3591267"><ele>625.5</ele><time>2026-03-28T10:13:06.764Z</time></trkpt><trkpt lat="45.8097083" lon="8.3591483"><ele>617.25</ele><time>2026-03-28T10:13:07.765Z</time></trkpt><trkpt lat="45.809865" lon="8.3592033"><ele>609.0</ele><time>2026-03-28T10:13:08.764Z</time></trkpt><trkpt lat="45.8100417" lon="8.3592717"><ele>611.6666666666666</ele><time>2026-03-28T10:13:09.767Z</time></trkpt><trkpt lat="45.8102267" lon="8.359355"><ele>614.3333333333333</ele><time>2026-03-28T10:13:10.768Z</time></trkpt><trkpt lat="45.8104133" lon="8.3594433"><ele>617.0</ele><time>2026-03-28T10:13:11.767Z</time></trkpt><trkpt lat="45.8105917" lon="8.3595317"><ele>617.0</ele><time>2026-03-28T10:13:12.767Z</time></trkpt><trkpt lat="45.8107533" lon="8.359625"><ele>617.0</ele><time>2026-03-28T10:13:13.767Z</time></trkpt><trkpt lat="45.8109033" lon="8.3597083"><ele>617.0</ele><time>2026-03-28T10:13:14.768Z</time></trkpt><trkpt lat="45.8110317" lon="8.3597883"><ele>610.5</ele><time>2026-03-28T10:13:15.768Z</time></trkpt><trkpt lat="45.8111483" lon="8.3598433"><ele>604.0</ele><time>2026-03-28T10:13:16.765Z</time></trkpt><trkpt lat="45.8112667" lon="8.35985"><ele>597.5</ele><time>2026-03-28T10:13:17.765Z</time></trkpt><trkpt lat="45.8114067" lon="8.3598183"><ele>591.0</ele><time>2026-03-28T10:13:18.765Z</time></trkpt><trkpt lat="45.8115433" lon="8.35978"><ele>591.0</ele><time>2026-03-28T10:13:19.767Z</time></trkpt><trkpt lat="45.8116833" lon="8.3597417"><ele>591.0</ele><time>2026-03-28T10:13:20.769Z</time></trkpt><trkpt lat="45.811815" lon="8.3597033"><ele>591.0</ele><time>2026-03-28T10:13:21.764Z</time></trkpt><trkpt lat="45.8119517" lon="8.3596783"><ele>591.0</ele><time>2026-03-28T10:13:22.766Z</time></trkpt><trkpt lat="45.8120833" lon="8.3597"><ele>590.5</ele><time>2026-03-28T10:13:23.767Z</time></trkpt><trkpt lat="45.81221" lon="8.3597367"><ele>590.0</ele><time>2026-03-28T10:13:24.767Z</time></trkpt><trkpt lat="45.812335" lon="8.35978"><ele>589.5</ele><time>2026-03-28T10:13:25.768Z</time></trkpt><trkpt lat="45.8124567" lon="8.3598317"><ele>589.0</ele><time>2026-03-28T10:13:26.766Z</time></trkpt><trkpt lat="45.812575" lon="8.3598917"><ele>590.75</ele><time>2026-03-28T10:13:27.766Z</time></trkpt><trkpt lat="45.8126917" lon="8.359965"><ele>592.5</ele><time>2026-03-28T10:13:28.768Z</time></trkpt><trkpt lat="45.8128117" lon="8.3600483"><ele>594.25</ele><time>2026-03-28T10:13:29.767Z</time></trkpt><trkpt lat="45.812935" lon="8.3601333"><ele>596.0</ele><time>2026-03-28T10:13:30.767Z</time></trkpt><trkpt lat="45.81306" lon="8.3602117"><ele>596.0</ele><time>2026-03-28T10:13:31.767Z</time></trkpt><trkpt lat="45.813175" lon="8.3602883"><ele>596.0</ele><time>2026-03-28T10:13:32.769Z</time></trkpt><trkpt lat="45.8132867" lon="8.3603583"><ele>596.0</ele><time>2026-03-28T10:13:33.767Z</time></trkpt><trkpt lat="45.8133783" lon="8.3604283"><ele>596.0</ele><time>2026-03-28T10:13:34.767Z</time></trkpt><trkpt lat="45.8134533" lon="8.360485"><ele>596.0</ele><time>2026-03-28T10:13:35.767Z</time></trkpt><trkpt lat="45.8135067" lon="8.3605433"><ele>594.4</ele><time>2026-03-28T10:13:36.767Z</time></trkpt><trkpt lat="45.8135733" lon="8.3606383"><ele>592.8</ele><time>2026-03-28T10:13:38.769Z</time></trkpt><trkpt lat="45.81363" lon="8.3607233"><ele>591.1999999999999</ele><time>2026-03-28T10:15:26.765Z</time></trkpt><trkpt lat="45.813705" lon="8.3607967"><ele>589.6</ele><time>2026-03-28T10:15:27.765Z</time></trkpt><trkpt lat="45.8138133" lon="8.360885"><ele>588.0</ele><time>2026-03-28T10:15:28.768Z</time></trkpt><trkpt lat="45.8139367" lon="8.3609883"><ele>588.0</ele><time>2026-03-28T10:15:29.769Z</time></trkpt><trkpt lat="45.8140817" lon="8.3610967"><ele>588.0</ele><time>2026-03-28T10:15:30.767Z</time></trkpt><trkpt lat="45.8142383" lon="8.36122"><ele>588.0</ele><time>2026-03-28T10:15:31.767Z</time></trkpt><trkpt lat="45.8144017" lon="8.3613417"><ele>584.6666666666666</ele><time>2026-03-28T10:15:32.767Z</time></trkpt><trkpt lat="45.81456" lon="8.361455"><ele>581.3333333333333</ele><time>2026-03-28T10:15:33.767Z</time></trkpt><trkpt lat="45.814705" lon="8.3615567"><ele>578.0</ele><time>2026-03-28T10:15:34.768Z</time></trkpt><trkpt lat="45.8148533" lon="8.3616283"><ele>578.0</ele><time>2026-03-28T10:15:35.765Z</time></trkpt><trkpt lat="45.8149883" lon="8.3616667"><ele>578.0</ele><time>2026-03-28T10:15:36.765Z</time></trkpt><trkpt lat="45.815105" lon="8.3616733"><ele>578.0</ele><time>2026-03-28T10:15:37.768Z</time></trkpt><trkpt lat="45.8151867" lon="8.3616833"><ele>578.0</ele><time>2026-03-28T10:15:38.767Z</time></trkpt><trkpt lat="45.8152783" lon="8.3617367"><ele>578.0</ele><time>2026-03-28T10:15:40.767Z</time></trkpt><trkpt lat="45.815165" lon="8.3618233"><ele>578.0</ele><time>2026-03-28T10:15:43.768Z</time></trkpt><trkpt lat="45.81506" lon="8.361805"><ele>578.0</ele><time>2026-03-28T10:15:44.767Z</time></trkpt><trkpt lat="45.814965" lon="8.361795"><ele>578.0</ele><time>2026-03-28T10:15:45.768Z</time></trkpt><trkpt lat="45.814825" lon="8.361755"><ele>578.0</ele><time>2026-03-28T10:15:46.767Z</time></trkpt><trkpt lat="45.8146233" lon="8.361685"><ele>578.0</ele><time>2026-03-28T10:15:47.764Z</time></trkpt><trkpt lat="45.8143983" lon="8.3616083"><ele>578.0</ele><time>2026-03-28T10:15:48.765Z</time></trkpt><trkpt lat="45.8142167" lon="8.3615483"><ele>578.0</ele><time>2026-03-28T10:15:49.765Z</time></trkpt><trkpt lat="45.8140467" lon="8.3614867"><ele>580.5</ele><time>2026-03-28T10:15:50.766Z</time></trkpt><trkpt lat="45.813895" lon="8.3614167"><ele>583.0</ele><time>2026-03-28T10:15:51.767Z</time></trkpt><trkpt lat="45.8137683" lon="8.3613383"><ele>585.5</ele><time>2026-03-28T10:15:52.766Z</time></trkpt><trkpt lat="45.8136617" lon="8.3612633"><ele>588.0</ele><time>2026-03-28T10:15:53.766Z</time></trkpt><trkpt lat="45.8135633" lon="8.36122"><ele>585.5</ele><time>2026-03-28T10:15:54.766Z</time></trkpt><trkpt lat="45.8134733" lon="8.3612217"><ele>583.0</ele><time>2026-03-28T10:15:55.768Z</time></trkpt><trkpt lat="45.8133933" lon="8.3612533"><ele>580.5</ele><time>2026-03-28T10:15:56.765Z</time></trkpt><trkpt lat="45.8133283" lon="8.3613217"><ele>578.0</ele><time>2026-03-28T10:15:57.765Z</time></trkpt><trkpt lat="45.8132883" lon="8.3614167"><ele>575.5</ele><time>2026-03-28T10:15:58.767Z</time></trkpt><trkpt lat="45.8132717" lon="8.3615533"><ele>573.0</ele><time>2026-03-28T10:15:59.765Z</time></trkpt><trkpt lat="45.81327" lon="8.3616917"><ele>569.8</ele><time>2026-03-28T10:16:00.765Z</time></trkpt><trkpt lat="45.8132767" lon="8.361845"><ele>566.5999999999999</ele><time>2026-03-28T10:16:01.766Z</time></trkpt><trkpt lat="45.8132917" lon="8.36199"><ele>563.4000000000001</ele><time>2026-03-28T10:16:02.767Z</time></trkpt><trkpt lat="45.8133367" lon="8.362115"><ele>560.2</ele><time>2026-03-28T10:16:03.767Z</time></trkpt><trkpt lat="45.8134167" lon="8.36222"><ele>557.0</ele><time>2026-03-28T10:16:04.767Z</time></trkpt><trkpt lat="45.8135383" lon="8.362305"><ele>553.6666666666666</ele><time>2026-03-28T10:16:05.767Z</time></trkpt><trkpt lat="45.8136883" lon="8.3623783"><ele>550.3333333333334</ele><time>2026-03-28T10:16:06.767Z</time></trkpt><trkpt lat="45.8138717" lon="8.3624417"><ele>547.0</ele><time>2026-03-28T10:16:07.767Z</time></trkpt><trkpt lat="45.814075" lon="8.3624983"><ele>547.0</ele><time>2026-03-28T10:16:08.767Z</time></trkpt><trkpt lat="45.814285" lon="8.3625367"><ele>547.0</ele><time>2026-03-28T10:16:09.765Z</time></trkpt><trkpt lat="45.8144783" lon="8.3625617"><ele>547.0</ele><time>2026-03-28T10:16:10.768Z</time></trkpt><trkpt lat="45.81466" lon="8.36258"><ele>547.0</ele><time>2026-03-28T10:16:11.769Z</time></trkpt><trkpt lat="45.8148267" lon="8.3625867"><ele>547.0</ele><time>2026-03-28T10:16:12.767Z</time></trkpt><trkpt lat="45.8150033" lon="8.3625767"><ele>547.0</ele><time>2026-03-28T10:16:13.767Z</time></trkpt><trkpt lat="45.815185" lon="8.3625417"><ele>541.6666666666667</ele><time>2026-03-28T10:16:14.767Z</time></trkpt><trkpt lat="45.8153633" lon="8.36248"><ele>536.3333333333334</ele><time>2026-03-28T10:16:15.764Z</time></trkpt><trkpt lat="45.8155317" lon="8.362395"><ele>531.0</ele><time>2026-03-28T10:16:16.768Z</time></trkpt><trkpt lat="45.8156817" lon="8.36229"><ele>536.25</ele><time>2026-03-28T10:16:17.765Z</time></trkpt><trkpt lat="45.815815" lon="8.362185"><ele>541.5</ele><time>2026-03-28T10:16:18.764Z</time></trkpt><trkpt lat="45.8159233" lon="8.36207"><ele>546.75</ele><time>2026-03-28T10:16:19.765Z</time></trkpt><trkpt lat="45.8160183" lon="8.3619533"><ele>552.0</ele><time>2026-03-28T10:16:20.766Z</time></trkpt><trkpt lat="45.8160967" lon="8.361855"><ele>552.0</ele><time>2026-03-28T10:16:21.765Z</time></trkpt><trkpt lat="45.816165" lon="8.3617667"><ele>552.0</ele><time>2026-03-28T10:16:22.765Z</time></trkpt><trkpt lat="45.8162317" lon="8.361695"><ele>552.0</ele><time>2026-03-28T10:16:23.766Z</time></trkpt><trkpt lat="45.8163083" lon="8.3616617"><ele>552.0</ele><time>2026-03-28T10:16:24.765Z</time></trkpt><trkpt lat="45.8164" lon="8.3616783"><ele>552.0</ele><time>2026-03-28T10:16:25.767Z</time></trkpt><trkpt lat="45.81649" lon="8.36171"><ele>552.0</ele><time>2026-03-28T10:16:26.765Z</time></trkpt><trkpt lat="45.8165917" lon="8.3617633"><ele>552.0</ele><time>2026-03-28T10:16:27.765Z</time></trkpt><trkpt lat="45.8166817" lon="8.36188"><ele>552.0</ele><time>2026-03-28T10:16:28.766Z</time></trkpt><trkpt lat="45.8167217" lon="8.362115"><ele>552.0</ele><time>2026-03-28T10:16:29.767Z</time></trkpt><trkpt lat="45.8167433" lon="8.3623183"><ele>552.0</ele><time>2026-03-28T10:16:30.767Z</time></trkpt><trkpt lat="45.8167433" lon="8.362545"><ele>546.5</ele><time>2026-03-28T10:16:31.766Z</time></trkpt><trkpt lat="45.8167467" lon="8.36273"><ele>541.0</ele><time>2026-03-28T10:16:32.765Z</time></trkpt><trkpt lat="45.8167" lon="8.3629117"><ele>535.5</ele><time>2026-03-28T10:16:33.765Z</time></trkpt><trkpt lat="45.816625" lon="8.3630967"><ele>530.0</ele><time>2026-03-28T10:16:34.768Z</time></trkpt><trkpt lat="45.8165483" lon="8.363245"><ele>528.4</ele><time>2026-03-28T10:16:35.767Z</time></trkpt><trkpt lat="45.81647" lon="8.3633867"><ele>526.8</ele><time>2026-03-28T10:16:36.767Z</time></trkpt><trkpt lat="45.8163983" lon="8.363505"><ele>525.2</ele><time>2026-03-28T10:16:37.767Z</time></trkpt><trkpt lat="45.816335" lon="8.3636167"><ele>523.6</ele><time>2026-03-28T10:16:38.765Z</time></trkpt><trkpt lat="45.8162967" lon="8.3637317"><ele>522.0</ele><time>2026-03-28T10:16:39.768Z</time></trkpt><trkpt lat="45.8162867" lon="8.3638567"><ele>520.4</ele><time>2026-03-28T10:16:40.767Z</time></trkpt><trkpt lat="45.8163067" lon="8.3639867"><ele>518.8000000000001</ele><time>2026-03-28T10:16:41.767Z</time></trkpt><trkpt lat="45.8163617" lon="8.3641083"><ele>517.2</ele><time>2026-03-28T10:16:42.767Z</time></trkpt><trkpt lat="45.816435" lon="8.3642183"><ele>515.6</ele><time>2026-03-28T10:16:43.767Z</time></trkpt><trkpt lat="45.8165083" lon="8.3643217"><ele>514.0</ele><time>2026-03-28T10:16:44.768Z</time></trkpt><trkpt lat="45.8165667" lon="8.3644067"><ele>514.0</ele><time>2026-03-28T10:16:45.768Z</time></trkpt><trkpt lat="45.8166283" lon="8.36447"><ele>514.0</ele><time>2026-03-28T10:16:46.765Z</time></trkpt><trkpt lat="45.8166933" lon="8.3645117"><ele>514.0</ele><time>2026-03-28T10:16:47.765Z</time></trkpt><trkpt lat="45.8167583" lon="8.3645317"><ele>514.0</ele><time>2026-03-28T10:16:48.765Z</time></trkpt><trkpt lat="45.8168217" lon="8.3645333"><ele>514.0</ele><time>2026-03-28T10:16:49.765Z</time></trkpt><trkpt lat="45.8169033" lon="8.364505"><ele>514.0</ele><time>2026-03-28T10:16:50.766Z</time></trkpt><trkpt lat="45.817005" lon="8.3644267"><ele>509.6666666666667</ele><time>2026-03-28T10:16:51.766Z</time></trkpt><trkpt lat="45.8171183" lon="8.3643267"><ele>505.33333333333337</ele><time>2026-03-28T10:16:52.766Z</time></trkpt><trkpt lat="45.8172517" lon="8.3641767"><ele>501.0</ele><time>2026-03-28T10:16:53.765Z</time></trkpt><trkpt lat="45.817375" lon="8.36402"><ele>505.75</ele><time>2026-03-28T10:16:54.765Z</time></trkpt><trkpt lat="45.8174533" lon="8.3638633"><ele>510.5</ele><time>2026-03-28T10:16:55.766Z</time></trkpt><trkpt lat="45.8175183" lon="8.3637"><ele>515.25</ele><time>2026-03-28T10:16:56.767Z</time></trkpt><trkpt lat="45.81758" lon="8.3635433"><ele>520.0</ele><time>2026-03-28T10:16:57.766Z</time></trkpt><trkpt lat="45.817645" lon="8.3633983"><ele>516.6666666666667</ele><time>2026-03-28T10:16:58.768Z</time></trkpt><trkpt lat="45.8177067" lon="8.3632717"><ele>513.3333333333334</ele><time>2026-03-28T10:16:59.764Z</time></trkpt><trkpt lat="45.8177633" lon="8.3631733"><ele>510.0</ele><time>2026-03-28T10:17:00.765Z</time></trkpt><trkpt lat="45.817825" lon="8.3630933"><ele>506.66666666666663</ele><time>2026-03-28T10:17:01.766Z</time></trkpt><trkpt lat="45.8178883" lon="8.3630433"><ele>503.3333333333333</ele><time>2026-03-28T10:17:02.766Z</time></trkpt><trkpt lat="45.8179633" lon="8.3630317"><ele>500.0</ele><time>2026-03-28T10:17:03.767Z</time></trkpt><trkpt lat="45.81805" lon="8.3630783"><ele>500.0</ele><time>2026-03-28T10:17:04.765Z</time></trkpt><trkpt lat="45.8181583" lon="8.3631617"><ele>500.0</ele><time>2026-03-28T10:17:05.766Z</time></trkpt><trkpt lat="45.8182717" lon="8.3632433"><ele>500.0</ele><time>2026-03-28T10:17:06.767Z</time></trkpt><trkpt lat="45.8183867" lon="8.3632633"><ele>500.0</ele><time>2026-03-28T10:17:07.768Z</time></trkpt><trkpt lat="45.8185083" lon="8.3632567"><ele>493.5</ele><time>2026-03-28T10:17:08.765Z</time></trkpt><trkpt lat="45.8186333" lon="8.363245"><ele>487.0</ele><time>2026-03-28T10:17:09.768Z</time></trkpt><trkpt lat="45.8187667" lon="8.3632383"><ele>480.5</ele><time>2026-03-28T10:17:10.766Z</time></trkpt><trkpt lat="45.818895" lon="8.3632233"><ele>474.0</ele><time>2026-03-28T10:17:11.765Z</time></trkpt><trkpt lat="45.8190183" lon="8.363185"><ele>474.0</ele><time>2026-03-28T10:17:12.765Z</time></trkpt><trkpt lat="45.8191367" lon="8.36312"><ele>474.0</ele><time>2026-03-28T10:17:13.766Z</time></trkpt><trkpt lat="45.8192583" lon="8.3630067"><ele>474.0</ele><time>2026-03-28T10:17:14.766Z</time></trkpt><trkpt lat="45.8193983" lon="8.3628483"><ele>475.66666666666663</ele><time>2026-03-28T10:17:15.765Z</time></trkpt><trkpt lat="45.819555" lon="8.3626733"><ele>477.3333333333333</ele><time>2026-03-28T10:17:16.765Z</time></trkpt><trkpt lat="45.8197483" lon="8.362505"><ele>479.0</ele><time>2026-03-28T10:17:17.765Z</time></trkpt><trkpt lat="45.8199617" lon="8.3623383"><ele>480.0</ele><time>2026-03-28T10:17:18.766Z</time></trkpt><trkpt lat="45.8201767" lon="8.3621733"><ele>481.0</ele><time>2026-03-28T10:17:19.765Z</time></trkpt><trkpt lat="45.8203767" lon="8.362025"><ele>481.0</ele><time>2026-03-28T10:17:20.765Z</time></trkpt><trkpt lat="45.82057" lon="8.361915"><ele>481.0</ele><time>2026-03-28T10:17:21.767Z</time></trkpt><trkpt lat="45.8207733" lon="8.3618317"><ele>481.0</ele><time>2026-03-28T10:17:22.765Z</time></trkpt><trkpt lat="45.8209833" lon="8.3617883"><ele>479.0</ele><time>2026-03-28T10:17:23.767Z</time></trkpt><trkpt lat="45.82118" lon="8.36178"><ele>477.0</ele><time>2026-03-28T10:17:24.767Z</time></trkpt><trkpt lat="45.8213517" lon="8.3617867"><ele>475.0</ele><time>2026-03-28T10:17:25.769Z</time></trkpt><trkpt lat="45.821505" lon="8.36182"><ele>475.0</ele><time>2026-03-28T10:17:26.767Z</time></trkpt><trkpt lat="45.821655" lon="8.3618917"><ele>475.0</ele><time>2026-03-28T10:17:27.764Z</time></trkpt><trkpt lat="45.8218067" lon="8.3619833"><ele>475.0</ele><time>2026-03-28T10:17:28.767Z</time></trkpt><trkpt lat="45.8219617" lon="8.3620983"><ele>471.33333333333337</ele><time>2026-03-28T10:17:29.767Z</time></trkpt><trkpt lat="45.8221167" lon="8.3621983"><ele>467.66666666666663</ele><time>2026-03-28T10:17:30.768Z</time></trkpt><trkpt lat="45.8222783" lon="8.362275"><ele>464.0</ele><time>2026-03-28T10:17:31.768Z</time></trkpt><trkpt lat="45.8224417" lon="8.3623233"><ele>464.0</ele><time>2026-03-28T10:17:32.764Z</time></trkpt><trkpt lat="45.8225933" lon="8.36236"><ele>464.0</ele><time>2026-03-28T10:17:33.768Z</time></trkpt><trkpt lat="45.8227183" lon="8.362385"><ele>464.0</ele><time>2026-03-28T10:17:34.769Z</time></trkpt><trkpt lat="45.8228267" lon="8.3624233"><ele>464.0</ele><time>2026-03-28T10:17:35.767Z</time></trkpt><trkpt lat="45.822915" lon="8.3624867"><ele>465.0</ele><time>2026-03-28T10:17:36.767Z</time></trkpt><trkpt lat="45.8229783" lon="8.3625767"><ele>466.0</ele><time>2026-03-28T10:17:37.767Z</time></trkpt><trkpt lat="45.8230267" lon="8.3626633"><ele>467.0</ele><time>2026-03-28T10:17:38.767Z</time></trkpt><trkpt lat="45.82307" lon="8.3627417"><ele>468.0</ele><time>2026-03-28T10:17:39.766Z</time></trkpt><trkpt lat="45.8230433" lon="8.362925"><ele>469.0</ele><time>2026-03-28T10:17:41.767Z</time></trkpt><trkpt lat="45.8229733" lon="8.3630133"><ele>470.75</ele><time>2026-03-28T10:17:42.765Z</time></trkpt><trkpt lat="45.8228633" lon="8.3630683"><ele>472.5</ele><time>2026-03-28T10:17:43.766Z</time></trkpt><trkpt lat="45.8227283" lon="8.36308"><ele>474.25</ele><time>2026-03-28T10:17:44.767Z</time></trkpt><trkpt lat="45.8225667" lon="8.3630633"><ele>476.0</ele><time>2026-03-28T10:17:45.766Z</time></trkpt><trkpt lat="45.8224083" lon="8.3630317"><ele>472.0</ele><time>2026-03-28T10:17:46.766Z</time></trkpt><trkpt lat="45.822215" lon="8.36295"><ele>468.0</ele><time>2026-03-28T10:17:47.767Z</time></trkpt><trkpt lat="45.8220383" lon="8.36291"><ele>464.0</ele><time>2026-03-28T10:17:48.765Z</time></trkpt><trkpt lat="45.8218733" lon="8.362935"><ele>467.3333333333333</ele><time>2026-03-28T10:17:49.765Z</time></trkpt><trkpt lat="45.8217167" lon="8.3630317"><ele>470.66666666666663</ele><time>2026-03-28T10:17:50.765Z</time></trkpt><trkpt lat="45.821555" lon="8.3632083"><ele>474.0</ele><time>2026-03-28T10:17:51.765Z</time></trkpt><trkpt lat="45.8213967" lon="8.3634133"><ele>474.0</ele><time>2026-03-28T10:17:52.765Z</time></trkpt><trkpt lat="45.82124" lon="8.3636567"><ele>474.0</ele><time>2026-03-28T10:17:53.767Z</time></trkpt><trkpt lat="45.8210867" lon="8.36393"><ele>469.0</ele><time>2026-03-28T10:17:54.766Z</time></trkpt><trkpt lat="45.8209067" lon="8.3642"><ele>464.0</ele><time>2026-03-28T10:17:55.765Z</time></trkpt><trkpt lat="45.8207033" lon="8.3644317"><ele>464.0</ele><time>2026-03-28T10:17:56.766Z</time></trkpt><trkpt lat="45.8204767" lon="8.3646517"><ele>464.0</ele><time>2026-03-28T10:17:57.766Z</time></trkpt><trkpt lat="45.8202267" lon="8.3648617"><ele>460.0</ele><time>2026-03-28T10:17:58.766Z</time></trkpt><trkpt lat="45.8200033" lon="8.3650717"><ele>456.0</ele><time>2026-03-28T10:17:59.765Z</time></trkpt><trkpt lat="45.81979" lon="8.3652817"><ele>456.0</ele><time>2026-03-28T10:18:00.765Z</time></trkpt><trkpt lat="45.8195867" lon="8.3654983"><ele>456.0</ele><time>2026-03-28T10:18:01.765Z</time></trkpt><trkpt lat="45.819395" lon="8.3657067"><ele>456.66666666666663</ele><time>2026-03-28T10:18:02.765Z</time></trkpt><trkpt lat="45.8192133" lon="8.3658967"><ele>457.3333333333333</ele><time>2026-03-28T10:18:03.765Z</time></trkpt><trkpt lat="45.8190433" lon="8.3660667"><ele>458.0</ele><time>2026-03-28T10:18:04.765Z</time></trkpt><trkpt lat="45.8188817" lon="8.366225"><ele>457.0</ele><time>2026-03-28T10:18:05.766Z</time></trkpt><trkpt lat="45.8187267" lon="8.366385"><ele>456.0</ele><time>2026-03-28T10:18:06.766Z</time></trkpt><trkpt lat="45.8185833" lon="8.3665467"><ele>455.0</ele><time>2026-03-28T10:18:07.768Z</time></trkpt><trkpt lat="45.8184583" lon="8.3667433"><ele>455.0</ele><time>2026-03-28T10:18:08.768Z</time></trkpt><trkpt lat="45.81834" lon="8.3669983"><ele>455.0</ele><time>2026-03-28T10:18:09.767Z</time></trkpt><trkpt lat="45.8182033" lon="8.3672633"><ele>455.0</ele><time>2026-03-28T10:18:10.768Z</time></trkpt><trkpt lat="45.8180417" lon="8.3675133"><ele>459.5</ele><time>2026-03-28T10:18:11.767Z</time></trkpt><trkpt lat="45.8178667" lon="8.3677483"><ele>464.0</ele><time>2026-03-28T10:18:12.767Z</time></trkpt><trkpt lat="45.8177017" lon="8.3679717"><ele>461.3333333333333</ele><time>2026-03-28T10:18:13.768Z</time></trkpt><trkpt lat="45.8175317" lon="8.36817"><ele>458.66666666666663</ele><time>2026-03-28T10:18:14.764Z</time></trkpt><trkpt lat="45.8173533" lon="8.3683383"><ele>456.0</ele><time>2026-03-28T10:18:15.769Z</time></trkpt><trkpt lat="45.81717" lon="8.3684967"><ele>456.0</ele><time>2026-03-28T10:18:16.765Z</time></trkpt><trkpt lat="45.81698" lon="8.3686233"><ele>456.0</ele><time>2026-03-28T10:18:17.765Z</time></trkpt><trkpt lat="45.8168017" lon="8.3687117"><ele>456.0</ele><time>2026-03-28T10:18:18.766Z</time></trkpt><trkpt lat="45.81662" lon="8.368735"><ele>451.33333333333337</ele><time>2026-03-28T10:18:19.766Z</time></trkpt><trkpt lat="45.816445" lon="8.3686967"><ele>446.6666666666667</ele><time>2026-03-28T10:18:20.766Z</time></trkpt><trkpt lat="45.8162783" lon="8.3685983"><ele>442.0</ele><time>2026-03-28T10:18:21.765Z</time></trkpt><trkpt lat="45.81612" lon="8.368445"><ele>443.6666666666667</ele><time>2026-03-28T10:18:22.766Z</time></trkpt><trkpt lat="45.8159683" lon="8.3682517"><ele>445.33333333333337</ele><time>2026-03-28T10:18:23.765Z</time></trkpt><trkpt lat="45.8158117" lon="8.3680333"><ele>447.0</ele><time>2026-03-28T10:18:24.765Z</time></trkpt><trkpt lat="45.8156533" lon="8.3678133"><ele>447.33333333333337</ele><time>2026-03-28T10:18:25.765Z</time></trkpt><trkpt lat="45.8154983" lon="8.3675967"><ele>447.6666666666667</ele><time>2026-03-28T10:18:26.765Z</time></trkpt><trkpt lat="45.8153467" lon="8.3673717"><ele>448.0</ele><time>2026-03-28T10:18:27.768Z</time></trkpt><trkpt lat="45.815195" lon="8.3671567"><ele>446.0</ele><time>2026-03-28T10:18:28.767Z</time></trkpt><trkpt lat="45.81505" lon="8.366955"><ele>444.0</ele><time>2026-03-28T10:18:29.767Z</time></trkpt><trkpt lat="45.81491" lon="8.3667717"><ele>442.0</ele><time>2026-03-28T10:18:30.767Z</time></trkpt><trkpt lat="45.8147733" lon="8.366605"><ele>442.0</ele><time>2026-03-28T10:18:31.767Z</time></trkpt><trkpt lat="45.81464" lon="8.366455"><ele>442.0</ele><time>2026-03-28T10:18:32.769Z</time></trkpt><trkpt lat="45.8144967" lon="8.3663383"><ele>442.0</ele><time>2026-03-28T10:18:33.767Z</time></trkpt><trkpt lat="45.814335" lon="8.366245"><ele>441.0</ele><time>2026-03-28T10:18:34.765Z</time></trkpt><trkpt lat="45.814165" lon="8.3661483"><ele>440.0</ele><time>2026-03-28T10:18:35.767Z</time></trkpt><trkpt lat="45.8139867" lon="8.3660517"><ele>439.0</ele><time>2026-03-28T10:18:36.768Z</time></trkpt><trkpt lat="45.813805" lon="8.36595"><ele>439.0</ele><time>2026-03-28T10:18:37.767Z</time></trkpt><trkpt lat="45.8136217" lon="8.3658467"><ele>439.0</ele><time>2026-03-28T10:18:38.765Z</time></trkpt><trkpt lat="45.8134267" lon="8.365745"><ele>439.0</ele><time>2026-03-28T10:18:39.766Z</time></trkpt><trkpt lat="45.8132217" lon="8.365635"><ele>445.0</ele><time>2026-03-28T10:18:40.765Z</time></trkpt><trkpt lat="45.8130033" lon="8.36552"><ele>451.0</ele><time>2026-03-28T10:18:41.765Z</time></trkpt><trkpt lat="45.8127783" lon="8.3653983"><ele>442.5</ele><time>2026-03-28T10:18:42.765Z</time></trkpt><trkpt lat="45.8125417" lon="8.3652733"><ele>434.0</ele><time>2026-03-28T10:18:43.765Z</time></trkpt><trkpt lat="45.8123083" lon="8.3651483"><ele>434.0</ele><time>2026-03-28T10:18:44.765Z</time></trkpt><trkpt lat="45.8120733" lon="8.3650283"><ele>434.0</ele><time>2026-03-28T10:18:45.765Z</time></trkpt><trkpt lat="45.81185" lon="8.3649167"><ele>433.66666666666663</ele><time>2026-03-28T10:18:46.769Z</time></trkpt><trkpt lat="45.8116417" lon="8.36481"><ele>433.33333333333337</ele><time>2026-03-28T10:18:47.764Z</time></trkpt><trkpt lat="45.8114533" lon="8.3647117"><ele>433.0</ele><time>2026-03-28T10:18:48.765Z</time></trkpt><trkpt lat="45.8112883" lon="8.3646217"><ele>431.75</ele><time>2026-03-28T10:18:49.765Z</time></trkpt><trkpt lat="45.8111417" lon="8.3645383"><ele>430.5</ele><time>2026-03-28T10:18:50.765Z</time></trkpt><trkpt lat="45.8110033" lon="8.3644833"><ele>429.25</ele><time>2026-03-28T10:18:51.768Z</time></trkpt><trkpt lat="45.810875" lon="8.3644717"><ele>428.0</ele><time>2026-03-28T10:18:52.765Z</time></trkpt><trkpt lat="45.810755" lon="8.3645283"><ele>427.3333333333333</ele><time>2026-03-28T10:18:53.767Z</time></trkpt><trkpt lat="45.810645" lon="8.3646617"><ele>426.66666666666663</ele><time>2026-03-28T10:18:54.764Z</time></trkpt><trkpt lat="45.8105583" lon="8.3648667"><ele>426.0</ele><time>2026-03-28T10:18:55.765Z</time></trkpt><trkpt lat="45.8104867" lon="8.3651417"><ele>432.5</ele><time>2026-03-28T10:18:56.765Z</time></trkpt><trkpt lat="45.810395" lon="8.3654433"><ele>439.0</ele><time>2026-03-28T10:18:57.767Z</time></trkpt><trkpt lat="45.8102783" lon="8.3657533"><ele>438.5</ele><time>2026-03-28T10:18:58.765Z</time></trkpt><trkpt lat="45.8101367" lon="8.3660683"><ele>438.0</ele><time>2026-03-28T10:18:59.767Z</time></trkpt><trkpt lat="45.80998" lon="8.3663833"><ele>438.0</ele><time>2026-03-28T10:19:00.768Z</time></trkpt><trkpt lat="45.80982" lon="8.3667217"><ele>438.0</ele><time>2026-03-28T10:19:01.768Z</time></trkpt><trkpt lat="45.80967" lon="8.36707"><ele>444.0</ele><time>2026-03-28T10:19:02.768Z</time></trkpt><trkpt lat="45.80954" lon="8.3674017"><ele>450.0</ele><time>2026-03-28T10:19:03.767Z</time></trkpt><trkpt lat="45.8094317" lon="8.367685"><ele>450.0</ele><time>2026-03-28T10:19:04.768Z</time></trkpt><trkpt lat="45.8093467" lon="8.36792"><ele>450.0</ele><time>2026-03-28T10:19:05.767Z</time></trkpt><trkpt lat="45.809255" lon="8.368125"><ele>450.0</ele><time>2026-03-28T10:19:06.768Z</time></trkpt><trkpt lat="45.8091583" lon="8.36831"><ele>452.0</ele><time>2026-03-28T10:19:07.768Z</time></trkpt><trkpt lat="45.809045" lon="8.3684567"><ele>454.0</ele><time>2026-03-28T10:19:08.765Z</time></trkpt><trkpt lat="45.808935" lon="8.36859"><ele>456.0</ele><time>2026-03-28T10:19:09.768Z</time></trkpt><trkpt lat="45.80884" lon="8.3687617"><ele>458.0</ele><time>2026-03-28T10:19:10.767Z</time></trkpt><trkpt lat="45.8087633" lon="8.368985"><ele>458.0</ele><time>2026-03-28T10:19:11.767Z</time></trkpt><trkpt lat="45.8086983" lon="8.3692217"><ele>458.0</ele><time>2026-03-28T10:19:12.766Z</time></trkpt><trkpt lat="45.808615" lon="8.3694383"><ele>458.0</ele><time>2026-03-28T10:19:13.768Z</time></trkpt><trkpt lat="45.80851" lon="8.36963"><ele>451.3333333333333</ele><time>2026-03-28T10:19:14.767Z</time></trkpt><trkpt lat="45.80838" lon="8.3697767"><ele>444.66666666666663</ele><time>2026-03-28T10:19:15.767Z</time></trkpt><trkpt lat="45.808235" lon="8.3698867"><ele>438.0</ele><time>2026-03-28T10:19:16.767Z</time></trkpt><trkpt lat="45.8080967" lon="8.3699833"><ele>438.0</ele><time>2026-03-28T10:19:17.767Z</time></trkpt><trkpt lat="45.8079567" lon="8.370105"><ele>438.0</ele><time>2026-03-28T10:19:18.767Z</time></trkpt><trkpt lat="45.8078233" lon="8.37029"><ele>438.0</ele><time>2026-03-28T10:19:19.767Z</time></trkpt><trkpt lat="45.8076983" lon="8.3705317"><ele>426.5</ele><time>2026-03-28T10:19:20.767Z</time></trkpt><trkpt lat="45.8075617" lon="8.3708083"><ele>415.0</ele><time>2026-03-28T10:19:21.768Z</time></trkpt><trkpt lat="45.8074233" lon="8.3710867"><ele>419.33333333333337</ele><time>2026-03-28T10:19:22.764Z</time></trkpt><trkpt lat="45.807305" lon="8.3713733"><ele>423.66666666666663</ele><time>2026-03-28T10:19:23.768Z</time></trkpt><trkpt lat="45.8072067" lon="8.371635"><ele>428.0</ele><time>2026-03-28T10:19:24.765Z</time></trkpt><trkpt lat="45.807155" lon="8.3718983"><ele>428.0</ele><time>2026-03-28T10:19:25.768Z</time></trkpt><trkpt lat="45.8071233" lon="8.3721583"><ele>428.0</ele><time>2026-03-28T10:19:26.767Z</time></trkpt><trkpt lat="45.8071133" lon="8.37242"><ele>428.0</ele><time>2026-03-28T10:19:27.768Z</time></trkpt><trkpt lat="45.8070867" lon="8.37268"><ele>434.66666666666663</ele><time>2026-03-28T10:19:28.77Z</time></trkpt><trkpt lat="45.807025" lon="8.3729367"><ele>441.33333333333337</ele><time>2026-03-28T10:19:29.764Z</time></trkpt><trkpt lat="45.806935" lon="8.3731867"><ele>448.0</ele><time>2026-03-28T10:19:30.769Z</time></trkpt><trkpt lat="45.806835" lon="8.373455"><ele>429.5</ele><time>2026-03-28T10:19:31.768Z</time></trkpt><trkpt lat="45.8067467" lon="8.3737533"><ele>411.0</ele><time>2026-03-28T10:19:32.768Z</time></trkpt><trkpt lat="45.80668" lon="8.3740633"><ele>411.0</ele><time>2026-03-28T10:19:33.767Z</time></trkpt><trkpt lat="45.8066333" lon="8.3743567"><ele>411.0</ele><time>2026-03-28T10:19:34.766Z</time></trkpt><trkpt lat="45.80659" lon="8.37465"><ele>411.0</ele><time>2026-03-28T10:19:35.767Z</time></trkpt><trkpt lat="45.8065167" lon="8.3749333"><ele>414.66666666666663</ele><time>2026-03-28T10:19:36.767Z</time></trkpt><trkpt lat="45.8064217" lon="8.375185"><ele>418.3333333333333</ele><time>2026-03-28T10:19:37.768Z</time></trkpt><trkpt lat="45.8063233" lon="8.3754067"><ele>422.0</ele><time>2026-03-28T10:19:38.767Z</time></trkpt><trkpt lat="45.8061917" lon="8.3755867"><ele>426.3333333333333</ele><time>2026-03-28T10:19:39.767Z</time></trkpt><trkpt lat="45.8060317" lon="8.375755"><ele>430.66666666666663</ele><time>2026-03-28T10:19:40.765Z</time></trkpt><trkpt lat="45.8058717" lon="8.375905"><ele>435.0</ele><time>2026-03-28T10:19:41.768Z</time></trkpt><trkpt lat="45.8057367" lon="8.3760767"><ele>431.33333333333337</ele><time>2026-03-28T10:19:42.767Z</time></trkpt><trkpt lat="45.80563" lon="8.3762633"><ele>427.6666666666667</ele><time>2026-03-28T10:19:43.768Z</time></trkpt><trkpt lat="45.805535" lon="8.3764483"><ele>424.0</ele><time>2026-03-28T10:19:44.764Z</time></trkpt><trkpt lat="45.80545" lon="8.3766083"><ele>424.0</ele><time>2026-03-28T10:19:45.768Z</time></trkpt><trkpt lat="45.805345" lon="8.376725"><ele>424.0</ele><time>2026-03-28T10:19:46.765Z</time></trkpt><trkpt lat="45.80523" lon="8.37681"><ele>424.0</ele><time>2026-03-28T10:19:47.766Z</time></trkpt><trkpt lat="45.805095" lon="8.3768233"><ele>424.0</ele><time>2026-03-28T10:19:48.766Z</time></trkpt><trkpt lat="45.8049617" lon="8.37677"><ele>416.75</ele><time>2026-03-28T10:19:49.767Z</time></trkpt><trkpt lat="45.8048217" lon="8.3767517"><ele>409.5</ele><time>2026-03-28T10:19:50.764Z</time></trkpt><trkpt lat="45.8046883" lon="8.3768083"><ele>402.25</ele><time>2026-03-28T10:19:51.767Z</time></trkpt><trkpt lat="45.804575" lon="8.3768833"><ele>395.0</ele><time>2026-03-28T10:19:52.768Z</time></trkpt><trkpt lat="45.80448" lon="8.377"><ele>395.0</ele><time>2026-03-28T10:19:53.764Z</time></trkpt><trkpt lat="45.8043833" lon="8.3771667"><ele>395.0</ele><time>2026-03-28T10:19:54.765Z</time></trkpt><trkpt lat="45.8042733" lon="8.3773917"><ele>395.0</ele><time>2026-03-28T10:19:55.767Z</time></trkpt><trkpt lat="45.80415" lon="8.3776267"><ele>398.3333333333333</ele><time>2026-03-28T10:19:56.768Z</time></trkpt><trkpt lat="45.8040283" lon="8.377845"><ele>401.66666666666663</ele><time>2026-03-28T10:19:57.767Z</time></trkpt><trkpt lat="45.8039283" lon="8.3780317"><ele>405.0</ele><time>2026-03-28T10:19:58.767Z</time></trkpt><trkpt lat="45.8038517" lon="8.378175"><ele>406.25</ele><time>2026-03-28T10:19:59.767Z</time></trkpt><trkpt lat="45.80378" lon="8.378265"><ele>407.5</ele><time>2026-03-28T10:20:00.767Z</time></trkpt><trkpt lat="45.803685" lon="8.37828"><ele>408.75</ele><time>2026-03-28T10:20:01.768Z</time></trkpt><trkpt lat="45.8035683" lon="8.378225"><ele>410.0</ele><time>2026-03-28T10:20:02.767Z</time></trkpt><trkpt lat="45.80344" lon="8.3781567"><ele>406.2</ele><time>2026-03-28T10:20:03.764Z</time></trkpt><trkpt lat="45.80332" lon="8.3780883"><ele>402.4</ele><time>2026-03-28T10:20:04.764Z</time></trkpt><trkpt lat="45.803215" lon="8.3780367"><ele>398.6</ele><time>2026-03-28T10:20:05.764Z</time></trkpt><trkpt lat="45.8031233" lon="8.3780283"><ele>394.8</ele><time>2026-03-28T10:20:06.766Z</time></trkpt><trkpt lat="45.80304" lon="8.3780767"><ele>391.0</ele><time>2026-03-28T10:20:07.765Z</time></trkpt><trkpt lat="45.8029717" lon="8.3781667"><ele>391.0</ele><time>2026-03-28T10:20:08.768Z</time></trkpt><trkpt lat="45.802905" lon="8.3782633"><ele>391.0</ele><time>2026-03-28T10:20:09.767Z</time></trkpt><trkpt lat="45.8028467" lon="8.3783917"><ele>391.0</ele><time>2026-03-28T10:20:10.767Z</time></trkpt><trkpt lat="45.80277" lon="8.3785633"><ele>391.0</ele><time>2026-03-28T10:20:11.768Z</time></trkpt><trkpt lat="45.8027017" lon="8.3787683"><ele>394.0</ele><time>2026-03-28T10:20:12.767Z</time></trkpt><trkpt lat="45.8026167" lon="8.3789917"><ele>397.0</ele><time>2026-03-28T10:20:13.769Z</time></trkpt><trkpt lat="45.8025083" lon="8.37921"><ele>400.0</ele><time>2026-03-28T10:20:14.768Z</time></trkpt><trkpt lat="45.8023683" lon="8.3794367"><ele>400.0</ele><time>2026-03-28T10:20:15.767Z</time></trkpt><trkpt lat="45.8022083" lon="8.379655"><ele>400.0</ele><time>2026-03-28T10:20:16.767Z</time></trkpt><trkpt lat="45.80205" lon="8.3798583"><ele>400.0</ele><time>2026-03-28T10:20:17.768Z</time></trkpt><trkpt lat="45.8018983" lon="8.3800867"><ele>400.6666666666667</ele><time>2026-03-28T10:20:18.764Z</time></trkpt><trkpt lat="45.8017667" lon="8.3803417"><ele>401.33333333333337</ele><time>2026-03-28T10:20:19.767Z</time></trkpt><trkpt lat="45.8016533" lon="8.380615"><ele>402.0</ele><time>2026-03-28T10:20:20.764Z</time></trkpt><trkpt lat="45.801565" lon="8.3808833"><ele>398.5</ele><time>2026-03-28T10:20:21.767Z</time></trkpt><trkpt lat="45.8015" lon="8.3811233"><ele>395.0</ele><time>2026-03-28T10:20:22.767Z</time></trkpt><trkpt lat="45.8014583" lon="8.3813083"><ele>391.5</ele><time>2026-03-28T10:20:23.767Z</time></trkpt><trkpt lat="45.8014033" lon="8.3814567"><ele>388.0</ele><time>2026-03-28T10:20:24.767Z</time></trkpt><trkpt lat="45.8013267" lon="8.38156"><ele>386.25</ele><time>2026-03-28T10:20:25.769Z</time></trkpt><trkpt lat="45.80125" lon="8.3816083"><ele>384.5</ele><time>2026-03-28T10:20:26.767Z</time></trkpt><trkpt lat="45.8011633" lon="8.3816517"><ele>382.75</ele><time>2026-03-28T10:20:27.767Z</time></trkpt><trkpt lat="45.8010483" lon="8.38162"><ele>381.0</ele><time>2026-03-28T10:20:28.767Z</time></trkpt><trkpt lat="45.8008983" lon="8.3815317"><ele>381.0</ele><time>2026-03-28T10:20:29.767Z</time></trkpt><trkpt lat="45.8007533" lon="8.3814767"><ele>381.0</ele><time>2026-03-28T10:20:30.768Z</time></trkpt><trkpt lat="45.8006367" lon="8.3814167"><ele>381.0</ele><time>2026-03-28T10:20:31.768Z</time></trkpt><trkpt lat="45.8005433" lon="8.3813083"><ele>381.0</ele><time>2026-03-28T10:20:32.767Z</time></trkpt><trkpt lat="45.800455" lon="8.38116"><ele>385.33333333333337</ele><time>2026-03-28T10:20:33.767Z</time></trkpt><trkpt lat="45.8003633" lon="8.3809567"><ele>389.6666666666667</ele><time>2026-03-28T10:20:34.769Z</time></trkpt><trkpt lat="45.8002733" lon="8.3807483"><ele>394.0</ele><time>2026-03-28T10:20:35.767Z</time></trkpt><trkpt lat="45.8002017" lon="8.380565"><ele>393.5</ele><time>2026-03-28T10:20:36.767Z</time></trkpt><trkpt lat="45.800165" lon="8.38037"><ele>393.0</ele><time>2026-03-28T10:20:37.767Z</time></trkpt><trkpt lat="45.800135" lon="8.3801667"><ele>392.5</ele><time>2026-03-28T10:20:38.767Z</time></trkpt><trkpt lat="45.8000883" lon="8.3799683"><ele>392.0</ele><time>2026-03-28T10:20:39.765Z</time></trkpt><trkpt lat="45.8000267" lon="8.379795"><ele>395.5</ele><time>2026-03-28T10:20:40.768Z</time></trkpt><trkpt lat="45.79996" lon="8.3796467"><ele>399.0</ele><time>2026-03-28T10:20:41.767Z</time></trkpt><trkpt lat="45.7998783" lon="8.3795467"><ele>402.5</ele><time>2026-03-28T10:20:42.767Z</time></trkpt><trkpt lat="45.7997617" lon="8.3795083"><ele>406.0</ele><time>2026-03-28T10:20:43.768Z</time></trkpt><trkpt lat="45.7996367" lon="8.3794867"><ele>406.0</ele><time>2026-03-28T10:20:44.763Z</time></trkpt><trkpt lat="45.799515" lon="8.3794933"><ele>406.0</ele><time>2026-03-28T10:20:45.766Z</time></trkpt><trkpt lat="45.7994017" lon="8.3795383"><ele>406.0</ele><time>2026-03-28T10:20:46.768Z</time></trkpt><trkpt lat="45.7993" lon="8.379635"><ele>406.0</ele><time>2026-03-28T10:20:47.764Z</time></trkpt><trkpt lat="45.79921" lon="8.3797933"><ele>401.0</ele><time>2026-03-28T10:20:48.767Z</time></trkpt><trkpt lat="45.7991183" lon="8.379975"><ele>396.0</ele><time>2026-03-28T10:20:49.767Z</time></trkpt><trkpt lat="45.799005" lon="8.3801267"><ele>391.0</ele><time>2026-03-28T10:20:50.767Z</time></trkpt><trkpt lat="45.798875" lon="8.3802317"><ele>391.0</ele><time>2026-03-28T10:20:51.769Z</time></trkpt><trkpt lat="45.79874" lon="8.380275"><ele>391.0</ele><time>2026-03-28T10:20:52.767Z</time></trkpt><trkpt lat="45.7985967" lon="8.3802817"><ele>391.0</ele><time>2026-03-28T10:20:53.768Z</time></trkpt><trkpt lat="45.7984417" lon="8.3802217"><ele>391.0</ele><time>2026-03-28T10:20:54.767Z</time></trkpt><trkpt lat="45.7982633" lon="8.3801033"><ele>388.5</ele><time>2026-03-28T10:20:55.767Z</time></trkpt><trkpt lat="45.7980717" lon="8.3799317"><ele>386.0</ele><time>2026-03-28T10:20:56.767Z</time></trkpt><trkpt lat="45.79787" lon="8.3797567"><ele>389.5</ele><time>2026-03-28T10:20:57.767Z</time></trkpt><trkpt lat="45.797645" lon="8.37958"><ele>393.0</ele><time>2026-03-28T10:20:58.768Z</time></trkpt><trkpt lat="45.7974183" lon="8.3794117"><ele>393.0</ele><time>2026-03-28T10:20:59.768Z</time></trkpt><trkpt lat="45.79721" lon="8.37926"><ele>393.0</ele><time>2026-03-28T10:21:00.768Z</time></trkpt><trkpt lat="45.79703" lon="8.37914"><ele>393.0</ele><time>2026-03-28T10:21:01.768Z</time></trkpt><trkpt lat="45.7968717" lon="8.3790383"><ele>389.0</ele><time>2026-03-28T10:21:02.767Z</time></trkpt><trkpt lat="45.7967267" lon="8.37896"><ele>385.0</ele><time>2026-03-28T10:21:03.769Z</time></trkpt><trkpt lat="45.7965683" lon="8.378915"><ele>381.0</ele><time>2026-03-28T10:21:04.767Z</time></trkpt><trkpt lat="45.796395" lon="8.37891"><ele>381.0</ele><time>2026-03-28T10:21:05.767Z</time></trkpt><trkpt lat="45.79621" lon="8.37893"><ele>381.0</ele><time>2026-03-28T10:21:06.764Z</time></trkpt><trkpt lat="45.79602" lon="8.3789517"><ele>381.0</ele><time>2026-03-28T10:21:07.768Z</time></trkpt><trkpt lat="45.7958483" lon="8.3789633"><ele>380.0</ele><time>2026-03-28T10:21:08.767Z</time></trkpt><trkpt lat="45.7956917" lon="8.3789733"><ele>379.0</ele><time>2026-03-28T10:21:09.767Z</time></trkpt><trkpt lat="45.7955383" lon="8.3789883"><ele>378.0</ele><time>2026-03-28T10:21:10.768Z</time></trkpt><trkpt lat="45.7953833" lon="8.379"><ele>378.0</ele><time>2026-03-28T10:21:11.768Z</time></trkpt><trkpt lat="45.795225" lon="8.3790267"><ele>378.0</ele><time>2026-03-28T10:21:12.768Z</time></trkpt><trkpt lat="45.7950733" lon="8.379055"><ele>378.0</ele><time>2026-03-28T10:21:13.768Z</time></trkpt><trkpt lat="45.79493" lon="8.37907"><ele>377.75</ele><time>2026-03-28T10:21:14.767Z</time></trkpt><trkpt lat="45.7948" lon="8.37907"><ele>377.5</ele><time>2026-03-28T10:21:15.764Z</time></trkpt><trkpt lat="45.7946817" lon="8.3790583"><ele>377.25</ele><time>2026-03-28T10:21:16.766Z</time></trkpt><trkpt lat="45.7945567" lon="8.379055"><ele>377.0</ele><time>2026-03-28T10:21:17.769Z</time></trkpt><trkpt lat="45.7944067" lon="8.3790667"><ele>377.0</ele><time>2026-03-28T10:21:18.764Z</time></trkpt><trkpt lat="45.794265" lon="8.3790933"><ele>377.0</ele><time>2026-03-28T10:21:19.766Z</time></trkpt><trkpt lat="45.7941183" lon="8.379135"><ele>377.0</ele><time>2026-03-28T10:21:20.767Z</time></trkpt><trkpt lat="45.7939783" lon="8.3791717"><ele>377.0</ele><time>2026-03-28T10:21:21.767Z</time></trkpt><trkpt lat="45.793835" lon="8.3792033"><ele>377.0</ele><time>2026-03-28T10:21:22.764Z</time></trkpt><trkpt lat="45.7936933" lon="8.3792367"><ele>377.0</ele><time>2026-03-28T10:21:23.765Z</time></trkpt><trkpt lat="45.7935417" lon="8.3792417"><ele>377.0</ele><time>2026-03-28T10:21:24.765Z</time></trkpt><trkpt lat="45.7933933" lon="8.3792467"><ele>377.0</ele><time>2026-03-28T10:21:25.768Z</time></trkpt><trkpt lat="45.7932467" lon="8.3792483"><ele>377.0</ele><time>2026-03-28T10:21:26.764Z</time></trkpt><trkpt lat="45.7931183" lon="8.3792367"><ele>377.0</ele><time>2026-03-28T10:21:27.765Z</time></trkpt><trkpt lat="45.792995" lon="8.379215"><ele>377.0</ele><time>2026-03-28T10:21:28.765Z</time></trkpt><trkpt lat="45.792885" lon="8.3791983"><ele>377.0</ele><time>2026-03-28T10:21:29.765Z</time></trkpt><trkpt lat="45.792785" lon="8.3791867"><ele>377.0</ele><time>2026-03-28T10:21:30.767Z</time></trkpt><trkpt lat="45.7927" lon="8.3791767"><ele>377.0</ele><time>2026-03-28T10:21:31.768Z</time></trkpt><trkpt lat="45.7926233" lon="8.37916"><ele>377.0</ele><time>2026-03-28T10:21:32.767Z</time></trkpt><trkpt lat="45.79254" lon="8.379155"><ele>377.0</ele><time>2026-03-28T10:21:33.767Z</time></trkpt><trkpt lat="45.7924467" lon="8.379155"><ele>377.0</ele><time>2026-03-28T10:21:34.764Z</time></trkpt><trkpt lat="45.792335" lon="8.3791483"><ele>376.75</ele><time>2026-03-28T10:21:35.769Z</time></trkpt><trkpt lat="45.792215" lon="8.3791383"><ele>376.5</ele><time>2026-03-28T10:21:36.764Z</time></trkpt><trkpt lat="45.792095" lon="8.3791333"><ele>376.25</ele><time>2026-03-28T10:21:37.768Z</time></trkpt><trkpt lat="45.7919817" lon="8.3791333"><ele>376.0</ele><time>2026-03-28T10:21:38.764Z</time></trkpt><trkpt lat="45.7918817" lon="8.379155"><ele>376.25</ele><time>2026-03-28T10:21:39.767Z</time></trkpt><trkpt lat="45.7917833" lon="8.3792083"><ele>376.5</ele><time>2026-03-28T10:21:40.767Z</time></trkpt><trkpt lat="45.7916767" lon="8.3792783"><ele>376.75</ele><time>2026-03-28T10:21:41.764Z</time></trkpt><trkpt lat="45.79155" lon="8.3793383"><ele>377.0</ele><time>2026-03-28T10:21:42.764Z</time></trkpt><trkpt lat="45.7914067" lon="8.3793833"><ele>377.0</ele><time>2026-03-28T10:21:43.766Z</time></trkpt><trkpt lat="45.791255" lon="8.379405"><ele>377.0</ele><time>2026-03-28T10:21:44.765Z</time></trkpt><trkpt lat="45.7911067" lon="8.3794133"><ele>377.0</ele><time>2026-03-28T10:21:45.765Z</time></trkpt><trkpt lat="45.7909783" lon="8.37941"><ele>377.0</ele><time>2026-03-28T10:21:46.77Z</time></trkpt><trkpt lat="45.7908517" lon="8.379405"><ele>377.6666666666667</ele><time>2026-03-28T10:21:47.764Z</time></trkpt><trkpt lat="45.7907083" lon="8.3794067"><ele>378.3333333333333</ele><time>2026-03-28T10:21:48.767Z</time></trkpt><trkpt lat="45.7905383" lon="8.37942"><ele>379.0</ele><time>2026-03-28T10:21:49.768Z</time></trkpt><trkpt lat="45.7903583" lon="8.3794467"><ele>379.0</ele><time>2026-03-28T10:21:50.765Z</time></trkpt><trkpt lat="45.7901867" lon="8.3795033"><ele>379.0</ele><time>2026-03-28T10:21:51.767Z</time></trkpt><trkpt lat="45.7900083" lon="8.3795867"><ele>379.0</ele><time>2026-03-28T10:21:52.767Z</time></trkpt><trkpt lat="45.789835" lon="8.3796833"><ele>378.75</ele><time>2026-03-28T10:21:53.767Z</time></trkpt><trkpt lat="45.789685" lon="8.37977"><ele>378.5</ele><time>2026-03-28T10:21:54.768Z</time></trkpt><trkpt lat="45.7895617" lon="8.3798583"><ele>378.25</ele><time>2026-03-28T10:21:55.768Z</time></trkpt><trkpt lat="45.789465" lon="8.37994"><ele>378.0</ele><time>2026-03-28T10:21:56.768Z</time></trkpt><trkpt lat="45.7893867" lon="8.3799933"><ele>378.6666666666667</ele><time>2026-03-28T10:21:57.765Z</time></trkpt><trkpt lat="45.7893217" lon="8.3800267"><ele>379.3333333333333</ele><time>2026-03-28T10:21:58.766Z</time></trkpt><trkpt lat="45.7892617" lon="8.3800683"><ele>380.0</ele><time>2026-03-28T10:21:59.765Z</time></trkpt><trkpt lat="45.7892083" lon="8.3801433"><ele>380.66666666666663</ele><time>2026-03-28T10:22:00.766Z</time></trkpt><trkpt lat="45.7891383" lon="8.3802383"><ele>381.3333333333333</ele><time>2026-03-28T10:22:01.766Z</time></trkpt><trkpt lat="45.7890283" lon="8.3803517"><ele>382.0</ele><time>2026-03-28T10:22:02.766Z</time></trkpt><trkpt lat="45.7888867" lon="8.380445"><ele>382.0</ele><time>2026-03-28T10:22:03.765Z</time></trkpt><trkpt lat="45.7887167" lon="8.38051"><ele>382.0</ele><time>2026-03-28T10:22:04.766Z</time></trkpt><trkpt lat="45.7885217" lon="8.3805533"><ele>382.0</ele><time>2026-03-28T10:22:05.766Z</time></trkpt><trkpt lat="45.788315" lon="8.38057"><ele>381.0</ele><time>2026-03-28T10:22:06.765Z</time></trkpt><trkpt lat="45.7881183" lon="8.3805633"><ele>380.0</ele><time>2026-03-28T10:22:07.766Z</time></trkpt><trkpt lat="45.7879333" lon="8.380565"><ele>379.0</ele><time>2026-03-28T10:22:08.766Z</time></trkpt><trkpt lat="45.7877483" lon="8.3806117"><ele>380.0</ele><time>2026-03-28T10:22:09.765Z</time></trkpt><trkpt lat="45.787575" lon="8.3807"><ele>381.0</ele><time>2026-03-28T10:22:10.765Z</time></trkpt><trkpt lat="45.7874183" lon="8.3807833"><ele>382.0</ele><time>2026-03-28T10:22:11.765Z</time></trkpt><trkpt lat="45.7872733" lon="8.38083"><ele>382.0</ele><time>2026-03-28T10:22:12.765Z</time></trkpt><trkpt lat="45.7871217" lon="8.3808383"><ele>382.0</ele><time>2026-03-28T10:22:13.766Z</time></trkpt><trkpt lat="45.7869533" lon="8.3808133"><ele>382.0</ele><time>2026-03-28T10:22:14.767Z</time></trkpt><trkpt lat="45.7867867" lon="8.3807867"><ele>382.3333333333333</ele><time>2026-03-28T10:22:15.767Z</time></trkpt><trkpt lat="45.7866117" lon="8.3808"><ele>382.6666666666667</ele><time>2026-03-28T10:22:16.768Z</time></trkpt><trkpt lat="45.7864333" lon="8.3808717"><ele>383.0</ele><time>2026-03-28T10:22:17.768Z</time></trkpt><trkpt lat="45.78627" lon="8.3809817"><ele>383.0</ele><time>2026-03-28T10:22:18.767Z</time></trkpt><trkpt lat="45.786125" lon="8.3811433"><ele>383.0</ele><time>2026-03-28T10:22:19.769Z</time></trkpt><trkpt lat="45.7859867" lon="8.3813167"><ele>383.0</ele><time>2026-03-28T10:22:20.767Z</time></trkpt><trkpt lat="45.785845" lon="8.3814533"><ele>386.0</ele><time>2026-03-28T10:22:21.767Z</time></trkpt><trkpt lat="45.785685" lon="8.3815467"><ele>389.0</ele><time>2026-03-28T10:22:22.767Z</time></trkpt><trkpt lat="45.785495" lon="8.3815983"><ele>392.0</ele><time>2026-03-28T10:22:23.765Z</time></trkpt><trkpt lat="45.785295" lon="8.3816117"><ele>391.3333333333333</ele><time>2026-03-28T10:22:24.768Z</time></trkpt><trkpt lat="45.7851" lon="8.3816267"><ele>390.66666666666663</ele><time>2026-03-28T10:22:25.769Z</time></trkpt><trkpt lat="45.784915" lon="8.3816667"><ele>390.0</ele><time>2026-03-28T10:22:26.767Z</time></trkpt><trkpt lat="45.7847433" lon="8.3817483"><ele>390.0</ele><time>2026-03-28T10:22:27.768Z</time></trkpt><trkpt lat="45.78458" lon="8.38189"><ele>390.0</ele><time>2026-03-28T10:22:28.767Z</time></trkpt><trkpt lat="45.7844283" lon="8.3820533"><ele>390.0</ele><time>2026-03-28T10:22:29.768Z</time></trkpt><trkpt lat="45.7842967" lon="8.3822017"><ele>390.2</ele><time>2026-03-28T10:22:30.767Z</time></trkpt><trkpt lat="45.7841833" lon="8.3823067"><ele>390.4</ele><time>2026-03-28T10:22:31.767Z</time></trkpt><trkpt lat="45.7840833" lon="8.38237"><ele>390.6</ele><time>2026-03-28T10:22:32.768Z</time></trkpt><trkpt lat="45.7839967" lon="8.3823833"><ele>390.8</ele><time>2026-03-28T10:22:33.767Z</time></trkpt><trkpt lat="45.7839183" lon="8.382345"><ele>391.0</ele><time>2026-03-28T10:22:34.769Z</time></trkpt><trkpt lat="45.7838433" lon="8.3822833"><ele>391.0</ele><time>2026-03-28T10:22:35.767Z</time></trkpt><trkpt lat="45.7837583" lon="8.382235"><ele>391.0</ele><time>2026-03-28T10:22:36.768Z</time></trkpt><trkpt lat="45.7836717" lon="8.38223"><ele>391.0</ele><time>2026-03-28T10:22:37.768Z</time></trkpt><trkpt lat="45.783575" lon="8.3822767"><ele>391.0</ele><time>2026-03-28T10:22:38.768Z</time></trkpt><trkpt lat="45.7834283" lon="8.3823733"><ele>391.0</ele><time>2026-03-28T10:22:39.769Z</time></trkpt><trkpt lat="45.7832467" lon="8.3824667"><ele>391.0</ele><time>2026-03-28T10:22:40.77Z</time></trkpt><trkpt lat="45.7830367" lon="8.3825683"><ele>391.0</ele><time>2026-03-28T10:22:41.767Z</time></trkpt><trkpt lat="45.7828067" lon="8.3826867"><ele>393.5</ele><time>2026-03-28T10:22:42.768Z</time></trkpt><trkpt lat="45.7825667" lon="8.3828067"><ele>396.0</ele><time>2026-03-28T10:22:43.767Z</time></trkpt><trkpt lat="45.7823167" lon="8.3829383"><ele>395.0</ele><time>2026-03-28T10:22:44.767Z</time></trkpt><trkpt lat="45.7820783" lon="8.3830717"><ele>394.0</ele><time>2026-03-28T10:22:45.767Z</time></trkpt><trkpt lat="45.7818383" lon="8.3832033"><ele>394.0</ele><time>2026-03-28T10:22:46.764Z</time></trkpt><trkpt lat="45.7815817" lon="8.3833367"><ele>394.0</ele><time>2026-03-28T10:22:47.765Z</time></trkpt><trkpt lat="45.7813133" lon="8.383465"><ele>394.0</ele><time>2026-03-28T10:22:48.765Z</time></trkpt><trkpt lat="45.781035" lon="8.3835917"><ele>394.0</ele><time>2026-03-28T10:22:49.768Z</time></trkpt><trkpt lat="45.780745" lon="8.3837183"><ele>390.5</ele><time>2026-03-28T10:22:50.767Z</time></trkpt><trkpt lat="45.7804483" lon="8.3838567"><ele>387.0</ele><time>2026-03-28T10:22:51.764Z</time></trkpt><trkpt lat="45.7801417" lon="8.3839967"><ele>387.0</ele><time>2026-03-28T10:22:52.768Z</time></trkpt><trkpt lat="45.7798283" lon="8.3841317"><ele>387.0</ele><time>2026-03-28T10:22:53.767Z</time></trkpt><trkpt lat="45.779525" lon="8.3842717"><ele>389.0</ele><time>2026-03-28T10:22:54.768Z</time></trkpt><trkpt lat="45.7792367" lon="8.38441"><ele>391.0</ele><time>2026-03-28T10:22:55.767Z</time></trkpt><trkpt lat="45.7789417" lon="8.3845483"><ele>391.0</ele><time>2026-03-28T10:22:56.768Z</time></trkpt><trkpt lat="45.7786467" lon="8.3846667"><ele>391.0</ele><time>2026-03-28T10:22:57.767Z</time></trkpt><trkpt lat="45.7783683" lon="8.38476"><ele>388.0</ele><time>2026-03-28T10:22:58.768Z</time></trkpt><trkpt lat="45.7781167" lon="8.3848283"><ele>385.0</ele><time>2026-03-28T10:22:59.767Z</time></trkpt><trkpt lat="45.7778767" lon="8.3848883"><ele>387.0</ele><time>2026-03-28T10:23:00.768Z</time></trkpt><trkpt lat="45.777655" lon="8.3849267"><ele>389.0</ele><time>2026-03-28T10:23:01.764Z</time></trkpt><trkpt lat="45.77743" lon="8.384935"><ele>391.0</ele><time>2026-03-28T10:23:02.769Z</time></trkpt><trkpt lat="45.7772183" lon="8.38491"><ele>391.0</ele><time>2026-03-28T10:23:03.767Z</time></trkpt><trkpt lat="45.7770233" lon="8.3848783"><ele>391.0</ele><time>2026-03-28T10:23:04.767Z</time></trkpt><trkpt lat="45.7768583" lon="8.38487"><ele>391.0</ele><time>2026-03-28T10:23:05.768Z</time></trkpt><trkpt lat="45.7767" lon="8.3849217"><ele>392.75</ele><time>2026-03-28T10:23:06.767Z</time></trkpt><trkpt lat="45.7765617" lon="8.385025"><ele>394.5</ele><time>2026-03-28T10:23:07.767Z</time></trkpt><trkpt lat="45.7764483" lon="8.3851483"><ele>396.25</ele><time>2026-03-28T10:23:08.769Z</time></trkpt><trkpt lat="45.7763433" lon="8.385255"><ele>398.0</ele><time>2026-03-28T10:23:09.767Z</time></trkpt><trkpt lat="45.7762333" lon="8.385345"><ele>398.0</ele><time>2026-03-28T10:23:10.767Z</time></trkpt><trkpt lat="45.776115" lon="8.385405"><ele>398.0</ele><time>2026-03-28T10:23:11.767Z</time></trkpt><trkpt lat="45.7760033" lon="8.38542"><ele>398.0</ele><time>2026-03-28T10:23:12.768Z</time></trkpt><trkpt lat="45.7758817" lon="8.3853917"><ele>398.0</ele><time>2026-03-28T10:23:13.764Z</time></trkpt><trkpt lat="45.7757433" lon="8.385335"><ele>397.3333333333333</ele><time>2026-03-28T10:23:14.768Z</time></trkpt><trkpt lat="45.7755783" lon="8.3852483"><ele>396.66666666666663</ele><time>2026-03-28T10:23:15.768Z</time></trkpt><trkpt lat="45.7753917" lon="8.3851417"><ele>396.0</ele><time>2026-03-28T10:23:16.767Z</time></trkpt><trkpt lat="45.77518" lon="8.3850167"><ele>396.0</ele><time>2026-03-28T10:23:17.768Z</time></trkpt><trkpt lat="45.7749517" lon="8.3848767"><ele>396.0</ele><time>2026-03-28T10:23:18.768Z</time></trkpt><trkpt lat="45.774715" lon="8.3847217"><ele>403.5</ele><time>2026-03-28T10:23:19.765Z</time></trkpt><trkpt lat="45.7744633" lon="8.38457"><ele>411.0</ele><time>2026-03-28T10:23:20.768Z</time></trkpt><trkpt lat="45.7742067" lon="8.38442"><ele>411.0</ele><time>2026-03-28T10:23:21.767Z</time></trkpt><trkpt lat="45.7739533" lon="8.38428"><ele>411.0</ele><time>2026-03-28T10:23:22.768Z</time></trkpt><trkpt lat="45.7737117" lon="8.3841433"><ele>407.0</ele><time>2026-03-28T10:23:23.764Z</time></trkpt><trkpt lat="45.7734833" lon="8.3840233"><ele>403.0</ele><time>2026-03-28T10:23:24.767Z</time></trkpt><trkpt lat="45.7732617" lon="8.383945"><ele>403.0</ele><time>2026-03-28T10:23:25.764Z</time></trkpt><trkpt lat="45.773035" lon="8.3839067"><ele>403.0</ele><time>2026-03-28T10:23:26.767Z</time></trkpt><trkpt lat="45.7728017" lon="8.3839067"><ele>401.0</ele><time>2026-03-28T10:23:27.768Z</time></trkpt><trkpt lat="45.7725467" lon="8.3839533"><ele>399.0</ele><time>2026-03-28T10:23:28.767Z</time></trkpt><trkpt lat="45.77228" lon="8.3840067"><ele>399.0</ele><time>2026-03-28T10:23:29.768Z</time></trkpt><trkpt lat="45.772015" lon="8.384045"><ele>399.0</ele><time>2026-03-28T10:23:30.767Z</time></trkpt><trkpt lat="45.7717617" lon="8.38407"><ele>400.0</ele><time>2026-03-28T10:23:31.768Z</time></trkpt><trkpt lat="45.77152" lon="8.384085"><ele>401.0</ele><time>2026-03-28T10:23:32.767Z</time></trkpt><trkpt lat="45.77127" lon="8.384115"><ele>401.0</ele><time>2026-03-28T10:23:33.767Z</time></trkpt><trkpt lat="45.7710333" lon="8.3841667"><ele>401.0</ele><time>2026-03-28T10:23:34.767Z</time></trkpt><trkpt lat="45.770805" lon="8.3842467"><ele>403.0</ele><time>2026-03-28T10:23:35.767Z</time></trkpt><trkpt lat="45.7705817" lon="8.3843483"><ele>405.0</ele><time>2026-03-28T10:23:36.767Z</time></trkpt><trkpt lat="45.7703683" lon="8.3844433"><ele>407.66666666666663</ele><time>2026-03-28T10:23:37.768Z</time></trkpt><trkpt lat="45.7701717" lon="8.3845233"><ele>410.3333333333333</ele><time>2026-03-28T10:23:38.768Z</time></trkpt><trkpt lat="45.7699817" lon="8.3845767"><ele>413.0</ele><time>2026-03-28T10:23:39.768Z</time></trkpt><trkpt lat="45.769795" lon="8.384595"><ele>413.0</ele><time>2026-03-28T10:23:40.768Z</time></trkpt><trkpt lat="45.7696117" lon="8.3845983"><ele>413.0</ele><time>2026-03-28T10:23:41.767Z</time></trkpt><trkpt lat="45.7694417" lon="8.3846067"><ele>413.0</ele><time>2026-03-28T10:23:42.767Z</time></trkpt><trkpt lat="45.7692617" lon="8.3846517"><ele>411.66666666666663</ele><time>2026-03-28T10:23:43.768Z</time></trkpt><trkpt lat="45.7690817" lon="8.3847583"><ele>410.33333333333337</ele><time>2026-03-28T10:23:44.767Z</time></trkpt><trkpt lat="45.768895" lon="8.3849033"><ele>409.0</ele><time>2026-03-28T10:23:45.767Z</time></trkpt><trkpt lat="45.7686983" lon="8.38507"><ele>419.0</ele><time>2026-03-28T10:23:46.767Z</time></trkpt><trkpt lat="45.768495" lon="8.38521"><ele>429.0</ele><time>2026-03-28T10:23:47.768Z</time></trkpt><trkpt lat="45.7682783" lon="8.385315"><ele>429.0</ele><time>2026-03-28T10:23:48.767Z</time></trkpt><trkpt lat="45.7680433" lon="8.3853667"><ele>429.0</ele><time>2026-03-28T10:23:49.767Z</time></trkpt><trkpt lat="45.7677883" lon="8.385405"><ele>432.0</ele><time>2026-03-28T10:23:50.767Z</time></trkpt><trkpt lat="45.767525" lon="8.3854817"><ele>435.0</ele><time>2026-03-28T10:23:51.765Z</time></trkpt><trkpt lat="45.7672733" lon="8.385585"><ele>424.5</ele><time>2026-03-28T10:23:52.768Z</time></trkpt><trkpt lat="45.76703" lon="8.3857033"><ele>414.0</ele><time>2026-03-28T10:23:53.768Z</time></trkpt><trkpt lat="45.76678" lon="8.3857917"><ele>414.0</ele><time>2026-03-28T10:23:54.768Z</time></trkpt><trkpt lat="45.7665167" lon="8.3858533"><ele>414.0</ele><time>2026-03-28T10:23:55.764Z</time></trkpt><trkpt lat="45.7662567" lon="8.38591"><ele>416.5</ele><time>2026-03-28T10:23:56.764Z</time></trkpt><trkpt lat="45.76601" lon="8.385975"><ele>419.0</ele><time>2026-03-28T10:23:57.767Z</time></trkpt><trkpt lat="45.765795" lon="8.38604"><ele>419.0</ele><time>2026-03-28T10:23:58.767Z</time></trkpt><trkpt lat="45.7656033" lon="8.386065"><ele>419.0</ele><time>2026-03-28T10:23:59.768Z</time></trkpt><trkpt lat="45.7654233" lon="8.3860483"><ele>419.0</ele><time>2026-03-28T10:24:00.765Z</time></trkpt><trkpt lat="45.7652583" lon="8.3859567"><ele>417.66666666666663</ele><time>2026-03-28T10:24:01.767Z</time></trkpt><trkpt lat="45.7650933" lon="8.3857833"><ele>416.33333333333337</ele><time>2026-03-28T10:24:02.768Z</time></trkpt><trkpt lat="45.764915" lon="8.3855967"><ele>415.0</ele><time>2026-03-28T10:24:03.767Z</time></trkpt><trkpt lat="45.7647167" lon="8.3854317"><ele>423.0</ele><time>2026-03-28T10:24:04.764Z</time></trkpt><trkpt lat="45.7644867" lon="8.38531"><ele>431.0</ele><time>2026-03-28T10:24:05.769Z</time></trkpt><trkpt lat="45.7642367" lon="8.3852117"><ele>431.0</ele><time>2026-03-28T10:24:06.767Z</time></trkpt><trkpt lat="45.7639767" lon="8.3851317"><ele>431.0</ele><time>2026-03-28T10:24:07.764Z</time></trkpt><trkpt lat="45.7637217" lon="8.38508"><ele>431.5</ele><time>2026-03-28T10:24:08.767Z</time></trkpt><trkpt lat="45.7634867" lon="8.3850583"><ele>432.0</ele><time>2026-03-28T10:24:09.767Z</time></trkpt><trkpt lat="45.76326" lon="8.385045"><ele>432.0</ele><time>2026-03-28T10:24:10.764Z</time></trkpt><trkpt lat="45.7630267" lon="8.3850333"><ele>432.0</ele><time>2026-03-28T10:24:11.767Z</time></trkpt><trkpt lat="45.7627833" lon="8.3850117"><ele>430.0</ele><time>2026-03-28T10:24:12.767Z</time></trkpt><trkpt lat="45.7625283" lon="8.3849967"><ele>428.0</ele><time>2026-03-28T10:24:13.764Z</time></trkpt><trkpt lat="45.762275" lon="8.38499"><ele>428.0</ele><time>2026-03-28T10:24:14.764Z</time></trkpt><trkpt lat="45.762035" lon="8.384995"><ele>428.0</ele><time>2026-03-28T10:24:15.764Z</time></trkpt><trkpt lat="45.76181" lon="8.3850217"><ele>430.0</ele><time>2026-03-28T10:24:16.765Z</time></trkpt><trkpt lat="45.7616033" lon="8.3850883"><ele>432.0</ele><time>2026-03-28T10:24:17.767Z</time></trkpt><trkpt lat="45.761395" lon="8.3852"><ele>434.0</ele><time>2026-03-28T10:24:18.767Z</time></trkpt><trkpt lat="45.7611917" lon="8.38531"><ele>438.3333333333333</ele><time>2026-03-28T10:24:19.764Z</time></trkpt><trkpt lat="45.7609917" lon="8.385385"><ele>442.66666666666663</ele><time>2026-03-28T10:24:20.765Z</time></trkpt><trkpt lat="45.760805" lon="8.3854483"><ele>447.0</ele><time>2026-03-28T10:24:21.767Z</time></trkpt><trkpt lat="45.7606217" lon="8.385485"><ele>447.0</ele><time>2026-03-28T10:24:22.767Z</time></trkpt><trkpt lat="45.7604383" lon="8.3854917"><ele>447.0</ele><time>2026-03-28T10:24:23.768Z</time></trkpt><trkpt lat="45.7602467" lon="8.38548"><ele>447.0</ele><time>2026-03-28T10:24:24.767Z</time></trkpt><trkpt lat="45.7600417" lon="8.385485"><ele>440.33333333333337</ele><time>2026-03-28T10:24:25.768Z</time></trkpt><trkpt lat="45.7598267" lon="8.3855217"><ele>433.6666666666667</ele><time>2026-03-28T10:24:26.767Z</time></trkpt><trkpt lat="45.7596017" lon="8.3855917"><ele>427.0</ele><time>2026-03-28T10:24:27.767Z</time></trkpt><trkpt lat="45.75937" lon="8.3857"><ele>435.0</ele><time>2026-03-28T10:24:28.764Z</time></trkpt><trkpt lat="45.75913" lon="8.3858383"><ele>443.0</ele><time>2026-03-28T10:24:29.768Z</time></trkpt><trkpt lat="45.758895" lon="8.3859917"><ele>443.0</ele><time>2026-03-28T10:24:30.764Z</time></trkpt><trkpt lat="45.7586733" lon="8.3861417"><ele>443.0</ele><time>2026-03-28T10:24:31.765Z</time></trkpt><trkpt lat="45.75847" lon="8.38626"><ele>442.3333333333333</ele><time>2026-03-28T10:24:32.765Z</time></trkpt><trkpt lat="45.7582833" lon="8.38637"><ele>441.66666666666663</ele><time>2026-03-28T10:24:33.767Z</time></trkpt><trkpt lat="45.75811" lon="8.386495"><ele>441.0</ele><time>2026-03-28T10:24:34.766Z</time></trkpt><trkpt lat="45.7579483" lon="8.3866533"><ele>441.0</ele><time>2026-03-28T10:24:35.767Z</time></trkpt><trkpt lat="45.757795" lon="8.3867867"><ele>441.0</ele><time>2026-03-28T10:24:36.766Z</time></trkpt><trkpt lat="45.7576417" lon="8.3868983"><ele>441.0</ele><time>2026-03-28T10:24:37.767Z</time></trkpt><trkpt lat="45.7575067" lon="8.3870417"><ele>442.0</ele><time>2026-03-28T10:24:38.768Z</time></trkpt><trkpt lat="45.757375" lon="8.387245"><ele>443.0</ele><time>2026-03-28T10:24:39.767Z</time></trkpt><trkpt lat="45.7572683" lon="8.3874967"><ele>444.0</ele><time>2026-03-28T10:24:40.767Z</time></trkpt><trkpt lat="45.757175" lon="8.3877317"><ele>444.0</ele><time>2026-03-28T10:24:41.767Z</time></trkpt><trkpt lat="45.7570883" lon="8.387915"><ele>444.0</ele><time>2026-03-28T10:24:42.767Z</time></trkpt><trkpt lat="45.756995" lon="8.38805"><ele>444.0</ele><time>2026-03-28T10:24:43.767Z</time></trkpt><trkpt lat="45.7568867" lon="8.3881267"><ele>444.0</ele><time>2026-03-28T10:24:44.767Z</time></trkpt><trkpt lat="45.756785" lon="8.3881133"><ele>444.5</ele><time>2026-03-28T10:24:45.769Z</time></trkpt><trkpt lat="45.756675" lon="8.38802"><ele>445.0</ele><time>2026-03-28T10:24:46.767Z</time></trkpt><trkpt lat="45.75658" lon="8.3878917"><ele>445.5</ele><time>2026-03-28T10:24:47.767Z</time></trkpt><trkpt lat="45.7565033" lon="8.387775"><ele>446.0</ele><time>2026-03-28T10:24:48.767Z</time></trkpt><trkpt lat="45.7564467" lon="8.38769"><ele>446.0</ele><time>2026-03-28T10:24:49.769Z</time></trkpt><trkpt lat="45.756395" lon="8.3876283"><ele>446.0</ele><time>2026-03-28T10:24:51.764Z</time></trkpt><trkpt lat="45.7563033" lon="8.3877217"><ele>446.0</ele><time>2026-03-28T10:24:55.765Z</time></trkpt><trkpt lat="45.7562617" lon="8.3878217"><ele>446.0</ele><time>2026-03-28T10:24:56.769Z</time></trkpt><trkpt lat="45.7562083" lon="8.3879683"><ele>446.0</ele><time>2026-03-28T10:24:57.767Z</time></trkpt><trkpt lat="45.756125" lon="8.3881817"><ele>446.0</ele><time>2026-03-28T10:24:58.767Z</time></trkpt><trkpt lat="45.7560217" lon="8.3884083"><ele>446.0</ele><time>2026-03-28T10:24:59.77Z</time></trkpt><trkpt lat="45.7559167" lon="8.3886383"><ele>446.0</ele><time>2026-03-28T10:25:00.767Z</time></trkpt><trkpt lat="45.755815" lon="8.38887"><ele>446.0</ele><time>2026-03-28T10:25:01.767Z</time></trkpt><trkpt lat="45.7557267" lon="8.3890767"><ele>446.0</ele><time>2026-03-28T10:25:02.767Z</time></trkpt><trkpt lat="45.75565" lon="8.389245"><ele>446.0</ele><time>2026-03-28T10:25:03.766Z</time></trkpt><trkpt lat="45.7555983" lon="8.38939"><ele>446.0</ele><time>2026-03-28T10:25:04.768Z</time></trkpt><trkpt lat="45.755585" lon="8.389535"><ele>445.75</ele><time>2026-03-28T10:25:05.767Z</time></trkpt><trkpt lat="45.755615" lon="8.3896983"><ele>445.5</ele><time>2026-03-28T10:25:06.767Z</time></trkpt><trkpt lat="45.7556767" lon="8.389865"><ele>445.25</ele><time>2026-03-28T10:25:07.768Z</time></trkpt><trkpt lat="45.7557183" lon="8.3900383"><ele>445.0</ele><time>2026-03-28T10:25:08.767Z</time></trkpt><trkpt lat="45.7557217" lon="8.3902067"><ele>445.0</ele><time>2026-03-28T10:25:09.767Z</time></trkpt><trkpt lat="45.7556867" lon="8.3903867"><ele>445.0</ele><time>2026-03-28T10:25:10.768Z</time></trkpt><trkpt lat="45.755625" lon="8.3905867"><ele>445.0</ele><time>2026-03-28T10:25:11.767Z</time></trkpt><trkpt lat="45.7555583" lon="8.3907833"><ele>445.0</ele><time>2026-03-28T10:25:12.767Z</time></trkpt><trkpt lat="45.7555133" lon="8.3909833"><ele>446.0</ele><time>2026-03-28T10:25:13.767Z</time></trkpt><trkpt lat="45.7555033" lon="8.39121"><ele>447.0</ele><time>2026-03-28T10:25:14.767Z</time></trkpt><trkpt lat="45.7555017" lon="8.3914533"><ele>448.0</ele><time>2026-03-28T10:25:15.767Z</time></trkpt><trkpt lat="45.7555083" lon="8.3916783"><ele>449.0</ele><time>2026-03-28T10:25:16.764Z</time></trkpt><trkpt lat="45.7555217" lon="8.3918783"><ele>450.0</ele><time>2026-03-28T10:25:17.767Z</time></trkpt><trkpt lat="45.7555317" lon="8.392075"><ele>451.0</ele><time>2026-03-28T10:25:18.766Z</time></trkpt><trkpt lat="45.7555417" lon="8.3922567"><ele>452.0</ele><time>2026-03-28T10:25:19.766Z</time></trkpt><trkpt lat="45.755535" lon="8.39244"><ele>451.3333333333333</ele><time>2026-03-28T10:25:20.765Z</time></trkpt><trkpt lat="45.7554883" lon="8.3926517"><ele>450.66666666666663</ele><time>2026-03-28T10:25:21.765Z</time></trkpt><trkpt lat="45.7554283" lon="8.39286"><ele>450.0</ele><time>2026-03-28T10:25:22.766Z</time></trkpt><trkpt lat="45.7553717" lon="8.3930683"><ele>450.0</ele><time>2026-03-28T10:25:23.766Z</time></trkpt><trkpt lat="45.7553383" lon="8.3932733"><ele>450.0</ele><time>2026-03-28T10:25:24.768Z</time></trkpt><trkpt lat="45.755315" lon="8.3934667"><ele>450.0</ele><time>2026-03-28T10:25:25.765Z</time></trkpt><trkpt lat="45.7553083" lon="8.39364"><ele>450.0</ele><time>2026-03-28T10:25:26.765Z</time></trkpt><trkpt lat="45.7553233" lon="8.3938083"><ele>450.0</ele><time>2026-03-28T10:25:27.768Z</time></trkpt><trkpt lat="45.75536" lon="8.3939867"><ele>450.0</ele><time>2026-03-28T10:25:28.768Z</time></trkpt><trkpt lat="45.75541" lon="8.39417"><ele>450.0</ele><time>2026-03-28T10:25:29.767Z</time></trkpt><trkpt lat="45.755455" lon="8.394355"><ele>450.0</ele><time>2026-03-28T10:25:30.77Z</time></trkpt><trkpt lat="45.75549" lon="8.3945283"><ele>451.6</ele><time>2026-03-28T10:25:31.768Z</time></trkpt><trkpt lat="45.755515" lon="8.3946883"><ele>453.2</ele><time>2026-03-28T10:25:32.768Z</time></trkpt><trkpt lat="45.7555267" lon="8.3948383"><ele>454.79999999999995</ele><time>2026-03-28T10:25:33.767Z</time></trkpt><trkpt lat="45.755535" lon="8.3949833"><ele>456.4</ele><time>2026-03-28T10:25:34.767Z</time></trkpt><trkpt lat="45.7555333" lon="8.3951317"><ele>458.0</ele><time>2026-03-28T10:25:35.767Z</time></trkpt><trkpt lat="45.7555067" lon="8.395305"><ele>458.0</ele><time>2026-03-28T10:25:36.765Z</time></trkpt><trkpt lat="45.7554683" lon="8.39549"><ele>458.0</ele><time>2026-03-28T10:25:37.768Z</time></trkpt><trkpt lat="45.7554233" lon="8.3956683"><ele>458.0</ele><time>2026-03-28T10:25:38.767Z</time></trkpt><trkpt lat="45.7554" lon="8.3958333"><ele>458.0</ele><time>2026-03-28T10:25:39.768Z</time></trkpt><trkpt lat="45.75541" lon="8.3959917"><ele>459.25</ele><time>2026-03-28T10:25:40.764Z</time></trkpt><trkpt lat="45.75545" lon="8.3961483"><ele>460.5</ele><time>2026-03-28T10:25:41.764Z</time></trkpt><trkpt lat="45.7555117" lon="8.3963083"><ele>461.75</ele><time>2026-03-28T10:25:42.768Z</time></trkpt><trkpt lat="45.7555833" lon="8.3964767"><ele>463.0</ele><time>2026-03-28T10:25:43.767Z</time></trkpt><trkpt lat="45.75565" lon="8.3966267"><ele>464.83333333333337</ele><time>2026-03-28T10:25:44.764Z</time></trkpt><trkpt lat="45.7557033" lon="8.396745"><ele>466.6666666666667</ele><time>2026-03-28T10:25:45.765Z</time></trkpt><trkpt lat="45.7557467" lon="8.3968317"><ele>468.5</ele><time>2026-03-28T10:25:46.765Z</time></trkpt><trkpt lat="45.755815" lon="8.3969767"><ele>470.33333333333337</ele><time>2026-03-28T10:25:48.766Z</time></trkpt><trkpt lat="45.7558567" lon="8.3970633"><ele>472.1666666666667</ele><time>2026-03-28T10:25:49.767Z</time></trkpt><trkpt lat="45.7558817" lon="8.39717"><ele>474.0</ele><time>2026-03-28T10:25:50.768Z</time></trkpt><trkpt lat="45.7558883" lon="8.3972867"><ele>475.4</ele><time>2026-03-28T10:25:51.766Z</time></trkpt><trkpt lat="45.7558783" lon="8.397405"><ele>476.79999999999995</ele><time>2026-03-28T10:25:52.765Z</time></trkpt><trkpt lat="45.7558517" lon="8.39754"><ele>478.20000000000005</ele><time>2026-03-28T10:25:53.766Z</time></trkpt><trkpt lat="45.7558183" lon="8.397695"><ele>479.6</ele><time>2026-03-28T10:25:54.766Z</time></trkpt><trkpt lat="45.7557767" lon="8.3978733"><ele>481.0</ele><time>2026-03-28T10:25:55.766Z</time></trkpt><trkpt lat="45.7557583" lon="8.398065"><ele>481.0</ele><time>2026-03-28T10:25:56.766Z</time></trkpt><trkpt lat="45.7557383" lon="8.3982767"><ele>481.0</ele><time>2026-03-28T10:25:57.768Z</time></trkpt><trkpt lat="45.7557133" lon="8.3984833"><ele>481.0</ele><time>2026-03-28T10:25:58.765Z</time></trkpt><trkpt lat="45.7556767" lon="8.398675"><ele>481.0</ele><time>2026-03-28T10:25:59.765Z</time></trkpt><trkpt lat="45.7556483" lon="8.398835"><ele>481.8</ele><time>2026-03-28T10:26:00.765Z</time></trkpt><trkpt lat="45.755615" lon="8.3989733"><ele>482.6</ele><time>2026-03-28T10:26:01.766Z</time></trkpt><trkpt lat="45.7556167" lon="8.3990933"><ele>483.4</ele><time>2026-03-28T10:26:02.766Z</time></trkpt><trkpt lat="45.7556433" lon="8.399205"><ele>484.2</ele><time>2026-03-28T10:26:03.767Z</time></trkpt><trkpt lat="45.7556933" lon="8.3993117"><ele>485.0</ele><time>2026-03-28T10:26:04.766Z</time></trkpt><trkpt lat="45.7557617" lon="8.3994083"><ele>485.0</ele><time>2026-03-28T10:26:05.768Z</time></trkpt><trkpt lat="45.7558083" lon="8.39954"><ele>485.0</ele><time>2026-03-28T10:26:06.769Z</time></trkpt><trkpt lat="45.7558467" lon="8.3997"><ele>485.0</ele><time>2026-03-28T10:26:07.764Z</time></trkpt><trkpt lat="45.7558717" lon="8.3998883"><ele>485.0</ele><time>2026-03-28T10:26:08.767Z</time></trkpt><trkpt lat="45.7558917" lon="8.400075"><ele>485.5</ele><time>2026-03-28T10:26:09.764Z</time></trkpt><trkpt lat="45.7559083" lon="8.4002517"><ele>486.0</ele><time>2026-03-28T10:26:10.767Z</time></trkpt><trkpt lat="45.755915" lon="8.4004217"><ele>486.5</ele><time>2026-03-28T10:26:11.767Z</time></trkpt><trkpt lat="45.7558983" lon="8.4005867"><ele>487.0</ele><time>2026-03-28T10:26:12.764Z</time></trkpt><trkpt lat="45.75586" lon="8.4007633"><ele>487.0</ele><time>2026-03-28T10:26:13.765Z</time></trkpt><trkpt lat="45.755805" lon="8.40095"><ele>487.0</ele><time>2026-03-28T10:26:14.765Z</time></trkpt><trkpt lat="45.75573" lon="8.40117"><ele>487.0</ele><time>2026-03-28T10:26:15.767Z</time></trkpt><trkpt lat="45.7556583" lon="8.401405"><ele>484.0</ele><time>2026-03-28T10:26:16.767Z</time></trkpt><trkpt lat="45.7555767" lon="8.401645"><ele>481.0</ele><time>2026-03-28T10:26:17.764Z</time></trkpt><trkpt lat="45.75551" lon="8.4018917"><ele>478.0</ele><time>2026-03-28T10:26:18.769Z</time></trkpt><trkpt lat="45.75545" lon="8.4021767"><ele>476.0</ele><time>2026-03-28T10:26:19.765Z</time></trkpt><trkpt lat="45.7554017" lon="8.402475"><ele>474.0</ele><time>2026-03-28T10:26:20.768Z</time></trkpt><trkpt lat="45.7553617" lon="8.4027517"><ele>472.0</ele><time>2026-03-28T10:26:21.767Z</time></trkpt><trkpt lat="45.7553233" lon="8.403005"><ele>469.0</ele><time>2026-03-28T10:26:22.767Z</time></trkpt><trkpt lat="45.755275" lon="8.40325"><ele>466.0</ele><time>2026-03-28T10:26:23.767Z</time></trkpt><trkpt lat="45.7552133" lon="8.403475"><ele>463.0</ele><time>2026-03-28T10:26:24.767Z</time></trkpt><trkpt lat="45.755135" lon="8.4036833"><ele>472.33333333333337</ele><time>2026-03-28T10:26:25.768Z</time></trkpt><trkpt lat="45.755045" lon="8.4038717"><ele>481.66666666666663</ele><time>2026-03-28T10:26:26.767Z</time></trkpt><trkpt lat="45.7549383" lon="8.4040467"><ele>491.0</ele><time>2026-03-28T10:26:27.767Z</time></trkpt><trkpt lat="45.7548117" lon="8.40424"><ele>491.0</ele><time>2026-03-28T10:26:28.764Z</time></trkpt><trkpt lat="45.7546783" lon="8.404455"><ele>491.0</ele><time>2026-03-28T10:26:29.767Z</time></trkpt><trkpt lat="45.7545417" lon="8.4046867"><ele>491.0</ele><time>2026-03-28T10:26:30.768Z</time></trkpt><trkpt lat="45.754405" lon="8.4049117"><ele>494.66666666666663</ele><time>2026-03-28T10:26:31.767Z</time></trkpt><trkpt lat="45.754275" lon="8.4051067"><ele>498.33333333333337</ele><time>2026-03-28T10:26:32.764Z</time></trkpt><trkpt lat="45.75414" lon="8.4052717"><ele>502.0</ele><time>2026-03-28T10:26:33.767Z</time></trkpt><trkpt lat="45.75401" lon="8.4054217"><ele>504.0</ele><time>2026-03-28T10:26:34.766Z</time></trkpt><trkpt lat="45.7538833" lon="8.405565"><ele>506.0</ele><time>2026-03-28T10:26:35.765Z</time></trkpt><trkpt lat="45.75376" lon="8.4057117"><ele>508.0</ele><time>2026-03-28T10:26:36.766Z</time></trkpt><trkpt lat="45.7536333" lon="8.405865"><ele>508.6666666666667</ele><time>2026-03-28T10:26:37.767Z</time></trkpt><trkpt lat="45.7535233" lon="8.4060233"><ele>509.33333333333337</ele><time>2026-03-28T10:26:38.768Z</time></trkpt><trkpt lat="45.753415" lon="8.4061867"><ele>510.0</ele><time>2026-03-28T10:26:39.767Z</time></trkpt><trkpt lat="45.7533033" lon="8.4063317"><ele>510.0</ele><time>2026-03-28T10:26:40.765Z</time></trkpt><trkpt lat="45.7531867" lon="8.4064633"><ele>510.0</ele><time>2026-03-28T10:26:41.765Z</time></trkpt><trkpt lat="45.7530817" lon="8.4065767"><ele>510.0</ele><time>2026-03-28T10:26:42.768Z</time></trkpt><trkpt lat="45.7529783" lon="8.4066917"><ele>510.0</ele><time>2026-03-28T10:26:43.765Z</time></trkpt><trkpt lat="45.7528817" lon="8.40684"><ele>510.0</ele><time>2026-03-28T10:26:44.765Z</time></trkpt><trkpt lat="45.752805" lon="8.4070183"><ele>510.0</ele><time>2026-03-28T10:26:45.767Z</time></trkpt><trkpt lat="45.7527383" lon="8.4072067"><ele>510.0</ele><time>2026-03-28T10:26:46.764Z</time></trkpt><trkpt lat="45.7526817" lon="8.407385"><ele>510.0</ele><time>2026-03-28T10:26:47.767Z</time></trkpt><trkpt lat="45.752615" lon="8.4075517"><ele>506.75</ele><time>2026-03-28T10:26:48.767Z</time></trkpt><trkpt lat="45.7525367" lon="8.4077117"><ele>503.5</ele><time>2026-03-28T10:26:49.767Z</time></trkpt><trkpt lat="45.7524333" lon="8.40786"><ele>500.25</ele><time>2026-03-28T10:26:50.764Z</time></trkpt><trkpt lat="45.752315" lon="8.4079717"><ele>497.0</ele><time>2026-03-28T10:26:51.768Z</time></trkpt><trkpt lat="45.7522217" lon="8.4080617"><ele>496.99999999999994</ele><time>2026-03-28T10:26:52.767Z</time></trkpt><trkpt lat="45.75217" lon="8.4081667"><ele>497.0</ele><time>2026-03-28T10:26:53.767Z</time></trkpt><trkpt lat="45.752135" lon="8.4082783"><ele>497.0</ele><time>2026-03-28T10:26:54.769Z</time></trkpt><trkpt lat="45.752125" lon="8.4084"><ele>497.0</ele><time>2026-03-28T10:26:55.767Z</time></trkpt><trkpt lat="45.7521383" lon="8.4085083"><ele>496.99999999999994</ele><time>2026-03-28T10:26:56.767Z</time></trkpt><trkpt lat="45.75219" lon="8.4085933"><ele>497.0</ele><time>2026-03-28T10:26:57.768Z</time></trkpt><trkpt lat="45.7522933" lon="8.40865"><ele>497.0</ele><time>2026-03-28T10:26:58.768Z</time></trkpt><trkpt lat="45.7524367" lon="8.4086867"><ele>497.0</ele><time>2026-03-28T10:26:59.764Z</time></trkpt><trkpt lat="45.752545" lon="8.4087567"><ele>497.0</ele><time>2026-03-28T10:27:00.767Z</time></trkpt><trkpt lat="45.7526433" lon="8.4088433"><ele>497.0</ele><time>2026-03-28T10:27:01.767Z</time></trkpt><trkpt lat="45.752715" lon="8.4089583"><ele>497.75</ele><time>2026-03-28T10:27:02.767Z</time></trkpt><trkpt lat="45.7527717" lon="8.4091133"><ele>498.5</ele><time>2026-03-28T10:27:03.768Z</time></trkpt><trkpt lat="45.752815" lon="8.4093067"><ele>499.25</ele><time>2026-03-28T10:27:04.769Z</time></trkpt><trkpt lat="45.75286" lon="8.4094933"><ele>500.0</ele><time>2026-03-28T10:27:05.764Z</time></trkpt><trkpt lat="45.7528917" lon="8.4096583"><ele>499.0</ele><time>2026-03-28T10:27:06.767Z</time></trkpt><trkpt lat="45.7529133" lon="8.4098067"><ele>498.0</ele><time>2026-03-28T10:27:07.767Z</time></trkpt><trkpt lat="45.752935" lon="8.409945"><ele>497.0</ele><time>2026-03-28T10:27:08.768Z</time></trkpt><trkpt lat="45.7529733" lon="8.4100933"><ele>496.0</ele><time>2026-03-28T10:27:09.768Z</time></trkpt><trkpt lat="45.7530083" lon="8.4102617"><ele>495.0</ele><time>2026-03-28T10:27:10.768Z</time></trkpt><trkpt lat="45.75304" lon="8.410405"><ele>494.6666666666667</ele><time>2026-03-28T10:27:11.767Z</time></trkpt><trkpt lat="45.753055" lon="8.4105267"><ele>494.33333333333337</ele><time>2026-03-28T10:27:12.768Z</time></trkpt><trkpt lat="45.753055" lon="8.41064"><ele>494.0</ele><time>2026-03-28T10:27:13.768Z</time></trkpt><trkpt lat="45.7530233" lon="8.4107417"><ele>493.6666666666667</ele><time>2026-03-28T10:27:14.767Z</time></trkpt><trkpt lat="45.7529717" lon="8.410835"><ele>493.33333333333337</ele><time>2026-03-28T10:27:15.768Z</time></trkpt><trkpt lat="45.7529017" lon="8.4109333"><ele>493.0</ele><time>2026-03-28T10:27:16.767Z</time></trkpt><trkpt lat="45.7527883" lon="8.4110183"><ele>489.75</ele><time>2026-03-28T10:27:17.765Z</time></trkpt><trkpt lat="45.7526683" lon="8.4111"><ele>486.5</ele><time>2026-03-28T10:27:18.766Z</time></trkpt><trkpt lat="45.7525483" lon="8.411185"><ele>483.25</ele><time>2026-03-28T10:27:19.766Z</time></trkpt><trkpt lat="45.7524283" lon="8.4112567"><ele>480.0</ele><time>2026-03-28T10:27:20.766Z</time></trkpt><trkpt lat="45.752315" lon="8.4113217"><ele>479.25</ele><time>2026-03-28T10:27:21.766Z</time></trkpt><trkpt lat="45.7521983" lon="8.4113767"><ele>478.5</ele><time>2026-03-28T10:27:22.765Z</time></trkpt><trkpt lat="45.7520683" lon="8.4114283"><ele>477.75</ele><time>2026-03-28T10:27:23.766Z</time></trkpt><trkpt lat="45.751915" lon="8.4114917"><ele>477.0</ele><time>2026-03-28T10:27:24.765Z</time></trkpt><trkpt lat="45.7517583" lon="8.411565"><ele>474.75</ele><time>2026-03-28T10:27:25.765Z</time></trkpt><trkpt lat="45.7516183" lon="8.4116583"><ele>472.5</ele><time>2026-03-28T10:27:26.765Z</time></trkpt><trkpt lat="45.7514917" lon="8.4117567"><ele>470.25</ele><time>2026-03-28T10:27:27.766Z</time></trkpt><trkpt lat="45.751375" lon="8.4118617"><ele>468.0</ele><time>2026-03-28T10:27:28.767Z</time></trkpt><trkpt lat="45.7512583" lon="8.41201"><ele>465.33333333333337</ele><time>2026-03-28T10:27:29.767Z</time></trkpt><trkpt lat="45.751135" lon="8.4121883"><ele>462.6666666666667</ele><time>2026-03-28T10:27:30.77Z</time></trkpt><trkpt lat="45.751005" lon="8.4123817"><ele>460.0</ele><time>2026-03-28T10:27:31.768Z</time></trkpt><trkpt lat="45.75087" lon="8.4125817"><ele>459.33333333333337</ele><time>2026-03-28T10:27:32.768Z</time></trkpt><trkpt lat="45.750745" lon="8.4127717"><ele>458.66666666666663</ele><time>2026-03-28T10:27:33.768Z</time></trkpt><trkpt lat="45.7506317" lon="8.41295"><ele>458.0</ele><time>2026-03-28T10:27:34.768Z</time></trkpt><trkpt lat="45.750515" lon="8.4131167"><ele>458.3333333333333</ele><time>2026-03-28T10:27:35.768Z</time></trkpt><trkpt lat="45.750405" lon="8.4133117"><ele>458.66666666666663</ele><time>2026-03-28T10:27:36.767Z</time></trkpt><trkpt lat="45.7503" lon="8.4135433"><ele>459.0</ele><time>2026-03-28T10:27:37.769Z</time></trkpt><trkpt lat="45.7501883" lon="8.4138033"><ele>456.0</ele><time>2026-03-28T10:27:38.767Z</time></trkpt><trkpt lat="45.7500617" lon="8.4140817"><ele>453.0</ele><time>2026-03-28T10:27:39.768Z</time></trkpt><trkpt lat="45.7499317" lon="8.4143617"><ele>453.0</ele><time>2026-03-28T10:27:40.77Z</time></trkpt><trkpt lat="45.7498167" lon="8.414625"><ele>453.0</ele><time>2026-03-28T10:27:41.768Z</time></trkpt><trkpt lat="45.74971" lon="8.41487"><ele>453.0</ele><time>2026-03-28T10:27:42.767Z</time></trkpt><trkpt lat="45.7496133" lon="8.415095"><ele>450.66666666666663</ele><time>2026-03-28T10:27:43.767Z</time></trkpt><trkpt lat="45.7495217" lon="8.4152983"><ele>448.3333333333333</ele><time>2026-03-28T10:27:44.767Z</time></trkpt><trkpt lat="45.7494333" lon="8.415495"><ele>446.0</ele><time>2026-03-28T10:27:45.765Z</time></trkpt><trkpt lat="45.7493267" lon="8.4156967"><ele>443.66666666666663</ele><time>2026-03-28T10:27:46.768Z</time></trkpt><trkpt lat="45.7491967" lon="8.4159083"><ele>441.33333333333337</ele><time>2026-03-28T10:27:47.764Z</time></trkpt><trkpt lat="45.7490517" lon="8.4161383"><ele>439.0</ele><time>2026-03-28T10:27:48.766Z</time></trkpt><trkpt lat="45.7489" lon="8.4163967"><ele>438.0</ele><time>2026-03-28T10:27:49.766Z</time></trkpt><trkpt lat="45.7487433" lon="8.41666"><ele>437.0</ele><time>2026-03-28T10:27:50.766Z</time></trkpt><trkpt lat="45.7485883" lon="8.416915"><ele>434.66666666666663</ele><time>2026-03-28T10:27:51.766Z</time></trkpt><trkpt lat="45.7484467" lon="8.4171617"><ele>432.33333333333337</ele><time>2026-03-28T10:27:52.765Z</time></trkpt><trkpt lat="45.7483117" lon="8.417395"><ele>430.0</ele><time>2026-03-28T10:27:53.766Z</time></trkpt><trkpt lat="45.7481683" lon="8.4176"><ele>430.0</ele><time>2026-03-28T10:27:54.766Z</time></trkpt><trkpt lat="45.7480083" lon="8.4177733"><ele>430.0</ele><time>2026-03-28T10:27:55.767Z</time></trkpt><trkpt lat="45.7478383" lon="8.4179167"><ele>430.0</ele><time>2026-03-28T10:27:56.766Z</time></trkpt><trkpt lat="45.7476633" lon="8.4180317"><ele>428.6666666666667</ele><time>2026-03-28T10:27:57.765Z</time></trkpt><trkpt lat="45.7474883" lon="8.4181083"><ele>427.33333333333337</ele><time>2026-03-28T10:27:58.767Z</time></trkpt><trkpt lat="45.747315" lon="8.418145"><ele>426.0</ele><time>2026-03-28T10:27:59.768Z</time></trkpt><trkpt lat="45.7471483" lon="8.4181617"><ele>426.0</ele><time>2026-03-28T10:28:00.767Z</time></trkpt><trkpt lat="45.74699" lon="8.418195"><ele>426.0</ele><time>2026-03-28T10:28:01.767Z</time></trkpt><trkpt lat="45.7468367" lon="8.4182517"><ele>426.0</ele><time>2026-03-28T10:28:02.765Z</time></trkpt><trkpt lat="45.7466917" lon="8.4183267"><ele>425.33333333333337</ele><time>2026-03-28T10:28:03.765Z</time></trkpt><trkpt lat="45.746555" lon="8.4184333"><ele>424.6666666666667</ele><time>2026-03-28T10:28:04.768Z</time></trkpt><trkpt lat="45.7464233" lon="8.4185783"><ele>424.0</ele><time>2026-03-28T10:28:05.767Z</time></trkpt><trkpt lat="45.7462867" lon="8.4187367"><ele>423.6666666666667</ele><time>2026-03-28T10:28:06.767Z</time></trkpt><trkpt lat="45.74614" lon="8.418905"><ele>423.33333333333337</ele><time>2026-03-28T10:28:07.767Z</time></trkpt><trkpt lat="45.7459933" lon="8.4190783"><ele>423.0</ele><time>2026-03-28T10:28:08.768Z</time></trkpt><trkpt lat="45.74585" lon="8.4192483"><ele>422.66666666666663</ele><time>2026-03-28T10:28:09.767Z</time></trkpt><trkpt lat="45.7457167" lon="8.4194083"><ele>422.3333333333333</ele><time>2026-03-28T10:28:10.767Z</time></trkpt><trkpt lat="45.745595" lon="8.4195467"><ele>422.0</ele><time>2026-03-28T10:28:11.767Z</time></trkpt><trkpt lat="45.74549" lon="8.4196633"><ele>422.0</ele><time>2026-03-28T10:28:12.767Z</time></trkpt><trkpt lat="45.7454" lon="8.419775"><ele>422.0</ele><time>2026-03-28T10:28:13.767Z</time></trkpt><trkpt lat="45.7453317" lon="8.4198817"><ele>422.0</ele><time>2026-03-28T10:28:14.768Z</time></trkpt><trkpt lat="45.7453083" lon="8.4200083"><ele>422.0</ele><time>2026-03-28T10:28:15.767Z</time></trkpt><trkpt lat="45.7453417" lon="8.420135"><ele>422.0</ele><time>2026-03-28T10:28:16.856Z</time></trkpt><trkpt lat="45.745415" lon="8.4202533"><ele>422.0</ele><time>2026-03-28T10:28:17.765Z</time></trkpt><trkpt lat="45.745495" lon="8.4203933"><ele>422.0</ele><time>2026-03-28T10:28:18.765Z</time></trkpt><trkpt lat="45.745565" lon="8.4205583"><ele>422.0</ele><time>2026-03-28T10:28:19.765Z</time></trkpt><trkpt lat="45.7456083" lon="8.42074"><ele>422.0</ele><time>2026-03-28T10:28:20.766Z</time></trkpt><trkpt lat="45.7456" lon="8.42093"><ele>421.0</ele><time>2026-03-28T10:28:21.766Z</time></trkpt><trkpt lat="45.7455483" lon="8.4211167"><ele>420.0</ele><time>2026-03-28T10:28:22.766Z</time></trkpt><trkpt lat="45.7454533" lon="8.4212933"><ele>419.0</ele><time>2026-03-28T10:28:23.766Z</time></trkpt><trkpt lat="45.7453183" lon="8.4214617"><ele>419.0</ele><time>2026-03-28T10:28:24.766Z</time></trkpt><trkpt lat="45.74516" lon="8.4216383"><ele>419.0</ele><time>2026-03-28T10:28:25.766Z</time></trkpt><trkpt lat="45.745005" lon="8.42182"><ele>419.0</ele><time>2026-03-28T10:28:26.766Z</time></trkpt><trkpt lat="45.7448617" lon="8.4219917"><ele>419.0</ele><time>2026-03-28T10:28:27.766Z</time></trkpt><trkpt lat="45.74472" lon="8.42213"><ele>419.0</ele><time>2026-03-28T10:28:28.768Z</time></trkpt><trkpt lat="45.7445767" lon="8.4222283"><ele>419.0</ele><time>2026-03-28T10:28:29.767Z</time></trkpt><trkpt lat="45.744425" lon="8.4222983"><ele>416.66666666666663</ele><time>2026-03-28T10:28:30.767Z</time></trkpt><trkpt lat="45.7442783" lon="8.4223317"><ele>414.33333333333337</ele><time>2026-03-28T10:28:31.77Z</time></trkpt><trkpt lat="45.7441367" lon="8.4223117"><ele>412.0</ele><time>2026-03-28T10:28:32.767Z</time></trkpt><trkpt lat="45.7439783" lon="8.422245"><ele>411.6666666666667</ele><time>2026-03-28T10:28:33.767Z</time></trkpt><trkpt lat="45.7438217" lon="8.4221317"><ele>411.33333333333337</ele><time>2026-03-28T10:28:34.768Z</time></trkpt><trkpt lat="45.7436633" lon="8.42198"><ele>411.0</ele><time>2026-03-28T10:28:35.768Z</time></trkpt><trkpt lat="45.7435133" lon="8.4218133"><ele>411.0</ele><time>2026-03-28T10:28:36.767Z</time></trkpt><trkpt lat="45.7433767" lon="8.4216667"><ele>411.0</ele><time>2026-03-28T10:28:37.767Z</time></trkpt><trkpt lat="45.743265" lon="8.4215467"><ele>411.0</ele><time>2026-03-28T10:28:38.767Z</time></trkpt><trkpt lat="45.7431733" lon="8.4214483"><ele>411.0</ele><time>2026-03-28T10:28:39.768Z</time></trkpt><trkpt lat="45.7430933" lon="8.421375"><ele>411.0</ele><time>2026-03-28T10:28:40.767Z</time></trkpt><trkpt lat="45.743015" lon="8.421325"><ele>411.0</ele><time>2026-03-28T10:28:41.768Z</time></trkpt><trkpt lat="45.7429333" lon="8.4212933"><ele>411.0</ele><time>2026-03-28T10:28:42.767Z</time></trkpt><trkpt lat="45.742835" lon="8.4213017"><ele>411.0</ele><time>2026-03-28T10:28:43.767Z</time></trkpt><trkpt lat="45.7427267" lon="8.42136"><ele>411.0</ele><time>2026-03-28T10:28:44.768Z</time></trkpt><trkpt lat="45.7426033" lon="8.4214683"><ele>409.0</ele><time>2026-03-28T10:28:45.767Z</time></trkpt><trkpt lat="45.7424667" lon="8.4216083"><ele>407.0</ele><time>2026-03-28T10:28:46.764Z</time></trkpt><trkpt lat="45.7423083" lon="8.4217683"><ele>405.0</ele><time>2026-03-28T10:28:47.765Z</time></trkpt><trkpt lat="45.7421483" lon="8.4219317"><ele>405.0</ele><time>2026-03-28T10:28:48.766Z</time></trkpt><trkpt lat="45.7419933" lon="8.422085"><ele>405.0</ele><time>2026-03-28T10:28:49.766Z</time></trkpt><trkpt lat="45.74184" lon="8.4222283"><ele>405.0</ele><time>2026-03-28T10:28:50.767Z</time></trkpt><trkpt lat="45.7416917" lon="8.4223717"><ele>401.0</ele><time>2026-03-28T10:28:51.766Z</time></trkpt><trkpt lat="45.7415533" lon="8.4225167"><ele>397.0</ele><time>2026-03-28T10:28:52.766Z</time></trkpt><trkpt lat="45.74142" lon="8.422675"><ele>393.0</ele><time>2026-03-28T10:28:53.766Z</time></trkpt><trkpt lat="45.741295" lon="8.4228383"><ele>391.66666666666663</ele><time>2026-03-28T10:28:54.766Z</time></trkpt><trkpt lat="45.7411833" lon="8.4230117"><ele>390.3333333333333</ele><time>2026-03-28T10:28:55.766Z</time></trkpt><trkpt lat="45.741095" lon="8.4232033"><ele>389.0</ele><time>2026-03-28T10:28:56.764Z</time></trkpt><trkpt lat="45.7410233" lon="8.4234117"><ele>389.0</ele><time>2026-03-28T10:28:57.765Z</time></trkpt><trkpt lat="45.74095" lon="8.4236083"><ele>389.0</ele><time>2026-03-28T10:28:58.767Z</time></trkpt><trkpt lat="45.7408583" lon="8.4237767"><ele>389.0</ele><time>2026-03-28T10:28:59.769Z</time></trkpt><trkpt lat="45.7407517" lon="8.4239283"><ele>386.3333333333333</ele><time>2026-03-28T10:29:00.769Z</time></trkpt><trkpt lat="45.7406317" lon="8.424085"><ele>383.66666666666663</ele><time>2026-03-28T10:29:01.767Z</time></trkpt><trkpt lat="45.74051" lon="8.4242383"><ele>381.0</ele><time>2026-03-28T10:29:02.767Z</time></trkpt><trkpt lat="45.7404017" lon="8.4243883"><ele>381.0</ele><time>2026-03-28T10:29:03.768Z</time></trkpt><trkpt lat="45.7403167" lon="8.424545"><ele>381.0</ele><time>2026-03-28T10:29:04.767Z</time></trkpt><trkpt lat="45.740245" lon="8.42473"><ele>381.0</ele><time>2026-03-28T10:29:05.767Z</time></trkpt><trkpt lat="45.7401783" lon="8.424955"><ele>381.6666666666667</ele><time>2026-03-28T10:29:06.767Z</time></trkpt><trkpt lat="45.740115" lon="8.4252133"><ele>382.33333333333337</ele><time>2026-03-28T10:29:07.767Z</time></trkpt><trkpt lat="45.7400483" lon="8.4254817"><ele>383.0</ele><time>2026-03-28T10:29:08.765Z</time></trkpt><trkpt lat="45.7399783" lon="8.42574"><ele>381.0</ele><time>2026-03-28T10:29:09.765Z</time></trkpt><trkpt lat="45.739905" lon="8.4259867"><ele>379.0</ele><time>2026-03-28T10:29:10.768Z</time></trkpt><trkpt lat="45.7398217" lon="8.4262283"><ele>377.0</ele><time>2026-03-28T10:29:11.768Z</time></trkpt><trkpt lat="45.7397417" lon="8.4264617"><ele>374.33333333333337</ele><time>2026-03-28T10:29:12.767Z</time></trkpt><trkpt lat="45.7396733" lon="8.4266833"><ele>371.6666666666667</ele><time>2026-03-28T10:29:13.767Z</time></trkpt><trkpt lat="45.739605" lon="8.4268917"><ele>369.0</ele><time>2026-03-28T10:29:14.767Z</time></trkpt><trkpt lat="45.7395333" lon="8.4271067"><ele>370.0</ele><time>2026-03-28T10:29:15.767Z</time></trkpt><trkpt lat="45.7394533" lon="8.42735"><ele>371.0</ele><time>2026-03-28T10:29:16.765Z</time></trkpt><trkpt lat="45.73936" lon="8.4276183"><ele>372.0</ele><time>2026-03-28T10:29:17.766Z</time></trkpt><trkpt lat="45.73926" lon="8.427915"><ele>370.0</ele><time>2026-03-28T10:29:18.766Z</time></trkpt><trkpt lat="45.7391667" lon="8.4282383"><ele>368.0</ele><time>2026-03-28T10:29:19.766Z</time></trkpt><trkpt lat="45.7390933" lon="8.4285867"><ele>366.5</ele><time>2026-03-28T10:29:20.765Z</time></trkpt><trkpt lat="45.739045" lon="8.4289383"><ele>365.0</ele><time>2026-03-28T10:29:21.765Z</time></trkpt><trkpt lat="45.7390117" lon="8.429275"><ele>365.0</ele><time>2026-03-28T10:29:22.765Z</time></trkpt><trkpt lat="45.7389833" lon="8.4295883"><ele>365.0</ele><time>2026-03-28T10:29:23.767Z</time></trkpt><trkpt lat="45.7389617" lon="8.4298783"><ele>365.0</ele><time>2026-03-28T10:29:24.767Z</time></trkpt><trkpt lat="45.7389317" lon="8.4301483"><ele>364.33333333333337</ele><time>2026-03-28T10:29:25.768Z</time></trkpt><trkpt lat="45.73889" lon="8.430395"><ele>363.6666666666667</ele><time>2026-03-28T10:29:26.764Z</time></trkpt><trkpt lat="45.7388367" lon="8.4306133"><ele>363.0</ele><time>2026-03-28T10:29:27.766Z</time></trkpt><trkpt lat="45.7387617" lon="8.4307933"><ele>362.2</ele><time>2026-03-28T10:29:28.767Z</time></trkpt><trkpt lat="45.7386917" lon="8.4309433"><ele>361.4</ele><time>2026-03-28T10:29:29.768Z</time></trkpt><trkpt lat="45.7386183" lon="8.4310717"><ele>360.59999999999997</ele><time>2026-03-28T10:29:30.767Z</time></trkpt><trkpt lat="45.7385533" lon="8.4311833"><ele>359.79999999999995</ele><time>2026-03-28T10:29:31.767Z</time></trkpt><trkpt lat="45.7384983" lon="8.4312817"><ele>359.0</ele><time>2026-03-28T10:29:32.767Z</time></trkpt><trkpt lat="45.7384483" lon="8.4313583"><ele>358.5</ele><time>2026-03-28T10:29:33.767Z</time></trkpt><trkpt lat="45.7383567" lon="8.43144"><ele>358.0</ele><time>2026-03-28T10:29:35.767Z</time></trkpt><trkpt lat="45.738295" lon="8.43146"><ele>357.5</ele><time>2026-03-28T10:29:36.767Z</time></trkpt><trkpt lat="45.7382183" lon="8.4314867"><ele>357.0</ele><time>2026-03-28T10:29:37.767Z</time></trkpt><trkpt lat="45.7381383" lon="8.4315383"><ele>356.5</ele><time>2026-03-28T10:29:38.767Z</time></trkpt><trkpt lat="45.7380517" lon="8.4316117"><ele>356.0</ele><time>2026-03-28T10:29:39.767Z</time></trkpt><trkpt lat="45.7379367" lon="8.431695"><ele>356.0</ele><time>2026-03-28T10:29:40.767Z</time></trkpt><trkpt lat="45.7377917" lon="8.431755"><ele>356.0</ele><time>2026-03-28T10:29:41.768Z</time></trkpt><trkpt lat="45.737615" lon="8.4318017"><ele>356.0</ele><time>2026-03-28T10:29:42.768Z</time></trkpt><trkpt lat="45.7374133" lon="8.431855"><ele>353.5</ele><time>2026-03-28T10:29:43.767Z</time></trkpt><trkpt lat="45.7371983" lon="8.4319217"><ele>351.0</ele><time>2026-03-28T10:29:44.767Z</time></trkpt><trkpt lat="45.7369683" lon="8.4319917"><ele>350.0</ele><time>2026-03-28T10:29:45.767Z</time></trkpt><trkpt lat="45.7367317" lon="8.4320617"><ele>349.0</ele><time>2026-03-28T10:29:46.765Z</time></trkpt><trkpt lat="45.736485" lon="8.4321333"><ele>349.0</ele><time>2026-03-28T10:29:47.765Z</time></trkpt><trkpt lat="45.7362283" lon="8.432205"><ele>349.0</ele><time>2026-03-28T10:29:48.765Z</time></trkpt><trkpt lat="45.7359717" lon="8.4322767"><ele>349.0</ele><time>2026-03-28T10:29:49.765Z</time></trkpt><trkpt lat="45.735715" lon="8.432345"><ele>349.0</ele><time>2026-03-28T10:29:50.766Z</time></trkpt><trkpt lat="45.7354583" lon="8.4324133"><ele>348.5</ele><time>2026-03-28T10:29:51.765Z</time></trkpt><trkpt lat="45.7352017" lon="8.432485"><ele>348.0</ele><time>2026-03-28T10:29:52.765Z</time></trkpt><trkpt lat="45.7349483" lon="8.43256"><ele>348.0</ele><time>2026-03-28T10:29:53.767Z</time></trkpt><trkpt lat="45.7347017" lon="8.4326383"><ele>348.0</ele><time>2026-03-28T10:29:54.767Z</time></trkpt><trkpt lat="45.7344583" lon="8.4327183"><ele>347.5</ele><time>2026-03-28T10:29:55.767Z</time></trkpt><trkpt lat="45.7342183" lon="8.4328083"><ele>347.0</ele><time>2026-03-28T10:29:56.764Z</time></trkpt><trkpt lat="45.73398" lon="8.43291"><ele>347.0</ele><time>2026-03-28T10:29:57.766Z</time></trkpt><trkpt lat="45.7337467" lon="8.4330217"><ele>347.0</ele><time>2026-03-28T10:29:58.765Z</time></trkpt><trkpt lat="45.7335133" lon="8.43315"><ele>345.0</ele><time>2026-03-28T10:29:59.766Z</time></trkpt><trkpt lat="45.733275" lon="8.4333"><ele>343.0</ele><time>2026-03-28T10:30:00.766Z</time></trkpt><trkpt lat="45.73303" lon="8.4334667"><ele>343.0</ele><time>2026-03-28T10:30:01.765Z</time></trkpt><trkpt lat="45.732775" lon="8.4336483"><ele>343.0</ele><time>2026-03-28T10:30:02.767Z</time></trkpt><trkpt lat="45.732515" lon="8.4338467"><ele>345.0</ele><time>2026-03-28T10:30:03.766Z</time></trkpt><trkpt lat="45.73225" lon="8.4340617"><ele>347.0</ele><time>2026-03-28T10:30:04.765Z</time></trkpt><trkpt lat="45.7319833" lon="8.4342817"><ele>347.0</ele><time>2026-03-28T10:30:05.766Z</time></trkpt><trkpt lat="45.7317133" lon="8.4344983"><ele>347.0</ele><time>2026-03-28T10:30:06.765Z</time></trkpt><trkpt lat="45.7314417" lon="8.4347067"><ele>346.5</ele><time>2026-03-28T10:30:07.766Z</time></trkpt><trkpt lat="45.73117" lon="8.434905"><ele>346.0</ele><time>2026-03-28T10:30:08.765Z</time></trkpt><trkpt lat="45.7309" lon="8.4350933"><ele>346.0</ele><time>2026-03-28T10:30:09.766Z</time></trkpt><trkpt lat="45.7306267" lon="8.4352633"><ele>346.0</ele><time>2026-03-28T10:30:10.767Z</time></trkpt><trkpt lat="45.7303583" lon="8.43542"><ele>344.0</ele><time>2026-03-28T10:30:11.767Z</time></trkpt><trkpt lat="45.73009" lon="8.4355633"><ele>342.0</ele><time>2026-03-28T10:30:12.765Z</time></trkpt><trkpt lat="45.7298167" lon="8.435695"><ele>342.0</ele><time>2026-03-28T10:30:13.767Z</time></trkpt><trkpt lat="45.7295533" lon="8.4358183"><ele>342.0</ele><time>2026-03-28T10:30:14.767Z</time></trkpt><trkpt lat="45.729305" lon="8.435925"><ele>341.6666666666667</ele><time>2026-03-28T10:30:15.767Z</time></trkpt><trkpt lat="45.7290767" lon="8.436025"><ele>341.33333333333337</ele><time>2026-03-28T10:30:16.767Z</time></trkpt><trkpt lat="45.728875" lon="8.4361117"><ele>341.0</ele><time>2026-03-28T10:30:17.767Z</time></trkpt><trkpt lat="45.728695" lon="8.4361933"><ele>340.6666666666667</ele><time>2026-03-28T10:30:18.768Z</time></trkpt><trkpt lat="45.7285367" lon="8.4362617"><ele>340.3333333333333</ele><time>2026-03-28T10:30:19.769Z</time></trkpt><trkpt lat="45.72839" lon="8.4363083"><ele>340.0</ele><time>2026-03-28T10:30:20.768Z</time></trkpt><trkpt lat="45.7282433" lon="8.43632"><ele>340.0</ele><time>2026-03-28T10:30:21.768Z</time></trkpt><trkpt lat="45.7281083" lon="8.436315"><ele>340.0</ele><time>2026-03-28T10:30:22.767Z</time></trkpt><trkpt lat="45.7279817" lon="8.4363483"><ele>340.0</ele><time>2026-03-28T10:30:23.769Z</time></trkpt><trkpt lat="45.727855" lon="8.436435"><ele>340.0</ele><time>2026-03-28T10:30:24.767Z</time></trkpt><trkpt lat="45.7277233" lon="8.4365617"><ele>339.66666666666663</ele><time>2026-03-28T10:30:25.767Z</time></trkpt><trkpt lat="45.7275683" lon="8.4366883"><ele>339.3333333333333</ele><time>2026-03-28T10:30:26.767Z</time></trkpt><trkpt lat="45.7273917" lon="8.4368017"><ele>339.0</ele><time>2026-03-28T10:30:27.765Z</time></trkpt><trkpt lat="45.7272017" lon="8.436925"><ele>339.0</ele><time>2026-03-28T10:30:28.765Z</time></trkpt><trkpt lat="45.726995" lon="8.4370667"><ele>339.0</ele><time>2026-03-28T10:30:29.765Z</time></trkpt><trkpt lat="45.72678" lon="8.4372233"><ele>336.0</ele><time>2026-03-28T10:30:30.766Z</time></trkpt><trkpt lat="45.7265683" lon="8.4374"><ele>333.0</ele><time>2026-03-28T10:30:31.766Z</time></trkpt><trkpt lat="45.7263567" lon="8.437595"><ele>333.0</ele><time>2026-03-28T10:30:32.765Z</time></trkpt><trkpt lat="45.7261433" lon="8.4378033"><ele>333.0</ele><time>2026-03-28T10:30:33.766Z</time></trkpt><trkpt lat="45.7259283" lon="8.4380167"><ele>333.0</ele><time>2026-03-28T10:30:34.767Z</time></trkpt><trkpt lat="45.7257117" lon="8.4382317"><ele>333.0</ele><time>2026-03-28T10:30:35.765Z</time></trkpt><trkpt lat="45.725495" lon="8.4384467"><ele>333.0</ele><time>2026-03-28T10:30:36.767Z</time></trkpt><trkpt lat="45.7252767" lon="8.4386633"><ele>333.0</ele><time>2026-03-28T10:30:37.764Z</time></trkpt><trkpt lat="45.725055" lon="8.4388783"><ele>335.5</ele><time>2026-03-28T10:30:38.764Z</time></trkpt><trkpt lat="45.72483" lon="8.4390833"><ele>338.0</ele><time>2026-03-28T10:30:39.767Z</time></trkpt><trkpt lat="45.7245983" lon="8.4392817"><ele>338.0</ele><time>2026-03-28T10:30:40.767Z</time></trkpt><trkpt lat="45.7243583" lon="8.4394717"><ele>338.0</ele><time>2026-03-28T10:30:41.767Z</time></trkpt><trkpt lat="45.7241133" lon="8.4396533"><ele>338.5</ele><time>2026-03-28T10:30:42.767Z</time></trkpt><trkpt lat="45.7238617" lon="8.4398167"><ele>339.0</ele><time>2026-03-28T10:30:43.767Z</time></trkpt><trkpt lat="45.7236083" lon="8.4399567"><ele>337.0</ele><time>2026-03-28T10:30:44.767Z</time></trkpt><trkpt lat="45.7233667" lon="8.4400883"><ele>335.0</ele><time>2026-03-28T10:30:45.767Z</time></trkpt><trkpt lat="45.72314" lon="8.4401983"><ele>335.0</ele><time>2026-03-28T10:30:46.768Z</time></trkpt><trkpt lat="45.7229283" lon="8.44029"><ele>335.0</ele><time>2026-03-28T10:30:47.768Z</time></trkpt><trkpt lat="45.7227317" lon="8.4403667"><ele>335.0</ele><time>2026-03-28T10:30:48.767Z</time></trkpt><trkpt lat="45.7225517" lon="8.44043"><ele>334.25</ele><time>2026-03-28T10:30:49.767Z</time></trkpt><trkpt lat="45.7223983" lon="8.4404833"><ele>333.5</ele><time>2026-03-28T10:30:50.767Z</time></trkpt><trkpt lat="45.7222567" lon="8.4405317"><ele>332.75</ele><time>2026-03-28T10:30:51.767Z</time></trkpt><trkpt lat="45.7221233" lon="8.44057"><ele>332.0</ele><time>2026-03-28T10:30:52.767Z</time></trkpt><trkpt lat="45.7220017" lon="8.4406033"><ele>332.40000000000003</ele><time>2026-03-28T10:30:53.767Z</time></trkpt><trkpt lat="45.7218983" lon="8.4406233"><ele>332.8</ele><time>2026-03-28T10:30:54.767Z</time></trkpt><trkpt lat="45.7218067" lon="8.44063"><ele>333.2</ele><time>2026-03-28T10:30:55.767Z</time></trkpt><trkpt lat="45.7217167" lon="8.4406133"><ele>333.6</ele><time>2026-03-28T10:30:56.767Z</time></trkpt><trkpt lat="45.721625" lon="8.4405817"><ele>334.0</ele><time>2026-03-28T10:30:57.764Z</time></trkpt><trkpt lat="45.7215233" lon="8.4405583"><ele>334.0</ele><time>2026-03-28T10:30:58.766Z</time></trkpt><trkpt lat="45.7214167" lon="8.440565"><ele>334.0</ele><time>2026-03-28T10:30:59.765Z</time></trkpt><trkpt lat="45.72131" lon="8.440615"><ele>334.0</ele><time>2026-03-28T10:31:00.766Z</time></trkpt><trkpt lat="45.7212033" lon="8.440685"><ele>334.0</ele><time>2026-03-28T10:31:01.769Z</time></trkpt><trkpt lat="45.7210767" lon="8.4407467"><ele>333.66666666666663</ele><time>2026-03-28T10:31:02.764Z</time></trkpt><trkpt lat="45.7209217" lon="8.4407867"><ele>333.3333333333333</ele><time>2026-03-28T10:31:03.765Z</time></trkpt><trkpt lat="45.7207333" lon="8.4408067"><ele>333.0</ele><time>2026-03-28T10:31:04.766Z</time></trkpt><trkpt lat="45.7205317" lon="8.4408283"><ele>333.0</ele><time>2026-03-28T10:31:05.767Z</time></trkpt><trkpt lat="45.7203133" lon="8.4408617"><ele>333.0</ele><time>2026-03-28T10:31:06.765Z</time></trkpt><trkpt lat="45.7200817" lon="8.4409133"><ele>332.0</ele><time>2026-03-28T10:31:07.766Z</time></trkpt><trkpt lat="45.7198417" lon="8.44097"><ele>331.0</ele><time>2026-03-28T10:31:08.766Z</time></trkpt><trkpt lat="45.7195967" lon="8.4410217"><ele>330.0</ele><time>2026-03-28T10:31:09.768Z</time></trkpt><trkpt lat="45.7193567" lon="8.4410733"><ele>329.0</ele><time>2026-03-28T10:31:10.768Z</time></trkpt><trkpt lat="45.7191217" lon="8.441125"><ele>329.0</ele><time>2026-03-28T10:31:11.768Z</time></trkpt><trkpt lat="45.7188833" lon="8.4411717"><ele>329.0</ele><time>2026-03-28T10:31:12.768Z</time></trkpt><trkpt lat="45.7186433" lon="8.4412233"><ele>329.0</ele><time>2026-03-28T10:31:13.767Z</time></trkpt><trkpt lat="45.7184" lon="8.4412817"><ele>329.0</ele><time>2026-03-28T10:31:14.767Z</time></trkpt><trkpt lat="45.7181533" lon="8.4413433"><ele>329.0</ele><time>2026-03-28T10:31:15.767Z</time></trkpt><trkpt lat="45.7179033" lon="8.441405"><ele>329.0</ele><time>2026-03-28T10:31:16.767Z</time></trkpt><trkpt lat="45.7176517" lon="8.4414633"><ele>329.5</ele><time>2026-03-28T10:31:17.767Z</time></trkpt><trkpt lat="45.7174" lon="8.4415133"><ele>330.0</ele><time>2026-03-28T10:31:18.767Z</time></trkpt><trkpt lat="45.717145" lon="8.4415667"><ele>328.5</ele><time>2026-03-28T10:31:19.767Z</time></trkpt><trkpt lat="45.716885" lon="8.441625"><ele>327.0</ele><time>2026-03-28T10:31:20.764Z</time></trkpt><trkpt lat="45.7166233" lon="8.441685"><ele>327.0</ele><time>2026-03-28T10:31:21.767Z</time></trkpt><trkpt lat="45.7163617" lon="8.441745"><ele>327.0</ele><time>2026-03-28T10:31:22.767Z</time></trkpt><trkpt lat="45.7160967" lon="8.4418067"><ele>329.0</ele><time>2026-03-28T10:31:23.768Z</time></trkpt><trkpt lat="45.715825" lon="8.4418717"><ele>331.0</ele><time>2026-03-28T10:31:24.768Z</time></trkpt><trkpt lat="45.7155583" lon="8.4419317"><ele>331.0</ele><time>2026-03-28T10:31:25.767Z</time></trkpt><trkpt lat="45.7152933" lon="8.4419933"><ele>331.0</ele><time>2026-03-28T10:31:26.768Z</time></trkpt><trkpt lat="45.71503" lon="8.4420533"><ele>330.0</ele><time>2026-03-28T10:31:27.764Z</time></trkpt><trkpt lat="45.7147733" lon="8.4421083"><ele>329.0</ele><time>2026-03-28T10:31:28.765Z</time></trkpt><trkpt lat="45.7145333" lon="8.4421633"><ele>328.6666666666667</ele><time>2026-03-28T10:31:29.765Z</time></trkpt><trkpt lat="45.71431" lon="8.44222"><ele>328.3333333333333</ele><time>2026-03-28T10:31:30.77Z</time></trkpt><trkpt lat="45.714095" lon="8.44228"><ele>328.0</ele><time>2026-03-28T10:31:31.767Z</time></trkpt><trkpt lat="45.7139033" lon="8.4423483"><ele>328.0</ele><time>2026-03-28T10:31:32.764Z</time></trkpt><trkpt lat="45.7137267" lon="8.4424217"><ele>328.0</ele><time>2026-03-28T10:31:33.769Z</time></trkpt><trkpt lat="45.7135717" lon="8.442495"><ele>328.0</ele><time>2026-03-28T10:31:34.764Z</time></trkpt><trkpt lat="45.7134333" lon="8.4425333"><ele>329.0</ele><time>2026-03-28T10:31:35.767Z</time></trkpt><trkpt lat="45.7132933" lon="8.4425367"><ele>330.0</ele><time>2026-03-28T10:31:36.767Z</time></trkpt><trkpt lat="45.7131483" lon="8.4425367"><ele>331.0</ele><time>2026-03-28T10:31:37.764Z</time></trkpt><trkpt lat="45.7130033" lon="8.4425667"><ele>332.0</ele><time>2026-03-28T10:31:38.765Z</time></trkpt><trkpt lat="45.712855" lon="8.442645"><ele>331.33333333333337</ele><time>2026-03-28T10:31:39.767Z</time></trkpt><trkpt lat="45.7126883" lon="8.442715"><ele>330.6666666666667</ele><time>2026-03-28T10:31:40.767Z</time></trkpt><trkpt lat="45.712495" lon="8.4427567"><ele>330.0</ele><time>2026-03-28T10:31:41.767Z</time></trkpt><trkpt lat="45.7122817" lon="8.4427933"><ele>330.0</ele><time>2026-03-28T10:31:42.767Z</time></trkpt><trkpt lat="45.7120583" lon="8.442865"><ele>330.0</ele><time>2026-03-28T10:31:43.767Z</time></trkpt><trkpt lat="45.71183" lon="8.4429633"><ele>327.5</ele><time>2026-03-28T10:31:44.767Z</time></trkpt><trkpt lat="45.7116" lon="8.443085"><ele>325.0</ele><time>2026-03-28T10:31:45.767Z</time></trkpt><trkpt lat="45.7113717" lon="8.4432283"><ele>325.0</ele><time>2026-03-28T10:31:46.768Z</time></trkpt><trkpt lat="45.7111383" lon="8.44338"><ele>325.0</ele><time>2026-03-28T10:31:47.767Z</time></trkpt><trkpt lat="45.7109033" lon="8.4435367"><ele>325.5</ele><time>2026-03-28T10:31:48.77Z</time></trkpt><trkpt lat="45.7106683" lon="8.4436883"><ele>326.0</ele><time>2026-03-28T10:31:49.767Z</time></trkpt><trkpt lat="45.71043" lon="8.4438433"><ele>325.5</ele><time>2026-03-28T10:31:50.767Z</time></trkpt><trkpt lat="45.7101883" lon="8.444"><ele>325.0</ele><time>2026-03-28T10:31:51.767Z</time></trkpt><trkpt lat="45.7099467" lon="8.4441567"><ele>325.0</ele><time>2026-03-28T10:31:52.769Z</time></trkpt><trkpt lat="45.709705" lon="8.444315"><ele>325.0</ele><time>2026-03-28T10:31:53.767Z</time></trkpt><trkpt lat="45.7094567" lon="8.4444683"><ele>323.5</ele><time>2026-03-28T10:31:54.768Z</time></trkpt><trkpt lat="45.7092083" lon="8.4446233"><ele>322.0</ele><time>2026-03-28T10:31:55.767Z</time></trkpt><trkpt lat="45.70896" lon="8.4447783"><ele>322.0</ele><time>2026-03-28T10:31:56.767Z</time></trkpt><trkpt lat="45.70871" lon="8.4449317"><ele>322.0</ele><time>2026-03-28T10:31:57.767Z</time></trkpt><trkpt lat="45.7084583" lon="8.44509"><ele>322.0</ele><time>2026-03-28T10:31:58.767Z</time></trkpt><trkpt lat="45.70821" lon="8.4452467"><ele>322.0</ele><time>2026-03-28T10:31:59.768Z</time></trkpt><trkpt lat="45.707965" lon="8.445405"><ele>321.5</ele><time>2026-03-28T10:32:00.767Z</time></trkpt><trkpt lat="45.7077267" lon="8.4455533"><ele>321.0</ele><time>2026-03-28T10:32:01.767Z</time></trkpt><trkpt lat="45.7075133" lon="8.445685"><ele>321.0</ele><time>2026-03-28T10:32:02.764Z</time></trkpt><trkpt lat="45.707325" lon="8.4458033"><ele>321.0</ele><time>2026-03-28T10:32:03.765Z</time></trkpt><trkpt lat="45.7071617" lon="8.445905"><ele>321.0</ele><time>2026-03-28T10:32:04.765Z</time></trkpt><trkpt lat="45.7070267" lon="8.446"><ele>321.0</ele><time>2026-03-28T10:32:05.766Z</time></trkpt><trkpt lat="45.7069183" lon="8.44609"><ele>321.0</ele><time>2026-03-28T10:32:06.766Z</time></trkpt><trkpt lat="45.7068317" lon="8.4461667"><ele>321.0</ele><time>2026-03-28T10:32:07.765Z</time></trkpt><trkpt lat="45.706755" lon="8.446215"><ele>321.0</ele><time>2026-03-28T10:32:08.765Z</time></trkpt><trkpt lat="45.7066767" lon="8.446225"><ele>321.0</ele><time>2026-03-28T10:32:09.765Z</time></trkpt><trkpt lat="45.7066" lon="8.4461967"><ele>320.40000000000003</ele><time>2026-03-28T10:32:10.767Z</time></trkpt><trkpt lat="45.7065183" lon="8.4461383"><ele>319.8</ele><time>2026-03-28T10:32:11.767Z</time></trkpt><trkpt lat="45.7064267" lon="8.4461133"><ele>319.20000000000005</ele><time>2026-03-28T10:32:12.767Z</time></trkpt><trkpt lat="45.7063367" lon="8.44616"><ele>318.6</ele><time>2026-03-28T10:32:13.767Z</time></trkpt><trkpt lat="45.7062467" lon="8.4462533"><ele>318.0</ele><time>2026-03-28T10:32:14.767Z</time></trkpt><trkpt lat="45.7061483" lon="8.446335"><ele>319.0</ele><time>2026-03-28T10:32:15.769Z</time></trkpt><trkpt lat="45.706025" lon="8.4463783"><ele>320.0</ele><time>2026-03-28T10:32:16.767Z</time></trkpt><trkpt lat="45.705865" lon="8.4464033"><ele>321.0</ele><time>2026-03-28T10:32:17.767Z</time></trkpt><trkpt lat="45.705685" lon="8.4464167"><ele>321.0</ele><time>2026-03-28T10:32:18.767Z</time></trkpt><trkpt lat="45.7054933" lon="8.4464333"><ele>321.0</ele><time>2026-03-28T10:32:19.767Z</time></trkpt><trkpt lat="45.7053067" lon="8.4464567"><ele>321.0</ele><time>2026-03-28T10:32:20.768Z</time></trkpt><trkpt lat="45.7051283" lon="8.44648"><ele>321.3333333333333</ele><time>2026-03-28T10:32:21.768Z</time></trkpt><trkpt lat="45.7049667" lon="8.4465"><ele>321.66666666666663</ele><time>2026-03-28T10:32:22.768Z</time></trkpt><trkpt lat="45.7048167" lon="8.4465183"><ele>322.0</ele><time>2026-03-28T10:32:23.767Z</time></trkpt><trkpt lat="45.704675" lon="8.44654"><ele>322.0</ele><time>2026-03-28T10:32:24.767Z</time></trkpt><trkpt lat="45.7045333" lon="8.44656"><ele>322.0</ele><time>2026-03-28T10:32:25.768Z</time></trkpt><trkpt lat="45.7043917" lon="8.4465817"><ele>322.0</ele><time>2026-03-28T10:32:26.767Z</time></trkpt><trkpt lat="45.7042517" lon="8.4466133"><ele>322.0</ele><time>2026-03-28T10:32:27.764Z</time></trkpt><trkpt lat="45.7041167" lon="8.4466617"><ele>321.6</ele><time>2026-03-28T10:32:28.769Z</time></trkpt><trkpt lat="45.7039917" lon="8.4467083"><ele>321.20000000000005</ele><time>2026-03-28T10:32:29.765Z</time></trkpt><trkpt lat="45.70388" lon="8.4467533"><ele>320.8</ele><time>2026-03-28T10:32:30.766Z</time></trkpt><trkpt lat="45.70378" lon="8.4467933"><ele>320.4</ele><time>2026-03-28T10:32:31.765Z</time></trkpt><trkpt lat="45.7037" lon="8.4468233"><ele>320.0</ele><time>2026-03-28T10:32:32.765Z</time></trkpt><trkpt lat="45.7036283" lon="8.44685"><ele>319.33333333333337</ele><time>2026-03-28T10:32:33.766Z</time></trkpt><trkpt lat="45.70356" lon="8.4468767"><ele>318.6666666666667</ele><time>2026-03-28T10:32:34.765Z</time></trkpt><trkpt lat="45.7034917" lon="8.4469017"><ele>318.0</ele><time>2026-03-28T10:32:35.765Z</time></trkpt><trkpt lat="45.7034233" lon="8.4469283"><ele>317.3333333333333</ele><time>2026-03-28T10:32:36.766Z</time></trkpt><trkpt lat="45.7033617" lon="8.4469567"><ele>316.66666666666663</ele><time>2026-03-28T10:32:37.766Z</time></trkpt><trkpt lat="45.7032483" lon="8.4470133"><ele>316.0</ele><time>2026-03-28T10:32:39.765Z</time></trkpt><trkpt lat="45.7031367" lon="8.44706"><ele>316.0</ele><time>2026-03-28T10:32:41.767Z</time></trkpt><trkpt lat="45.7030483" lon="8.44709"><ele>316.0</ele><time>2026-03-28T10:32:43.768Z</time></trkpt><trkpt lat="45.7029683" lon="8.4471133"><ele>316.0</ele><time>2026-03-28T10:32:46.768Z</time></trkpt><trkpt lat="45.7028933" lon="8.4471417"><ele>316.0</ele><time>2026-03-28T10:32:49.768Z</time></trkpt><trkpt lat="45.7027983" lon="8.4471667"><ele>316.0</ele><time>2026-03-28T10:32:51.767Z</time></trkpt><trkpt lat="45.702665" lon="8.4471883"><ele>316.00000000000006</ele><time>2026-03-28T10:32:53.768Z</time></trkpt><trkpt lat="45.702595" lon="8.447215"><ele>316.0</ele><time>2026-03-28T10:32:54.767Z</time></trkpt><trkpt lat="45.7025233" lon="8.44726"><ele>316.0</ele><time>2026-03-28T10:32:55.768Z</time></trkpt><trkpt lat="45.7024533" lon="8.4473067"><ele>316.0</ele><time>2026-03-28T10:32:56.767Z</time></trkpt><trkpt lat="45.7023817" lon="8.447345"><ele>316.0</ele><time>2026-03-28T10:32:57.767Z</time></trkpt><trkpt lat="45.7023133" lon="8.4473733"><ele>316.00000000000006</ele><time>2026-03-28T10:32:58.77Z</time></trkpt><trkpt lat="45.7022433" lon="8.4474017"><ele>316.0</ele><time>2026-03-28T10:32:59.768Z</time></trkpt><trkpt lat="45.7021683" lon="8.447435"><ele>316.0</ele><time>2026-03-28T10:33:00.765Z</time></trkpt><trkpt lat="45.70209" lon="8.4474667"><ele>316.0</ele><time>2026-03-28T10:33:01.765Z</time></trkpt><trkpt lat="45.7020083" lon="8.4475017"><ele>316.0</ele><time>2026-03-28T10:33:02.765Z</time></trkpt><trkpt lat="45.7019283" lon="8.447535"><ele>316.0</ele><time>2026-03-28T10:33:03.766Z</time></trkpt><trkpt lat="45.7018483" lon="8.4475667"><ele>316.0</ele><time>2026-03-28T10:33:04.766Z</time></trkpt><trkpt lat="45.7017733" lon="8.4476017"><ele>316.0</ele><time>2026-03-28T10:33:05.765Z</time></trkpt><trkpt lat="45.7017" lon="8.4476367"><ele>315.75</ele><time>2026-03-28T10:33:06.765Z</time></trkpt><trkpt lat="45.7016183" lon="8.4476767"><ele>315.5</ele><time>2026-03-28T10:33:07.767Z</time></trkpt><trkpt lat="45.7015167" lon="8.4477217"><ele>315.25</ele><time>2026-03-28T10:33:08.767Z</time></trkpt><trkpt lat="45.70139" lon="8.4477717"><ele>315.0</ele><time>2026-03-28T10:33:09.767Z</time></trkpt><trkpt lat="45.70124" lon="8.44783"><ele>315.0</ele><time>2026-03-28T10:33:10.768Z</time></trkpt><trkpt lat="45.7010783" lon="8.4478867"><ele>315.0</ele><time>2026-03-28T10:33:11.768Z</time></trkpt><trkpt lat="45.7009117" lon="8.447945"><ele>315.0</ele><time>2026-03-28T10:33:12.767Z</time></trkpt><trkpt lat="45.7007483" lon="8.4480083"><ele>314.5</ele><time>2026-03-28T10:33:13.768Z</time></trkpt><trkpt lat="45.7005967" lon="8.44807"><ele>314.0</ele><time>2026-03-28T10:33:14.767Z</time></trkpt><trkpt lat="45.70047" lon="8.448125"><ele>313.5</ele><time>2026-03-28T10:33:15.767Z</time></trkpt><trkpt lat="45.7003667" lon="8.4481683"><ele>313.0</ele><time>2026-03-28T10:33:16.767Z</time></trkpt><trkpt lat="45.70029" lon="8.4482"><ele>313.0</ele><time>2026-03-28T10:33:17.767Z</time></trkpt><trkpt lat="45.7002283" lon="8.448225"><ele>313.0</ele><time>2026-03-28T10:33:18.768Z</time></trkpt><trkpt lat="45.7001383" lon="8.4482617"><ele>313.0</ele><time>2026-03-28T10:33:20.767Z</time></trkpt><trkpt lat="45.7000617" lon="8.4482867"><ele>313.0</ele><time>2026-03-28T10:33:22.765Z</time></trkpt><trkpt lat="45.6999783" lon="8.4482833"><ele>313.0</ele><time>2026-03-28T10:33:24.767Z</time></trkpt><trkpt lat="45.699885" lon="8.4483433"><ele>313.0</ele><time>2026-03-28T10:33:26.767Z</time></trkpt><trkpt lat="45.6997783" lon="8.4484667"><ele>313.0</ele><time>2026-03-28T10:33:28.768Z</time></trkpt><trkpt lat="45.6997" lon="8.448545"><ele>313.0</ele><time>2026-03-28T10:33:29.768Z</time></trkpt><trkpt lat="45.69959" lon="8.4486317"><ele>313.0</ele><time>2026-03-28T10:33:30.767Z</time></trkpt><trkpt lat="45.6994633" lon="8.4487233"><ele>313.0</ele><time>2026-03-28T10:33:31.767Z</time></trkpt><trkpt lat="45.6993267" lon="8.4488267"><ele>313.0</ele><time>2026-03-28T10:33:32.768Z</time></trkpt><trkpt lat="45.6991883" lon="8.448935"><ele>313.0</ele><time>2026-03-28T10:33:33.767Z</time></trkpt><trkpt lat="45.699055" lon="8.4490433"><ele>313.0</ele><time>2026-03-28T10:33:34.767Z</time></trkpt><trkpt lat="45.6989283" lon="8.449145"><ele>313.0</ele><time>2026-03-28T10:33:35.767Z</time></trkpt><trkpt lat="45.698815" lon="8.4492383"><ele>313.0</ele><time>2026-03-28T10:33:36.767Z</time></trkpt><trkpt lat="45.6987033" lon="8.449335"><ele>313.0</ele><time>2026-03-28T10:33:37.767Z</time></trkpt><trkpt lat="45.6985983" lon="8.44943"><ele>313.0</ele><time>2026-03-28T10:33:38.767Z</time></trkpt><trkpt lat="45.6984967" lon="8.4495267"><ele>312.5</ele><time>2026-03-28T10:33:39.765Z</time></trkpt><trkpt lat="45.6983967" lon="8.44963"><ele>312.0</ele><time>2026-03-28T10:33:40.767Z</time></trkpt><trkpt lat="45.6982983" lon="8.449735"><ele>311.5</ele><time>2026-03-28T10:33:41.767Z</time></trkpt><trkpt lat="45.698195" lon="8.44985"><ele>311.0</ele><time>2026-03-28T10:33:42.767Z</time></trkpt><trkpt lat="45.6980917" lon="8.4499633"><ele>311.0</ele><time>2026-03-28T10:33:43.765Z</time></trkpt><trkpt lat="45.6979883" lon="8.45008"><ele>311.0</ele><time>2026-03-28T10:33:44.767Z</time></trkpt><trkpt lat="45.6978817" lon="8.4502117"><ele>311.0</ele><time>2026-03-28T10:33:45.767Z</time></trkpt><trkpt lat="45.6977567" lon="8.4503633"><ele>311.0</ele><time>2026-03-28T10:33:46.769Z</time></trkpt><trkpt lat="45.6976133" lon="8.4505233"><ele>311.0</ele><time>2026-03-28T10:33:47.767Z</time></trkpt><trkpt lat="45.69745" lon="8.45069"><ele>311.0</ele><time>2026-03-28T10:33:48.768Z</time></trkpt><trkpt lat="45.6972833" lon="8.4508683"><ele>311.0</ele><time>2026-03-28T10:33:49.768Z</time></trkpt><trkpt lat="45.697125" lon="8.4510467"><ele>311.0</ele><time>2026-03-28T10:33:50.767Z</time></trkpt><trkpt lat="45.696985" lon="8.45121"><ele>311.0</ele><time>2026-03-28T10:33:51.767Z</time></trkpt><trkpt lat="45.6968483" lon="8.451365"><ele>311.0</ele><time>2026-03-28T10:33:52.767Z</time></trkpt><trkpt lat="45.6967283" lon="8.4514933"><ele>311.0</ele><time>2026-03-28T10:33:53.764Z</time></trkpt><trkpt lat="45.6966283" lon="8.4516033"><ele>311.0</ele><time>2026-03-28T10:33:54.768Z</time></trkpt><trkpt lat="45.69654" lon="8.4516883"><ele>311.0</ele><time>2026-03-28T10:33:55.767Z</time></trkpt><trkpt lat="45.6964617" lon="8.4517783"><ele>311.0</ele><time>2026-03-28T10:33:56.768Z</time></trkpt><trkpt lat="45.69639" lon="8.4518817"><ele>311.0</ele><time>2026-03-28T10:33:57.767Z</time></trkpt><trkpt lat="45.6963533" lon="8.4520167"><ele>310.75</ele><time>2026-03-28T10:33:58.767Z</time></trkpt><trkpt lat="45.69636" lon="8.45216"><ele>310.5</ele><time>2026-03-28T10:33:59.767Z</time></trkpt><trkpt lat="45.6963817" lon="8.4523233"><ele>310.25</ele><time>2026-03-28T10:34:00.767Z</time></trkpt><trkpt lat="45.6964117" lon="8.4525133"><ele>310.0</ele><time>2026-03-28T10:34:01.768Z</time></trkpt><trkpt lat="45.69644" lon="8.45272"><ele>310.0</ele><time>2026-03-28T10:34:02.767Z</time></trkpt><trkpt lat="45.6964617" lon="8.4529217"><ele>310.0</ele><time>2026-03-28T10:34:03.768Z</time></trkpt><trkpt lat="45.6964767" lon="8.453105"><ele>310.0</ele><time>2026-03-28T10:34:04.767Z</time></trkpt><trkpt lat="45.6965" lon="8.4532733"><ele>310.0</ele><time>2026-03-28T10:34:05.767Z</time></trkpt><trkpt lat="45.696525" lon="8.4534133"><ele>310.0</ele><time>2026-03-28T10:34:06.767Z</time></trkpt><trkpt lat="45.6965433" lon="8.4535267"><ele>310.0</ele><time>2026-03-28T10:34:07.768Z</time></trkpt><trkpt lat="45.6965567" lon="8.45362"><ele>310.0</ele><time>2026-03-28T10:34:08.767Z</time></trkpt><trkpt lat="45.6965767" lon="8.45372"><ele>310.0</ele><time>2026-03-28T10:34:09.767Z</time></trkpt><trkpt lat="45.6966117" lon="8.45384"><ele>310.0</ele><time>2026-03-28T10:34:10.767Z</time></trkpt><trkpt lat="45.6966633" lon="8.4539833"><ele>310.0</ele><time>2026-03-28T10:34:11.769Z</time></trkpt><trkpt lat="45.6967317" lon="8.4541317"><ele>310.0</ele><time>2026-03-28T10:34:12.767Z</time></trkpt><trkpt lat="45.6968167" lon="8.4542817"><ele>310.0</ele><time>2026-03-28T10:34:13.767Z</time></trkpt><trkpt lat="45.6968917" lon="8.4544317"><ele>310.0</ele><time>2026-03-28T10:34:14.767Z</time></trkpt><trkpt lat="45.69696" lon="8.4545733"><ele>310.0</ele><time>2026-03-28T10:34:15.768Z</time></trkpt><trkpt lat="45.6970217" lon="8.4547167"><ele>310.2</ele><time>2026-03-28T10:34:16.765Z</time></trkpt><trkpt lat="45.6970767" lon="8.454855"><ele>310.4</ele><time>2026-03-28T10:34:17.767Z</time></trkpt><trkpt lat="45.6971217" lon="8.4549867"><ele>310.6</ele><time>2026-03-28T10:34:18.767Z</time></trkpt><trkpt lat="45.6971533" lon="8.4551133"><ele>310.8</ele><time>2026-03-28T10:34:19.767Z</time></trkpt><trkpt lat="45.697165" lon="8.45523"><ele>311.0</ele><time>2026-03-28T10:34:20.768Z</time></trkpt><trkpt lat="45.69717" lon="8.4553317"><ele>311.0</ele><time>2026-03-28T10:34:21.767Z</time></trkpt><trkpt lat="45.69712" lon="8.4554817"><ele>311.0</ele><time>2026-03-28T10:34:23.768Z</time></trkpt><trkpt lat="45.697055" lon="8.4555317"><ele>311.0</ele><time>2026-03-28T10:34:24.767Z</time></trkpt><trkpt lat="45.696955" lon="8.45554"><ele>311.0</ele><time>2026-03-28T10:34:25.767Z</time></trkpt><trkpt lat="45.6968617" lon="8.455555"><ele>311.0</ele><time>2026-03-28T10:34:26.767Z</time></trkpt><trkpt lat="45.696795" lon="8.455575"><ele>310.83333333333337</ele><time>2026-03-28T10:34:27.766Z</time></trkpt><trkpt lat="45.69672" lon="8.4555917"><ele>310.6666666666667</ele><time>2026-03-28T10:34:29.766Z</time></trkpt><trkpt lat="45.6966567" lon="8.4556133"><ele>310.5</ele><time>2026-03-28T10:34:31.766Z</time></trkpt><trkpt lat="45.6965667" lon="8.4556617"><ele>310.3333333333333</ele><time>2026-03-28T10:34:34.766Z</time></trkpt><trkpt lat="45.6964583" lon="8.4557267"><ele>310.16666666666663</ele><time>2026-03-28T10:34:36.765Z</time></trkpt><trkpt lat="45.696385" lon="8.4557633"><ele>310.0</ele><time>2026-03-28T10:34:37.766Z</time></trkpt><trkpt lat="45.6963033" lon="8.455805"><ele>310.0</ele><time>2026-03-28T10:34:38.766Z</time></trkpt><trkpt lat="45.6962267" lon="8.455845"><ele>310.0</ele><time>2026-03-28T10:34:39.766Z</time></trkpt><trkpt lat="45.6961617" lon="8.45588"><ele>310.0</ele><time>2026-03-28T10:34:40.765Z</time></trkpt><trkpt lat="45.696075" lon="8.4558983"><ele>310.0</ele><time>2026-03-28T10:34:42.766Z</time></trkpt><trkpt lat="45.69603" lon="8.45583"><ele>310.0</ele><time>2026-03-28T10:34:49.767Z</time></trkpt><trkpt lat="45.6959867" lon="8.4557483"><ele>310.0</ele><time>2026-03-28T10:34:50.763Z</time></trkpt><trkpt lat="45.6959183" lon="8.4556217"><ele>310.25</ele><time>2026-03-28T10:34:51.768Z</time></trkpt><trkpt lat="45.695855" lon="8.45548"><ele>310.5</ele><time>2026-03-28T10:34:52.764Z</time></trkpt><trkpt lat="45.6957633" lon="8.4552567"><ele>310.75</ele><time>2026-03-28T10:34:53.767Z</time></trkpt><trkpt lat="45.695685" lon="8.4550767"><ele>311.0</ele><time>2026-03-28T10:34:54.767Z</time></trkpt><trkpt lat="45.6956283" lon="8.454905"><ele>311.2</ele><time>2026-03-28T10:34:55.767Z</time></trkpt><trkpt lat="45.69558" lon="8.4547483"><ele>311.40000000000003</ele><time>2026-03-28T10:34:56.768Z</time></trkpt><trkpt lat="45.69553" lon="8.454615"><ele>311.6</ele><time>2026-03-28T10:34:57.767Z</time></trkpt><trkpt lat="45.6954867" lon="8.45449"><ele>311.8</ele><time>2026-03-28T10:34:58.768Z</time></trkpt><trkpt lat="45.6954467" lon="8.4543883"><ele>312.0</ele><time>2026-03-28T10:34:59.768Z</time></trkpt><trkpt lat="45.6954" lon="8.4543217"><ele>311.6666666666667</ele><time>2026-03-28T10:35:00.767Z</time></trkpt><trkpt lat="45.6952867" lon="8.4543083"><ele>311.3333333333333</ele><time>2026-03-28T10:35:02.768Z</time></trkpt><trkpt lat="45.6952183" lon="8.454345"><ele>311.0</ele><time>2026-03-28T10:35:03.767Z</time></trkpt><trkpt lat="45.6951567" lon="8.454375"><ele>310.66666666666663</ele><time>2026-03-28T10:35:04.767Z</time></trkpt><trkpt lat="45.69506" lon="8.4544117"><ele>310.3333333333333</ele><time>2026-03-28T10:35:06.767Z</time></trkpt><trkpt lat="45.6950333" lon="8.4545067"><ele>310.0</ele><time>2026-03-28T10:35:21.765Z</time></trkpt><trkpt lat="45.6951333" lon="8.454505"><ele>310.0</ele><time>2026-03-28T10:35:54.767Z</time></trkpt><trkpt lat="45.695245" lon="8.4544117"><ele>310.0</ele><time>2026-03-28T10:35:56.764Z</time></trkpt><trkpt lat="45.6953367" lon="8.4543533"><ele>310.0</ele><time>2026-03-28T10:35:58.767Z</time></trkpt><trkpt lat="45.6954217" lon="8.454475"><ele>310.0</ele><time>2026-03-28T10:36:07.767Z</time></trkpt><trkpt lat="45.695485" lon="8.454615"><ele>310.66666666666663</ele><time>2026-03-28T10:36:08.764Z</time></trkpt><trkpt lat="45.6955867" lon="8.4548267"><ele>311.3333333333333</ele><time>2026-03-28T10:36:09.766Z</time></trkpt><trkpt lat="45.6956867" lon="8.455055"><ele>312.0</ele><time>2026-03-28T10:36:10.767Z</time></trkpt><trkpt lat="45.6957917" lon="8.4552817"><ele>311.6666666666667</ele><time>2026-03-28T10:36:11.768Z</time></trkpt><trkpt lat="45.69588" lon="8.4555083"><ele>311.33333333333337</ele><time>2026-03-28T10:36:12.765Z</time></trkpt><trkpt lat="45.6959633" lon="8.4557183"><ele>311.0</ele><time>2026-03-28T10:36:13.767Z</time></trkpt><trkpt lat="45.69604" lon="8.4559033"><ele>310.75</ele><time>2026-03-28T10:36:14.768Z</time></trkpt><trkpt lat="45.6961183" lon="8.4560783"><ele>310.5</ele><time>2026-03-28T10:36:15.767Z</time></trkpt><trkpt lat="45.6961867" lon="8.45627"><ele>310.25</ele><time>2026-03-28T10:36:16.769Z</time></trkpt><trkpt lat="45.6962517" lon="8.4564533"><ele>310.0</ele><time>2026-03-28T10:36:17.767Z</time></trkpt><trkpt lat="45.6963117" lon="8.4566183"><ele>310.0</ele><time>2026-03-28T10:36:18.767Z</time></trkpt><trkpt lat="45.6963683" lon="8.456765"><ele>310.0</ele><time>2026-03-28T10:36:19.767Z</time></trkpt><trkpt lat="45.6964167" lon="8.456895"><ele>310.0</ele><time>2026-03-28T10:36:20.768Z</time></trkpt><trkpt lat="45.6964567" lon="8.4570067"><ele>310.0</ele><time>2026-03-28T10:36:21.767Z</time></trkpt><trkpt lat="45.6964917" lon="8.4570983"><ele>310.0</ele><time>2026-03-28T10:36:22.767Z</time></trkpt><trkpt lat="45.6965233" lon="8.4571767"><ele>310.0</ele><time>2026-03-28T10:36:23.767Z</time></trkpt><trkpt lat="45.69657" lon="8.4573167"><ele>310.16666666666663</ele><time>2026-03-28T10:36:25.767Z</time></trkpt><trkpt lat="45.6965767" lon="8.45747"><ele>310.3333333333333</ele><time>2026-03-28T10:36:27.767Z</time></trkpt><trkpt lat="45.6966217" lon="8.4576217"><ele>310.5</ele><time>2026-03-28T10:36:29.767Z</time></trkpt><trkpt lat="45.6966783" lon="8.457675"><ele>310.6666666666667</ele><time>2026-03-28T10:36:30.767Z</time></trkpt><trkpt lat="45.6967333" lon="8.4577367"><ele>310.83333333333337</ele><time>2026-03-28T10:36:31.767Z</time></trkpt><trkpt lat="45.6967717" lon="8.4578217"><ele>311.0</ele><time>2026-03-28T10:36:32.767Z</time></trkpt><trkpt lat="45.69681" lon="8.4579067"><ele>310.83333333333337</ele><time>2026-03-28T10:36:33.767Z</time></trkpt><trkpt lat="45.6968533" lon="8.4579933"><ele>310.6666666666667</ele><time>2026-03-28T10:36:34.767Z</time></trkpt><trkpt lat="45.6968967" lon="8.4580817"><ele>310.5</ele><time>2026-03-28T10:36:35.768Z</time></trkpt><trkpt lat="45.6969417" lon="8.4581617"><ele>310.3333333333333</ele><time>2026-03-28T10:36:36.768Z</time></trkpt><trkpt lat="45.6970017" lon="8.45829"><ele>310.16666666666663</ele><time>2026-03-28T10:36:38.767Z</time></trkpt><trkpt lat="45.69703" lon="8.4583783"><ele>310.0</ele><time>2026-03-28T10:36:40.768Z</time></trkpt><trkpt lat="45.6970417" lon="8.45849"><ele>310.0</ele><time>2026-03-28T10:36:46.767Z</time></trkpt><trkpt lat="45.6970983" lon="8.4585617"><ele>310.0</ele><time>2026-03-28T10:36:50.768Z</time></trkpt><trkpt lat="45.6971367" lon="8.4586333"><ele>310.0</ele><time>2026-03-28T10:36:52.765Z</time></trkpt><trkpt lat="45.69705" lon="8.4587383"><ele>310.0</ele><time>2026-03-28T10:36:55.765Z</time></trkpt><trkpt lat="45.6969867" lon="8.45877"><ele>310.0</ele><time>2026-03-28T10:36:56.768Z</time></trkpt><trkpt lat="45.6968733" lon="8.4587633"><ele>310.0</ele><time>2026-03-28T10:36:57.767Z</time></trkpt><trkpt lat="45.6967033" lon="8.4587767"><ele>309.75</ele><time>2026-03-28T10:36:58.767Z</time></trkpt><trkpt lat="45.6965583" lon="8.4588017"><ele>309.5</ele><time>2026-03-28T10:36:59.767Z</time></trkpt><trkpt lat="45.6964167" lon="8.458825"><ele>309.25</ele><time>2026-03-28T10:37:00.769Z</time></trkpt><trkpt lat="45.6962867" lon="8.4588233"><ele>309.0</ele><time>2026-03-28T10:37:01.769Z</time></trkpt><trkpt lat="45.6961417" lon="8.45881"><ele>308.6666666666667</ele><time>2026-03-28T10:37:02.767Z</time></trkpt><trkpt lat="45.6959767" lon="8.4587933"><ele>308.33333333333337</ele><time>2026-03-28T10:37:03.767Z</time></trkpt><trkpt lat="45.6958" lon="8.4587767"><ele>308.0</ele><time>2026-03-28T10:37:04.767Z</time></trkpt><trkpt lat="45.6956283" lon="8.45876"><ele>308.0</ele><time>2026-03-28T10:37:05.769Z</time></trkpt><trkpt lat="45.69547" lon="8.4587433"><ele>308.0</ele><time>2026-03-28T10:37:06.768Z</time></trkpt><trkpt lat="45.6953233" lon="8.4587267"><ele>308.0</ele><time>2026-03-28T10:37:07.768Z</time></trkpt><trkpt lat="45.6951867" lon="8.4587067"><ele>308.0</ele><time>2026-03-28T10:37:08.768Z</time></trkpt><trkpt lat="45.6950633" lon="8.458685"><ele>308.0</ele><time>2026-03-28T10:37:09.768Z</time></trkpt><trkpt lat="45.6949433" lon="8.4586583"><ele>308.0</ele><time>2026-03-28T10:37:10.767Z</time></trkpt><trkpt lat="45.6948233" lon="8.4586267"><ele>308.0</ele><time>2026-03-28T10:37:11.767Z</time></trkpt><trkpt lat="45.6946933" lon="8.4585933"><ele>308.0</ele><time>2026-03-28T10:37:12.768Z</time></trkpt><trkpt lat="45.6945617" lon="8.4585617"><ele>308.0</ele><time>2026-03-28T10:37:13.767Z</time></trkpt><trkpt lat="45.6944333" lon="8.4585333"><ele>308.0</ele><time>2026-03-28T10:37:14.767Z</time></trkpt><trkpt lat="45.6943033" lon="8.458485"><ele>308.0</ele><time>2026-03-28T10:37:15.767Z</time></trkpt><trkpt lat="45.6941567" lon="8.4584317"><ele>308.0</ele><time>2026-03-28T10:37:16.767Z</time></trkpt><trkpt lat="45.694" lon="8.458385"><ele>307.5</ele><time>2026-03-28T10:37:17.765Z</time></trkpt><trkpt lat="45.69385" lon="8.4583367"><ele>307.0</ele><time>2026-03-28T10:37:18.764Z</time></trkpt><trkpt lat="45.6937067" lon="8.4582917"><ele>306.5</ele><time>2026-03-28T10:37:19.764Z</time></trkpt><trkpt lat="45.6935683" lon="8.4582517"><ele>306.0</ele><time>2026-03-28T10:37:20.764Z</time></trkpt><trkpt lat="45.6934367" lon="8.4582083"><ele>306.0</ele><time>2026-03-28T10:37:21.764Z</time></trkpt><trkpt lat="45.693305" lon="8.4581683"><ele>306.0</ele><time>2026-03-28T10:37:22.765Z</time></trkpt><trkpt lat="45.69317" lon="8.4581317"><ele>306.0</ele><time>2026-03-28T10:37:23.768Z</time></trkpt><trkpt lat="45.6930283" lon="8.45809"><ele>306.0</ele><time>2026-03-28T10:37:24.764Z</time></trkpt><trkpt lat="45.6928733" lon="8.4580433"><ele>306.3333333333333</ele><time>2026-03-28T10:37:25.768Z</time></trkpt><trkpt lat="45.6927167" lon="8.4579917"><ele>306.66666666666663</ele><time>2026-03-28T10:37:26.767Z</time></trkpt><trkpt lat="45.6925717" lon="8.457935"><ele>307.0</ele><time>2026-03-28T10:37:27.767Z</time></trkpt><trkpt lat="45.6924333" lon="8.4578917"><ele>306.5</ele><time>2026-03-28T10:37:28.77Z</time></trkpt><trkpt lat="45.692295" lon="8.457855"><ele>306.0</ele><time>2026-03-28T10:37:29.768Z</time></trkpt><trkpt lat="45.6921567" lon="8.4578217"><ele>305.5</ele><time>2026-03-28T10:37:30.765Z</time></trkpt><trkpt lat="45.6920167" lon="8.457795"><ele>305.0</ele><time>2026-03-28T10:37:31.765Z</time></trkpt><trkpt lat="45.6918783" lon="8.4577833"><ele>304.5</ele><time>2026-03-28T10:37:32.768Z</time></trkpt><trkpt lat="45.6917417" lon="8.4577917"><ele>304.0</ele><time>2026-03-28T10:37:33.764Z</time></trkpt><trkpt lat="45.6916067" lon="8.45781"><ele>303.5</ele><time>2026-03-28T10:37:34.765Z</time></trkpt><trkpt lat="45.6914733" lon="8.45784"><ele>303.0</ele><time>2026-03-28T10:37:35.767Z</time></trkpt><trkpt lat="45.6913417" lon="8.4578717"><ele>303.0</ele><time>2026-03-28T10:37:36.767Z</time></trkpt><trkpt lat="45.6912017" lon="8.4579017"><ele>303.0</ele><time>2026-03-28T10:37:37.768Z</time></trkpt><trkpt lat="45.691055" lon="8.45793"><ele>303.0</ele><time>2026-03-28T10:37:38.764Z</time></trkpt><trkpt lat="45.6909183" lon="8.4579633"><ele>303.0</ele><time>2026-03-28T10:37:39.767Z</time></trkpt><trkpt lat="45.6907783" lon="8.458"><ele>303.25</ele><time>2026-03-28T10:37:40.767Z</time></trkpt><trkpt lat="45.6906433" lon="8.4580317"><ele>303.5</ele><time>2026-03-28T10:37:41.764Z</time></trkpt><trkpt lat="45.69052" lon="8.458065"><ele>303.75</ele><time>2026-03-28T10:37:42.768Z</time></trkpt><trkpt lat="45.690395" lon="8.4580983"><ele>304.0</ele><time>2026-03-28T10:37:43.77Z</time></trkpt><trkpt lat="45.6902867" lon="8.458125"><ele>303.59999999999997</ele><time>2026-03-28T10:37:44.768Z</time></trkpt><trkpt lat="45.690185" lon="8.4581467"><ele>303.2</ele><time>2026-03-28T10:37:45.764Z</time></trkpt><trkpt lat="45.6900783" lon="8.45817"><ele>302.79999999999995</ele><time>2026-03-28T10:37:46.767Z</time></trkpt><trkpt lat="45.6899667" lon="8.4581983"><ele>302.4</ele><time>2026-03-28T10:37:47.767Z</time></trkpt><trkpt lat="45.6898533" lon="8.45823"><ele>302.0</ele><time>2026-03-28T10:37:48.764Z</time></trkpt><trkpt lat="45.6897467" lon="8.45825"><ele>302.0</ele><time>2026-03-28T10:37:49.768Z</time></trkpt><trkpt lat="45.6896467" lon="8.458265"><ele>302.0</ele><time>2026-03-28T10:37:50.768Z</time></trkpt><trkpt lat="45.6895567" lon="8.4582767"><ele>302.0</ele><time>2026-03-28T10:37:51.767Z</time></trkpt><trkpt lat="45.6894817" lon="8.4582933"><ele>302.0</ele><time>2026-03-28T10:37:52.767Z</time></trkpt><trkpt lat="45.6893817" lon="8.45831"><ele>302.0</ele><time>2026-03-28T10:37:54.767Z</time></trkpt><trkpt lat="45.6893133" lon="8.4583117"><ele>302.0</ele><time>2026-03-28T10:37:56.767Z</time></trkpt><trkpt lat="45.6892683" lon="8.45821"><ele>302.0</ele><time>2026-03-28T10:38:01.767Z</time></trkpt><trkpt lat="45.6892333" lon="8.458085"><ele>302.0</ele><time>2026-03-28T10:38:02.767Z</time></trkpt><trkpt lat="45.6891967" lon="8.4579683"><ele>302.0</ele><time>2026-03-28T10:38:03.767Z</time></trkpt><trkpt lat="45.6891583" lon="8.4578583"><ele>302.0</ele><time>2026-03-28T10:38:04.767Z</time></trkpt><trkpt lat="45.6891167" lon="8.457765"><ele>302.0</ele><time>2026-03-28T10:38:05.768Z</time></trkpt><trkpt lat="45.68908" lon="8.4576833"><ele>302.0</ele><time>2026-03-28T10:38:06.768Z</time></trkpt><trkpt lat="45.6890417" lon="8.4576"><ele>302.2</ele><time>2026-03-28T10:38:07.768Z</time></trkpt><trkpt lat="45.6889883" lon="8.45751"><ele>302.4</ele><time>2026-03-28T10:38:08.767Z</time></trkpt><trkpt lat="45.68892" lon="8.45744"><ele>302.6</ele><time>2026-03-28T10:38:09.767Z</time></trkpt><trkpt lat="45.6888517" lon="8.4573817"><ele>302.8</ele><time>2026-03-28T10:38:10.767Z</time></trkpt><trkpt lat="45.6887567" lon="8.4573533"><ele>303.0</ele><time>2026-03-28T10:38:11.77Z</time></trkpt><trkpt lat="45.6886067" lon="8.45736"><ele>303.3333333333333</ele><time>2026-03-28T10:38:12.768Z</time></trkpt><trkpt lat="45.68842" lon="8.45741"><ele>303.66666666666663</ele><time>2026-03-28T10:38:13.764Z</time></trkpt><trkpt lat="45.6882133" lon="8.457475"><ele>304.0</ele><time>2026-03-28T10:38:14.768Z</time></trkpt><trkpt lat="45.6880283" lon="8.4575283"><ele>304.0</ele><time>2026-03-28T10:38:15.765Z</time></trkpt><trkpt lat="45.6878683" lon="8.45756"><ele>304.0</ele><time>2026-03-28T10:38:16.768Z</time></trkpt><trkpt lat="45.6877233" lon="8.45759"><ele>304.0</ele><time>2026-03-28T10:38:17.767Z</time></trkpt><trkpt lat="45.687585" lon="8.4576183"><ele>304.0</ele><time>2026-03-28T10:38:18.767Z</time></trkpt><trkpt lat="45.6874517" lon="8.4576483"><ele>304.3333333333333</ele><time>2026-03-28T10:38:19.767Z</time></trkpt><trkpt lat="45.6873033" lon="8.4576867"><ele>304.6666666666667</ele><time>2026-03-28T10:38:20.767Z</time></trkpt><trkpt lat="45.68713" lon="8.4577467"><ele>305.0</ele><time>2026-03-28T10:38:21.768Z</time></trkpt><trkpt lat="45.6869333" lon="8.4577967"><ele>304.33333333333337</ele><time>2026-03-28T10:38:22.767Z</time></trkpt><trkpt lat="45.68672" lon="8.4578533"><ele>303.6666666666667</ele><time>2026-03-28T10:38:23.768Z</time></trkpt><trkpt lat="45.6864967" lon="8.45793"><ele>303.0</ele><time>2026-03-28T10:38:24.768Z</time></trkpt><trkpt lat="45.6862617" lon="8.45801"><ele>302.5</ele><time>2026-03-28T10:38:25.768Z</time></trkpt><trkpt lat="45.6860133" lon="8.4580817"><ele>302.0</ele><time>2026-03-28T10:38:26.767Z</time></trkpt><trkpt lat="45.685755" lon="8.4581633"><ele>302.0</ele><time>2026-03-28T10:38:27.768Z</time></trkpt><trkpt lat="45.6854933" lon="8.45825"><ele>302.0</ele><time>2026-03-28T10:38:28.767Z</time></trkpt><trkpt lat="45.685225" lon="8.458345"><ele>302.0</ele><time>2026-03-28T10:38:29.767Z</time></trkpt><trkpt lat="45.6849567" lon="8.4584483"><ele>302.0</ele><time>2026-03-28T10:38:30.767Z</time></trkpt><trkpt lat="45.6846883" lon="8.4585717"><ele>302.0</ele><time>2026-03-28T10:38:31.765Z</time></trkpt><trkpt lat="45.6844317" lon="8.45873"><ele>302.0</ele><time>2026-03-28T10:38:32.769Z</time></trkpt><trkpt lat="45.6841817" lon="8.458935"><ele>300.5</ele><time>2026-03-28T10:38:33.767Z</time></trkpt><trkpt lat="45.6839317" lon="8.45915"><ele>299.0</ele><time>2026-03-28T10:38:34.767Z</time></trkpt><trkpt lat="45.68368" lon="8.459345"><ele>299.0</ele><time>2026-03-28T10:38:35.767Z</time></trkpt><trkpt lat="45.6834233" lon="8.4595083"><ele>299.0</ele><time>2026-03-28T10:38:36.767Z</time></trkpt><trkpt lat="45.6831617" lon="8.4596433"><ele>298.5</ele><time>2026-03-28T10:38:37.768Z</time></trkpt><trkpt lat="45.68291" lon="8.459755"><ele>298.0</ele><time>2026-03-28T10:38:38.767Z</time></trkpt><trkpt lat="45.6826683" lon="8.4598567"><ele>298.0</ele><time>2026-03-28T10:38:39.767Z</time></trkpt><trkpt lat="45.6824367" lon="8.4599533"><ele>298.0</ele><time>2026-03-28T10:38:40.767Z</time></trkpt><trkpt lat="45.6822117" lon="8.4600533"><ele>298.0</ele><time>2026-03-28T10:38:41.767Z</time></trkpt><trkpt lat="45.68199" lon="8.4601633"><ele>298.0</ele><time>2026-03-28T10:38:42.767Z</time></trkpt><trkpt lat="45.6817683" lon="8.46028"><ele>298.0</ele><time>2026-03-28T10:38:43.768Z</time></trkpt><trkpt lat="45.6815467" lon="8.4604083"><ele>298.0</ele><time>2026-03-28T10:38:44.768Z</time></trkpt><trkpt lat="45.6813233" lon="8.46054"><ele>297.5</ele><time>2026-03-28T10:38:45.767Z</time></trkpt><trkpt lat="45.6811" lon="8.4606717"><ele>297.0</ele><time>2026-03-28T10:38:46.767Z</time></trkpt><trkpt lat="45.6808767" lon="8.4608083"><ele>297.0</ele><time>2026-03-28T10:38:47.769Z</time></trkpt><trkpt lat="45.680655" lon="8.4609483"><ele>297.0</ele><time>2026-03-28T10:38:48.767Z</time></trkpt><trkpt lat="45.680435" lon="8.46109"><ele>297.0</ele><time>2026-03-28T10:38:49.768Z</time></trkpt><trkpt lat="45.6802183" lon="8.4612333"><ele>297.0</ele><time>2026-03-28T10:38:50.767Z</time></trkpt><trkpt lat="45.6800067" lon="8.4613767"><ele>297.0</ele><time>2026-03-28T10:38:51.767Z</time></trkpt><trkpt lat="45.679805" lon="8.4615067"><ele>297.0</ele><time>2026-03-28T10:38:52.767Z</time></trkpt><trkpt lat="45.679615" lon="8.461625"><ele>297.0</ele><time>2026-03-28T10:38:53.767Z</time></trkpt><trkpt lat="45.6794267" lon="8.4617467"><ele>296.0</ele><time>2026-03-28T10:38:54.767Z</time></trkpt><trkpt lat="45.679235" lon="8.461875"><ele>295.0</ele><time>2026-03-28T10:38:55.769Z</time></trkpt><trkpt lat="45.67904" lon="8.462"><ele>294.0</ele><time>2026-03-28T10:38:56.767Z</time></trkpt><trkpt lat="45.6788467" lon="8.4621117"><ele>294.3333333333333</ele><time>2026-03-28T10:38:57.767Z</time></trkpt><trkpt lat="45.67866" lon="8.4622133"><ele>294.66666666666663</ele><time>2026-03-28T10:38:58.767Z</time></trkpt><trkpt lat="45.6784867" lon="8.4623"><ele>295.0</ele><time>2026-03-28T10:38:59.767Z</time></trkpt><trkpt lat="45.6783283" lon="8.4623667"><ele>294.6</ele><time>2026-03-28T10:39:00.768Z</time></trkpt><trkpt lat="45.6781867" lon="8.4624133"><ele>294.2</ele><time>2026-03-28T10:39:01.768Z</time></trkpt><trkpt lat="45.6780683" lon="8.46245"><ele>293.8</ele><time>2026-03-28T10:39:02.767Z</time></trkpt><trkpt lat="45.6779733" lon="8.4624783"><ele>293.4</ele><time>2026-03-28T10:39:03.767Z</time></trkpt><trkpt lat="45.6778917" lon="8.4624983"><ele>293.0</ele><time>2026-03-28T10:39:04.767Z</time></trkpt><trkpt lat="45.6778183" lon="8.462515"><ele>293.2</ele><time>2026-03-28T10:39:05.769Z</time></trkpt><trkpt lat="45.6777417" lon="8.4625417"><ele>293.4</ele><time>2026-03-28T10:39:06.768Z</time></trkpt><trkpt lat="45.677655" lon="8.46258"><ele>293.59999999999997</ele><time>2026-03-28T10:39:07.768Z</time></trkpt><trkpt lat="45.6775583" lon="8.4626217"><ele>293.8</ele><time>2026-03-28T10:39:08.767Z</time></trkpt><trkpt lat="45.6774567" lon="8.46266"><ele>294.0</ele><time>2026-03-28T10:39:09.767Z</time></trkpt><trkpt lat="45.677355" lon="8.4627017"><ele>294.0</ele><time>2026-03-28T10:39:10.767Z</time></trkpt><trkpt lat="45.6772517" lon="8.46275"><ele>294.0</ele><time>2026-03-28T10:39:11.768Z</time></trkpt><trkpt lat="45.67713" lon="8.4628167"><ele>294.0</ele><time>2026-03-28T10:39:12.768Z</time></trkpt><trkpt lat="45.6769867" lon="8.4628867"><ele>294.0</ele><time>2026-03-28T10:39:13.768Z</time></trkpt><trkpt lat="45.6768333" lon="8.4629383"><ele>293.6666666666667</ele><time>2026-03-28T10:39:14.767Z</time></trkpt><trkpt lat="45.676675" lon="8.4629817"><ele>293.33333333333337</ele><time>2026-03-28T10:39:15.767Z</time></trkpt><trkpt lat="45.6765283" lon="8.463035"><ele>293.0</ele><time>2026-03-28T10:39:16.768Z</time></trkpt><trkpt lat="45.6763933" lon="8.4631067"><ele>293.0</ele><time>2026-03-28T10:39:17.764Z</time></trkpt><trkpt lat="45.6762583" lon="8.4631983"><ele>293.0</ele><time>2026-03-28T10:39:18.765Z</time></trkpt><trkpt lat="45.6761183" lon="8.463305"><ele>293.0</ele><time>2026-03-28T10:39:19.764Z</time></trkpt><trkpt lat="45.6759917" lon="8.4634167"><ele>293.0</ele><time>2026-03-28T10:39:20.764Z</time></trkpt><trkpt lat="45.67587" lon="8.4635217"><ele>293.0</ele><time>2026-03-28T10:39:21.765Z</time></trkpt><trkpt lat="45.6757467" lon="8.4636083"><ele>293.0</ele><time>2026-03-28T10:39:22.765Z</time></trkpt><trkpt lat="45.675615" lon="8.4636717"><ele>293.0</ele><time>2026-03-28T10:39:23.764Z</time></trkpt><trkpt lat="45.6754783" lon="8.4637033"><ele>293.0</ele><time>2026-03-28T10:39:24.764Z</time></trkpt><trkpt lat="45.6753333" lon="8.4637183"><ele>293.0</ele><time>2026-03-28T10:39:25.764Z</time></trkpt><trkpt lat="45.6751783" lon="8.463715"><ele>293.0</ele><time>2026-03-28T10:39:26.764Z</time></trkpt><trkpt lat="45.67501" lon="8.4636983"><ele>293.0</ele><time>2026-03-28T10:39:27.764Z</time></trkpt><trkpt lat="45.6748217" lon="8.4636733"><ele>293.0</ele><time>2026-03-28T10:39:28.768Z</time></trkpt><trkpt lat="45.67462" lon="8.4636567"><ele>293.0</ele><time>2026-03-28T10:39:29.767Z</time></trkpt><trkpt lat="45.6744133" lon="8.4636617"><ele>292.33333333333337</ele><time>2026-03-28T10:39:30.767Z</time></trkpt><trkpt lat="45.6742" lon="8.4636817"><ele>291.6666666666667</ele><time>2026-03-28T10:39:31.768Z</time></trkpt><trkpt lat="45.673975" lon="8.463715"><ele>291.0</ele><time>2026-03-28T10:39:32.767Z</time></trkpt><trkpt lat="45.6737433" lon="8.4637567"><ele>291.0</ele><time>2026-03-28T10:39:33.767Z</time></trkpt><trkpt lat="45.6735067" lon="8.4638017"><ele>291.0</ele><time>2026-03-28T10:39:34.767Z</time></trkpt><trkpt lat="45.6732633" lon="8.4638467"><ele>291.0</ele><time>2026-03-28T10:39:35.767Z</time></trkpt><trkpt lat="45.6730183" lon="8.4638867"><ele>291.0</ele><time>2026-03-28T10:39:36.768Z</time></trkpt><trkpt lat="45.6727733" lon="8.463925"><ele>289.5</ele><time>2026-03-28T10:39:37.768Z</time></trkpt><trkpt lat="45.6725267" lon="8.463965"><ele>288.0</ele><time>2026-03-28T10:39:38.767Z</time></trkpt><trkpt lat="45.6722783" lon="8.4640067"><ele>288.0</ele><time>2026-03-28T10:39:39.767Z</time></trkpt><trkpt lat="45.6720333" lon="8.4640483"><ele>288.0</ele><time>2026-03-28T10:39:40.767Z</time></trkpt><trkpt lat="45.6717917" lon="8.46409"><ele>287.5</ele><time>2026-03-28T10:39:41.767Z</time></trkpt><trkpt lat="45.671555" lon="8.46413"><ele>287.0</ele><time>2026-03-28T10:39:42.767Z</time></trkpt><trkpt lat="45.6713217" lon="8.4641683"><ele>287.5</ele><time>2026-03-28T10:39:43.768Z</time></trkpt><trkpt lat="45.6710867" lon="8.4642067"><ele>288.0</ele><time>2026-03-28T10:39:44.767Z</time></trkpt><trkpt lat="45.670855" lon="8.464245"><ele>288.0</ele><time>2026-03-28T10:39:45.768Z</time></trkpt><trkpt lat="45.6706267" lon="8.4642967"><ele>288.0</ele><time>2026-03-28T10:39:46.767Z</time></trkpt><trkpt lat="45.6704067" lon="8.464365"><ele>287.3333333333333</ele><time>2026-03-28T10:39:47.764Z</time></trkpt><trkpt lat="45.6702" lon="8.4644433"><ele>286.66666666666663</ele><time>2026-03-28T10:39:48.765Z</time></trkpt><trkpt lat="45.67001" lon="8.464525"><ele>286.0</ele><time>2026-03-28T10:39:49.765Z</time></trkpt><trkpt lat="45.6698283" lon="8.46461"><ele>286.3333333333333</ele><time>2026-03-28T10:39:50.764Z</time></trkpt><trkpt lat="45.6696583" lon="8.4647033"><ele>286.6666666666667</ele><time>2026-03-28T10:39:51.765Z</time></trkpt><trkpt lat="45.669495" lon="8.4647983"><ele>287.0</ele><time>2026-03-28T10:39:52.766Z</time></trkpt><trkpt lat="45.6693383" lon="8.4649033"><ele>287.0</ele><time>2026-03-28T10:39:53.764Z</time></trkpt><trkpt lat="45.6691817" lon="8.4650183"><ele>287.0</ele><time>2026-03-28T10:39:54.764Z</time></trkpt><trkpt lat="45.6690183" lon="8.4651417"><ele>287.0</ele><time>2026-03-28T10:39:55.764Z</time></trkpt><trkpt lat="45.668845" lon="8.46528"><ele>287.0</ele><time>2026-03-28T10:39:56.766Z</time></trkpt><trkpt lat="45.6686567" lon="8.465435"><ele>287.0</ele><time>2026-03-28T10:39:57.764Z</time></trkpt><trkpt lat="45.6684533" lon="8.4655933"><ele>287.0</ele><time>2026-03-28T10:39:58.767Z</time></trkpt><trkpt lat="45.6682283" lon="8.4657533"><ele>286.5</ele><time>2026-03-28T10:39:59.769Z</time></trkpt><trkpt lat="45.6679967" lon="8.4659133"><ele>286.0</ele><time>2026-03-28T10:40:00.767Z</time></trkpt><trkpt lat="45.6677583" lon="8.46608"><ele>285.5</ele><time>2026-03-28T10:40:01.769Z</time></trkpt><trkpt lat="45.66751" lon="8.4662517"><ele>285.0</ele><time>2026-03-28T10:40:02.768Z</time></trkpt><trkpt lat="45.6672583" lon="8.46643"><ele>285.0</ele><time>2026-03-28T10:40:03.767Z</time></trkpt><trkpt lat="45.6669983" lon="8.4666083"><ele>285.0</ele><time>2026-03-28T10:40:04.764Z</time></trkpt><trkpt lat="45.6667417" lon="8.4667767"><ele>284.5</ele><time>2026-03-28T10:40:05.767Z</time></trkpt><trkpt lat="45.66649" lon="8.466925"><ele>284.0</ele><time>2026-03-28T10:40:06.768Z</time></trkpt><trkpt lat="45.6662483" lon="8.4670617"><ele>284.0</ele><time>2026-03-28T10:40:07.768Z</time></trkpt><trkpt lat="45.66601" lon="8.46719"><ele>284.0</ele><time>2026-03-28T10:40:08.767Z</time></trkpt><trkpt lat="45.6657733" lon="8.46732"><ele>284.0</ele><time>2026-03-28T10:40:09.767Z</time></trkpt><trkpt lat="45.665535" lon="8.4674583"><ele>284.0</ele><time>2026-03-28T10:40:10.767Z</time></trkpt><trkpt lat="45.6652967" lon="8.4675983"><ele>283.5</ele><time>2026-03-28T10:40:11.767Z</time></trkpt><trkpt lat="45.665055" lon="8.4677333"><ele>283.0</ele><time>2026-03-28T10:40:12.767Z</time></trkpt><trkpt lat="45.6648117" lon="8.46787"><ele>283.0</ele><time>2026-03-28T10:40:13.767Z</time></trkpt><trkpt lat="45.6645667" lon="8.46801"><ele>283.0</ele><time>2026-03-28T10:40:14.767Z</time></trkpt><trkpt lat="45.6643283" lon="8.4681517"><ele>283.0</ele><time>2026-03-28T10:40:15.768Z</time></trkpt><trkpt lat="45.6640867" lon="8.468295"><ele>283.0</ele><time>2026-03-28T10:40:16.767Z</time></trkpt><trkpt lat="45.66384" lon="8.468445"><ele>281.0</ele><time>2026-03-28T10:40:17.764Z</time></trkpt><trkpt lat="45.6635883" lon="8.468595"><ele>279.0</ele><time>2026-03-28T10:40:18.765Z</time></trkpt><trkpt lat="45.6633333" lon="8.46874"><ele>280.0</ele><time>2026-03-28T10:40:19.766Z</time></trkpt><trkpt lat="45.6630817" lon="8.4688733"><ele>281.0</ele><time>2026-03-28T10:40:20.765Z</time></trkpt><trkpt lat="45.66285" lon="8.4689933"><ele>280.33333333333337</ele><time>2026-03-28T10:40:21.764Z</time></trkpt><trkpt lat="45.66265" lon="8.4691"><ele>279.6666666666667</ele><time>2026-03-28T10:40:22.765Z</time></trkpt><trkpt lat="45.66248" lon="8.4691883"><ele>279.0</ele><time>2026-03-28T10:40:23.764Z</time></trkpt><trkpt lat="45.6623383" lon="8.4692617"><ele>279.0</ele><time>2026-03-28T10:40:24.765Z</time></trkpt><trkpt lat="45.6622183" lon="8.4693233"><ele>279.0</ele><time>2026-03-28T10:40:25.765Z</time></trkpt><trkpt lat="45.6621133" lon="8.46938"><ele>279.0</ele><time>2026-03-28T10:40:26.764Z</time></trkpt><trkpt lat="45.662015" lon="8.4694367"><ele>279.0</ele><time>2026-03-28T10:40:27.764Z</time></trkpt><trkpt lat="45.6619167" lon="8.469495"><ele>279.0</ele><time>2026-03-28T10:40:28.768Z</time></trkpt><trkpt lat="45.66182" lon="8.4695483"><ele>279.0</ele><time>2026-03-28T10:40:29.767Z</time></trkpt><trkpt lat="45.6617233" lon="8.469605"><ele>279.0</ele><time>2026-03-28T10:40:30.767Z</time></trkpt><trkpt lat="45.66162" lon="8.4696617"><ele>279.0</ele><time>2026-03-28T10:40:31.768Z</time></trkpt><trkpt lat="45.6615067" lon="8.4697267"><ele>279.0</ele><time>2026-03-28T10:40:32.77Z</time></trkpt><trkpt lat="45.6613767" lon="8.4698033"><ele>278.6666666666667</ele><time>2026-03-28T10:40:33.768Z</time></trkpt><trkpt lat="45.6612317" lon="8.469895"><ele>278.33333333333337</ele><time>2026-03-28T10:40:34.768Z</time></trkpt><trkpt lat="45.6610717" lon="8.4699917"><ele>278.0</ele><time>2026-03-28T10:40:35.767Z</time></trkpt><trkpt lat="45.6608967" lon="8.470095"><ele>278.0</ele><time>2026-03-28T10:40:36.767Z</time></trkpt><trkpt lat="45.66072" lon="8.4701983"><ele>278.0</ele><time>2026-03-28T10:40:37.767Z</time></trkpt><trkpt lat="45.6605567" lon="8.4703"><ele>278.0</ele><time>2026-03-28T10:40:38.767Z</time></trkpt><trkpt lat="45.6603917" lon="8.4704133"><ele>278.33333333333337</ele><time>2026-03-28T10:40:39.767Z</time></trkpt><trkpt lat="45.6602083" lon="8.4705483"><ele>278.6666666666667</ele><time>2026-03-28T10:40:40.767Z</time></trkpt><trkpt lat="45.6600117" lon="8.4706967"><ele>279.0</ele><time>2026-03-28T10:40:41.767Z</time></trkpt><trkpt lat="45.65981" lon="8.470855"><ele>279.0</ele><time>2026-03-28T10:40:42.767Z</time></trkpt><trkpt lat="45.6595917" lon="8.47102"><ele>279.0</ele><time>2026-03-28T10:40:43.771Z</time></trkpt><trkpt lat="45.65937" lon="8.4711817"><ele>279.5</ele><time>2026-03-28T10:40:44.767Z</time></trkpt><trkpt lat="45.659135" lon="8.4713433"><ele>280.0</ele><time>2026-03-28T10:40:45.767Z</time></trkpt><trkpt lat="45.6589033" lon="8.4715167"><ele>280.0</ele><time>2026-03-28T10:40:46.765Z</time></trkpt><trkpt lat="45.6586683" lon="8.4716967"><ele>280.0</ele><time>2026-03-28T10:40:47.765Z</time></trkpt><trkpt lat="45.65843" lon="8.47188"><ele>278.5</ele><time>2026-03-28T10:40:48.765Z</time></trkpt><trkpt lat="45.6581967" lon="8.47206"><ele>277.0</ele><time>2026-03-28T10:40:49.764Z</time></trkpt><trkpt lat="45.6579667" lon="8.4722333"><ele>275.5</ele><time>2026-03-28T10:40:50.765Z</time></trkpt><trkpt lat="45.6577333" lon="8.4723983"><ele>274.0</ele><time>2026-03-28T10:40:51.764Z</time></trkpt><trkpt lat="45.6574967" lon="8.4725467"><ele>274.0</ele><time>2026-03-28T10:40:52.766Z</time></trkpt><trkpt lat="45.657255" lon="8.4726733"><ele>274.0</ele><time>2026-03-28T10:40:53.764Z</time></trkpt><trkpt lat="45.6570083" lon="8.4727733"><ele>274.0</ele><time>2026-03-28T10:40:54.765Z</time></trkpt><trkpt lat="45.6567583" lon="8.4728567"><ele>274.0</ele><time>2026-03-28T10:40:55.766Z</time></trkpt><trkpt lat="45.656505" lon="8.4729283"><ele>274.0</ele><time>2026-03-28T10:40:56.765Z</time></trkpt><trkpt lat="45.65625" lon="8.4730017"><ele>274.0</ele><time>2026-03-28T10:40:57.764Z</time></trkpt><trkpt lat="45.6559967" lon="8.4730733"><ele>274.0</ele><time>2026-03-28T10:40:58.768Z</time></trkpt><trkpt lat="45.6557417" lon="8.4731483"><ele>274.0</ele><time>2026-03-28T10:40:59.767Z</time></trkpt><trkpt lat="45.6554833" lon="8.4732267"><ele>273.5</ele><time>2026-03-28T10:41:00.768Z</time></trkpt><trkpt lat="45.6552267" lon="8.4733117"><ele>273.0</ele><time>2026-03-28T10:41:01.768Z</time></trkpt><trkpt lat="45.6549733" lon="8.4734083"><ele>273.0</ele><time>2026-03-28T10:41:02.767Z</time></trkpt><trkpt lat="45.6547217" lon="8.473525"><ele>273.0</ele><time>2026-03-28T10:41:03.767Z</time></trkpt><trkpt lat="45.6544817" lon="8.4736667"><ele>272.0</ele><time>2026-03-28T10:41:04.767Z</time></trkpt><trkpt lat="45.6542467" lon="8.4738183"><ele>271.0</ele><time>2026-03-28T10:41:05.767Z</time></trkpt><trkpt lat="45.6540133" lon="8.4739733"><ele>271.0</ele><time>2026-03-28T10:41:06.767Z</time></trkpt><trkpt lat="45.6537817" lon="8.47413"><ele>271.0</ele><time>2026-03-28T10:41:07.769Z</time></trkpt><trkpt lat="45.65355" lon="8.4742917"><ele>272.0</ele><time>2026-03-28T10:41:08.764Z</time></trkpt><trkpt lat="45.6533133" lon="8.4744483"><ele>273.0</ele><time>2026-03-28T10:41:09.768Z</time></trkpt><trkpt lat="45.6530767" lon="8.474605"><ele>273.5</ele><time>2026-03-28T10:41:10.767Z</time></trkpt><trkpt lat="45.65284" lon="8.4747633"><ele>274.0</ele><time>2026-03-28T10:41:11.768Z</time></trkpt><trkpt lat="45.6526" lon="8.4749217"><ele>273.0</ele><time>2026-03-28T10:41:12.767Z</time></trkpt><trkpt lat="45.6523633" lon="8.47508"><ele>272.0</ele><time>2026-03-28T10:41:13.769Z</time></trkpt><trkpt lat="45.6521333" lon="8.4752317"><ele>272.0</ele><time>2026-03-28T10:41:14.767Z</time></trkpt><trkpt lat="45.6519167" lon="8.47537"><ele>272.0</ele><time>2026-03-28T10:41:15.768Z</time></trkpt><trkpt lat="45.6517117" lon="8.4755"><ele>272.6666666666667</ele><time>2026-03-28T10:41:16.764Z</time></trkpt><trkpt lat="45.65152" lon="8.47563"><ele>273.3333333333333</ele><time>2026-03-28T10:41:17.765Z</time></trkpt><trkpt lat="45.6513417" lon="8.47575"><ele>274.0</ele><time>2026-03-28T10:41:18.764Z</time></trkpt><trkpt lat="45.651175" lon="8.4758683"><ele>272.66666666666663</ele><time>2026-03-28T10:41:19.768Z</time></trkpt><trkpt lat="45.651025" lon="8.47598"><ele>271.3333333333333</ele><time>2026-03-28T10:41:20.768Z</time></trkpt><trkpt lat="45.6508767" lon="8.4760833"><ele>270.0</ele><time>2026-03-28T10:41:21.765Z</time></trkpt><trkpt lat="45.650725" lon="8.4761867"><ele>270.3333333333333</ele><time>2026-03-28T10:41:22.765Z</time></trkpt><trkpt lat="45.650575" lon="8.4762917"><ele>270.66666666666663</ele><time>2026-03-28T10:41:23.768Z</time></trkpt><trkpt lat="45.6504267" lon="8.4764"><ele>271.0</ele><time>2026-03-28T10:41:24.768Z</time></trkpt><trkpt lat="45.6502783" lon="8.476505"><ele>270.3333333333333</ele><time>2026-03-28T10:41:25.767Z</time></trkpt><trkpt lat="45.6501283" lon="8.4766133"><ele>269.6666666666667</ele><time>2026-03-28T10:41:26.767Z</time></trkpt><trkpt lat="45.6499683" lon="8.4767283"><ele>269.0</ele><time>2026-03-28T10:41:27.767Z</time></trkpt><trkpt lat="45.6498017" lon="8.47685"><ele>269.0</ele><time>2026-03-28T10:41:28.767Z</time></trkpt><trkpt lat="45.6496217" lon="8.476985"><ele>269.0</ele><time>2026-03-28T10:41:29.768Z</time></trkpt><trkpt lat="45.64943" lon="8.477135"><ele>269.0</ele><time>2026-03-28T10:41:30.767Z</time></trkpt><trkpt lat="45.64924" lon="8.4772767"><ele>269.0</ele><time>2026-03-28T10:41:31.768Z</time></trkpt><trkpt lat="45.6490667" lon="8.4774067"><ele>269.0</ele><time>2026-03-28T10:41:32.767Z</time></trkpt><trkpt lat="45.6489083" lon="8.47753"><ele>269.0</ele><time>2026-03-28T10:41:33.768Z</time></trkpt><trkpt lat="45.6487633" lon="8.47764"><ele>269.0</ele><time>2026-03-28T10:41:34.767Z</time></trkpt><trkpt lat="45.6486333" lon="8.4777333"><ele>269.0</ele><time>2026-03-28T10:41:35.767Z</time></trkpt><trkpt lat="45.64852" lon="8.477815"><ele>269.0</ele><time>2026-03-28T10:41:36.767Z</time></trkpt><trkpt lat="45.6484283" lon="8.4778783"><ele>269.0</ele><time>2026-03-28T10:41:37.767Z</time></trkpt><trkpt lat="45.6483567" lon="8.477935"><ele>266.0</ele><time>2026-03-28T10:41:38.767Z</time></trkpt><trkpt lat="45.6483" lon="8.4779883"><ele>267.0</ele><time>2026-03-28T10:41:39.768Z</time></trkpt><trkpt lat="45.6482833" lon="8.4781167"><ele>267.0</ele><time>2026-03-28T10:41:41.767Z</time></trkpt><trkpt lat="45.6483467" lon="8.4781967"><ele>267.0</ele><time>2026-03-28T10:41:43.768Z</time></trkpt><trkpt lat="45.648395" lon="8.478255"><ele>267.0</ele><time>2026-03-28T10:41:45.767Z</time></trkpt><trkpt lat="45.64846" lon="8.47822"><ele>267.0</ele><time>2026-03-28T10:41:47.389Z</time></trkpt><trkpt lat="45.6484133" lon="8.4782917"><ele>267.0</ele><time>2026-03-28T10:41:48.765Z</time></trkpt></trkseg></trk></gpx>